<?xml version="1.0" encoding="UTF-8" standalone="no" ?>
<gpx xmlns="http://www.topografix.com/GPX/1/1" xmlns:xsi="http://www.w3.org/2001/XMLSchema-instance" xsi:schemaLocation="http://www.topografix.com/GPX/1/1 http://www.topografix.com/GPX/1/1/gpx.xsd" version="1.1" creator="VisuGPX - https://www.visugpx.com">
  <metadata>
    <name>Samedi 26 juin</name>
  </metadata>
  <trk>
    <name><![CDATA[Samedi 26 juin_1]]></name>
    <trkseg>
      <trkpt lat="47.75068" lon="7.09338">
        <ele>332.4</ele>
        <time>2021-06-26T06:24:51Z</time>
      </trkpt>
      <trkpt lat="47.75068" lon="7.09338">
        <ele>332.4</ele>
        <time>2021-06-26T06:24:52Z</time>
      </trkpt>
      <trkpt lat="47.75069" lon="7.09324">
        <ele>331.8</ele>
        <time>2021-06-26T06:25:25Z</time>
      </trkpt>
      <trkpt lat="47.75068" lon="7.09316">
        <ele>331.8</ele>
        <time>2021-06-26T06:25:27Z</time>
      </trkpt>
      <trkpt lat="47.75065" lon="7.09309">
        <ele>331.8</ele>
        <time>2021-06-26T06:25:29Z</time>
      </trkpt>
      <trkpt lat="47.7506" lon="7.09308">
        <ele>331.8</ele>
        <time>2021-06-26T06:25:31Z</time>
      </trkpt>
      <trkpt lat="47.7504" lon="7.09314">
        <ele>331.8</ele>
        <time>2021-06-26T06:25:37Z</time>
      </trkpt>
      <trkpt lat="47.75037" lon="7.09316">
        <ele>331.8</ele>
        <time>2021-06-26T06:25:38Z</time>
      </trkpt>
      <trkpt lat="47.75027" lon="7.0932">
        <ele>331.8</ele>
        <time>2021-06-26T06:25:41Z</time>
      </trkpt>
      <trkpt lat="47.75025" lon="7.0932">
        <ele>331.8</ele>
        <time>2021-06-26T06:25:44Z</time>
      </trkpt>
      <trkpt lat="47.75023" lon="7.09322">
        <ele>331.4</ele>
        <time>2021-06-26T06:26:16Z</time>
      </trkpt>
      <trkpt lat="47.75018" lon="7.09323">
        <ele>331.4</ele>
        <time>2021-06-26T06:26:18Z</time>
      </trkpt>
      <trkpt lat="47.75002" lon="7.09323">
        <ele>331.4</ele>
        <time>2021-06-26T06:26:23Z</time>
      </trkpt>
      <trkpt lat="47.74985" lon="7.09319">
        <ele>331.4</ele>
        <time>2021-06-26T06:26:27Z</time>
      </trkpt>
      <trkpt lat="47.74976" lon="7.09315">
        <ele>331.4</ele>
        <time>2021-06-26T06:26:29Z</time>
      </trkpt>
      <trkpt lat="47.74946" lon="7.09293">
        <ele>331.8</ele>
        <time>2021-06-26T06:26:37Z</time>
      </trkpt>
      <trkpt lat="47.74915" lon="7.09256">
        <ele>332.2</ele>
        <time>2021-06-26T06:26:45Z</time>
      </trkpt>
      <trkpt lat="47.74895" lon="7.09224">
        <ele>332.4</ele>
        <time>2021-06-26T06:26:51Z</time>
      </trkpt>
      <trkpt lat="47.74891" lon="7.0922">
        <ele>332.4</ele>
        <time>2021-06-26T06:26:52Z</time>
      </trkpt>
      <trkpt lat="47.74878" lon="7.09211">
        <ele>332.6</ele>
        <time>2021-06-26T06:26:55Z</time>
      </trkpt>
      <trkpt lat="47.74874" lon="7.0921">
        <ele>332.6</ele>
        <time>2021-06-26T06:26:56Z</time>
      </trkpt>
      <trkpt lat="47.74869" lon="7.09209">
        <ele>332.8</ele>
        <time>2021-06-26T06:26:57Z</time>
      </trkpt>
      <trkpt lat="47.74856" lon="7.09207">
        <ele>333.6</ele>
        <time>2021-06-26T06:27:01Z</time>
      </trkpt>
      <trkpt lat="47.74853" lon="7.09207">
        <ele>333.6</ele>
        <time>2021-06-26T06:27:02Z</time>
      </trkpt>
      <trkpt lat="47.74849" lon="7.09204">
        <ele>334</ele>
        <time>2021-06-26T06:27:04Z</time>
      </trkpt>
      <trkpt lat="47.74848" lon="7.092">
        <ele>334</ele>
        <time>2021-06-26T06:27:05Z</time>
      </trkpt>
      <trkpt lat="47.74852" lon="7.09178">
        <ele>334</ele>
        <time>2021-06-26T06:27:09Z</time>
      </trkpt>
      <trkpt lat="47.74854" lon="7.09165">
        <ele>334</ele>
        <time>2021-06-26T06:27:11Z</time>
      </trkpt>
      <trkpt lat="47.74857" lon="7.09152">
        <ele>333.8</ele>
        <time>2021-06-26T06:27:13Z</time>
      </trkpt>
      <trkpt lat="47.74864" lon="7.09131">
        <ele>333.6</ele>
        <time>2021-06-26T06:27:16Z</time>
      </trkpt>
      <trkpt lat="47.74879" lon="7.09083">
        <ele>333.8</ele>
        <time>2021-06-26T06:27:23Z</time>
      </trkpt>
      <trkpt lat="47.74894" lon="7.09019">
        <ele>333.8</ele>
        <time>2021-06-26T06:27:32Z</time>
      </trkpt>
      <trkpt lat="47.74911" lon="7.0894">
        <ele>333.8</ele>
        <time>2021-06-26T06:27:43Z</time>
      </trkpt>
      <trkpt lat="47.74913" lon="7.08933">
        <ele>333.8</ele>
        <time>2021-06-26T06:27:44Z</time>
      </trkpt>
      <trkpt lat="47.74916" lon="7.08918">
        <ele>333.8</ele>
        <time>2021-06-26T06:27:46Z</time>
      </trkpt>
      <trkpt lat="47.74924" lon="7.08881">
        <ele>334</ele>
        <time>2021-06-26T06:27:51Z</time>
      </trkpt>
      <trkpt lat="47.7494" lon="7.0881">
        <ele>334.4</ele>
        <time>2021-06-26T06:28:01Z</time>
      </trkpt>
      <trkpt lat="47.74947" lon="7.08784">
        <ele>334.8</ele>
        <time>2021-06-26T06:28:05Z</time>
      </trkpt>
      <trkpt lat="47.74952" lon="7.08764">
        <ele>334.8</ele>
        <time>2021-06-26T06:28:08Z</time>
      </trkpt>
      <trkpt lat="47.74965" lon="7.08697">
        <ele>335.6</ele>
        <time>2021-06-26T06:28:17Z</time>
      </trkpt>
      <trkpt lat="47.74975" lon="7.08645">
        <ele>335.8</ele>
        <time>2021-06-26T06:28:24Z</time>
      </trkpt>
      <trkpt lat="47.74976" lon="7.08637">
        <ele>335.8</ele>
        <time>2021-06-26T06:28:25Z</time>
      </trkpt>
      <trkpt lat="47.74978" lon="7.0863">
        <ele>335.8</ele>
        <time>2021-06-26T06:28:26Z</time>
      </trkpt>
      <trkpt lat="47.74987" lon="7.08594">
        <ele>336</ele>
        <time>2021-06-26T06:28:31Z</time>
      </trkpt>
      <trkpt lat="47.74991" lon="7.0858">
        <ele>336.2</ele>
        <time>2021-06-26T06:28:33Z</time>
      </trkpt>
      <trkpt lat="47.75002" lon="7.08519">
        <ele>336.6</ele>
        <time>2021-06-26T06:28:41Z</time>
      </trkpt>
      <trkpt lat="47.75003" lon="7.08511">
        <ele>336.8</ele>
        <time>2021-06-26T06:28:42Z</time>
      </trkpt>
      <trkpt lat="47.75012" lon="7.08468">
        <ele>337.4</ele>
        <time>2021-06-26T06:28:48Z</time>
      </trkpt>
      <trkpt lat="47.75017" lon="7.08444">
        <ele>337.4</ele>
        <time>2021-06-26T06:28:52Z</time>
      </trkpt>
      <trkpt lat="47.75018" lon="7.08438">
        <ele>337.6</ele>
        <time>2021-06-26T06:28:53Z</time>
      </trkpt>
      <trkpt lat="47.75028" lon="7.08388">
        <ele>337.6</ele>
        <time>2021-06-26T06:29:00Z</time>
      </trkpt>
      <trkpt lat="47.75031" lon="7.08373">
        <ele>338</ele>
        <time>2021-06-26T06:29:02Z</time>
      </trkpt>
      <trkpt lat="47.75039" lon="7.08336">
        <ele>338.2</ele>
        <time>2021-06-26T06:29:07Z</time>
      </trkpt>
      <trkpt lat="47.7504" lon="7.08329">
        <ele>338.2</ele>
        <time>2021-06-26T06:29:08Z</time>
      </trkpt>
      <trkpt lat="47.75054" lon="7.08262">
        <ele>338.6</ele>
        <time>2021-06-26T06:29:17Z</time>
      </trkpt>
      <trkpt lat="47.75056" lon="7.08254">
        <ele>339</ele>
        <time>2021-06-26T06:29:18Z</time>
      </trkpt>
      <trkpt lat="47.75068" lon="7.08196">
        <ele>339.4</ele>
        <time>2021-06-26T06:29:26Z</time>
      </trkpt>
      <trkpt lat="47.75078" lon="7.08138">
        <ele>339.6</ele>
        <time>2021-06-26T06:29:34Z</time>
      </trkpt>
      <trkpt lat="47.75081" lon="7.08123">
        <ele>339.8</ele>
        <time>2021-06-26T06:29:36Z</time>
      </trkpt>
      <trkpt lat="47.75093" lon="7.08073">
        <ele>340.6</ele>
        <time>2021-06-26T06:29:43Z</time>
      </trkpt>
      <trkpt lat="47.75099" lon="7.08044">
        <ele>341</ele>
        <time>2021-06-26T06:29:47Z</time>
      </trkpt>
      <trkpt lat="47.75105" lon="7.08016">
        <ele>341.4</ele>
        <time>2021-06-26T06:29:51Z</time>
      </trkpt>
      <trkpt lat="47.75106" lon="7.08009">
        <ele>341.4</ele>
        <time>2021-06-26T06:29:52Z</time>
      </trkpt>
      <trkpt lat="47.75116" lon="7.0796">
        <ele>342</ele>
        <time>2021-06-26T06:29:59Z</time>
      </trkpt>
      <trkpt lat="47.75118" lon="7.07945">
        <ele>342</ele>
        <time>2021-06-26T06:30:01Z</time>
      </trkpt>
      <trkpt lat="47.75126" lon="7.07896">
        <ele>343</ele>
        <time>2021-06-26T06:30:08Z</time>
      </trkpt>
      <trkpt lat="47.75134" lon="7.0784">
        <ele>343.6</ele>
        <time>2021-06-26T06:30:16Z</time>
      </trkpt>
      <trkpt lat="47.75141" lon="7.07786">
        <ele>344.2</ele>
        <time>2021-06-26T06:30:23Z</time>
      </trkpt>
      <trkpt lat="47.75143" lon="7.0777">
        <ele>344.2</ele>
        <time>2021-06-26T06:30:25Z</time>
      </trkpt>
      <trkpt lat="47.75152" lon="7.07687">
        <ele>345.2</ele>
        <time>2021-06-26T06:30:36Z</time>
      </trkpt>
      <trkpt lat="47.75153" lon="7.0768">
        <ele>345.2</ele>
        <time>2021-06-26T06:30:37Z</time>
      </trkpt>
      <trkpt lat="47.75155" lon="7.07665">
        <ele>345.4</ele>
        <time>2021-06-26T06:30:39Z</time>
      </trkpt>
      <trkpt lat="47.75161" lon="7.07599">
        <ele>346.2</ele>
        <time>2021-06-26T06:30:48Z</time>
      </trkpt>
      <trkpt lat="47.75161" lon="7.07591">
        <ele>346.2</ele>
        <time>2021-06-26T06:30:49Z</time>
      </trkpt>
      <trkpt lat="47.75165" lon="7.07532">
        <ele>346.8</ele>
        <time>2021-06-26T06:30:57Z</time>
      </trkpt>
      <trkpt lat="47.75167" lon="7.07504">
        <ele>347.2</ele>
        <time>2021-06-26T06:31:01Z</time>
      </trkpt>
      <trkpt lat="47.75168" lon="7.07484">
        <ele>347.4</ele>
        <time>2021-06-26T06:31:04Z</time>
      </trkpt>
      <trkpt lat="47.75169" lon="7.0747">
        <ele>347.6</ele>
        <time>2021-06-26T06:31:06Z</time>
      </trkpt>
      <trkpt lat="47.75171" lon="7.07436">
        <ele>348</ele>
        <time>2021-06-26T06:31:11Z</time>
      </trkpt>
      <trkpt lat="47.75171" lon="7.07422">
        <ele>348.2</ele>
        <time>2021-06-26T06:31:13Z</time>
      </trkpt>
      <trkpt lat="47.75172" lon="7.07401">
        <ele>348.6</ele>
        <time>2021-06-26T06:31:16Z</time>
      </trkpt>
      <trkpt lat="47.75175" lon="7.0738">
        <ele>348.8</ele>
        <time>2021-06-26T06:31:19Z</time>
      </trkpt>
      <trkpt lat="47.75175" lon="7.07373">
        <ele>349</ele>
        <time>2021-06-26T06:31:20Z</time>
      </trkpt>
      <trkpt lat="47.75176" lon="7.0735">
        <ele>349.2</ele>
        <time>2021-06-26T06:31:23Z</time>
      </trkpt>
      <trkpt lat="47.75176" lon="7.07342">
        <ele>349.4</ele>
        <time>2021-06-26T06:31:24Z</time>
      </trkpt>
      <trkpt lat="47.75176" lon="7.07335">
        <ele>349.4</ele>
        <time>2021-06-26T06:31:25Z</time>
      </trkpt>
      <trkpt lat="47.75176" lon="7.07327">
        <ele>349.4</ele>
        <time>2021-06-26T06:31:26Z</time>
      </trkpt>
      <trkpt lat="47.75175" lon="7.07303">
        <ele>349.6</ele>
        <time>2021-06-26T06:31:29Z</time>
      </trkpt>
      <trkpt lat="47.75175" lon="7.07247">
        <ele>350.4</ele>
        <time>2021-06-26T06:31:37Z</time>
      </trkpt>
      <trkpt lat="47.75176" lon="7.07187">
        <ele>351.2</ele>
        <time>2021-06-26T06:31:46Z</time>
      </trkpt>
      <trkpt lat="47.75176" lon="7.07141">
        <ele>351.4</ele>
        <time>2021-06-26T06:31:53Z</time>
      </trkpt>
      <trkpt lat="47.75177" lon="7.07134">
        <ele>351.4</ele>
        <time>2021-06-26T06:31:54Z</time>
      </trkpt>
      <trkpt lat="47.75179" lon="7.07075">
        <ele>351.4</ele>
        <time>2021-06-26T06:32:03Z</time>
      </trkpt>
      <trkpt lat="47.75179" lon="7.07061">
        <ele>351.2</ele>
        <time>2021-06-26T06:32:05Z</time>
      </trkpt>
      <trkpt lat="47.7518" lon="7.07019">
        <ele>351.6</ele>
        <time>2021-06-26T06:32:11Z</time>
      </trkpt>
      <trkpt lat="47.75181" lon="7.07012">
        <ele>351.6</ele>
        <time>2021-06-26T06:32:12Z</time>
      </trkpt>
      <trkpt lat="47.75181" lon="7.06939">
        <ele>352</ele>
        <time>2021-06-26T06:32:22Z</time>
      </trkpt>
      <trkpt lat="47.75182" lon="7.06872">
        <ele>351.6</ele>
        <time>2021-06-26T06:32:31Z</time>
      </trkpt>
      <trkpt lat="47.75183" lon="7.06799">
        <ele>352</ele>
        <time>2021-06-26T06:32:41Z</time>
      </trkpt>
      <trkpt lat="47.75184" lon="7.06728">
        <ele>352.4</ele>
        <time>2021-06-26T06:32:50Z</time>
      </trkpt>
      <trkpt lat="47.75184" lon="7.06704">
        <ele>352.6</ele>
        <time>2021-06-26T06:32:53Z</time>
      </trkpt>
      <trkpt lat="47.75185" lon="7.06654">
        <ele>353</ele>
        <time>2021-06-26T06:32:59Z</time>
      </trkpt>
      <trkpt lat="47.75186" lon="7.06578">
        <ele>353.4</ele>
        <time>2021-06-26T06:33:08Z</time>
      </trkpt>
      <trkpt lat="47.75187" lon="7.06561">
        <ele>353.6</ele>
        <time>2021-06-26T06:33:10Z</time>
      </trkpt>
      <trkpt lat="47.75188" lon="7.06488">
        <ele>354.4</ele>
        <time>2021-06-26T06:33:19Z</time>
      </trkpt>
      <trkpt lat="47.75189" lon="7.06455">
        <ele>354.6</ele>
        <time>2021-06-26T06:33:23Z</time>
      </trkpt>
      <trkpt lat="47.75191" lon="7.06405">
        <ele>355.4</ele>
        <time>2021-06-26T06:33:29Z</time>
      </trkpt>
      <trkpt lat="47.7519" lon="7.06381">
        <ele>355.6</ele>
        <time>2021-06-26T06:33:32Z</time>
      </trkpt>
      <trkpt lat="47.7519" lon="7.06373">
        <ele>355.8</ele>
        <time>2021-06-26T06:33:33Z</time>
      </trkpt>
      <trkpt lat="47.75191" lon="7.06309">
        <ele>356.2</ele>
        <time>2021-06-26T06:33:41Z</time>
      </trkpt>
      <trkpt lat="47.75192" lon="7.06262">
        <ele>356.8</ele>
        <time>2021-06-26T06:33:47Z</time>
      </trkpt>
      <trkpt lat="47.75193" lon="7.06207">
        <ele>357.6</ele>
        <time>2021-06-26T06:33:54Z</time>
      </trkpt>
      <trkpt lat="47.75194" lon="7.0616">
        <ele>358</ele>
        <time>2021-06-26T06:34:00Z</time>
      </trkpt>
      <trkpt lat="47.75195" lon="7.06152">
        <ele>358</ele>
        <time>2021-06-26T06:34:01Z</time>
      </trkpt>
      <trkpt lat="47.75199" lon="7.06099">
        <ele>358.8</ele>
        <time>2021-06-26T06:34:08Z</time>
      </trkpt>
      <trkpt lat="47.75204" lon="7.06061">
        <ele>359</ele>
        <time>2021-06-26T06:34:13Z</time>
      </trkpt>
      <trkpt lat="47.75209" lon="7.06032">
        <ele>359.4</ele>
        <time>2021-06-26T06:34:17Z</time>
      </trkpt>
      <trkpt lat="47.75215" lon="7.05979">
        <ele>359.8</ele>
        <time>2021-06-26T06:34:25Z</time>
      </trkpt>
      <trkpt lat="47.75222" lon="7.05935">
        <ele>359.8</ele>
        <time>2021-06-26T06:34:32Z</time>
      </trkpt>
      <trkpt lat="47.75228" lon="7.05884">
        <ele>359.6</ele>
        <time>2021-06-26T06:34:39Z</time>
      </trkpt>
      <trkpt lat="47.75235" lon="7.05816">
        <ele>360</ele>
        <time>2021-06-26T06:34:49Z</time>
      </trkpt>
      <trkpt lat="47.75236" lon="7.0581">
        <ele>360</ele>
        <time>2021-06-26T06:34:50Z</time>
      </trkpt>
      <trkpt lat="47.75243" lon="7.05768">
        <ele>360.2</ele>
        <time>2021-06-26T06:34:57Z</time>
      </trkpt>
      <trkpt lat="47.75253" lon="7.05714">
        <ele>360.2</ele>
        <time>2021-06-26T06:35:05Z</time>
      </trkpt>
      <trkpt lat="47.75259" lon="7.05672">
        <ele>360.2</ele>
        <time>2021-06-26T06:35:12Z</time>
      </trkpt>
      <trkpt lat="47.75261" lon="7.05666">
        <ele>360.2</ele>
        <time>2021-06-26T06:35:13Z</time>
      </trkpt>
      <trkpt lat="47.75267" lon="7.05638">
        <ele>360.2</ele>
        <time>2021-06-26T06:35:17Z</time>
      </trkpt>
      <trkpt lat="47.75271" lon="7.05581">
        <ele>360</ele>
        <time>2021-06-26T06:35:24Z</time>
      </trkpt>
      <trkpt lat="47.75278" lon="7.05508">
        <ele>360.6</ele>
        <time>2021-06-26T06:35:33Z</time>
      </trkpt>
      <trkpt lat="47.75282" lon="7.05452">
        <ele>361.2</ele>
        <time>2021-06-26T06:35:40Z</time>
      </trkpt>
      <trkpt lat="47.75282" lon="7.05444">
        <ele>361.2</ele>
        <time>2021-06-26T06:35:41Z</time>
      </trkpt>
      <trkpt lat="47.75285" lon="7.05416">
        <ele>361.8</ele>
        <time>2021-06-26T06:35:46Z</time>
      </trkpt>
      <trkpt lat="47.7529" lon="7.05413">
        <ele>362.4</ele>
        <time>2021-06-26T06:35:49Z</time>
      </trkpt>
      <trkpt lat="47.75297" lon="7.05407">
        <ele>362.8</ele>
        <time>2021-06-26T06:35:52Z</time>
      </trkpt>
      <trkpt lat="47.75299" lon="7.05403">
        <ele>363</ele>
        <time>2021-06-26T06:35:53Z</time>
      </trkpt>
      <trkpt lat="47.75297" lon="7.05381">
        <ele>363.4</ele>
        <time>2021-06-26T06:35:57Z</time>
      </trkpt>
      <trkpt lat="47.75297" lon="7.05368">
        <ele>363.8</ele>
        <time>2021-06-26T06:35:59Z</time>
      </trkpt>
      <trkpt lat="47.753" lon="7.05347">
        <ele>363.8</ele>
        <time>2021-06-26T06:36:02Z</time>
      </trkpt>
      <trkpt lat="47.75305" lon="7.05326">
        <ele>364</ele>
        <time>2021-06-26T06:36:05Z</time>
      </trkpt>
      <trkpt lat="47.7531" lon="7.05296">
        <ele>364.2</ele>
        <time>2021-06-26T06:36:09Z</time>
      </trkpt>
      <trkpt lat="47.75312" lon="7.05281">
        <ele>364.6</ele>
        <time>2021-06-26T06:36:11Z</time>
      </trkpt>
      <trkpt lat="47.75319" lon="7.05243">
        <ele>365</ele>
        <time>2021-06-26T06:36:16Z</time>
      </trkpt>
      <trkpt lat="47.75334" lon="7.05172">
        <ele>365.4</ele>
        <time>2021-06-26T06:36:25Z</time>
      </trkpt>
      <trkpt lat="47.75341" lon="7.05142">
        <ele>365.6</ele>
        <time>2021-06-26T06:36:29Z</time>
      </trkpt>
      <trkpt lat="47.7535" lon="7.05107">
        <ele>365.8</ele>
        <time>2021-06-26T06:36:34Z</time>
      </trkpt>
      <trkpt lat="47.7536" lon="7.05079">
        <ele>366.2</ele>
        <time>2021-06-26T06:36:39Z</time>
      </trkpt>
      <trkpt lat="47.75363" lon="7.05075">
        <ele>366.2</ele>
        <time>2021-06-26T06:36:40Z</time>
      </trkpt>
      <trkpt lat="47.75372" lon="7.05058">
        <ele>366.2</ele>
        <time>2021-06-26T06:36:44Z</time>
      </trkpt>
      <trkpt lat="47.75373" lon="7.05048">
        <ele>366.2</ele>
        <time>2021-06-26T06:36:46Z</time>
      </trkpt>
      <trkpt lat="47.75371" lon="7.05044">
        <ele>366.2</ele>
        <time>2021-06-26T06:36:47Z</time>
      </trkpt>
      <trkpt lat="47.75366" lon="7.05031">
        <ele>366</ele>
        <time>2021-06-26T06:36:51Z</time>
      </trkpt>
      <trkpt lat="47.75367" lon="7.05028">
        <ele>366</ele>
        <time>2021-06-26T06:36:52Z</time>
      </trkpt>
      <trkpt lat="47.75374" lon="7.0501">
        <ele>365.8</ele>
        <time>2021-06-26T06:36:56Z</time>
      </trkpt>
      <trkpt lat="47.75388" lon="7.04971">
        <ele>365.2</ele>
        <time>2021-06-26T06:37:02Z</time>
      </trkpt>
      <trkpt lat="47.75407" lon="7.0492">
        <ele>365</ele>
        <time>2021-06-26T06:37:09Z</time>
      </trkpt>
      <trkpt lat="47.75432" lon="7.04855">
        <ele>364.8</ele>
        <time>2021-06-26T06:37:18Z</time>
      </trkpt>
      <trkpt lat="47.75452" lon="7.04804">
        <ele>364.4</ele>
        <time>2021-06-26T06:37:25Z</time>
      </trkpt>
      <trkpt lat="47.75455" lon="7.04797">
        <ele>364.4</ele>
        <time>2021-06-26T06:37:26Z</time>
      </trkpt>
      <trkpt lat="47.75474" lon="7.04749">
        <ele>364.4</ele>
        <time>2021-06-26T06:37:33Z</time>
      </trkpt>
      <trkpt lat="47.75492" lon="7.04703">
        <ele>364</ele>
        <time>2021-06-26T06:37:40Z</time>
      </trkpt>
      <trkpt lat="47.75495" lon="7.04696">
        <ele>364</ele>
        <time>2021-06-26T06:37:41Z</time>
      </trkpt>
      <trkpt lat="47.75514" lon="7.04649">
        <ele>364.2</ele>
        <time>2021-06-26T06:37:49Z</time>
      </trkpt>
      <trkpt lat="47.75521" lon="7.04633">
        <ele>364.4</ele>
        <time>2021-06-26T06:37:54Z</time>
      </trkpt>
      <trkpt lat="47.75521" lon="7.04633">
        <ele>364.4</ele>
        <time>2021-06-26T06:37:56Z</time>
      </trkpt>
      <trkpt lat="47.75523" lon="7.04626">
        <ele>364.2</ele>
        <time>2021-06-26T06:39:13Z</time>
      </trkpt>
      <trkpt lat="47.75525" lon="7.04621">
        <ele>364.2</ele>
        <time>2021-06-26T06:39:15Z</time>
      </trkpt>
      <trkpt lat="47.75536" lon="7.04591">
        <ele>364.2</ele>
        <time>2021-06-26T06:39:21Z</time>
      </trkpt>
      <trkpt lat="47.7555" lon="7.04552">
        <ele>364.2</ele>
        <time>2021-06-26T06:39:27Z</time>
      </trkpt>
      <trkpt lat="47.75571" lon="7.04494">
        <ele>364.2</ele>
        <time>2021-06-26T06:39:35Z</time>
      </trkpt>
      <trkpt lat="47.75597" lon="7.04429">
        <ele>364.2</ele>
        <time>2021-06-26T06:39:44Z</time>
      </trkpt>
      <trkpt lat="47.75621" lon="7.04366">
        <ele>364.2</ele>
        <time>2021-06-26T06:39:53Z</time>
      </trkpt>
      <trkpt lat="47.75635" lon="7.04329">
        <ele>364.2</ele>
        <time>2021-06-26T06:39:59Z</time>
      </trkpt>
      <trkpt lat="47.7566" lon="7.04265">
        <ele>364</ele>
        <time>2021-06-26T06:40:08Z</time>
      </trkpt>
      <trkpt lat="47.75679" lon="7.04215">
        <ele>364</ele>
        <time>2021-06-26T06:40:15Z</time>
      </trkpt>
      <trkpt lat="47.75681" lon="7.04208">
        <ele>364</ele>
        <time>2021-06-26T06:40:16Z</time>
      </trkpt>
      <trkpt lat="47.75702" lon="7.04151">
        <ele>364.2</ele>
        <time>2021-06-26T06:40:24Z</time>
      </trkpt>
      <trkpt lat="47.75719" lon="7.0409">
        <ele>364.2</ele>
        <time>2021-06-26T06:40:32Z</time>
      </trkpt>
      <trkpt lat="47.75735" lon="7.04028">
        <ele>364.6</ele>
        <time>2021-06-26T06:40:40Z</time>
      </trkpt>
      <trkpt lat="47.75745" lon="7.03986">
        <ele>364.8</ele>
        <time>2021-06-26T06:40:46Z</time>
      </trkpt>
      <trkpt lat="47.75756" lon="7.0395">
        <ele>365.2</ele>
        <time>2021-06-26T06:40:52Z</time>
      </trkpt>
      <trkpt lat="47.7577" lon="7.03891">
        <ele>365.6</ele>
        <time>2021-06-26T06:41:01Z</time>
      </trkpt>
      <trkpt lat="47.75772" lon="7.03867">
        <ele>365.4</ele>
        <time>2021-06-26T06:41:04Z</time>
      </trkpt>
      <trkpt lat="47.75771" lon="7.03843">
        <ele>365.4</ele>
        <time>2021-06-26T06:41:07Z</time>
      </trkpt>
      <trkpt lat="47.75766" lon="7.03784">
        <ele>365.4</ele>
        <time>2021-06-26T06:41:14Z</time>
      </trkpt>
      <trkpt lat="47.75757" lon="7.0371">
        <ele>365.2</ele>
        <time>2021-06-26T06:41:23Z</time>
      </trkpt>
      <trkpt lat="47.75746" lon="7.03636">
        <ele>365.4</ele>
        <time>2021-06-26T06:41:32Z</time>
      </trkpt>
      <trkpt lat="47.75737" lon="7.03572">
        <ele>365.8</ele>
        <time>2021-06-26T06:41:40Z</time>
      </trkpt>
      <trkpt lat="47.75725" lon="7.0349">
        <ele>366.2</ele>
        <time>2021-06-26T06:41:50Z</time>
      </trkpt>
      <trkpt lat="47.75722" lon="7.03458">
        <ele>366.8</ele>
        <time>2021-06-26T06:41:54Z</time>
      </trkpt>
      <trkpt lat="47.7572" lon="7.03417">
        <ele>367.2</ele>
        <time>2021-06-26T06:41:59Z</time>
      </trkpt>
      <trkpt lat="47.75723" lon="7.03385">
        <ele>367.4</ele>
        <time>2021-06-26T06:42:03Z</time>
      </trkpt>
      <trkpt lat="47.75725" lon="7.03369">
        <ele>367.4</ele>
        <time>2021-06-26T06:42:05Z</time>
      </trkpt>
      <trkpt lat="47.75729" lon="7.03337">
        <ele>367.8</ele>
        <time>2021-06-26T06:42:09Z</time>
      </trkpt>
      <trkpt lat="47.75732" lon="7.03305">
        <ele>368</ele>
        <time>2021-06-26T06:42:13Z</time>
      </trkpt>
      <trkpt lat="47.75743" lon="7.03225">
        <ele>368.6</ele>
        <time>2021-06-26T06:42:23Z</time>
      </trkpt>
      <trkpt lat="47.7575" lon="7.03185">
        <ele>368.6</ele>
        <time>2021-06-26T06:42:28Z</time>
      </trkpt>
      <trkpt lat="47.75754" lon="7.0317">
        <ele>368.8</ele>
        <time>2021-06-26T06:42:30Z</time>
      </trkpt>
      <trkpt lat="47.75756" lon="7.03162">
        <ele>368.8</ele>
        <time>2021-06-26T06:42:31Z</time>
      </trkpt>
      <trkpt lat="47.75775" lon="7.03106">
        <ele>369.4</ele>
        <time>2021-06-26T06:42:39Z</time>
      </trkpt>
      <trkpt lat="47.75793" lon="7.0305">
        <ele>369.8</ele>
        <time>2021-06-26T06:42:47Z</time>
      </trkpt>
      <trkpt lat="47.75796" lon="7.03042">
        <ele>369.8</ele>
        <time>2021-06-26T06:42:49Z</time>
      </trkpt>
      <trkpt lat="47.75797" lon="7.0304">
        <ele>370</ele>
        <time>2021-06-26T06:42:50Z</time>
      </trkpt>
      <trkpt lat="47.75799" lon="7.03037">
        <ele>370.2</ele>
        <time>2021-06-26T06:42:54Z</time>
      </trkpt>
      <trkpt lat="47.75799" lon="7.03037">
        <ele>370.2</ele>
        <time>2021-06-26T06:42:55Z</time>
      </trkpt>
      <trkpt lat="47.75801" lon="7.03035">
        <ele>370.2</ele>
        <time>2021-06-26T06:43:16Z</time>
      </trkpt>
      <trkpt lat="47.75804" lon="7.0303">
        <ele>370.2</ele>
        <time>2021-06-26T06:43:18Z</time>
      </trkpt>
      <trkpt lat="47.7581" lon="7.03009">
        <ele>370.4</ele>
        <time>2021-06-26T06:43:22Z</time>
      </trkpt>
      <trkpt lat="47.75817" lon="7.02967">
        <ele>370.6</ele>
        <time>2021-06-26T06:43:28Z</time>
      </trkpt>
      <trkpt lat="47.75826" lon="7.02911">
        <ele>370.8</ele>
        <time>2021-06-26T06:43:35Z</time>
      </trkpt>
      <trkpt lat="47.75833" lon="7.02878">
        <ele>371.2</ele>
        <time>2021-06-26T06:43:39Z</time>
      </trkpt>
      <trkpt lat="47.75837" lon="7.02846">
        <ele>371.6</ele>
        <time>2021-06-26T06:43:43Z</time>
      </trkpt>
      <trkpt lat="47.75843" lon="7.02791">
        <ele>371.6</ele>
        <time>2021-06-26T06:43:50Z</time>
      </trkpt>
      <trkpt lat="47.75842" lon="7.02767">
        <ele>372</ele>
        <time>2021-06-26T06:43:53Z</time>
      </trkpt>
      <trkpt lat="47.75839" lon="7.02727">
        <ele>372.4</ele>
        <time>2021-06-26T06:43:58Z</time>
      </trkpt>
      <trkpt lat="47.75826" lon="7.0267">
        <ele>372.6</ele>
        <time>2021-06-26T06:44:05Z</time>
      </trkpt>
      <trkpt lat="47.75809" lon="7.02597">
        <ele>373</ele>
        <time>2021-06-26T06:44:14Z</time>
      </trkpt>
      <trkpt lat="47.75807" lon="7.02589">
        <ele>373</ele>
        <time>2021-06-26T06:44:15Z</time>
      </trkpt>
      <trkpt lat="47.75793" lon="7.02532">
        <ele>373.2</ele>
        <time>2021-06-26T06:44:22Z</time>
      </trkpt>
      <trkpt lat="47.7578" lon="7.02476">
        <ele>373.2</ele>
        <time>2021-06-26T06:44:29Z</time>
      </trkpt>
      <trkpt lat="47.7577" lon="7.02429">
        <ele>373.4</ele>
        <time>2021-06-26T06:44:35Z</time>
      </trkpt>
      <trkpt lat="47.75765" lon="7.02388">
        <ele>373.8</ele>
        <time>2021-06-26T06:44:40Z</time>
      </trkpt>
      <trkpt lat="47.75765" lon="7.02372">
        <ele>373.8</ele>
        <time>2021-06-26T06:44:42Z</time>
      </trkpt>
      <trkpt lat="47.75765" lon="7.02365">
        <ele>374</ele>
        <time>2021-06-26T06:44:43Z</time>
      </trkpt>
      <trkpt lat="47.75765" lon="7.02358">
        <ele>374.2</ele>
        <time>2021-06-26T06:44:44Z</time>
      </trkpt>
      <trkpt lat="47.75768" lon="7.02329">
        <ele>374.4</ele>
        <time>2021-06-26T06:44:48Z</time>
      </trkpt>
      <trkpt lat="47.75774" lon="7.02292">
        <ele>375.2</ele>
        <time>2021-06-26T06:44:53Z</time>
      </trkpt>
      <trkpt lat="47.75778" lon="7.02267">
        <ele>375.6</ele>
        <time>2021-06-26T06:44:57Z</time>
      </trkpt>
      <trkpt lat="47.75782" lon="7.02234">
        <ele>376</ele>
        <time>2021-06-26T06:45:03Z</time>
      </trkpt>
      <trkpt lat="47.75786" lon="7.02202">
        <ele>376</ele>
        <time>2021-06-26T06:45:08Z</time>
      </trkpt>
      <trkpt lat="47.75787" lon="7.02195">
        <ele>376</ele>
        <time>2021-06-26T06:45:09Z</time>
      </trkpt>
      <trkpt lat="47.7579" lon="7.02149">
        <ele>376.2</ele>
        <time>2021-06-26T06:45:15Z</time>
      </trkpt>
      <trkpt lat="47.75787" lon="7.02084">
        <ele>376.4</ele>
        <time>2021-06-26T06:45:23Z</time>
      </trkpt>
      <trkpt lat="47.75777" lon="7.02034">
        <ele>376.6</ele>
        <time>2021-06-26T06:45:30Z</time>
      </trkpt>
      <trkpt lat="47.75762" lon="7.01991">
        <ele>376.6</ele>
        <time>2021-06-26T06:45:37Z</time>
      </trkpt>
      <trkpt lat="47.7574" lon="7.01936">
        <ele>376.6</ele>
        <time>2021-06-26T06:45:45Z</time>
      </trkpt>
      <trkpt lat="47.75709" lon="7.01861">
        <ele>376.4</ele>
        <time>2021-06-26T06:45:56Z</time>
      </trkpt>
      <trkpt lat="47.75696" lon="7.01823">
        <ele>376.6</ele>
        <time>2021-06-26T06:46:02Z</time>
      </trkpt>
      <trkpt lat="47.75694" lon="7.01816">
        <ele>376.8</ele>
        <time>2021-06-26T06:46:03Z</time>
      </trkpt>
      <trkpt lat="47.75688" lon="7.01807">
        <ele>377</ele>
        <time>2021-06-26T06:46:05Z</time>
      </trkpt>
      <trkpt lat="47.75681" lon="7.01809">
        <ele>377.2</ele>
        <time>2021-06-26T06:46:07Z</time>
      </trkpt>
      <trkpt lat="47.75677" lon="7.01813">
        <ele>377.4</ele>
        <time>2021-06-26T06:46:08Z</time>
      </trkpt>
      <trkpt lat="47.75674" lon="7.01817">
        <ele>377.4</ele>
        <time>2021-06-26T06:46:09Z</time>
      </trkpt>
      <trkpt lat="47.75666" lon="7.01824">
        <ele>377.6</ele>
        <time>2021-06-26T06:46:11Z</time>
      </trkpt>
      <trkpt lat="47.75628" lon="7.01838">
        <ele>378.2</ele>
        <time>2021-06-26T06:46:20Z</time>
      </trkpt>
      <trkpt lat="47.7562" lon="7.01839">
        <ele>378.4</ele>
        <time>2021-06-26T06:46:25Z</time>
      </trkpt>
      <trkpt lat="47.7562" lon="7.01839">
        <ele>378.4</ele>
        <time>2021-06-26T06:46:26Z</time>
      </trkpt>
      <trkpt lat="47.75617" lon="7.01843">
        <ele>378</ele>
        <time>2021-06-26T06:54:25Z</time>
      </trkpt>
      <trkpt lat="47.75613" lon="7.01845">
        <ele>378</ele>
        <time>2021-06-26T06:54:27Z</time>
      </trkpt>
      <trkpt lat="47.75596" lon="7.01852">
        <ele>378</ele>
        <time>2021-06-26T06:54:32Z</time>
      </trkpt>
      <trkpt lat="47.75577" lon="7.01857">
        <ele>377.8</ele>
        <time>2021-06-26T06:54:36Z</time>
      </trkpt>
      <trkpt lat="47.75572" lon="7.01858">
        <ele>377.8</ele>
        <time>2021-06-26T06:54:37Z</time>
      </trkpt>
      <trkpt lat="47.75542" lon="7.01856">
        <ele>378.2</ele>
        <time>2021-06-26T06:54:43Z</time>
      </trkpt>
      <trkpt lat="47.75529" lon="7.0185">
        <ele>378.4</ele>
        <time>2021-06-26T06:54:46Z</time>
      </trkpt>
      <trkpt lat="47.75518" lon="7.01843">
        <ele>379.2</ele>
        <time>2021-06-26T06:54:49Z</time>
      </trkpt>
      <trkpt lat="47.75512" lon="7.01838">
        <ele>379.6</ele>
        <time>2021-06-26T06:54:51Z</time>
      </trkpt>
      <trkpt lat="47.75496" lon="7.01825">
        <ele>380.8</ele>
        <time>2021-06-26T06:54:56Z</time>
      </trkpt>
      <trkpt lat="47.75482" lon="7.01812">
        <ele>381.8</ele>
        <time>2021-06-26T06:55:01Z</time>
      </trkpt>
      <trkpt lat="47.75479" lon="7.01809">
        <ele>382.2</ele>
        <time>2021-06-26T06:55:02Z</time>
      </trkpt>
      <trkpt lat="47.75467" lon="7.01798">
        <ele>382.8</ele>
        <time>2021-06-26T06:55:06Z</time>
      </trkpt>
      <trkpt lat="47.75456" lon="7.01788">
        <ele>383.6</ele>
        <time>2021-06-26T06:55:10Z</time>
      </trkpt>
      <trkpt lat="47.75451" lon="7.01783">
        <ele>383.8</ele>
        <time>2021-06-26T06:55:12Z</time>
      </trkpt>
      <trkpt lat="47.75434" lon="7.01767">
        <ele>385</ele>
        <time>2021-06-26T06:55:18Z</time>
      </trkpt>
      <trkpt lat="47.75418" lon="7.01753">
        <ele>386</ele>
        <time>2021-06-26T06:55:24Z</time>
      </trkpt>
      <trkpt lat="47.75404" lon="7.01741">
        <ele>387</ele>
        <time>2021-06-26T06:55:29Z</time>
      </trkpt>
      <trkpt lat="47.75394" lon="7.01735">
        <ele>387.6</ele>
        <time>2021-06-26T06:55:33Z</time>
      </trkpt>
      <trkpt lat="47.75387" lon="7.01732">
        <ele>388.2</ele>
        <time>2021-06-26T06:55:35Z</time>
      </trkpt>
      <trkpt lat="47.75372" lon="7.01734">
        <ele>389</ele>
        <time>2021-06-26T06:55:40Z</time>
      </trkpt>
      <trkpt lat="47.75366" lon="7.01736">
        <ele>389.6</ele>
        <time>2021-06-26T06:55:42Z</time>
      </trkpt>
      <trkpt lat="47.75352" lon="7.01746">
        <ele>390.8</ele>
        <time>2021-06-26T06:55:47Z</time>
      </trkpt>
      <trkpt lat="47.7535" lon="7.01748">
        <ele>391</ele>
        <time>2021-06-26T06:55:48Z</time>
      </trkpt>
      <trkpt lat="47.75342" lon="7.01755">
        <ele>391.8</ele>
        <time>2021-06-26T06:55:51Z</time>
      </trkpt>
      <trkpt lat="47.75334" lon="7.01762">
        <ele>392.4</ele>
        <time>2021-06-26T06:55:54Z</time>
      </trkpt>
      <trkpt lat="47.75325" lon="7.0177">
        <ele>393.2</ele>
        <time>2021-06-26T06:55:58Z</time>
      </trkpt>
      <trkpt lat="47.75318" lon="7.01776">
        <ele>393.6</ele>
        <time>2021-06-26T06:56:01Z</time>
      </trkpt>
      <trkpt lat="47.75308" lon="7.01785">
        <ele>394.2</ele>
        <time>2021-06-26T06:56:05Z</time>
      </trkpt>
      <trkpt lat="47.75301" lon="7.0179">
        <ele>394.8</ele>
        <time>2021-06-26T06:56:08Z</time>
      </trkpt>
      <trkpt lat="47.75291" lon="7.01798">
        <ele>395.4</ele>
        <time>2021-06-26T06:56:12Z</time>
      </trkpt>
      <trkpt lat="47.75276" lon="7.01813">
        <ele>396.4</ele>
        <time>2021-06-26T06:56:18Z</time>
      </trkpt>
      <trkpt lat="47.7526" lon="7.01824">
        <ele>397.6</ele>
        <time>2021-06-26T06:56:24Z</time>
      </trkpt>
      <trkpt lat="47.75254" lon="7.01829">
        <ele>398</ele>
        <time>2021-06-26T06:56:26Z</time>
      </trkpt>
      <trkpt lat="47.75242" lon="7.01837">
        <ele>398.8</ele>
        <time>2021-06-26T06:56:30Z</time>
      </trkpt>
      <trkpt lat="47.75234" lon="7.01844">
        <ele>399.4</ele>
        <time>2021-06-26T06:56:33Z</time>
      </trkpt>
      <trkpt lat="47.75226" lon="7.01848">
        <ele>400</ele>
        <time>2021-06-26T06:56:36Z</time>
      </trkpt>
      <trkpt lat="47.75218" lon="7.01847">
        <ele>400.8</ele>
        <time>2021-06-26T06:56:39Z</time>
      </trkpt>
      <trkpt lat="47.75215" lon="7.01846">
        <ele>401.2</ele>
        <time>2021-06-26T06:56:40Z</time>
      </trkpt>
      <trkpt lat="47.75205" lon="7.0183">
        <ele>402.2</ele>
        <time>2021-06-26T06:56:45Z</time>
      </trkpt>
      <trkpt lat="47.75205" lon="7.01806">
        <ele>403</ele>
        <time>2021-06-26T06:56:50Z</time>
      </trkpt>
      <trkpt lat="47.75208" lon="7.01796">
        <ele>403</ele>
        <time>2021-06-26T06:56:52Z</time>
      </trkpt>
      <trkpt lat="47.75216" lon="7.01773">
        <ele>404</ele>
        <time>2021-06-26T06:56:57Z</time>
      </trkpt>
      <trkpt lat="47.75226" lon="7.01743">
        <ele>405.2</ele>
        <time>2021-06-26T06:57:04Z</time>
      </trkpt>
      <trkpt lat="47.75236" lon="7.01709">
        <ele>406.4</ele>
        <time>2021-06-26T06:57:11Z</time>
      </trkpt>
      <trkpt lat="47.75238" lon="7.01704">
        <ele>406.6</ele>
        <time>2021-06-26T06:57:12Z</time>
      </trkpt>
      <trkpt lat="47.75241" lon="7.01679">
        <ele>407.4</ele>
        <time>2021-06-26T06:57:17Z</time>
      </trkpt>
      <trkpt lat="47.75241" lon="7.01664">
        <ele>408</ele>
        <time>2021-06-26T06:57:20Z</time>
      </trkpt>
      <trkpt lat="47.75239" lon="7.01649">
        <ele>408.6</ele>
        <time>2021-06-26T06:57:23Z</time>
      </trkpt>
      <trkpt lat="47.75238" lon="7.01639">
        <ele>408.8</ele>
        <time>2021-06-26T06:57:25Z</time>
      </trkpt>
      <trkpt lat="47.75235" lon="7.01623">
        <ele>409.2</ele>
        <time>2021-06-26T06:57:28Z</time>
      </trkpt>
      <trkpt lat="47.75236" lon="7.01603">
        <ele>409.8</ele>
        <time>2021-06-26T06:57:32Z</time>
      </trkpt>
      <trkpt lat="47.75239" lon="7.01583">
        <ele>410.6</ele>
        <time>2021-06-26T06:57:36Z</time>
      </trkpt>
      <trkpt lat="47.75242" lon="7.01574">
        <ele>410.8</ele>
        <time>2021-06-26T06:57:38Z</time>
      </trkpt>
      <trkpt lat="47.75254" lon="7.01548">
        <ele>411.8</ele>
        <time>2021-06-26T06:57:44Z</time>
      </trkpt>
      <trkpt lat="47.75256" lon="7.01544">
        <ele>412</ele>
        <time>2021-06-26T06:57:45Z</time>
      </trkpt>
      <trkpt lat="47.75264" lon="7.01523">
        <ele>413.2</ele>
        <time>2021-06-26T06:57:50Z</time>
      </trkpt>
      <trkpt lat="47.75265" lon="7.01515">
        <ele>413.6</ele>
        <time>2021-06-26T06:57:52Z</time>
      </trkpt>
      <trkpt lat="47.75264" lon="7.01499">
        <ele>414.2</ele>
        <time>2021-06-26T06:57:56Z</time>
      </trkpt>
      <trkpt lat="47.75262" lon="7.01494">
        <ele>414.6</ele>
        <time>2021-06-26T06:57:57Z</time>
      </trkpt>
      <trkpt lat="47.75256" lon="7.01471">
        <ele>415.2</ele>
        <time>2021-06-26T06:58:03Z</time>
      </trkpt>
      <trkpt lat="47.75255" lon="7.01467">
        <ele>415.4</ele>
        <time>2021-06-26T06:58:04Z</time>
      </trkpt>
      <trkpt lat="47.7525" lon="7.01448">
        <ele>415.8</ele>
        <time>2021-06-26T06:58:08Z</time>
      </trkpt>
      <trkpt lat="47.75247" lon="7.01439">
        <ele>416.2</ele>
        <time>2021-06-26T06:58:10Z</time>
      </trkpt>
      <trkpt lat="47.75245" lon="7.01435">
        <ele>416.4</ele>
        <time>2021-06-26T06:58:11Z</time>
      </trkpt>
      <trkpt lat="47.75238" lon="7.01409">
        <ele>417.4</ele>
        <time>2021-06-26T06:58:17Z</time>
      </trkpt>
      <trkpt lat="47.7523" lon="7.01385">
        <ele>418.4</ele>
        <time>2021-06-26T06:58:22Z</time>
      </trkpt>
      <trkpt lat="47.75228" lon="7.01381">
        <ele>418.6</ele>
        <time>2021-06-26T06:58:23Z</time>
      </trkpt>
      <trkpt lat="47.75223" lon="7.0135">
        <ele>419.6</ele>
        <time>2021-06-26T06:58:29Z</time>
      </trkpt>
      <trkpt lat="47.75222" lon="7.01345">
        <ele>419.8</ele>
        <time>2021-06-26T06:58:30Z</time>
      </trkpt>
      <trkpt lat="47.75217" lon="7.01321">
        <ele>420.8</ele>
        <time>2021-06-26T06:58:35Z</time>
      </trkpt>
      <trkpt lat="47.75217" lon="7.01316">
        <ele>420.8</ele>
        <time>2021-06-26T06:58:36Z</time>
      </trkpt>
      <trkpt lat="47.75213" lon="7.01296">
        <ele>421.8</ele>
        <time>2021-06-26T06:58:40Z</time>
      </trkpt>
      <trkpt lat="47.75212" lon="7.0129">
        <ele>422</ele>
        <time>2021-06-26T06:58:41Z</time>
      </trkpt>
      <trkpt lat="47.75208" lon="7.01252">
        <ele>422.8</ele>
        <time>2021-06-26T06:58:47Z</time>
      </trkpt>
      <trkpt lat="47.75207" lon="7.01239">
        <ele>423</ele>
        <time>2021-06-26T06:58:49Z</time>
      </trkpt>
      <trkpt lat="47.75207" lon="7.01232">
        <ele>423.2</ele>
        <time>2021-06-26T06:58:50Z</time>
      </trkpt>
      <trkpt lat="47.75204" lon="7.01203">
        <ele>423.4</ele>
        <time>2021-06-26T06:58:54Z</time>
      </trkpt>
      <trkpt lat="47.75202" lon="7.01189">
        <ele>423.6</ele>
        <time>2021-06-26T06:58:56Z</time>
      </trkpt>
      <trkpt lat="47.75198" lon="7.0116">
        <ele>423.6</ele>
        <time>2021-06-26T06:59:00Z</time>
      </trkpt>
      <trkpt lat="47.75195" lon="7.01145">
        <ele>423.8</ele>
        <time>2021-06-26T06:59:02Z</time>
      </trkpt>
      <trkpt lat="47.7519" lon="7.01114">
        <ele>424</ele>
        <time>2021-06-26T06:59:06Z</time>
      </trkpt>
      <trkpt lat="47.75179" lon="7.01054">
        <ele>423.8</ele>
        <time>2021-06-26T06:59:14Z</time>
      </trkpt>
      <trkpt lat="47.75166" lon="7.00978">
        <ele>423.8</ele>
        <time>2021-06-26T06:59:24Z</time>
      </trkpt>
      <trkpt lat="47.75157" lon="7.00926">
        <ele>424.2</ele>
        <time>2021-06-26T06:59:31Z</time>
      </trkpt>
      <trkpt lat="47.75146" lon="7.00857">
        <ele>424.2</ele>
        <time>2021-06-26T06:59:40Z</time>
      </trkpt>
      <trkpt lat="47.75141" lon="7.00826">
        <ele>424.2</ele>
        <time>2021-06-26T06:59:44Z</time>
      </trkpt>
      <trkpt lat="47.75133" lon="7.00779">
        <ele>424</ele>
        <time>2021-06-26T06:59:50Z</time>
      </trkpt>
      <trkpt lat="47.75122" lon="7.00723">
        <ele>423.8</ele>
        <time>2021-06-26T06:59:57Z</time>
      </trkpt>
      <trkpt lat="47.7511" lon="7.00652">
        <ele>423.6</ele>
        <time>2021-06-26T07:00:06Z</time>
      </trkpt>
      <trkpt lat="47.75098" lon="7.00581">
        <ele>423.2</ele>
        <time>2021-06-26T07:00:15Z</time>
      </trkpt>
      <trkpt lat="47.75086" lon="7.00518">
        <ele>423.2</ele>
        <time>2021-06-26T07:00:23Z</time>
      </trkpt>
      <trkpt lat="47.75076" lon="7.00464">
        <ele>423.8</ele>
        <time>2021-06-26T07:00:30Z</time>
      </trkpt>
      <trkpt lat="47.75074" lon="7.00456">
        <ele>423.8</ele>
        <time>2021-06-26T07:00:31Z</time>
      </trkpt>
      <trkpt lat="47.75062" lon="7.00385">
        <ele>424.4</ele>
        <time>2021-06-26T07:00:40Z</time>
      </trkpt>
      <trkpt lat="47.75053" lon="7.00339">
        <ele>424.8</ele>
        <time>2021-06-26T07:00:46Z</time>
      </trkpt>
      <trkpt lat="47.75049" lon="7.00325">
        <ele>425</ele>
        <time>2021-06-26T07:00:48Z</time>
      </trkpt>
      <trkpt lat="47.75041" lon="7.00284">
        <ele>425.8</ele>
        <time>2021-06-26T07:00:54Z</time>
      </trkpt>
      <trkpt lat="47.75039" lon="7.00277">
        <ele>426</ele>
        <time>2021-06-26T07:00:55Z</time>
      </trkpt>
      <trkpt lat="47.75033" lon="7.00247">
        <ele>426.8</ele>
        <time>2021-06-26T07:01:00Z</time>
      </trkpt>
      <trkpt lat="47.75031" lon="7.00234">
        <ele>427.2</ele>
        <time>2021-06-26T07:01:02Z</time>
      </trkpt>
      <trkpt lat="47.75028" lon="7.00216">
        <ele>428</ele>
        <time>2021-06-26T07:01:05Z</time>
      </trkpt>
      <trkpt lat="47.75023" lon="7.0019">
        <ele>429.2</ele>
        <time>2021-06-26T07:01:10Z</time>
      </trkpt>
      <trkpt lat="47.75022" lon="7.00179">
        <ele>429.6</ele>
        <time>2021-06-26T07:01:12Z</time>
      </trkpt>
      <trkpt lat="47.75025" lon="7.00158">
        <ele>430.2</ele>
        <time>2021-06-26T07:01:16Z</time>
      </trkpt>
      <trkpt lat="47.75028" lon="7.00146">
        <ele>431.2</ele>
        <time>2021-06-26T07:01:19Z</time>
      </trkpt>
      <trkpt lat="47.75028" lon="7.00143">
        <ele>431.4</ele>
        <time>2021-06-26T07:01:20Z</time>
      </trkpt>
      <trkpt lat="47.75027" lon="7.00128">
        <ele>432</ele>
        <time>2021-06-26T07:01:24Z</time>
      </trkpt>
      <trkpt lat="47.75022" lon="7.00121">
        <ele>432.4</ele>
        <time>2021-06-26T07:01:26Z</time>
      </trkpt>
      <trkpt lat="47.75019" lon="7.00119">
        <ele>432.6</ele>
        <time>2021-06-26T07:01:27Z</time>
      </trkpt>
      <trkpt lat="47.75013" lon="7.00114">
        <ele>432.6</ele>
        <time>2021-06-26T07:01:29Z</time>
      </trkpt>
      <trkpt lat="47.74981" lon="7.00095">
        <ele>432.8</ele>
        <time>2021-06-26T07:01:37Z</time>
      </trkpt>
      <trkpt lat="47.74946" lon="7.00068">
        <ele>432.2</ele>
        <time>2021-06-26T07:01:45Z</time>
      </trkpt>
      <trkpt lat="47.74923" lon="7.00044">
        <ele>432.2</ele>
        <time>2021-06-26T07:01:51Z</time>
      </trkpt>
      <trkpt lat="47.7492" lon="7.00039">
        <ele>432.2</ele>
        <time>2021-06-26T07:01:52Z</time>
      </trkpt>
      <trkpt lat="47.74904" lon="7.00019">
        <ele>432.2</ele>
        <time>2021-06-26T07:01:57Z</time>
      </trkpt>
      <trkpt lat="47.74891" lon="7.00005">
        <ele>432.8</ele>
        <time>2021-06-26T07:02:02Z</time>
      </trkpt>
      <trkpt lat="47.74885" lon="6.99996">
        <ele>433.4</ele>
        <time>2021-06-26T07:02:05Z</time>
      </trkpt>
      <trkpt lat="47.74879" lon="6.99987">
        <ele>433.8</ele>
        <time>2021-06-26T07:02:08Z</time>
      </trkpt>
      <trkpt lat="47.74858" lon="6.99962">
        <ele>434.4</ele>
        <time>2021-06-26T07:02:17Z</time>
      </trkpt>
      <trkpt lat="47.74856" lon="6.99958">
        <ele>434.6</ele>
        <time>2021-06-26T07:02:18Z</time>
      </trkpt>
      <trkpt lat="47.74844" lon="6.99939">
        <ele>435.6</ele>
        <time>2021-06-26T07:02:24Z</time>
      </trkpt>
      <trkpt lat="47.74842" lon="6.99932">
        <ele>435.8</ele>
        <time>2021-06-26T07:02:26Z</time>
      </trkpt>
      <trkpt lat="47.74836" lon="6.99921">
        <ele>436</ele>
        <time>2021-06-26T07:02:30Z</time>
      </trkpt>
      <trkpt lat="47.74831" lon="6.99913">
        <ele>436.2</ele>
        <time>2021-06-26T07:02:33Z</time>
      </trkpt>
      <trkpt lat="47.74827" lon="6.99904">
        <ele>436.4</ele>
        <time>2021-06-26T07:02:36Z</time>
      </trkpt>
      <trkpt lat="47.74822" lon="6.99897">
        <ele>436.8</ele>
        <time>2021-06-26T07:02:39Z</time>
      </trkpt>
      <trkpt lat="47.74813" lon="6.99879">
        <ele>437.6</ele>
        <time>2021-06-26T07:02:46Z</time>
      </trkpt>
      <trkpt lat="47.74811" lon="6.99875">
        <ele>437.6</ele>
        <time>2021-06-26T07:02:48Z</time>
      </trkpt>
      <trkpt lat="47.74801" lon="6.99855">
        <ele>438.2</ele>
        <time>2021-06-26T07:02:57Z</time>
      </trkpt>
      <trkpt lat="47.74793" lon="6.99841">
        <ele>438.6</ele>
        <time>2021-06-26T07:03:04Z</time>
      </trkpt>
      <trkpt lat="47.74788" lon="6.99824">
        <ele>438.8</ele>
        <time>2021-06-26T07:03:11Z</time>
      </trkpt>
      <trkpt lat="47.7478" lon="6.99804">
        <ele>438.8</ele>
        <time>2021-06-26T07:03:19Z</time>
      </trkpt>
      <trkpt lat="47.74775" lon="6.99798">
        <ele>438.6</ele>
        <time>2021-06-26T07:03:23Z</time>
      </trkpt>
      <trkpt lat="47.74774" lon="6.99796">
        <ele>438.6</ele>
        <time>2021-06-26T07:03:24Z</time>
      </trkpt>
      <trkpt lat="47.74763" lon="6.99772">
        <ele>438.4</ele>
        <time>2021-06-26T07:03:32Z</time>
      </trkpt>
      <trkpt lat="47.74758" lon="6.99764">
        <ele>438.2</ele>
        <time>2021-06-26T07:03:35Z</time>
      </trkpt>
      <trkpt lat="47.74755" lon="6.99758">
        <ele>437.8</ele>
        <time>2021-06-26T07:03:37Z</time>
      </trkpt>
      <trkpt lat="47.74745" lon="6.99738">
        <ele>437.4</ele>
        <time>2021-06-26T07:03:43Z</time>
      </trkpt>
      <trkpt lat="47.74744" lon="6.99734">
        <ele>437.2</ele>
        <time>2021-06-26T07:03:44Z</time>
      </trkpt>
      <trkpt lat="47.74733" lon="6.99708">
        <ele>436.4</ele>
        <time>2021-06-26T07:03:49Z</time>
      </trkpt>
      <trkpt lat="47.74729" lon="6.99698">
        <ele>436.2</ele>
        <time>2021-06-26T07:03:51Z</time>
      </trkpt>
      <trkpt lat="47.74717" lon="6.99673">
        <ele>435.6</ele>
        <time>2021-06-26T07:03:56Z</time>
      </trkpt>
      <trkpt lat="47.74709" lon="6.99659">
        <ele>435</ele>
        <time>2021-06-26T07:03:59Z</time>
      </trkpt>
      <trkpt lat="47.74699" lon="6.99642">
        <ele>434.6</ele>
        <time>2021-06-26T07:04:03Z</time>
      </trkpt>
      <trkpt lat="47.74684" lon="6.9961">
        <ele>434.2</ele>
        <time>2021-06-26T07:04:09Z</time>
      </trkpt>
      <trkpt lat="47.74672" lon="6.99589">
        <ele>434</ele>
        <time>2021-06-26T07:04:13Z</time>
      </trkpt>
      <trkpt lat="47.74665" lon="6.99578">
        <ele>434</ele>
        <time>2021-06-26T07:04:15Z</time>
      </trkpt>
      <trkpt lat="47.74654" lon="6.99558">
        <ele>434.2</ele>
        <time>2021-06-26T07:04:19Z</time>
      </trkpt>
      <trkpt lat="47.74648" lon="6.99549">
        <ele>434.6</ele>
        <time>2021-06-26T07:04:21Z</time>
      </trkpt>
      <trkpt lat="47.74645" lon="6.99545">
        <ele>434.8</ele>
        <time>2021-06-26T07:04:22Z</time>
      </trkpt>
      <trkpt lat="47.7464" lon="6.99535">
        <ele>435.2</ele>
        <time>2021-06-26T07:04:24Z</time>
      </trkpt>
      <trkpt lat="47.74633" lon="6.99519">
        <ele>435.6</ele>
        <time>2021-06-26T07:04:27Z</time>
      </trkpt>
      <trkpt lat="47.74624" lon="6.99506">
        <ele>436</ele>
        <time>2021-06-26T07:04:30Z</time>
      </trkpt>
      <trkpt lat="47.74619" lon="6.99496">
        <ele>436.2</ele>
        <time>2021-06-26T07:04:32Z</time>
      </trkpt>
      <trkpt lat="47.74616" lon="6.99491">
        <ele>436.4</ele>
        <time>2021-06-26T07:04:33Z</time>
      </trkpt>
      <trkpt lat="47.7459" lon="6.99444">
        <ele>437.4</ele>
        <time>2021-06-26T07:04:42Z</time>
      </trkpt>
      <trkpt lat="47.74573" lon="6.99414">
        <ele>437.8</ele>
        <time>2021-06-26T07:04:48Z</time>
      </trkpt>
      <trkpt lat="47.74565" lon="6.99398">
        <ele>438.4</ele>
        <time>2021-06-26T07:04:51Z</time>
      </trkpt>
      <trkpt lat="47.74551" lon="6.99374">
        <ele>438.6</ele>
        <time>2021-06-26T07:04:56Z</time>
      </trkpt>
      <trkpt lat="47.74543" lon="6.99361">
        <ele>439.2</ele>
        <time>2021-06-26T07:04:59Z</time>
      </trkpt>
      <trkpt lat="47.7454" lon="6.99357">
        <ele>439.4</ele>
        <time>2021-06-26T07:05:00Z</time>
      </trkpt>
      <trkpt lat="47.74528" lon="6.99339">
        <ele>440</ele>
        <time>2021-06-26T07:05:05Z</time>
      </trkpt>
      <trkpt lat="47.74526" lon="6.99335">
        <ele>440.2</ele>
        <time>2021-06-26T07:05:06Z</time>
      </trkpt>
      <trkpt lat="47.74519" lon="6.99325">
        <ele>441.2</ele>
        <time>2021-06-26T07:05:09Z</time>
      </trkpt>
      <trkpt lat="47.74515" lon="6.99318">
        <ele>441.6</ele>
        <time>2021-06-26T07:05:11Z</time>
      </trkpt>
      <trkpt lat="47.74506" lon="6.99303">
        <ele>442.4</ele>
        <time>2021-06-26T07:05:15Z</time>
      </trkpt>
      <trkpt lat="47.74501" lon="6.99296">
        <ele>443</ele>
        <time>2021-06-26T07:05:17Z</time>
      </trkpt>
      <trkpt lat="47.74496" lon="6.99288">
        <ele>443.4</ele>
        <time>2021-06-26T07:05:19Z</time>
      </trkpt>
      <trkpt lat="47.74489" lon="6.9927">
        <ele>444.4</ele>
        <time>2021-06-26T07:05:23Z</time>
      </trkpt>
      <trkpt lat="47.74477" lon="6.99252">
        <ele>445.8</ele>
        <time>2021-06-26T07:05:28Z</time>
      </trkpt>
      <trkpt lat="47.74475" lon="6.99247">
        <ele>446</ele>
        <time>2021-06-26T07:05:29Z</time>
      </trkpt>
      <trkpt lat="47.74466" lon="6.99231">
        <ele>446.8</ele>
        <time>2021-06-26T07:05:33Z</time>
      </trkpt>
      <trkpt lat="47.74456" lon="6.9921">
        <ele>448</ele>
        <time>2021-06-26T07:05:38Z</time>
      </trkpt>
      <trkpt lat="47.7445" lon="6.99202">
        <ele>448.6</ele>
        <time>2021-06-26T07:05:40Z</time>
      </trkpt>
      <trkpt lat="47.74445" lon="6.99195">
        <ele>449.2</ele>
        <time>2021-06-26T07:05:42Z</time>
      </trkpt>
      <trkpt lat="47.7443" lon="6.99169">
        <ele>450.2</ele>
        <time>2021-06-26T07:05:48Z</time>
      </trkpt>
      <trkpt lat="47.74417" lon="6.99135">
        <ele>451</ele>
        <time>2021-06-26T07:05:55Z</time>
      </trkpt>
      <trkpt lat="47.74415" lon="6.9913">
        <ele>451</ele>
        <time>2021-06-26T07:05:56Z</time>
      </trkpt>
      <trkpt lat="47.74411" lon="6.99109">
        <ele>452.2</ele>
        <time>2021-06-26T07:06:00Z</time>
      </trkpt>
      <trkpt lat="47.74408" lon="6.99098">
        <ele>452.8</ele>
        <time>2021-06-26T07:06:02Z</time>
      </trkpt>
      <trkpt lat="47.74405" lon="6.99081">
        <ele>453.2</ele>
        <time>2021-06-26T07:06:05Z</time>
      </trkpt>
      <trkpt lat="47.74403" lon="6.99065">
        <ele>453.8</ele>
        <time>2021-06-26T07:06:08Z</time>
      </trkpt>
      <trkpt lat="47.744" lon="6.99044">
        <ele>454.4</ele>
        <time>2021-06-26T07:06:12Z</time>
      </trkpt>
      <trkpt lat="47.74399" lon="6.99034">
        <ele>454.6</ele>
        <time>2021-06-26T07:06:14Z</time>
      </trkpt>
      <trkpt lat="47.74396" lon="6.99007">
        <ele>455.4</ele>
        <time>2021-06-26T07:06:19Z</time>
      </trkpt>
      <trkpt lat="47.74393" lon="6.98985">
        <ele>456</ele>
        <time>2021-06-26T07:06:23Z</time>
      </trkpt>
      <trkpt lat="47.74391" lon="6.98969">
        <ele>456.6</ele>
        <time>2021-06-26T07:06:26Z</time>
      </trkpt>
      <trkpt lat="47.74389" lon="6.98944">
        <ele>457.6</ele>
        <time>2021-06-26T07:06:31Z</time>
      </trkpt>
      <trkpt lat="47.74387" lon="6.98933">
        <ele>458</ele>
        <time>2021-06-26T07:06:33Z</time>
      </trkpt>
      <trkpt lat="47.74385" lon="6.98913">
        <ele>458.8</ele>
        <time>2021-06-26T07:06:37Z</time>
      </trkpt>
      <trkpt lat="47.74383" lon="6.98891">
        <ele>459.4</ele>
        <time>2021-06-26T07:06:41Z</time>
      </trkpt>
      <trkpt lat="47.74382" lon="6.9888">
        <ele>459.8</ele>
        <time>2021-06-26T07:06:43Z</time>
      </trkpt>
      <trkpt lat="47.74379" lon="6.98851">
        <ele>461</ele>
        <time>2021-06-26T07:06:49Z</time>
      </trkpt>
      <trkpt lat="47.74378" lon="6.98842">
        <ele>461.4</ele>
        <time>2021-06-26T07:06:51Z</time>
      </trkpt>
      <trkpt lat="47.74377" lon="6.98831">
        <ele>462</ele>
        <time>2021-06-26T07:06:53Z</time>
      </trkpt>
      <trkpt lat="47.74371" lon="6.98806">
        <ele>462.8</ele>
        <time>2021-06-26T07:06:58Z</time>
      </trkpt>
      <trkpt lat="47.74368" lon="6.98795">
        <ele>463.2</ele>
        <time>2021-06-26T07:07:00Z</time>
      </trkpt>
      <trkpt lat="47.74362" lon="6.98774">
        <ele>463.8</ele>
        <time>2021-06-26T07:07:04Z</time>
      </trkpt>
      <trkpt lat="47.74354" lon="6.98741">
        <ele>464.2</ele>
        <time>2021-06-26T07:07:10Z</time>
      </trkpt>
      <trkpt lat="47.74348" lon="6.9872">
        <ele>464.6</ele>
        <time>2021-06-26T07:07:14Z</time>
      </trkpt>
      <trkpt lat="47.74336" lon="6.98677">
        <ele>465</ele>
        <time>2021-06-26T07:07:21Z</time>
      </trkpt>
      <trkpt lat="47.74335" lon="6.98672">
        <ele>465.2</ele>
        <time>2021-06-26T07:07:22Z</time>
      </trkpt>
      <trkpt lat="47.74331" lon="6.98657">
        <ele>465.2</ele>
        <time>2021-06-26T07:07:25Z</time>
      </trkpt>
      <trkpt lat="47.74329" lon="6.98651">
        <ele>465.2</ele>
        <time>2021-06-26T07:07:26Z</time>
      </trkpt>
      <trkpt lat="47.74322" lon="6.98623">
        <ele>465.6</ele>
        <time>2021-06-26T07:07:31Z</time>
      </trkpt>
      <trkpt lat="47.74318" lon="6.98604">
        <ele>466</ele>
        <time>2021-06-26T07:07:35Z</time>
      </trkpt>
      <trkpt lat="47.74309" lon="6.98575">
        <ele>467</ele>
        <time>2021-06-26T07:07:41Z</time>
      </trkpt>
      <trkpt lat="47.74307" lon="6.9857">
        <ele>467.2</ele>
        <time>2021-06-26T07:07:42Z</time>
      </trkpt>
      <trkpt lat="47.74301" lon="6.98546">
        <ele>468</ele>
        <time>2021-06-26T07:07:47Z</time>
      </trkpt>
      <trkpt lat="47.74299" lon="6.98534">
        <ele>468.4</ele>
        <time>2021-06-26T07:07:49Z</time>
      </trkpt>
      <trkpt lat="47.74293" lon="6.98514">
        <ele>469.2</ele>
        <time>2021-06-26T07:07:53Z</time>
      </trkpt>
      <trkpt lat="47.7429" lon="6.98504">
        <ele>469.6</ele>
        <time>2021-06-26T07:07:55Z</time>
      </trkpt>
      <trkpt lat="47.74288" lon="6.98477">
        <ele>470.2</ele>
        <time>2021-06-26T07:07:59Z</time>
      </trkpt>
      <trkpt lat="47.74282" lon="6.98462">
        <ele>470.8</ele>
        <time>2021-06-26T07:08:02Z</time>
      </trkpt>
      <trkpt lat="47.74273" lon="6.9844">
        <ele>471.6</ele>
        <time>2021-06-26T07:08:06Z</time>
      </trkpt>
      <trkpt lat="47.74268" lon="6.98431">
        <ele>471.8</ele>
        <time>2021-06-26T07:08:08Z</time>
      </trkpt>
      <trkpt lat="47.74259" lon="6.98419">
        <ele>472.2</ele>
        <time>2021-06-26T07:08:11Z</time>
      </trkpt>
      <trkpt lat="47.74248" lon="6.98407">
        <ele>472.8</ele>
        <time>2021-06-26T07:08:15Z</time>
      </trkpt>
      <trkpt lat="47.7424" lon="6.98402">
        <ele>473.2</ele>
        <time>2021-06-26T07:08:17Z</time>
      </trkpt>
      <trkpt lat="47.74226" lon="6.98395">
        <ele>473.8</ele>
        <time>2021-06-26T07:08:21Z</time>
      </trkpt>
      <trkpt lat="47.74216" lon="6.98391">
        <ele>474.4</ele>
        <time>2021-06-26T07:08:24Z</time>
      </trkpt>
      <trkpt lat="47.74205" lon="6.98385">
        <ele>474.8</ele>
        <time>2021-06-26T07:08:27Z</time>
      </trkpt>
      <trkpt lat="47.74194" lon="6.98377">
        <ele>475.4</ele>
        <time>2021-06-26T07:08:30Z</time>
      </trkpt>
      <trkpt lat="47.7418" lon="6.98366">
        <ele>476</ele>
        <time>2021-06-26T07:08:34Z</time>
      </trkpt>
      <trkpt lat="47.74177" lon="6.98363">
        <ele>476</ele>
        <time>2021-06-26T07:08:35Z</time>
      </trkpt>
      <trkpt lat="47.74158" lon="6.98342">
        <ele>477</ele>
        <time>2021-06-26T07:08:41Z</time>
      </trkpt>
      <trkpt lat="47.74147" lon="6.98327">
        <ele>477.6</ele>
        <time>2021-06-26T07:08:45Z</time>
      </trkpt>
      <trkpt lat="47.74141" lon="6.9832">
        <ele>477.8</ele>
        <time>2021-06-26T07:08:47Z</time>
      </trkpt>
      <trkpt lat="47.74123" lon="6.98299">
        <ele>478.8</ele>
        <time>2021-06-26T07:08:53Z</time>
      </trkpt>
      <trkpt lat="47.7412" lon="6.98295">
        <ele>479</ele>
        <time>2021-06-26T07:08:54Z</time>
      </trkpt>
      <trkpt lat="47.74103" lon="6.98274">
        <ele>480</ele>
        <time>2021-06-26T07:09:00Z</time>
      </trkpt>
      <trkpt lat="47.74098" lon="6.98267">
        <ele>480.6</ele>
        <time>2021-06-26T07:09:02Z</time>
      </trkpt>
      <trkpt lat="47.74089" lon="6.98254">
        <ele>481.2</ele>
        <time>2021-06-26T07:09:05Z</time>
      </trkpt>
      <trkpt lat="47.74079" lon="6.98239">
        <ele>481.4</ele>
        <time>2021-06-26T07:09:08Z</time>
      </trkpt>
      <trkpt lat="47.74069" lon="6.98221">
        <ele>481.4</ele>
        <time>2021-06-26T07:09:11Z</time>
      </trkpt>
      <trkpt lat="47.74051" lon="6.98177">
        <ele>480.8</ele>
        <time>2021-06-26T07:09:17Z</time>
      </trkpt>
      <trkpt lat="47.74041" lon="6.98153">
        <ele>480</ele>
        <time>2021-06-26T07:09:20Z</time>
      </trkpt>
      <trkpt lat="47.74026" lon="6.98118">
        <ele>479</ele>
        <time>2021-06-26T07:09:24Z</time>
      </trkpt>
      <trkpt lat="47.74011" lon="6.9808">
        <ele>477.8</ele>
        <time>2021-06-26T07:09:28Z</time>
      </trkpt>
      <trkpt lat="47.74001" lon="6.9806">
        <ele>477</ele>
        <time>2021-06-26T07:09:30Z</time>
      </trkpt>
      <trkpt lat="47.73996" lon="6.9805">
        <ele>476.8</ele>
        <time>2021-06-26T07:09:31Z</time>
      </trkpt>
      <trkpt lat="47.73979" lon="6.98005">
        <ele>475.6</ele>
        <time>2021-06-26T07:09:35Z</time>
      </trkpt>
      <trkpt lat="47.7397" lon="6.97982">
        <ele>474.4</ele>
        <time>2021-06-26T07:09:37Z</time>
      </trkpt>
      <trkpt lat="47.73955" lon="6.97948">
        <ele>473</ele>
        <time>2021-06-26T07:09:40Z</time>
      </trkpt>
      <trkpt lat="47.73946" lon="6.97926">
        <ele>472.4</ele>
        <time>2021-06-26T07:09:42Z</time>
      </trkpt>
      <trkpt lat="47.73933" lon="6.97893">
        <ele>471.6</ele>
        <time>2021-06-26T07:09:45Z</time>
      </trkpt>
      <trkpt lat="47.73919" lon="6.97859">
        <ele>470.6</ele>
        <time>2021-06-26T07:09:48Z</time>
      </trkpt>
      <trkpt lat="47.73908" lon="6.97836">
        <ele>470.2</ele>
        <time>2021-06-26T07:09:50Z</time>
      </trkpt>
      <trkpt lat="47.73895" lon="6.97815">
        <ele>469.4</ele>
        <time>2021-06-26T07:09:52Z</time>
      </trkpt>
      <trkpt lat="47.73881" lon="6.97795">
        <ele>468.2</ele>
        <time>2021-06-26T07:09:54Z</time>
      </trkpt>
      <trkpt lat="47.73874" lon="6.97787">
        <ele>468</ele>
        <time>2021-06-26T07:09:55Z</time>
      </trkpt>
      <trkpt lat="47.73866" lon="6.97779">
        <ele>467</ele>
        <time>2021-06-26T07:09:56Z</time>
      </trkpt>
      <trkpt lat="47.7385" lon="6.97764">
        <ele>465.6</ele>
        <time>2021-06-26T07:09:58Z</time>
      </trkpt>
      <trkpt lat="47.73829" lon="6.97739">
        <ele>464.8</ele>
        <time>2021-06-26T07:10:01Z</time>
      </trkpt>
      <trkpt lat="47.73823" lon="6.97729">
        <ele>464.4</ele>
        <time>2021-06-26T07:10:02Z</time>
      </trkpt>
      <trkpt lat="47.73807" lon="6.97698">
        <ele>464</ele>
        <time>2021-06-26T07:10:05Z</time>
      </trkpt>
      <trkpt lat="47.73786" lon="6.97646">
        <ele>463.6</ele>
        <time>2021-06-26T07:10:10Z</time>
      </trkpt>
      <trkpt lat="47.73782" lon="6.97637">
        <ele>463.4</ele>
        <time>2021-06-26T07:10:11Z</time>
      </trkpt>
      <trkpt lat="47.73765" lon="6.97591">
        <ele>463.4</ele>
        <time>2021-06-26T07:10:16Z</time>
      </trkpt>
      <trkpt lat="47.73743" lon="6.97517">
        <ele>463.2</ele>
        <time>2021-06-26T07:10:24Z</time>
      </trkpt>
      <trkpt lat="47.73733" lon="6.9748">
        <ele>462.2</ele>
        <time>2021-06-26T07:10:28Z</time>
      </trkpt>
      <trkpt lat="47.73712" lon="6.97416">
        <ele>461.4</ele>
        <time>2021-06-26T07:10:35Z</time>
      </trkpt>
      <trkpt lat="47.73708" lon="6.97409">
        <ele>461.2</ele>
        <time>2021-06-26T07:10:36Z</time>
      </trkpt>
      <trkpt lat="47.73682" lon="6.97355">
        <ele>460.8</ele>
        <time>2021-06-26T07:10:43Z</time>
      </trkpt>
      <trkpt lat="47.73653" lon="6.97294">
        <ele>460.6</ele>
        <time>2021-06-26T07:10:51Z</time>
      </trkpt>
      <trkpt lat="47.7364" lon="6.97249">
        <ele>460.2</ele>
        <time>2021-06-26T07:10:56Z</time>
      </trkpt>
      <trkpt lat="47.73638" lon="6.97239">
        <ele>460</ele>
        <time>2021-06-26T07:10:57Z</time>
      </trkpt>
      <trkpt lat="47.73624" lon="6.97178">
        <ele>459</ele>
        <time>2021-06-26T07:11:03Z</time>
      </trkpt>
      <trkpt lat="47.73619" lon="6.97157">
        <ele>458.4</ele>
        <time>2021-06-26T07:11:05Z</time>
      </trkpt>
      <trkpt lat="47.73618" lon="6.97147">
        <ele>458.2</ele>
        <time>2021-06-26T07:11:06Z</time>
      </trkpt>
      <trkpt lat="47.73617" lon="6.97138">
        <ele>457.8</ele>
        <time>2021-06-26T07:11:07Z</time>
      </trkpt>
      <trkpt lat="47.73616" lon="6.97125">
        <ele>457.6</ele>
        <time>2021-06-26T07:11:08Z</time>
      </trkpt>
      <trkpt lat="47.73616" lon="6.97102">
        <ele>457.4</ele>
        <time>2021-06-26T07:11:10Z</time>
      </trkpt>
      <trkpt lat="47.7362" lon="6.9707">
        <ele>456.8</ele>
        <time>2021-06-26T07:11:13Z</time>
      </trkpt>
      <trkpt lat="47.73624" lon="6.97059">
        <ele>456.8</ele>
        <time>2021-06-26T07:11:14Z</time>
      </trkpt>
      <trkpt lat="47.73628" lon="6.97051">
        <ele>456.6</ele>
        <time>2021-06-26T07:11:15Z</time>
      </trkpt>
      <trkpt lat="47.73641" lon="6.97034">
        <ele>456</ele>
        <time>2021-06-26T07:11:17Z</time>
      </trkpt>
      <trkpt lat="47.73648" lon="6.97026">
        <ele>455.6</ele>
        <time>2021-06-26T07:11:18Z</time>
      </trkpt>
      <trkpt lat="47.73659" lon="6.97011">
        <ele>454.6</ele>
        <time>2021-06-26T07:11:20Z</time>
      </trkpt>
      <trkpt lat="47.73667" lon="6.97001">
        <ele>454.4</ele>
        <time>2021-06-26T07:11:21Z</time>
      </trkpt>
      <trkpt lat="47.73672" lon="6.96992">
        <ele>454.2</ele>
        <time>2021-06-26T07:11:22Z</time>
      </trkpt>
      <trkpt lat="47.73676" lon="6.96982">
        <ele>454</ele>
        <time>2021-06-26T07:11:23Z</time>
      </trkpt>
      <trkpt lat="47.73677" lon="6.96972">
        <ele>454</ele>
        <time>2021-06-26T07:11:24Z</time>
      </trkpt>
      <trkpt lat="47.73674" lon="6.96963">
        <ele>453.8</ele>
        <time>2021-06-26T07:11:25Z</time>
      </trkpt>
      <trkpt lat="47.73671" lon="6.96956">
        <ele>453.6</ele>
        <time>2021-06-26T07:11:26Z</time>
      </trkpt>
      <trkpt lat="47.73661" lon="6.96943">
        <ele>453.4</ele>
        <time>2021-06-26T07:11:28Z</time>
      </trkpt>
      <trkpt lat="47.73657" lon="6.96939">
        <ele>453</ele>
        <time>2021-06-26T07:11:29Z</time>
      </trkpt>
      <trkpt lat="47.73643" lon="6.9692">
        <ele>452.8</ele>
        <time>2021-06-26T07:11:32Z</time>
      </trkpt>
      <trkpt lat="47.7364" lon="6.96912">
        <ele>452.8</ele>
        <time>2021-06-26T07:11:33Z</time>
      </trkpt>
      <trkpt lat="47.73626" lon="6.96872">
        <ele>452.6</ele>
        <time>2021-06-26T07:11:38Z</time>
      </trkpt>
      <trkpt lat="47.73625" lon="6.96864">
        <ele>452.8</ele>
        <time>2021-06-26T07:11:39Z</time>
      </trkpt>
      <trkpt lat="47.73617" lon="6.96815">
        <ele>452.4</ele>
        <time>2021-06-26T07:11:43Z</time>
      </trkpt>
      <trkpt lat="47.73607" lon="6.96797">
        <ele>451.2</ele>
        <time>2021-06-26T07:11:45Z</time>
      </trkpt>
      <trkpt lat="47.73601" lon="6.96788">
        <ele>450.8</ele>
        <time>2021-06-26T07:11:46Z</time>
      </trkpt>
      <trkpt lat="47.73594" lon="6.96778">
        <ele>449.4</ele>
        <time>2021-06-26T07:11:47Z</time>
      </trkpt>
      <trkpt lat="47.73583" lon="6.96762">
        <ele>448.2</ele>
        <time>2021-06-26T07:11:49Z</time>
      </trkpt>
      <trkpt lat="47.73577" lon="6.96755">
        <ele>447</ele>
        <time>2021-06-26T07:11:50Z</time>
      </trkpt>
      <trkpt lat="47.73572" lon="6.96747">
        <ele>446.6</ele>
        <time>2021-06-26T07:11:51Z</time>
      </trkpt>
      <trkpt lat="47.73568" lon="6.96738">
        <ele>445.6</ele>
        <time>2021-06-26T07:11:52Z</time>
      </trkpt>
      <trkpt lat="47.73563" lon="6.96719">
        <ele>443.6</ele>
        <time>2021-06-26T07:11:54Z</time>
      </trkpt>
      <trkpt lat="47.73564" lon="6.96697">
        <ele>442.2</ele>
        <time>2021-06-26T07:11:56Z</time>
      </trkpt>
      <trkpt lat="47.73566" lon="6.96687">
        <ele>442</ele>
        <time>2021-06-26T07:11:57Z</time>
      </trkpt>
      <trkpt lat="47.73573" lon="6.9664">
        <ele>441.4</ele>
        <time>2021-06-26T07:12:02Z</time>
      </trkpt>
      <trkpt lat="47.73573" lon="6.9663">
        <ele>441.4</ele>
        <time>2021-06-26T07:12:03Z</time>
      </trkpt>
      <trkpt lat="47.7357" lon="6.96602">
        <ele>441.4</ele>
        <time>2021-06-26T07:12:06Z</time>
      </trkpt>
      <trkpt lat="47.73559" lon="6.96518">
        <ele>441.4</ele>
        <time>2021-06-26T07:12:15Z</time>
      </trkpt>
      <trkpt lat="47.73552" lon="6.96474">
        <ele>441.4</ele>
        <time>2021-06-26T07:12:20Z</time>
      </trkpt>
      <trkpt lat="47.73552" lon="6.96447">
        <ele>441.4</ele>
        <time>2021-06-26T07:12:23Z</time>
      </trkpt>
      <trkpt lat="47.73557" lon="6.96389">
        <ele>442.2</ele>
        <time>2021-06-26T07:12:30Z</time>
      </trkpt>
      <trkpt lat="47.73557" lon="6.96381">
        <ele>442.4</ele>
        <time>2021-06-26T07:12:31Z</time>
      </trkpt>
      <trkpt lat="47.73554" lon="6.96366">
        <ele>442.6</ele>
        <time>2021-06-26T07:12:33Z</time>
      </trkpt>
      <trkpt lat="47.73546" lon="6.96352">
        <ele>443.2</ele>
        <time>2021-06-26T07:12:35Z</time>
      </trkpt>
      <trkpt lat="47.73541" lon="6.96346">
        <ele>443.2</ele>
        <time>2021-06-26T07:12:36Z</time>
      </trkpt>
      <trkpt lat="47.73532" lon="6.96335">
        <ele>443.2</ele>
        <time>2021-06-26T07:12:38Z</time>
      </trkpt>
      <trkpt lat="47.7349" lon="6.96295">
        <ele>442.8</ele>
        <time>2021-06-26T07:12:46Z</time>
      </trkpt>
      <trkpt lat="47.73475" lon="6.96279">
        <ele>442.8</ele>
        <time>2021-06-26T07:12:49Z</time>
      </trkpt>
      <trkpt lat="47.73462" lon="6.9626">
        <ele>442.8</ele>
        <time>2021-06-26T07:12:52Z</time>
      </trkpt>
      <trkpt lat="47.73455" lon="6.96247">
        <ele>442.8</ele>
        <time>2021-06-26T07:12:54Z</time>
      </trkpt>
      <trkpt lat="47.73444" lon="6.96225">
        <ele>442.8</ele>
        <time>2021-06-26T07:12:57Z</time>
      </trkpt>
      <trkpt lat="47.73424" lon="6.96175">
        <ele>443.2</ele>
        <time>2021-06-26T07:13:04Z</time>
      </trkpt>
      <trkpt lat="47.73399" lon="6.96121">
        <ele>443.8</ele>
        <time>2021-06-26T07:13:12Z</time>
      </trkpt>
      <trkpt lat="47.73382" lon="6.9609">
        <ele>444.2</ele>
        <time>2021-06-26T07:13:17Z</time>
      </trkpt>
      <trkpt lat="47.73378" lon="6.96085">
        <ele>444.2</ele>
        <time>2021-06-26T07:13:18Z</time>
      </trkpt>
      <trkpt lat="47.73374" lon="6.9608">
        <ele>444.4</ele>
        <time>2021-06-26T07:13:19Z</time>
      </trkpt>
      <trkpt lat="47.73343" lon="6.96044">
        <ele>445.6</ele>
        <time>2021-06-26T07:13:27Z</time>
      </trkpt>
      <trkpt lat="47.73324" lon="6.96024">
        <ele>446.6</ele>
        <time>2021-06-26T07:13:32Z</time>
      </trkpt>
      <trkpt lat="47.73309" lon="6.96009">
        <ele>447.2</ele>
        <time>2021-06-26T07:13:36Z</time>
      </trkpt>
      <trkpt lat="47.73297" lon="6.95997">
        <ele>447.8</ele>
        <time>2021-06-26T07:13:39Z</time>
      </trkpt>
      <trkpt lat="47.73278" lon="6.95978">
        <ele>448.8</ele>
        <time>2021-06-26T07:13:44Z</time>
      </trkpt>
      <trkpt lat="47.73274" lon="6.95975">
        <ele>449</ele>
        <time>2021-06-26T07:13:45Z</time>
      </trkpt>
      <trkpt lat="47.73263" lon="6.95963">
        <ele>449.4</ele>
        <time>2021-06-26T07:13:48Z</time>
      </trkpt>
      <trkpt lat="47.73253" lon="6.95951">
        <ele>449.6</ele>
        <time>2021-06-26T07:13:51Z</time>
      </trkpt>
      <trkpt lat="47.73249" lon="6.95947">
        <ele>449.8</ele>
        <time>2021-06-26T07:13:52Z</time>
      </trkpt>
      <trkpt lat="47.73246" lon="6.95943">
        <ele>450</ele>
        <time>2021-06-26T07:13:53Z</time>
      </trkpt>
      <trkpt lat="47.73233" lon="6.95929">
        <ele>451.2</ele>
        <time>2021-06-26T07:13:57Z</time>
      </trkpt>
      <trkpt lat="47.73226" lon="6.95922">
        <ele>451.4</ele>
        <time>2021-06-26T07:13:59Z</time>
      </trkpt>
      <trkpt lat="47.73223" lon="6.95918">
        <ele>451.4</ele>
        <time>2021-06-26T07:14:00Z</time>
      </trkpt>
      <trkpt lat="47.73207" lon="6.959">
        <ele>452.4</ele>
        <time>2021-06-26T07:14:05Z</time>
      </trkpt>
      <trkpt lat="47.73203" lon="6.95897">
        <ele>452.6</ele>
        <time>2021-06-26T07:14:06Z</time>
      </trkpt>
      <trkpt lat="47.73183" lon="6.95878">
        <ele>453.4</ele>
        <time>2021-06-26T07:14:12Z</time>
      </trkpt>
      <trkpt lat="47.73177" lon="6.9587">
        <ele>454</ele>
        <time>2021-06-26T07:14:14Z</time>
      </trkpt>
      <trkpt lat="47.7316" lon="6.95851">
        <ele>454.6</ele>
        <time>2021-06-26T07:14:19Z</time>
      </trkpt>
      <trkpt lat="47.73153" lon="6.95844">
        <ele>454.8</ele>
        <time>2021-06-26T07:14:21Z</time>
      </trkpt>
      <trkpt lat="47.73112" lon="6.95801">
        <ele>455.4</ele>
        <time>2021-06-26T07:14:32Z</time>
      </trkpt>
      <trkpt lat="47.73081" lon="6.95768">
        <ele>455.4</ele>
        <time>2021-06-26T07:14:40Z</time>
      </trkpt>
      <trkpt lat="47.73059" lon="6.95744">
        <ele>455.8</ele>
        <time>2021-06-26T07:14:46Z</time>
      </trkpt>
      <trkpt lat="47.73047" lon="6.95732">
        <ele>456.2</ele>
        <time>2021-06-26T07:14:49Z</time>
      </trkpt>
      <trkpt lat="47.73044" lon="6.95729">
        <ele>456.6</ele>
        <time>2021-06-26T07:14:50Z</time>
      </trkpt>
      <trkpt lat="47.73037" lon="6.95722">
        <ele>456.8</ele>
        <time>2021-06-26T07:14:52Z</time>
      </trkpt>
      <trkpt lat="47.73028" lon="6.95713">
        <ele>457.4</ele>
        <time>2021-06-26T07:14:55Z</time>
      </trkpt>
      <trkpt lat="47.73024" lon="6.95706">
        <ele>457.8</ele>
        <time>2021-06-26T07:14:57Z</time>
      </trkpt>
      <trkpt lat="47.73022" lon="6.95703">
        <ele>458</ele>
        <time>2021-06-26T07:14:58Z</time>
      </trkpt>
      <trkpt lat="47.73012" lon="6.95689">
        <ele>459.4</ele>
        <time>2021-06-26T07:15:02Z</time>
      </trkpt>
      <trkpt lat="47.7301" lon="6.95685">
        <ele>459.4</ele>
        <time>2021-06-26T07:15:03Z</time>
      </trkpt>
      <trkpt lat="47.73001" lon="6.95665">
        <ele>460.6</ele>
        <time>2021-06-26T07:15:08Z</time>
      </trkpt>
      <trkpt lat="47.72996" lon="6.95653">
        <ele>461.4</ele>
        <time>2021-06-26T07:15:11Z</time>
      </trkpt>
      <trkpt lat="47.72994" lon="6.95649">
        <ele>461.6</ele>
        <time>2021-06-26T07:15:12Z</time>
      </trkpt>
      <trkpt lat="47.72985" lon="6.95629">
        <ele>462.8</ele>
        <time>2021-06-26T07:15:17Z</time>
      </trkpt>
      <trkpt lat="47.72976" lon="6.95606">
        <ele>464</ele>
        <time>2021-06-26T07:15:22Z</time>
      </trkpt>
      <trkpt lat="47.72974" lon="6.95602">
        <ele>464.2</ele>
        <time>2021-06-26T07:15:23Z</time>
      </trkpt>
      <trkpt lat="47.72956" lon="6.95563">
        <ele>465.2</ele>
        <time>2021-06-26T07:15:31Z</time>
      </trkpt>
      <trkpt lat="47.72945" lon="6.95538">
        <ele>466.2</ele>
        <time>2021-06-26T07:15:36Z</time>
      </trkpt>
      <trkpt lat="47.72939" lon="6.95521">
        <ele>466.8</ele>
        <time>2021-06-26T07:15:39Z</time>
      </trkpt>
      <trkpt lat="47.72937" lon="6.95516">
        <ele>466.8</ele>
        <time>2021-06-26T07:15:40Z</time>
      </trkpt>
      <trkpt lat="47.72925" lon="6.95484">
        <ele>467.2</ele>
        <time>2021-06-26T07:15:46Z</time>
      </trkpt>
      <trkpt lat="47.7291" lon="6.95447">
        <ele>468.4</ele>
        <time>2021-06-26T07:15:53Z</time>
      </trkpt>
      <trkpt lat="47.72906" lon="6.95436">
        <ele>468.8</ele>
        <time>2021-06-26T07:15:55Z</time>
      </trkpt>
      <trkpt lat="47.72901" lon="6.95427">
        <ele>469</ele>
        <time>2021-06-26T07:15:57Z</time>
      </trkpt>
      <trkpt lat="47.72893" lon="6.95405">
        <ele>469.4</ele>
        <time>2021-06-26T07:16:01Z</time>
      </trkpt>
      <trkpt lat="47.72891" lon="6.954">
        <ele>469.4</ele>
        <time>2021-06-26T07:16:02Z</time>
      </trkpt>
      <trkpt lat="47.72886" lon="6.9539">
        <ele>469.6</ele>
        <time>2021-06-26T07:16:04Z</time>
      </trkpt>
      <trkpt lat="47.7288" lon="6.95375">
        <ele>470</ele>
        <time>2021-06-26T07:16:07Z</time>
      </trkpt>
      <trkpt lat="47.72876" lon="6.95365">
        <ele>470.6</ele>
        <time>2021-06-26T07:16:09Z</time>
      </trkpt>
      <trkpt lat="47.7286" lon="6.95335">
        <ele>471.6</ele>
        <time>2021-06-26T07:16:16Z</time>
      </trkpt>
      <trkpt lat="47.72858" lon="6.95331">
        <ele>471.8</ele>
        <time>2021-06-26T07:16:17Z</time>
      </trkpt>
      <trkpt lat="47.7285" lon="6.9532">
        <ele>472.8</ele>
        <time>2021-06-26T07:16:20Z</time>
      </trkpt>
      <trkpt lat="47.72837" lon="6.95302">
        <ele>473.8</ele>
        <time>2021-06-26T07:16:25Z</time>
      </trkpt>
      <trkpt lat="47.72834" lon="6.95299">
        <ele>474.2</ele>
        <time>2021-06-26T07:16:26Z</time>
      </trkpt>
      <trkpt lat="47.72827" lon="6.95288">
        <ele>475</ele>
        <time>2021-06-26T07:16:29Z</time>
      </trkpt>
      <trkpt lat="47.72823" lon="6.95278">
        <ele>475.6</ele>
        <time>2021-06-26T07:16:32Z</time>
      </trkpt>
      <trkpt lat="47.72818" lon="6.95269">
        <ele>476.2</ele>
        <time>2021-06-26T07:16:35Z</time>
      </trkpt>
      <trkpt lat="47.72815" lon="6.95261">
        <ele>477.2</ele>
        <time>2021-06-26T07:16:38Z</time>
      </trkpt>
      <trkpt lat="47.72814" lon="6.95258">
        <ele>477.2</ele>
        <time>2021-06-26T07:16:39Z</time>
      </trkpt>
      <trkpt lat="47.72811" lon="6.95252">
        <ele>477.8</ele>
        <time>2021-06-26T07:16:41Z</time>
      </trkpt>
      <trkpt lat="47.7281" lon="6.95249">
        <ele>477.8</ele>
        <time>2021-06-26T07:16:42Z</time>
      </trkpt>
      <trkpt lat="47.72809" lon="6.95246">
        <ele>478</ele>
        <time>2021-06-26T07:16:43Z</time>
      </trkpt>
      <trkpt lat="47.72809" lon="6.95244">
        <ele>478.4</ele>
        <time>2021-06-26T07:16:44Z</time>
      </trkpt>
      <trkpt lat="47.72808" lon="6.95242">
        <ele>478.6</ele>
        <time>2021-06-26T07:16:45Z</time>
      </trkpt>
      <trkpt lat="47.72807" lon="6.95239">
        <ele>479.2</ele>
        <time>2021-06-26T07:16:46Z</time>
      </trkpt>
      <trkpt lat="47.72806" lon="6.95236">
        <ele>479.2</ele>
        <time>2021-06-26T07:16:47Z</time>
      </trkpt>
      <trkpt lat="47.72799" lon="6.95231">
        <ele>479.8</ele>
        <time>2021-06-26T07:16:49Z</time>
      </trkpt>
      <trkpt lat="47.72793" lon="6.95228">
        <ele>480</ele>
        <time>2021-06-26T07:16:50Z</time>
      </trkpt>
      <trkpt lat="47.72779" lon="6.95214">
        <ele>481</ele>
        <time>2021-06-26T07:16:54Z</time>
      </trkpt>
      <trkpt lat="47.72778" lon="6.9521">
        <ele>481.2</ele>
        <time>2021-06-26T07:16:55Z</time>
      </trkpt>
      <trkpt lat="47.7277" lon="6.95195">
        <ele>482.2</ele>
        <time>2021-06-26T07:16:59Z</time>
      </trkpt>
      <trkpt lat="47.72767" lon="6.95186">
        <ele>482.6</ele>
        <time>2021-06-26T07:17:01Z</time>
      </trkpt>
      <trkpt lat="47.72757" lon="6.95163">
        <ele>483.2</ele>
        <time>2021-06-26T07:17:05Z</time>
      </trkpt>
      <trkpt lat="47.72756" lon="6.9515">
        <ele>483.8</ele>
        <time>2021-06-26T07:17:07Z</time>
      </trkpt>
      <trkpt lat="47.72752" lon="6.95128">
        <ele>484.4</ele>
        <time>2021-06-26T07:17:11Z</time>
      </trkpt>
      <trkpt lat="47.72749" lon="6.95112">
        <ele>485.2</ele>
        <time>2021-06-26T07:17:15Z</time>
      </trkpt>
      <trkpt lat="47.72748" lon="6.95103">
        <ele>485.4</ele>
        <time>2021-06-26T07:17:16Z</time>
      </trkpt>
      <trkpt lat="47.72745" lon="6.95078">
        <ele>486</ele>
        <time>2021-06-26T07:17:21Z</time>
      </trkpt>
      <trkpt lat="47.72741" lon="6.95064">
        <ele>486.4</ele>
        <time>2021-06-26T07:17:24Z</time>
      </trkpt>
      <trkpt lat="47.72739" lon="6.95055">
        <ele>486.8</ele>
        <time>2021-06-26T07:17:26Z</time>
      </trkpt>
      <trkpt lat="47.72736" lon="6.95029">
        <ele>487.4</ele>
        <time>2021-06-26T07:17:31Z</time>
      </trkpt>
      <trkpt lat="47.72735" lon="6.95018">
        <ele>487.8</ele>
        <time>2021-06-26T07:17:33Z</time>
      </trkpt>
      <trkpt lat="47.72732" lon="6.94997">
        <ele>488.6</ele>
        <time>2021-06-26T07:17:37Z</time>
      </trkpt>
      <trkpt lat="47.72729" lon="6.94989">
        <ele>488.8</ele>
        <time>2021-06-26T07:17:38Z</time>
      </trkpt>
      <trkpt lat="47.72725" lon="6.94967">
        <ele>489.8</ele>
        <time>2021-06-26T07:17:42Z</time>
      </trkpt>
      <trkpt lat="47.72722" lon="6.94949">
        <ele>490.4</ele>
        <time>2021-06-26T07:17:45Z</time>
      </trkpt>
      <trkpt lat="47.72718" lon="6.94934">
        <ele>490.8</ele>
        <time>2021-06-26T07:17:48Z</time>
      </trkpt>
      <trkpt lat="47.72703" lon="6.94905">
        <ele>492</ele>
        <time>2021-06-26T07:17:54Z</time>
      </trkpt>
      <trkpt lat="47.72691" lon="6.94878">
        <ele>493.2</ele>
        <time>2021-06-26T07:18:00Z</time>
      </trkpt>
      <trkpt lat="47.72687" lon="6.9487">
        <ele>493.2</ele>
        <time>2021-06-26T07:18:02Z</time>
      </trkpt>
      <trkpt lat="47.72677" lon="6.94855">
        <ele>494</ele>
        <time>2021-06-26T07:18:06Z</time>
      </trkpt>
      <trkpt lat="47.72661" lon="6.94833">
        <ele>494.8</ele>
        <time>2021-06-26T07:18:11Z</time>
      </trkpt>
      <trkpt lat="47.72643" lon="6.94811">
        <ele>495</ele>
        <time>2021-06-26T07:18:16Z</time>
      </trkpt>
      <trkpt lat="47.72619" lon="6.9479">
        <ele>494.8</ele>
        <time>2021-06-26T07:18:21Z</time>
      </trkpt>
      <trkpt lat="47.72573" lon="6.9475">
        <ele>494.4</ele>
        <time>2021-06-26T07:18:30Z</time>
      </trkpt>
      <trkpt lat="47.7253" lon="6.94715">
        <ele>493.4</ele>
        <time>2021-06-26T07:18:38Z</time>
      </trkpt>
      <trkpt lat="47.7251" lon="6.94703">
        <ele>492.8</ele>
        <time>2021-06-26T07:18:41Z</time>
      </trkpt>
      <trkpt lat="47.7248" lon="6.94686">
        <ele>491.6</ele>
        <time>2021-06-26T07:18:45Z</time>
      </trkpt>
      <trkpt lat="47.72456" lon="6.94668">
        <ele>490.4</ele>
        <time>2021-06-26T07:18:48Z</time>
      </trkpt>
      <trkpt lat="47.72439" lon="6.94656">
        <ele>489.4</ele>
        <time>2021-06-26T07:18:50Z</time>
      </trkpt>
      <trkpt lat="47.7243" lon="6.9465">
        <ele>488.8</ele>
        <time>2021-06-26T07:18:51Z</time>
      </trkpt>
      <trkpt lat="47.72422" lon="6.94646">
        <ele>488</ele>
        <time>2021-06-26T07:18:52Z</time>
      </trkpt>
      <trkpt lat="47.72395" lon="6.94632">
        <ele>487</ele>
        <time>2021-06-26T07:18:55Z</time>
      </trkpt>
      <trkpt lat="47.72376" lon="6.9462">
        <ele>485.8</ele>
        <time>2021-06-26T07:18:57Z</time>
      </trkpt>
      <trkpt lat="47.72357" lon="6.94603">
        <ele>484.4</ele>
        <time>2021-06-26T07:18:59Z</time>
      </trkpt>
      <trkpt lat="47.72348" lon="6.94594">
        <ele>483.2</ele>
        <time>2021-06-26T07:19:00Z</time>
      </trkpt>
      <trkpt lat="47.72341" lon="6.94586">
        <ele>482.4</ele>
        <time>2021-06-26T07:19:01Z</time>
      </trkpt>
      <trkpt lat="47.72334" lon="6.9458">
        <ele>481.8</ele>
        <time>2021-06-26T07:19:02Z</time>
      </trkpt>
      <trkpt lat="47.72323" lon="6.94572">
        <ele>480.6</ele>
        <time>2021-06-26T07:19:03Z</time>
      </trkpt>
      <trkpt lat="47.72303" lon="6.94557">
        <ele>479.6</ele>
        <time>2021-06-26T07:19:05Z</time>
      </trkpt>
      <trkpt lat="47.72282" lon="6.94551">
        <ele>478.2</ele>
        <time>2021-06-26T07:19:07Z</time>
      </trkpt>
      <trkpt lat="47.72272" lon="6.9455">
        <ele>478</ele>
        <time>2021-06-26T07:19:08Z</time>
      </trkpt>
      <trkpt lat="47.72253" lon="6.94549">
        <ele>476.6</ele>
        <time>2021-06-26T07:19:10Z</time>
      </trkpt>
      <trkpt lat="47.72233" lon="6.94546">
        <ele>475.4</ele>
        <time>2021-06-26T07:19:12Z</time>
      </trkpt>
      <trkpt lat="47.72214" lon="6.94539">
        <ele>474.2</ele>
        <time>2021-06-26T07:19:14Z</time>
      </trkpt>
      <trkpt lat="47.72204" lon="6.94536">
        <ele>473.4</ele>
        <time>2021-06-26T07:19:15Z</time>
      </trkpt>
      <trkpt lat="47.72193" lon="6.94536">
        <ele>472.8</ele>
        <time>2021-06-26T07:19:16Z</time>
      </trkpt>
      <trkpt lat="47.7218" lon="6.94538">
        <ele>472.2</ele>
        <time>2021-06-26T07:19:17Z</time>
      </trkpt>
      <trkpt lat="47.72169" lon="6.94541">
        <ele>471.6</ele>
        <time>2021-06-26T07:19:18Z</time>
      </trkpt>
      <trkpt lat="47.72142" lon="6.94555">
        <ele>470.2</ele>
        <time>2021-06-26T07:19:21Z</time>
      </trkpt>
      <trkpt lat="47.7213" lon="6.94556">
        <ele>469.8</ele>
        <time>2021-06-26T07:19:22Z</time>
      </trkpt>
      <trkpt lat="47.7212" lon="6.94554">
        <ele>469</ele>
        <time>2021-06-26T07:19:23Z</time>
      </trkpt>
      <trkpt lat="47.72103" lon="6.94548">
        <ele>468</ele>
        <time>2021-06-26T07:19:25Z</time>
      </trkpt>
      <trkpt lat="47.72097" lon="6.94541">
        <ele>467.6</ele>
        <time>2021-06-26T07:19:26Z</time>
      </trkpt>
      <trkpt lat="47.72088" lon="6.9453">
        <ele>466.6</ele>
        <time>2021-06-26T07:19:27Z</time>
      </trkpt>
      <trkpt lat="47.72082" lon="6.94518">
        <ele>466.2</ele>
        <time>2021-06-26T07:19:28Z</time>
      </trkpt>
      <trkpt lat="47.72068" lon="6.94492">
        <ele>464.4</ele>
        <time>2021-06-26T07:19:30Z</time>
      </trkpt>
      <trkpt lat="47.72054" lon="6.94467">
        <ele>462.6</ele>
        <time>2021-06-26T07:19:32Z</time>
      </trkpt>
      <trkpt lat="47.72038" lon="6.94443">
        <ele>461.2</ele>
        <time>2021-06-26T07:19:34Z</time>
      </trkpt>
      <trkpt lat="47.72023" lon="6.94416">
        <ele>459.6</ele>
        <time>2021-06-26T07:19:36Z</time>
      </trkpt>
      <trkpt lat="47.72008" lon="6.9439">
        <ele>457.8</ele>
        <time>2021-06-26T07:19:38Z</time>
      </trkpt>
      <trkpt lat="47.72" lon="6.94377">
        <ele>456.4</ele>
        <time>2021-06-26T07:19:39Z</time>
      </trkpt>
      <trkpt lat="47.71982" lon="6.94348">
        <ele>454.8</ele>
        <time>2021-06-26T07:19:41Z</time>
      </trkpt>
      <trkpt lat="47.71964" lon="6.9432">
        <ele>453</ele>
        <time>2021-06-26T07:19:43Z</time>
      </trkpt>
      <trkpt lat="47.71955" lon="6.94304">
        <ele>452.6</ele>
        <time>2021-06-26T07:19:44Z</time>
      </trkpt>
      <trkpt lat="47.71947" lon="6.94291">
        <ele>451.4</ele>
        <time>2021-06-26T07:19:45Z</time>
      </trkpt>
      <trkpt lat="47.71931" lon="6.94264">
        <ele>449.8</ele>
        <time>2021-06-26T07:19:47Z</time>
      </trkpt>
      <trkpt lat="47.71924" lon="6.94252">
        <ele>448.2</ele>
        <time>2021-06-26T07:19:48Z</time>
      </trkpt>
      <trkpt lat="47.71909" lon="6.94227">
        <ele>446.6</ele>
        <time>2021-06-26T07:19:50Z</time>
      </trkpt>
      <trkpt lat="47.71901" lon="6.94216">
        <ele>446.2</ele>
        <time>2021-06-26T07:19:51Z</time>
      </trkpt>
      <trkpt lat="47.71888" lon="6.94195">
        <ele>445.6</ele>
        <time>2021-06-26T07:19:53Z</time>
      </trkpt>
      <trkpt lat="47.71871" lon="6.94164">
        <ele>445.2</ele>
        <time>2021-06-26T07:19:56Z</time>
      </trkpt>
      <trkpt lat="47.71862" lon="6.94138">
        <ele>445.4</ele>
        <time>2021-06-26T07:19:59Z</time>
      </trkpt>
      <trkpt lat="47.7186" lon="6.94128">
        <ele>445.4</ele>
        <time>2021-06-26T07:20:00Z</time>
      </trkpt>
      <trkpt lat="47.7186" lon="6.9411">
        <ele>446.2</ele>
        <time>2021-06-26T07:20:02Z</time>
      </trkpt>
      <trkpt lat="47.71861" lon="6.94102">
        <ele>446.8</ele>
        <time>2021-06-26T07:20:03Z</time>
      </trkpt>
      <trkpt lat="47.71863" lon="6.94096">
        <ele>447</ele>
        <time>2021-06-26T07:20:04Z</time>
      </trkpt>
      <trkpt lat="47.71869" lon="6.94081">
        <ele>447.6</ele>
        <time>2021-06-26T07:20:06Z</time>
      </trkpt>
      <trkpt lat="47.71873" lon="6.94074">
        <ele>448.2</ele>
        <time>2021-06-26T07:20:07Z</time>
      </trkpt>
      <trkpt lat="47.7188" lon="6.9406">
        <ele>449</ele>
        <time>2021-06-26T07:20:09Z</time>
      </trkpt>
      <trkpt lat="47.71884" lon="6.94054">
        <ele>449.4</ele>
        <time>2021-06-26T07:20:10Z</time>
      </trkpt>
      <trkpt lat="47.719" lon="6.94028">
        <ele>450.4</ele>
        <time>2021-06-26T07:20:14Z</time>
      </trkpt>
      <trkpt lat="47.71914" lon="6.94005">
        <ele>451.4</ele>
        <time>2021-06-26T07:20:18Z</time>
      </trkpt>
      <trkpt lat="47.71918" lon="6.94">
        <ele>451.6</ele>
        <time>2021-06-26T07:20:19Z</time>
      </trkpt>
      <trkpt lat="47.71925" lon="6.9399">
        <ele>452</ele>
        <time>2021-06-26T07:20:21Z</time>
      </trkpt>
      <trkpt lat="47.71929" lon="6.93985">
        <ele>452</ele>
        <time>2021-06-26T07:20:22Z</time>
      </trkpt>
      <trkpt lat="47.71936" lon="6.93972">
        <ele>452.4</ele>
        <time>2021-06-26T07:20:24Z</time>
      </trkpt>
      <trkpt lat="47.7194" lon="6.93964">
        <ele>452.6</ele>
        <time>2021-06-26T07:20:25Z</time>
      </trkpt>
      <trkpt lat="47.71947" lon="6.93948">
        <ele>452.8</ele>
        <time>2021-06-26T07:20:27Z</time>
      </trkpt>
      <trkpt lat="47.71965" lon="6.93909">
        <ele>453.2</ele>
        <time>2021-06-26T07:20:32Z</time>
      </trkpt>
      <trkpt lat="47.71969" lon="6.93899">
        <ele>453</ele>
        <time>2021-06-26T07:20:33Z</time>
      </trkpt>
      <trkpt lat="47.71974" lon="6.93892">
        <ele>453</ele>
        <time>2021-06-26T07:20:34Z</time>
      </trkpt>
      <trkpt lat="47.71985" lon="6.93876">
        <ele>452.8</ele>
        <time>2021-06-26T07:20:36Z</time>
      </trkpt>
      <trkpt lat="47.71991" lon="6.93868">
        <ele>452.6</ele>
        <time>2021-06-26T07:20:37Z</time>
      </trkpt>
      <trkpt lat="47.72022" lon="6.93843">
        <ele>450.8</ele>
        <time>2021-06-26T07:20:41Z</time>
      </trkpt>
      <trkpt lat="47.7203" lon="6.93835">
        <ele>450.2</ele>
        <time>2021-06-26T07:20:42Z</time>
      </trkpt>
      <trkpt lat="47.72037" lon="6.93826">
        <ele>449.4</ele>
        <time>2021-06-26T07:20:43Z</time>
      </trkpt>
      <trkpt lat="47.72054" lon="6.93798">
        <ele>448.2</ele>
        <time>2021-06-26T07:20:46Z</time>
      </trkpt>
      <trkpt lat="47.7206" lon="6.93788">
        <ele>447.8</ele>
        <time>2021-06-26T07:20:47Z</time>
      </trkpt>
      <trkpt lat="47.72066" lon="6.93778">
        <ele>447</ele>
        <time>2021-06-26T07:20:48Z</time>
      </trkpt>
      <trkpt lat="47.72071" lon="6.93767">
        <ele>446.6</ele>
        <time>2021-06-26T07:20:49Z</time>
      </trkpt>
      <trkpt lat="47.72087" lon="6.93732">
        <ele>445.8</ele>
        <time>2021-06-26T07:20:52Z</time>
      </trkpt>
      <trkpt lat="47.72089" lon="6.93718">
        <ele>445.6</ele>
        <time>2021-06-26T07:20:53Z</time>
      </trkpt>
      <trkpt lat="47.72091" lon="6.93701">
        <ele>445.2</ele>
        <time>2021-06-26T07:20:54Z</time>
      </trkpt>
      <trkpt lat="47.72091" lon="6.93669">
        <ele>444.2</ele>
        <time>2021-06-26T07:20:56Z</time>
      </trkpt>
      <trkpt lat="47.72091" lon="6.93652">
        <ele>443.4</ele>
        <time>2021-06-26T07:20:57Z</time>
      </trkpt>
      <trkpt lat="47.72089" lon="6.93636">
        <ele>442.8</ele>
        <time>2021-06-26T07:20:58Z</time>
      </trkpt>
      <trkpt lat="47.72087" lon="6.9362">
        <ele>441.8</ele>
        <time>2021-06-26T07:20:59Z</time>
      </trkpt>
      <trkpt lat="47.72084" lon="6.93606">
        <ele>441.4</ele>
        <time>2021-06-26T07:21:00Z</time>
      </trkpt>
      <trkpt lat="47.72081" lon="6.93592">
        <ele>440.6</ele>
        <time>2021-06-26T07:21:01Z</time>
      </trkpt>
      <trkpt lat="47.72077" lon="6.9358">
        <ele>440.4</ele>
        <time>2021-06-26T07:21:02Z</time>
      </trkpt>
      <trkpt lat="47.72068" lon="6.93556">
        <ele>439.6</ele>
        <time>2021-06-26T07:21:04Z</time>
      </trkpt>
      <trkpt lat="47.72063" lon="6.93545">
        <ele>439.2</ele>
        <time>2021-06-26T07:21:05Z</time>
      </trkpt>
      <trkpt lat="47.72055" lon="6.93512">
        <ele>439</ele>
        <time>2021-06-26T07:21:08Z</time>
      </trkpt>
      <trkpt lat="47.72054" lon="6.93495">
        <ele>439</ele>
        <time>2021-06-26T07:21:10Z</time>
      </trkpt>
      <trkpt lat="47.72054" lon="6.93474">
        <ele>439.2</ele>
        <time>2021-06-26T07:21:12Z</time>
      </trkpt>
      <trkpt lat="47.72056" lon="6.93438">
        <ele>440.4</ele>
        <time>2021-06-26T07:21:16Z</time>
      </trkpt>
      <trkpt lat="47.72059" lon="6.93411">
        <ele>441</ele>
        <time>2021-06-26T07:21:19Z</time>
      </trkpt>
      <trkpt lat="47.72059" lon="6.93382">
        <ele>441</ele>
        <time>2021-06-26T07:21:22Z</time>
      </trkpt>
      <trkpt lat="47.72056" lon="6.93365">
        <ele>441</ele>
        <time>2021-06-26T07:21:24Z</time>
      </trkpt>
      <trkpt lat="47.72044" lon="6.93332">
        <ele>440.8</ele>
        <time>2021-06-26T07:21:28Z</time>
      </trkpt>
      <trkpt lat="47.7204" lon="6.93325">
        <ele>440.8</ele>
        <time>2021-06-26T07:21:29Z</time>
      </trkpt>
      <trkpt lat="47.72017" lon="6.93283">
        <ele>440.8</ele>
        <time>2021-06-26T07:21:35Z</time>
      </trkpt>
      <trkpt lat="47.71998" lon="6.93243">
        <ele>441</ele>
        <time>2021-06-26T07:21:41Z</time>
      </trkpt>
      <trkpt lat="47.71996" lon="6.93236">
        <ele>441</ele>
        <time>2021-06-26T07:21:42Z</time>
      </trkpt>
      <trkpt lat="47.71984" lon="6.93207">
        <ele>441</ele>
        <time>2021-06-26T07:21:46Z</time>
      </trkpt>
      <trkpt lat="47.71978" lon="6.93193">
        <ele>441</ele>
        <time>2021-06-26T07:21:48Z</time>
      </trkpt>
      <trkpt lat="47.71973" lon="6.93187">
        <ele>441</ele>
        <time>2021-06-26T07:21:49Z</time>
      </trkpt>
      <trkpt lat="47.71968" lon="6.93182">
        <ele>441</ele>
        <time>2021-06-26T07:21:50Z</time>
      </trkpt>
      <trkpt lat="47.71952" lon="6.93171">
        <ele>441</ele>
        <time>2021-06-26T07:21:53Z</time>
      </trkpt>
      <trkpt lat="47.71946" lon="6.9317">
        <ele>441.2</ele>
        <time>2021-06-26T07:21:54Z</time>
      </trkpt>
      <trkpt lat="47.71919" lon="6.93159">
        <ele>441.8</ele>
        <time>2021-06-26T07:21:59Z</time>
      </trkpt>
      <trkpt lat="47.71908" lon="6.93151">
        <ele>442</ele>
        <time>2021-06-26T07:22:01Z</time>
      </trkpt>
      <trkpt lat="47.71903" lon="6.93146">
        <ele>442</ele>
        <time>2021-06-26T07:22:02Z</time>
      </trkpt>
      <trkpt lat="47.71898" lon="6.9314">
        <ele>442.2</ele>
        <time>2021-06-26T07:22:03Z</time>
      </trkpt>
      <trkpt lat="47.71894" lon="6.93134">
        <ele>442.4</ele>
        <time>2021-06-26T07:22:04Z</time>
      </trkpt>
      <trkpt lat="47.71891" lon="6.93127">
        <ele>442.6</ele>
        <time>2021-06-26T07:22:05Z</time>
      </trkpt>
      <trkpt lat="47.71877" lon="6.931">
        <ele>443</ele>
        <time>2021-06-26T07:22:09Z</time>
      </trkpt>
      <trkpt lat="47.71868" lon="6.93077">
        <ele>443</ele>
        <time>2021-06-26T07:22:12Z</time>
      </trkpt>
      <trkpt lat="47.71866" lon="6.93068">
        <ele>443.2</ele>
        <time>2021-06-26T07:22:13Z</time>
      </trkpt>
      <trkpt lat="47.71862" lon="6.93051">
        <ele>443.2</ele>
        <time>2021-06-26T07:22:15Z</time>
      </trkpt>
      <trkpt lat="47.71861" lon="6.93034">
        <ele>443.2</ele>
        <time>2021-06-26T07:22:17Z</time>
      </trkpt>
      <trkpt lat="47.71864" lon="6.93018">
        <ele>443.4</ele>
        <time>2021-06-26T07:22:19Z</time>
      </trkpt>
      <trkpt lat="47.71868" lon="6.93002">
        <ele>443.4</ele>
        <time>2021-06-26T07:22:21Z</time>
      </trkpt>
      <trkpt lat="47.71887" lon="6.92948">
        <ele>443.8</ele>
        <time>2021-06-26T07:22:28Z</time>
      </trkpt>
      <trkpt lat="47.71898" lon="6.92917">
        <ele>444.6</ele>
        <time>2021-06-26T07:22:32Z</time>
      </trkpt>
      <trkpt lat="47.71914" lon="6.92881">
        <ele>445</ele>
        <time>2021-06-26T07:22:37Z</time>
      </trkpt>
      <trkpt lat="47.71916" lon="6.92875">
        <ele>445</ele>
        <time>2021-06-26T07:22:38Z</time>
      </trkpt>
      <trkpt lat="47.71924" lon="6.92858">
        <ele>445</ele>
        <time>2021-06-26T07:22:41Z</time>
      </trkpt>
      <trkpt lat="47.71931" lon="6.92845">
        <ele>445.6</ele>
        <time>2021-06-26T07:22:44Z</time>
      </trkpt>
      <trkpt lat="47.71938" lon="6.92832">
        <ele>445.8</ele>
        <time>2021-06-26T07:22:47Z</time>
      </trkpt>
      <trkpt lat="47.71951" lon="6.92806">
        <ele>446</ele>
        <time>2021-06-26T07:22:52Z</time>
      </trkpt>
      <trkpt lat="47.71962" lon="6.92785">
        <ele>446</ele>
        <time>2021-06-26T07:22:55Z</time>
      </trkpt>
      <trkpt lat="47.71972" lon="6.92763">
        <ele>446</ele>
        <time>2021-06-26T07:22:58Z</time>
      </trkpt>
      <trkpt lat="47.72007" lon="6.92699">
        <ele>445</ele>
        <time>2021-06-26T07:23:07Z</time>
      </trkpt>
      <trkpt lat="47.72011" lon="6.92693">
        <ele>444.8</ele>
        <time>2021-06-26T07:23:08Z</time>
      </trkpt>
      <trkpt lat="47.72032" lon="6.92661">
        <ele>444.4</ele>
        <time>2021-06-26T07:23:13Z</time>
      </trkpt>
      <trkpt lat="47.72049" lon="6.92635">
        <ele>444.4</ele>
        <time>2021-06-26T07:23:17Z</time>
      </trkpt>
      <trkpt lat="47.72089" lon="6.92578">
        <ele>444.6</ele>
        <time>2021-06-26T07:23:26Z</time>
      </trkpt>
      <trkpt lat="47.72119" lon="6.92535">
        <ele>444.8</ele>
        <time>2021-06-26T07:23:33Z</time>
      </trkpt>
      <trkpt lat="47.72148" lon="6.92492">
        <ele>445</ele>
        <time>2021-06-26T07:23:40Z</time>
      </trkpt>
      <trkpt lat="47.72181" lon="6.92456">
        <ele>445.4</ele>
        <time>2021-06-26T07:23:47Z</time>
      </trkpt>
      <trkpt lat="47.7219" lon="6.92448">
        <ele>445.4</ele>
        <time>2021-06-26T07:23:49Z</time>
      </trkpt>
      <trkpt lat="47.722" lon="6.92441">
        <ele>445.6</ele>
        <time>2021-06-26T07:23:51Z</time>
      </trkpt>
      <trkpt lat="47.72211" lon="6.92434">
        <ele>445.6</ele>
        <time>2021-06-26T07:23:53Z</time>
      </trkpt>
      <trkpt lat="47.72241" lon="6.92414">
        <ele>446.4</ele>
        <time>2021-06-26T07:23:59Z</time>
      </trkpt>
      <trkpt lat="47.72246" lon="6.9241">
        <ele>446.4</ele>
        <time>2021-06-26T07:24:00Z</time>
      </trkpt>
      <trkpt lat="47.7225" lon="6.92404">
        <ele>446.8</ele>
        <time>2021-06-26T07:24:01Z</time>
      </trkpt>
      <trkpt lat="47.72254" lon="6.92398">
        <ele>447</ele>
        <time>2021-06-26T07:24:02Z</time>
      </trkpt>
      <trkpt lat="47.72256" lon="6.9239">
        <ele>447.2</ele>
        <time>2021-06-26T07:24:03Z</time>
      </trkpt>
      <trkpt lat="47.72258" lon="6.92373">
        <ele>447.4</ele>
        <time>2021-06-26T07:24:05Z</time>
      </trkpt>
      <trkpt lat="47.72259" lon="6.92345">
        <ele>447.8</ele>
        <time>2021-06-26T07:24:08Z</time>
      </trkpt>
      <trkpt lat="47.72254" lon="6.92273">
        <ele>447.8</ele>
        <time>2021-06-26T07:24:16Z</time>
      </trkpt>
      <trkpt lat="47.72245" lon="6.92221">
        <ele>447.8</ele>
        <time>2021-06-26T07:24:22Z</time>
      </trkpt>
      <trkpt lat="47.72244" lon="6.92211">
        <ele>447.8</ele>
        <time>2021-06-26T07:24:23Z</time>
      </trkpt>
      <trkpt lat="47.72239" lon="6.9216">
        <ele>447.8</ele>
        <time>2021-06-26T07:24:29Z</time>
      </trkpt>
      <trkpt lat="47.72239" lon="6.92143">
        <ele>447.8</ele>
        <time>2021-06-26T07:24:31Z</time>
      </trkpt>
      <trkpt lat="47.72238" lon="6.92086">
        <ele>447.4</ele>
        <time>2021-06-26T07:24:38Z</time>
      </trkpt>
      <trkpt lat="47.72243" lon="6.92039">
        <ele>447</ele>
        <time>2021-06-26T07:24:44Z</time>
      </trkpt>
      <trkpt lat="47.72246" lon="6.92032">
        <ele>447</ele>
        <time>2021-06-26T07:24:45Z</time>
      </trkpt>
      <trkpt lat="47.72267" lon="6.9198">
        <ele>447</ele>
        <time>2021-06-26T07:24:52Z</time>
      </trkpt>
      <trkpt lat="47.7228" lon="6.91941">
        <ele>447.4</ele>
        <time>2021-06-26T07:24:57Z</time>
      </trkpt>
      <trkpt lat="47.72285" lon="6.91925">
        <ele>447.4</ele>
        <time>2021-06-26T07:24:59Z</time>
      </trkpt>
      <trkpt lat="47.72286" lon="6.91917">
        <ele>447.6</ele>
        <time>2021-06-26T07:25:00Z</time>
      </trkpt>
      <trkpt lat="47.72292" lon="6.91885">
        <ele>448.2</ele>
        <time>2021-06-26T07:25:04Z</time>
      </trkpt>
      <trkpt lat="47.72295" lon="6.91858">
        <ele>448.6</ele>
        <time>2021-06-26T07:25:07Z</time>
      </trkpt>
      <trkpt lat="47.72295" lon="6.91821">
        <ele>448.6</ele>
        <time>2021-06-26T07:25:11Z</time>
      </trkpt>
      <trkpt lat="47.72291" lon="6.9175">
        <ele>448</ele>
        <time>2021-06-26T07:25:19Z</time>
      </trkpt>
      <trkpt lat="47.72282" lon="6.91676">
        <ele>448.8</ele>
        <time>2021-06-26T07:25:28Z</time>
      </trkpt>
      <trkpt lat="47.7228" lon="6.91662">
        <ele>449</ele>
        <time>2021-06-26T07:25:30Z</time>
      </trkpt>
      <trkpt lat="47.72275" lon="6.91627">
        <ele>450.2</ele>
        <time>2021-06-26T07:25:35Z</time>
      </trkpt>
      <trkpt lat="47.72274" lon="6.91614">
        <ele>450.6</ele>
        <time>2021-06-26T07:25:37Z</time>
      </trkpt>
      <trkpt lat="47.72272" lon="6.91594">
        <ele>451.2</ele>
        <time>2021-06-26T07:25:40Z</time>
      </trkpt>
      <trkpt lat="47.7227" lon="6.91588">
        <ele>451.4</ele>
        <time>2021-06-26T07:25:41Z</time>
      </trkpt>
      <trkpt lat="47.72267" lon="6.9157">
        <ele>452.2</ele>
        <time>2021-06-26T07:25:44Z</time>
      </trkpt>
      <trkpt lat="47.72266" lon="6.91564">
        <ele>452.6</ele>
        <time>2021-06-26T07:25:45Z</time>
      </trkpt>
      <trkpt lat="47.72259" lon="6.91528">
        <ele>453.4</ele>
        <time>2021-06-26T07:25:51Z</time>
      </trkpt>
      <trkpt lat="47.72258" lon="6.91522">
        <ele>453.8</ele>
        <time>2021-06-26T07:25:52Z</time>
      </trkpt>
      <trkpt lat="47.72248" lon="6.91488">
        <ele>455</ele>
        <time>2021-06-26T07:25:58Z</time>
      </trkpt>
      <trkpt lat="47.72247" lon="6.91483">
        <ele>455</ele>
        <time>2021-06-26T07:25:59Z</time>
      </trkpt>
      <trkpt lat="47.72245" lon="6.91477">
        <ele>455.4</ele>
        <time>2021-06-26T07:26:00Z</time>
      </trkpt>
      <trkpt lat="47.7224" lon="6.9146">
        <ele>456</ele>
        <time>2021-06-26T07:26:03Z</time>
      </trkpt>
      <trkpt lat="47.72237" lon="6.91449">
        <ele>456.6</ele>
        <time>2021-06-26T07:26:05Z</time>
      </trkpt>
      <trkpt lat="47.72235" lon="6.91443">
        <ele>456.6</ele>
        <time>2021-06-26T07:26:06Z</time>
      </trkpt>
      <trkpt lat="47.7223" lon="6.91432">
        <ele>457</ele>
        <time>2021-06-26T07:26:08Z</time>
      </trkpt>
      <trkpt lat="47.72229" lon="6.91425">
        <ele>457.4</ele>
        <time>2021-06-26T07:26:09Z</time>
      </trkpt>
      <trkpt lat="47.72227" lon="6.91419">
        <ele>457.4</ele>
        <time>2021-06-26T07:26:10Z</time>
      </trkpt>
      <trkpt lat="47.72216" lon="6.91373">
        <ele>458.4</ele>
        <time>2021-06-26T07:26:17Z</time>
      </trkpt>
      <trkpt lat="47.72212" lon="6.91361">
        <ele>458.6</ele>
        <time>2021-06-26T07:26:19Z</time>
      </trkpt>
      <trkpt lat="47.72193" lon="6.91296">
        <ele>459.2</ele>
        <time>2021-06-26T07:26:29Z</time>
      </trkpt>
      <trkpt lat="47.72183" lon="6.9127">
        <ele>459.4</ele>
        <time>2021-06-26T07:26:33Z</time>
      </trkpt>
      <trkpt lat="47.72166" lon="6.91225">
        <ele>459.6</ele>
        <time>2021-06-26T07:26:40Z</time>
      </trkpt>
      <trkpt lat="47.72145" lon="6.91175">
        <ele>460.2</ele>
        <time>2021-06-26T07:26:48Z</time>
      </trkpt>
      <trkpt lat="47.72143" lon="6.91169">
        <ele>460.4</ele>
        <time>2021-06-26T07:26:49Z</time>
      </trkpt>
      <trkpt lat="47.72127" lon="6.9113">
        <ele>460.8</ele>
        <time>2021-06-26T07:26:55Z</time>
      </trkpt>
      <trkpt lat="47.72108" lon="6.91085">
        <ele>461</ele>
        <time>2021-06-26T07:27:02Z</time>
      </trkpt>
      <trkpt lat="47.72099" lon="6.91066">
        <ele>461.4</ele>
        <time>2021-06-26T07:27:05Z</time>
      </trkpt>
      <trkpt lat="47.72092" lon="6.91047">
        <ele>461.8</ele>
        <time>2021-06-26T07:27:08Z</time>
      </trkpt>
      <trkpt lat="47.72076" lon="6.91009">
        <ele>462.6</ele>
        <time>2021-06-26T07:27:14Z</time>
      </trkpt>
      <trkpt lat="47.72066" lon="6.90983">
        <ele>463</ele>
        <time>2021-06-26T07:27:18Z</time>
      </trkpt>
      <trkpt lat="47.72055" lon="6.90949">
        <ele>463.6</ele>
        <time>2021-06-26T07:27:23Z</time>
      </trkpt>
      <trkpt lat="47.72052" lon="6.90934">
        <ele>463.8</ele>
        <time>2021-06-26T07:27:25Z</time>
      </trkpt>
      <trkpt lat="47.72045" lon="6.9088">
        <ele>464</ele>
        <time>2021-06-26T07:27:32Z</time>
      </trkpt>
      <trkpt lat="47.72041" lon="6.90827">
        <ele>463.8</ele>
        <time>2021-06-26T07:27:39Z</time>
      </trkpt>
      <trkpt lat="47.72039" lon="6.90781">
        <ele>464.2</ele>
        <time>2021-06-26T07:27:45Z</time>
      </trkpt>
      <trkpt lat="47.72037" lon="6.90711">
        <ele>464.8</ele>
        <time>2021-06-26T07:27:54Z</time>
      </trkpt>
      <trkpt lat="47.72037" lon="6.90686">
        <ele>464.8</ele>
        <time>2021-06-26T07:27:57Z</time>
      </trkpt>
      <trkpt lat="47.72033" lon="6.90605">
        <ele>465.4</ele>
        <time>2021-06-26T07:28:07Z</time>
      </trkpt>
      <trkpt lat="47.72032" lon="6.9058">
        <ele>465.8</ele>
        <time>2021-06-26T07:28:10Z</time>
      </trkpt>
      <trkpt lat="47.72032" lon="6.90565">
        <ele>466.2</ele>
        <time>2021-06-26T07:28:12Z</time>
      </trkpt>
      <trkpt lat="47.72032" lon="6.9055">
        <ele>466.4</ele>
        <time>2021-06-26T07:28:14Z</time>
      </trkpt>
      <trkpt lat="47.72031" lon="6.90543">
        <ele>466.6</ele>
        <time>2021-06-26T07:28:15Z</time>
      </trkpt>
      <trkpt lat="47.72031" lon="6.90529">
        <ele>467</ele>
        <time>2021-06-26T07:28:17Z</time>
      </trkpt>
      <trkpt lat="47.7203" lon="6.90517">
        <ele>467.2</ele>
        <time>2021-06-26T07:28:19Z</time>
      </trkpt>
      <trkpt lat="47.7203" lon="6.90498">
        <ele>468</ele>
        <time>2021-06-26T07:28:22Z</time>
      </trkpt>
      <trkpt lat="47.72029" lon="6.9048">
        <ele>469.2</ele>
        <time>2021-06-26T07:28:25Z</time>
      </trkpt>
      <trkpt lat="47.72029" lon="6.90474">
        <ele>469.2</ele>
        <time>2021-06-26T07:28:26Z</time>
      </trkpt>
      <trkpt lat="47.7203" lon="6.90457">
        <ele>470.2</ele>
        <time>2021-06-26T07:28:29Z</time>
      </trkpt>
      <trkpt lat="47.7203" lon="6.90451">
        <ele>470.4</ele>
        <time>2021-06-26T07:28:30Z</time>
      </trkpt>
      <trkpt lat="47.72031" lon="6.9043">
        <ele>471.2</ele>
        <time>2021-06-26T07:28:34Z</time>
      </trkpt>
      <trkpt lat="47.72031" lon="6.90424">
        <ele>471.2</ele>
        <time>2021-06-26T07:28:35Z</time>
      </trkpt>
      <trkpt lat="47.72031" lon="6.90402">
        <ele>472.2</ele>
        <time>2021-06-26T07:28:39Z</time>
      </trkpt>
      <trkpt lat="47.72031" lon="6.90397">
        <ele>472.2</ele>
        <time>2021-06-26T07:28:40Z</time>
      </trkpt>
      <trkpt lat="47.72033" lon="6.90369">
        <ele>473.4</ele>
        <time>2021-06-26T07:28:45Z</time>
      </trkpt>
      <trkpt lat="47.72034" lon="6.90364">
        <ele>473.6</ele>
        <time>2021-06-26T07:28:46Z</time>
      </trkpt>
      <trkpt lat="47.72035" lon="6.90326">
        <ele>474.4</ele>
        <time>2021-06-26T07:28:52Z</time>
      </trkpt>
      <trkpt lat="47.72034" lon="6.90313">
        <ele>474.6</ele>
        <time>2021-06-26T07:28:54Z</time>
      </trkpt>
      <trkpt lat="47.72034" lon="6.90256">
        <ele>475.4</ele>
        <time>2021-06-26T07:29:02Z</time>
      </trkpt>
      <trkpt lat="47.72034" lon="6.90199">
        <ele>475.6</ele>
        <time>2021-06-26T07:29:10Z</time>
      </trkpt>
      <trkpt lat="47.72035" lon="6.90185">
        <ele>475.8</ele>
        <time>2021-06-26T07:29:12Z</time>
      </trkpt>
      <trkpt lat="47.72035" lon="6.90117">
        <ele>476.2</ele>
        <time>2021-06-26T07:29:21Z</time>
      </trkpt>
      <trkpt lat="47.72036" lon="6.90072">
        <ele>476.6</ele>
        <time>2021-06-26T07:29:27Z</time>
      </trkpt>
      <trkpt lat="47.72037" lon="6.90058">
        <ele>477</ele>
        <time>2021-06-26T07:29:29Z</time>
      </trkpt>
      <trkpt lat="47.72039" lon="6.90008">
        <ele>477.8</ele>
        <time>2021-06-26T07:29:36Z</time>
      </trkpt>
      <trkpt lat="47.72038" lon="6.89994">
        <ele>478.2</ele>
        <time>2021-06-26T07:29:38Z</time>
      </trkpt>
      <trkpt lat="47.72038" lon="6.89941">
        <ele>478.8</ele>
        <time>2021-06-26T07:29:45Z</time>
      </trkpt>
      <trkpt lat="47.72038" lon="6.89911">
        <ele>479.2</ele>
        <time>2021-06-26T07:29:49Z</time>
      </trkpt>
      <trkpt lat="47.7204" lon="6.89859">
        <ele>480</ele>
        <time>2021-06-26T07:29:56Z</time>
      </trkpt>
      <trkpt lat="47.72041" lon="6.89852">
        <ele>480.2</ele>
        <time>2021-06-26T07:29:57Z</time>
      </trkpt>
      <trkpt lat="47.72049" lon="6.89796">
        <ele>481</ele>
        <time>2021-06-26T07:30:05Z</time>
      </trkpt>
      <trkpt lat="47.72054" lon="6.89777">
        <ele>481.6</ele>
        <time>2021-06-26T07:30:08Z</time>
      </trkpt>
      <trkpt lat="47.72062" lon="6.89753">
        <ele>482.4</ele>
        <time>2021-06-26T07:30:12Z</time>
      </trkpt>
      <trkpt lat="47.72072" lon="6.89719">
        <ele>483.6</ele>
        <time>2021-06-26T07:30:18Z</time>
      </trkpt>
      <trkpt lat="47.72073" lon="6.89714">
        <ele>483.8</ele>
        <time>2021-06-26T07:30:19Z</time>
      </trkpt>
      <trkpt lat="47.72075" lon="6.89709">
        <ele>484</ele>
        <time>2021-06-26T07:30:20Z</time>
      </trkpt>
      <trkpt lat="47.72079" lon="6.89693">
        <ele>484.6</ele>
        <time>2021-06-26T07:30:23Z</time>
      </trkpt>
      <trkpt lat="47.72087" lon="6.8967">
        <ele>486</ele>
        <time>2021-06-26T07:30:28Z</time>
      </trkpt>
      <trkpt lat="47.72089" lon="6.89665">
        <ele>486</ele>
        <time>2021-06-26T07:30:29Z</time>
      </trkpt>
      <trkpt lat="47.72094" lon="6.8964">
        <ele>487.2</ele>
        <time>2021-06-26T07:30:34Z</time>
      </trkpt>
      <trkpt lat="47.72096" lon="6.8963">
        <ele>487.6</ele>
        <time>2021-06-26T07:30:36Z</time>
      </trkpt>
      <trkpt lat="47.72099" lon="6.89614">
        <ele>488.2</ele>
        <time>2021-06-26T07:30:39Z</time>
      </trkpt>
      <trkpt lat="47.72107" lon="6.89589">
        <ele>489.4</ele>
        <time>2021-06-26T07:30:44Z</time>
      </trkpt>
      <trkpt lat="47.7211" lon="6.89584">
        <ele>489.8</ele>
        <time>2021-06-26T07:30:45Z</time>
      </trkpt>
      <trkpt lat="47.72116" lon="6.8957">
        <ele>490.6</ele>
        <time>2021-06-26T07:30:48Z</time>
      </trkpt>
      <trkpt lat="47.72126" lon="6.89552">
        <ele>491.2</ele>
        <time>2021-06-26T07:30:52Z</time>
      </trkpt>
      <trkpt lat="47.7213" lon="6.89541">
        <ele>491.8</ele>
        <time>2021-06-26T07:30:54Z</time>
      </trkpt>
      <trkpt lat="47.72141" lon="6.89513">
        <ele>492.4</ele>
        <time>2021-06-26T07:30:59Z</time>
      </trkpt>
      <trkpt lat="47.72146" lon="6.89501">
        <ele>492.8</ele>
        <time>2021-06-26T07:31:01Z</time>
      </trkpt>
      <trkpt lat="47.72159" lon="6.89463">
        <ele>493.8</ele>
        <time>2021-06-26T07:31:07Z</time>
      </trkpt>
      <trkpt lat="47.72161" lon="6.89456">
        <ele>494</ele>
        <time>2021-06-26T07:31:08Z</time>
      </trkpt>
      <trkpt lat="47.72173" lon="6.89413">
        <ele>494.2</ele>
        <time>2021-06-26T07:31:14Z</time>
      </trkpt>
      <trkpt lat="47.72184" lon="6.89348">
        <ele>494</ele>
        <time>2021-06-26T07:31:22Z</time>
      </trkpt>
      <trkpt lat="47.72191" lon="6.89282">
        <ele>493</ele>
        <time>2021-06-26T07:31:29Z</time>
      </trkpt>
      <trkpt lat="47.72193" lon="6.89271">
        <ele>492.8</ele>
        <time>2021-06-26T07:31:30Z</time>
      </trkpt>
      <trkpt lat="47.72196" lon="6.89224">
        <ele>491.8</ele>
        <time>2021-06-26T07:31:34Z</time>
      </trkpt>
      <trkpt lat="47.72197" lon="6.89211">
        <ele>491</ele>
        <time>2021-06-26T07:31:35Z</time>
      </trkpt>
      <trkpt lat="47.722" lon="6.89186">
        <ele>490.2</ele>
        <time>2021-06-26T07:31:37Z</time>
      </trkpt>
      <trkpt lat="47.72203" lon="6.8916">
        <ele>489.2</ele>
        <time>2021-06-26T07:31:39Z</time>
      </trkpt>
      <trkpt lat="47.72207" lon="6.89132">
        <ele>487.8</ele>
        <time>2021-06-26T07:31:41Z</time>
      </trkpt>
      <trkpt lat="47.72211" lon="6.89103">
        <ele>486.8</ele>
        <time>2021-06-26T07:31:43Z</time>
      </trkpt>
      <trkpt lat="47.72216" lon="6.89073">
        <ele>485.8</ele>
        <time>2021-06-26T07:31:45Z</time>
      </trkpt>
      <trkpt lat="47.72223" lon="6.89044">
        <ele>484.8</ele>
        <time>2021-06-26T07:31:47Z</time>
      </trkpt>
      <trkpt lat="47.72227" lon="6.89028">
        <ele>484</ele>
        <time>2021-06-26T07:31:48Z</time>
      </trkpt>
      <trkpt lat="47.72234" lon="6.88999">
        <ele>483</ele>
        <time>2021-06-26T07:31:50Z</time>
      </trkpt>
      <trkpt lat="47.72245" lon="6.88953">
        <ele>481.2</ele>
        <time>2021-06-26T07:31:53Z</time>
      </trkpt>
      <trkpt lat="47.72249" lon="6.88937">
        <ele>481</ele>
        <time>2021-06-26T07:31:54Z</time>
      </trkpt>
      <trkpt lat="47.72253" lon="6.88921">
        <ele>479.8</ele>
        <time>2021-06-26T07:31:55Z</time>
      </trkpt>
      <trkpt lat="47.72265" lon="6.88873">
        <ele>478.6</ele>
        <time>2021-06-26T07:31:58Z</time>
      </trkpt>
      <trkpt lat="47.72267" lon="6.88856">
        <ele>477.4</ele>
        <time>2021-06-26T07:31:59Z</time>
      </trkpt>
      <trkpt lat="47.72273" lon="6.88824">
        <ele>476.2</ele>
        <time>2021-06-26T07:32:01Z</time>
      </trkpt>
      <trkpt lat="47.72276" lon="6.88808">
        <ele>475.8</ele>
        <time>2021-06-26T07:32:02Z</time>
      </trkpt>
      <trkpt lat="47.72278" lon="6.88791">
        <ele>475</ele>
        <time>2021-06-26T07:32:03Z</time>
      </trkpt>
      <trkpt lat="47.72282" lon="6.88759">
        <ele>473.6</ele>
        <time>2021-06-26T07:32:05Z</time>
      </trkpt>
      <trkpt lat="47.72285" lon="6.88728">
        <ele>472.6</ele>
        <time>2021-06-26T07:32:07Z</time>
      </trkpt>
      <trkpt lat="47.72286" lon="6.88713">
        <ele>471.8</ele>
        <time>2021-06-26T07:32:08Z</time>
      </trkpt>
      <trkpt lat="47.72289" lon="6.88683">
        <ele>471</ele>
        <time>2021-06-26T07:32:10Z</time>
      </trkpt>
      <trkpt lat="47.72293" lon="6.8864">
        <ele>470</ele>
        <time>2021-06-26T07:32:13Z</time>
      </trkpt>
      <trkpt lat="47.72296" lon="6.88613">
        <ele>469.4</ele>
        <time>2021-06-26T07:32:15Z</time>
      </trkpt>
      <trkpt lat="47.72301" lon="6.88562">
        <ele>469</ele>
        <time>2021-06-26T07:32:19Z</time>
      </trkpt>
      <trkpt lat="47.72304" lon="6.8855">
        <ele>469</ele>
        <time>2021-06-26T07:32:20Z</time>
      </trkpt>
      <trkpt lat="47.72308" lon="6.88541">
        <ele>468.8</ele>
        <time>2021-06-26T07:32:21Z</time>
      </trkpt>
      <trkpt lat="47.72315" lon="6.88521">
        <ele>468.6</ele>
        <time>2021-06-26T07:32:23Z</time>
      </trkpt>
      <trkpt lat="47.72314" lon="6.88489">
        <ele>468.4</ele>
        <time>2021-06-26T07:32:26Z</time>
      </trkpt>
      <trkpt lat="47.72313" lon="6.88454">
        <ele>468.2</ele>
        <time>2021-06-26T07:32:29Z</time>
      </trkpt>
      <trkpt lat="47.72313" lon="6.88442">
        <ele>467.8</ele>
        <time>2021-06-26T07:32:30Z</time>
      </trkpt>
      <trkpt lat="47.72314" lon="6.88431">
        <ele>467.8</ele>
        <time>2021-06-26T07:32:31Z</time>
      </trkpt>
      <trkpt lat="47.72317" lon="6.88365">
        <ele>466.8</ele>
        <time>2021-06-26T07:32:37Z</time>
      </trkpt>
      <trkpt lat="47.72317" lon="6.88331">
        <ele>466.2</ele>
        <time>2021-06-26T07:32:40Z</time>
      </trkpt>
      <trkpt lat="47.72317" lon="6.88309">
        <ele>465.6</ele>
        <time>2021-06-26T07:32:42Z</time>
      </trkpt>
      <trkpt lat="47.72315" lon="6.88265">
        <ele>464.8</ele>
        <time>2021-06-26T07:32:46Z</time>
      </trkpt>
      <trkpt lat="47.72313" lon="6.88232">
        <ele>464.6</ele>
        <time>2021-06-26T07:32:49Z</time>
      </trkpt>
      <trkpt lat="47.72307" lon="6.88164">
        <ele>463.8</ele>
        <time>2021-06-26T07:32:55Z</time>
      </trkpt>
      <trkpt lat="47.72304" lon="6.8814">
        <ele>463.2</ele>
        <time>2021-06-26T07:32:57Z</time>
      </trkpt>
      <trkpt lat="47.72298" lon="6.88083">
        <ele>462</ele>
        <time>2021-06-26T07:33:02Z</time>
      </trkpt>
      <trkpt lat="47.72295" lon="6.88059">
        <ele>461.8</ele>
        <time>2021-06-26T07:33:04Z</time>
      </trkpt>
      <trkpt lat="47.72289" lon="6.88011">
        <ele>460.8</ele>
        <time>2021-06-26T07:33:08Z</time>
      </trkpt>
      <trkpt lat="47.72284" lon="6.87976">
        <ele>459.8</ele>
        <time>2021-06-26T07:33:11Z</time>
      </trkpt>
      <trkpt lat="47.72282" lon="6.87953">
        <ele>459.6</ele>
        <time>2021-06-26T07:33:13Z</time>
      </trkpt>
      <trkpt lat="47.72275" lon="6.87897">
        <ele>458.8</ele>
        <time>2021-06-26T07:33:18Z</time>
      </trkpt>
      <trkpt lat="47.72271" lon="6.87864">
        <ele>458.4</ele>
        <time>2021-06-26T07:33:21Z</time>
      </trkpt>
      <trkpt lat="47.72267" lon="6.87829">
        <ele>457.8</ele>
        <time>2021-06-26T07:33:24Z</time>
      </trkpt>
      <trkpt lat="47.72259" lon="6.87756">
        <ele>456.6</ele>
        <time>2021-06-26T07:33:30Z</time>
      </trkpt>
      <trkpt lat="47.72257" lon="6.87743">
        <ele>456.2</ele>
        <time>2021-06-26T07:33:31Z</time>
      </trkpt>
      <trkpt lat="47.72254" lon="6.87717">
        <ele>455.4</ele>
        <time>2021-06-26T07:33:33Z</time>
      </trkpt>
      <trkpt lat="47.72247" lon="6.87663">
        <ele>454</ele>
        <time>2021-06-26T07:33:37Z</time>
      </trkpt>
      <trkpt lat="47.72245" lon="6.87649">
        <ele>453.6</ele>
        <time>2021-06-26T07:33:38Z</time>
      </trkpt>
      <trkpt lat="47.72243" lon="6.87635">
        <ele>452.6</ele>
        <time>2021-06-26T07:33:39Z</time>
      </trkpt>
      <trkpt lat="47.72234" lon="6.87592">
        <ele>451.2</ele>
        <time>2021-06-26T07:33:42Z</time>
      </trkpt>
      <trkpt lat="47.72231" lon="6.87577">
        <ele>451</ele>
        <time>2021-06-26T07:33:43Z</time>
      </trkpt>
      <trkpt lat="47.72218" lon="6.87534">
        <ele>449.4</ele>
        <time>2021-06-26T07:33:46Z</time>
      </trkpt>
      <trkpt lat="47.72209" lon="6.87504">
        <ele>448</ele>
        <time>2021-06-26T07:33:48Z</time>
      </trkpt>
      <trkpt lat="47.72204" lon="6.87489">
        <ele>447.6</ele>
        <time>2021-06-26T07:33:49Z</time>
      </trkpt>
      <trkpt lat="47.722" lon="6.87473">
        <ele>446.8</ele>
        <time>2021-06-26T07:33:50Z</time>
      </trkpt>
      <trkpt lat="47.72195" lon="6.87458">
        <ele>445.4</ele>
        <time>2021-06-26T07:33:51Z</time>
      </trkpt>
      <trkpt lat="47.72186" lon="6.87426">
        <ele>443.8</ele>
        <time>2021-06-26T07:33:53Z</time>
      </trkpt>
      <trkpt lat="47.72178" lon="6.87395">
        <ele>442.6</ele>
        <time>2021-06-26T07:33:55Z</time>
      </trkpt>
      <trkpt lat="47.72173" lon="6.87379">
        <ele>442.2</ele>
        <time>2021-06-26T07:33:56Z</time>
      </trkpt>
      <trkpt lat="47.72169" lon="6.87362">
        <ele>441.2</ele>
        <time>2021-06-26T07:33:57Z</time>
      </trkpt>
      <trkpt lat="47.72161" lon="6.87329">
        <ele>439.8</ele>
        <time>2021-06-26T07:33:59Z</time>
      </trkpt>
      <trkpt lat="47.72155" lon="6.87295">
        <ele>438.6</ele>
        <time>2021-06-26T07:34:01Z</time>
      </trkpt>
      <trkpt lat="47.72152" lon="6.87277">
        <ele>437.6</ele>
        <time>2021-06-26T07:34:02Z</time>
      </trkpt>
      <trkpt lat="47.7215" lon="6.87261">
        <ele>437</ele>
        <time>2021-06-26T07:34:03Z</time>
      </trkpt>
      <trkpt lat="47.72147" lon="6.87244">
        <ele>435.8</ele>
        <time>2021-06-26T07:34:04Z</time>
      </trkpt>
      <trkpt lat="47.72145" lon="6.87212">
        <ele>434.4</ele>
        <time>2021-06-26T07:34:06Z</time>
      </trkpt>
      <trkpt lat="47.72144" lon="6.87196">
        <ele>434</ele>
        <time>2021-06-26T07:34:07Z</time>
      </trkpt>
      <trkpt lat="47.72143" lon="6.87166">
        <ele>433</ele>
        <time>2021-06-26T07:34:09Z</time>
      </trkpt>
      <trkpt lat="47.72141" lon="6.87107">
        <ele>432</ele>
        <time>2021-06-26T07:34:13Z</time>
      </trkpt>
      <trkpt lat="47.72141" lon="6.87094">
        <ele>431.8</ele>
        <time>2021-06-26T07:34:14Z</time>
      </trkpt>
      <trkpt lat="47.7214" lon="6.87044">
        <ele>430.6</ele>
        <time>2021-06-26T07:34:18Z</time>
      </trkpt>
      <trkpt lat="47.72141" lon="6.87032">
        <ele>430.4</ele>
        <time>2021-06-26T07:34:19Z</time>
      </trkpt>
      <trkpt lat="47.72144" lon="6.86965">
        <ele>430</ele>
        <time>2021-06-26T07:34:25Z</time>
      </trkpt>
      <trkpt lat="47.72146" lon="6.86945">
        <ele>430</ele>
        <time>2021-06-26T07:34:27Z</time>
      </trkpt>
      <trkpt lat="47.7215" lon="6.86917">
        <ele>430.2</ele>
        <time>2021-06-26T07:34:30Z</time>
      </trkpt>
      <trkpt lat="47.72158" lon="6.86881">
        <ele>430.4</ele>
        <time>2021-06-26T07:34:34Z</time>
      </trkpt>
      <trkpt lat="47.72161" lon="6.86873">
        <ele>430.6</ele>
        <time>2021-06-26T07:34:35Z</time>
      </trkpt>
      <trkpt lat="47.72173" lon="6.86834">
        <ele>431.4</ele>
        <time>2021-06-26T07:34:40Z</time>
      </trkpt>
      <trkpt lat="47.72175" lon="6.86828">
        <ele>431.4</ele>
        <time>2021-06-26T07:34:41Z</time>
      </trkpt>
      <trkpt lat="47.72178" lon="6.86821">
        <ele>431.6</ele>
        <time>2021-06-26T07:34:42Z</time>
      </trkpt>
      <trkpt lat="47.7219" lon="6.86787">
        <ele>432.6</ele>
        <time>2021-06-26T07:34:47Z</time>
      </trkpt>
      <trkpt lat="47.72198" lon="6.86762">
        <ele>433.4</ele>
        <time>2021-06-26T07:34:51Z</time>
      </trkpt>
      <trkpt lat="47.72202" lon="6.8675">
        <ele>433.8</ele>
        <time>2021-06-26T07:34:53Z</time>
      </trkpt>
      <trkpt lat="47.72205" lon="6.86744">
        <ele>434</ele>
        <time>2021-06-26T07:34:54Z</time>
      </trkpt>
      <trkpt lat="47.72208" lon="6.86732">
        <ele>434.6</ele>
        <time>2021-06-26T07:34:56Z</time>
      </trkpt>
      <trkpt lat="47.72211" lon="6.86721">
        <ele>435</ele>
        <time>2021-06-26T07:34:58Z</time>
      </trkpt>
      <trkpt lat="47.72212" lon="6.86715">
        <ele>435.4</ele>
        <time>2021-06-26T07:34:59Z</time>
      </trkpt>
      <trkpt lat="47.72214" lon="6.86709">
        <ele>435.8</ele>
        <time>2021-06-26T07:35:00Z</time>
      </trkpt>
      <trkpt lat="47.72217" lon="6.86698">
        <ele>436</ele>
        <time>2021-06-26T07:35:02Z</time>
      </trkpt>
      <trkpt lat="47.72221" lon="6.86687">
        <ele>436.6</ele>
        <time>2021-06-26T07:35:04Z</time>
      </trkpt>
      <trkpt lat="47.72225" lon="6.8667">
        <ele>437.2</ele>
        <time>2021-06-26T07:35:07Z</time>
      </trkpt>
      <trkpt lat="47.72233" lon="6.86654">
        <ele>438</ele>
        <time>2021-06-26T07:35:10Z</time>
      </trkpt>
      <trkpt lat="47.72235" lon="6.86634">
        <ele>438.4</ele>
        <time>2021-06-26T07:35:13Z</time>
      </trkpt>
      <trkpt lat="47.72238" lon="6.86613">
        <ele>439</ele>
        <time>2021-06-26T07:35:16Z</time>
      </trkpt>
      <trkpt lat="47.72238" lon="6.86607">
        <ele>439</ele>
        <time>2021-06-26T07:35:17Z</time>
      </trkpt>
      <trkpt lat="47.72239" lon="6.86586">
        <ele>439.6</ele>
        <time>2021-06-26T07:35:20Z</time>
      </trkpt>
      <trkpt lat="47.7224" lon="6.86571">
        <ele>439.8</ele>
        <time>2021-06-26T07:35:22Z</time>
      </trkpt>
      <trkpt lat="47.72244" lon="6.86511">
        <ele>440.2</ele>
        <time>2021-06-26T07:35:30Z</time>
      </trkpt>
      <trkpt lat="47.72248" lon="6.86467">
        <ele>440.4</ele>
        <time>2021-06-26T07:35:36Z</time>
      </trkpt>
      <trkpt lat="47.72249" lon="6.86452">
        <ele>440.8</ele>
        <time>2021-06-26T07:35:38Z</time>
      </trkpt>
      <trkpt lat="47.72255" lon="6.86403">
        <ele>441.4</ele>
        <time>2021-06-26T07:35:45Z</time>
      </trkpt>
      <trkpt lat="47.72256" lon="6.86396">
        <ele>441.6</ele>
        <time>2021-06-26T07:35:46Z</time>
      </trkpt>
      <trkpt lat="47.72258" lon="6.86388">
        <ele>441.8</ele>
        <time>2021-06-26T07:35:47Z</time>
      </trkpt>
      <trkpt lat="47.72263" lon="6.86366">
        <ele>442.4</ele>
        <time>2021-06-26T07:35:50Z</time>
      </trkpt>
      <trkpt lat="47.72265" lon="6.86359">
        <ele>442.6</ele>
        <time>2021-06-26T07:35:51Z</time>
      </trkpt>
      <trkpt lat="47.72275" lon="6.86306">
        <ele>442.8</ele>
        <time>2021-06-26T07:35:58Z</time>
      </trkpt>
      <trkpt lat="47.72285" lon="6.86259">
        <ele>442.8</ele>
        <time>2021-06-26T07:36:04Z</time>
      </trkpt>
      <trkpt lat="47.72292" lon="6.86227">
        <ele>442.6</ele>
        <time>2021-06-26T07:36:08Z</time>
      </trkpt>
      <trkpt lat="47.72311" lon="6.8615">
        <ele>442.6</ele>
        <time>2021-06-26T07:36:18Z</time>
      </trkpt>
      <trkpt lat="47.72328" lon="6.86082">
        <ele>443.4</ele>
        <time>2021-06-26T07:36:27Z</time>
      </trkpt>
      <trkpt lat="47.72335" lon="6.86059">
        <ele>443.6</ele>
        <time>2021-06-26T07:36:30Z</time>
      </trkpt>
      <trkpt lat="47.7235" lon="6.86017">
        <ele>444.2</ele>
        <time>2021-06-26T07:36:36Z</time>
      </trkpt>
      <trkpt lat="47.72367" lon="6.85976">
        <ele>444.8</ele>
        <time>2021-06-26T07:36:42Z</time>
      </trkpt>
      <trkpt lat="47.72374" lon="6.85963">
        <ele>444.8</ele>
        <time>2021-06-26T07:36:44Z</time>
      </trkpt>
      <trkpt lat="47.72409" lon="6.85895">
        <ele>445</ele>
        <time>2021-06-26T07:36:54Z</time>
      </trkpt>
      <trkpt lat="47.72438" lon="6.85841">
        <ele>444</ele>
        <time>2021-06-26T07:37:01Z</time>
      </trkpt>
      <trkpt lat="47.72447" lon="6.85823">
        <ele>443.4</ele>
        <time>2021-06-26T07:37:03Z</time>
      </trkpt>
      <trkpt lat="47.72474" lon="6.85772">
        <ele>442.2</ele>
        <time>2021-06-26T07:37:09Z</time>
      </trkpt>
      <trkpt lat="47.72478" lon="6.85764">
        <ele>441.8</ele>
        <time>2021-06-26T07:37:10Z</time>
      </trkpt>
      <trkpt lat="47.72509" lon="6.85704">
        <ele>441.4</ele>
        <time>2021-06-26T07:37:18Z</time>
      </trkpt>
      <trkpt lat="47.72534" lon="6.85656">
        <ele>441.6</ele>
        <time>2021-06-26T07:37:25Z</time>
      </trkpt>
      <trkpt lat="47.72566" lon="6.85596">
        <ele>441.6</ele>
        <time>2021-06-26T07:37:34Z</time>
      </trkpt>
      <trkpt lat="47.72569" lon="6.8559">
        <ele>441.6</ele>
        <time>2021-06-26T07:37:35Z</time>
      </trkpt>
      <trkpt lat="47.72584" lon="6.85564">
        <ele>441.8</ele>
        <time>2021-06-26T07:37:39Z</time>
      </trkpt>
      <trkpt lat="47.72587" lon="6.85557">
        <ele>441.8</ele>
        <time>2021-06-26T07:37:40Z</time>
      </trkpt>
      <trkpt lat="47.72612" lon="6.85512">
        <ele>442.4</ele>
        <time>2021-06-26T07:37:47Z</time>
      </trkpt>
      <trkpt lat="47.72637" lon="6.85466">
        <ele>442.8</ele>
        <time>2021-06-26T07:37:54Z</time>
      </trkpt>
      <trkpt lat="47.72655" lon="6.85432">
        <ele>443.4</ele>
        <time>2021-06-26T07:37:59Z</time>
      </trkpt>
      <trkpt lat="47.72669" lon="6.85406">
        <ele>443.6</ele>
        <time>2021-06-26T07:38:03Z</time>
      </trkpt>
      <trkpt lat="47.72694" lon="6.85359">
        <ele>444.2</ele>
        <time>2021-06-26T07:38:10Z</time>
      </trkpt>
      <trkpt lat="47.72708" lon="6.85332">
        <ele>444.4</ele>
        <time>2021-06-26T07:38:14Z</time>
      </trkpt>
      <trkpt lat="47.72722" lon="6.85306">
        <ele>444.8</ele>
        <time>2021-06-26T07:38:18Z</time>
      </trkpt>
      <trkpt lat="47.72726" lon="6.853">
        <ele>444.8</ele>
        <time>2021-06-26T07:38:19Z</time>
      </trkpt>
      <trkpt lat="47.72747" lon="6.85259">
        <ele>445.4</ele>
        <time>2021-06-26T07:38:25Z</time>
      </trkpt>
      <trkpt lat="47.72758" lon="6.8524">
        <ele>445.8</ele>
        <time>2021-06-26T07:38:28Z</time>
      </trkpt>
      <trkpt lat="47.72779" lon="6.85201">
        <ele>446</ele>
        <time>2021-06-26T07:38:34Z</time>
      </trkpt>
      <trkpt lat="47.72804" lon="6.85154">
        <ele>446.2</ele>
        <time>2021-06-26T07:38:41Z</time>
      </trkpt>
      <trkpt lat="47.72825" lon="6.85115">
        <ele>446.4</ele>
        <time>2021-06-26T07:38:47Z</time>
      </trkpt>
      <trkpt lat="47.72839" lon="6.8509">
        <ele>446.6</ele>
        <time>2021-06-26T07:38:51Z</time>
      </trkpt>
      <trkpt lat="47.72873" lon="6.85027">
        <ele>447</ele>
        <time>2021-06-26T07:39:01Z</time>
      </trkpt>
      <trkpt lat="47.72898" lon="6.84982">
        <ele>447.4</ele>
        <time>2021-06-26T07:39:08Z</time>
      </trkpt>
      <trkpt lat="47.72902" lon="6.84975">
        <ele>447.6</ele>
        <time>2021-06-26T07:39:09Z</time>
      </trkpt>
      <trkpt lat="47.72925" lon="6.8493">
        <ele>447.6</ele>
        <time>2021-06-26T07:39:16Z</time>
      </trkpt>
      <trkpt lat="47.72951" lon="6.84881">
        <ele>447.8</ele>
        <time>2021-06-26T07:39:24Z</time>
      </trkpt>
      <trkpt lat="47.72982" lon="6.84823">
        <ele>448.2</ele>
        <time>2021-06-26T07:39:33Z</time>
      </trkpt>
      <trkpt lat="47.72992" lon="6.84803">
        <ele>448.6</ele>
        <time>2021-06-26T07:39:36Z</time>
      </trkpt>
      <trkpt lat="47.73016" lon="6.84756">
        <ele>449</ele>
        <time>2021-06-26T07:39:43Z</time>
      </trkpt>
      <trkpt lat="47.73027" lon="6.84736">
        <ele>449.2</ele>
        <time>2021-06-26T07:39:46Z</time>
      </trkpt>
      <trkpt lat="47.73051" lon="6.84689">
        <ele>449.6</ele>
        <time>2021-06-26T07:39:53Z</time>
      </trkpt>
      <trkpt lat="47.73058" lon="6.84675">
        <ele>449.8</ele>
        <time>2021-06-26T07:39:55Z</time>
      </trkpt>
      <trkpt lat="47.73076" lon="6.84643">
        <ele>450.2</ele>
        <time>2021-06-26T07:40:00Z</time>
      </trkpt>
      <trkpt lat="47.73097" lon="6.84604">
        <ele>450.8</ele>
        <time>2021-06-26T07:40:06Z</time>
      </trkpt>
      <trkpt lat="47.73101" lon="6.84598">
        <ele>450.8</ele>
        <time>2021-06-26T07:40:07Z</time>
      </trkpt>
      <trkpt lat="47.73122" lon="6.84559">
        <ele>451.2</ele>
        <time>2021-06-26T07:40:13Z</time>
      </trkpt>
      <trkpt lat="47.73157" lon="6.84493">
        <ele>451.6</ele>
        <time>2021-06-26T07:40:23Z</time>
      </trkpt>
      <trkpt lat="47.73182" lon="6.84445">
        <ele>451.8</ele>
        <time>2021-06-26T07:40:30Z</time>
      </trkpt>
      <trkpt lat="47.73185" lon="6.84438">
        <ele>451.8</ele>
        <time>2021-06-26T07:40:31Z</time>
      </trkpt>
      <trkpt lat="47.7322" lon="6.84373">
        <ele>452.8</ele>
        <time>2021-06-26T07:40:41Z</time>
      </trkpt>
      <trkpt lat="47.73224" lon="6.84366">
        <ele>452.8</ele>
        <time>2021-06-26T07:40:42Z</time>
      </trkpt>
      <trkpt lat="47.73247" lon="6.8432">
        <ele>453.4</ele>
        <time>2021-06-26T07:40:49Z</time>
      </trkpt>
      <trkpt lat="47.73268" lon="6.84282">
        <ele>453.8</ele>
        <time>2021-06-26T07:40:55Z</time>
      </trkpt>
      <trkpt lat="47.73281" lon="6.84256">
        <ele>454.2</ele>
        <time>2021-06-26T07:40:59Z</time>
      </trkpt>
      <trkpt lat="47.73308" lon="6.84205">
        <ele>455</ele>
        <time>2021-06-26T07:41:07Z</time>
      </trkpt>
      <trkpt lat="47.73311" lon="6.84199">
        <ele>455</ele>
        <time>2021-06-26T07:41:08Z</time>
      </trkpt>
      <trkpt lat="47.73336" lon="6.84155">
        <ele>455.6</ele>
        <time>2021-06-26T07:41:15Z</time>
      </trkpt>
      <trkpt lat="47.73349" lon="6.84132">
        <ele>456</ele>
        <time>2021-06-26T07:41:19Z</time>
      </trkpt>
      <trkpt lat="47.73357" lon="6.84115">
        <ele>456.2</ele>
        <time>2021-06-26T07:41:22Z</time>
      </trkpt>
      <trkpt lat="47.73368" lon="6.84092">
        <ele>457</ele>
        <time>2021-06-26T07:41:26Z</time>
      </trkpt>
      <trkpt lat="47.73377" lon="6.84075">
        <ele>457.8</ele>
        <time>2021-06-26T07:41:29Z</time>
      </trkpt>
      <trkpt lat="47.73386" lon="6.84059">
        <ele>458</ele>
        <time>2021-06-26T07:41:32Z</time>
      </trkpt>
      <trkpt lat="47.734" lon="6.84032">
        <ele>458.6</ele>
        <time>2021-06-26T07:41:37Z</time>
      </trkpt>
      <trkpt lat="47.73405" lon="6.84022">
        <ele>458.8</ele>
        <time>2021-06-26T07:41:39Z</time>
      </trkpt>
      <trkpt lat="47.73411" lon="6.84011">
        <ele>459.2</ele>
        <time>2021-06-26T07:41:41Z</time>
      </trkpt>
      <trkpt lat="47.73425" lon="6.83984">
        <ele>460.2</ele>
        <time>2021-06-26T07:41:46Z</time>
      </trkpt>
      <trkpt lat="47.7344" lon="6.83957">
        <ele>461.2</ele>
        <time>2021-06-26T07:41:51Z</time>
      </trkpt>
      <trkpt lat="47.73445" lon="6.83947">
        <ele>461.8</ele>
        <time>2021-06-26T07:41:53Z</time>
      </trkpt>
      <trkpt lat="47.7345" lon="6.83936">
        <ele>462</ele>
        <time>2021-06-26T07:41:55Z</time>
      </trkpt>
      <trkpt lat="47.73458" lon="6.83923">
        <ele>462.4</ele>
        <time>2021-06-26T07:41:58Z</time>
      </trkpt>
      <trkpt lat="47.73469" lon="6.83903">
        <ele>462.6</ele>
        <time>2021-06-26T07:42:02Z</time>
      </trkpt>
      <trkpt lat="47.73484" lon="6.83873">
        <ele>463.4</ele>
        <time>2021-06-26T07:42:08Z</time>
      </trkpt>
      <trkpt lat="47.73493" lon="6.83856">
        <ele>463.8</ele>
        <time>2021-06-26T07:42:11Z</time>
      </trkpt>
      <trkpt lat="47.73517" lon="6.8381">
        <ele>464.4</ele>
        <time>2021-06-26T07:42:19Z</time>
      </trkpt>
      <trkpt lat="47.7352" lon="6.83804">
        <ele>464.4</ele>
        <time>2021-06-26T07:42:20Z</time>
      </trkpt>
      <trkpt lat="47.73539" lon="6.83767">
        <ele>465</ele>
        <time>2021-06-26T07:42:26Z</time>
      </trkpt>
      <trkpt lat="47.73558" lon="6.83731">
        <ele>465.6</ele>
        <time>2021-06-26T07:42:32Z</time>
      </trkpt>
      <trkpt lat="47.73564" lon="6.83719">
        <ele>465.8</ele>
        <time>2021-06-26T07:42:34Z</time>
      </trkpt>
      <trkpt lat="47.73582" lon="6.83691">
        <ele>466.2</ele>
        <time>2021-06-26T07:42:39Z</time>
      </trkpt>
      <trkpt lat="47.7359" lon="6.83681">
        <ele>466.4</ele>
        <time>2021-06-26T07:42:41Z</time>
      </trkpt>
      <trkpt lat="47.73598" lon="6.83672">
        <ele>466.6</ele>
        <time>2021-06-26T07:42:43Z</time>
      </trkpt>
      <trkpt lat="47.73627" lon="6.83648">
        <ele>466.8</ele>
        <time>2021-06-26T07:42:49Z</time>
      </trkpt>
      <trkpt lat="47.73671" lon="6.83616">
        <ele>466.6</ele>
        <time>2021-06-26T07:42:58Z</time>
      </trkpt>
      <trkpt lat="47.73711" lon="6.83593">
        <ele>466.4</ele>
        <time>2021-06-26T07:43:06Z</time>
      </trkpt>
      <trkpt lat="47.73721" lon="6.8359">
        <ele>466.4</ele>
        <time>2021-06-26T07:43:08Z</time>
      </trkpt>
      <trkpt lat="47.73735" lon="6.83588">
        <ele>466.4</ele>
        <time>2021-06-26T07:43:11Z</time>
      </trkpt>
      <trkpt lat="47.73741" lon="6.83581">
        <ele>466.6</ele>
        <time>2021-06-26T07:43:13Z</time>
      </trkpt>
      <trkpt lat="47.73743" lon="6.83575">
        <ele>466.6</ele>
        <time>2021-06-26T07:43:14Z</time>
      </trkpt>
      <trkpt lat="47.73742" lon="6.83568">
        <ele>466.6</ele>
        <time>2021-06-26T07:43:15Z</time>
      </trkpt>
      <trkpt lat="47.73739" lon="6.83554">
        <ele>466.8</ele>
        <time>2021-06-26T07:43:17Z</time>
      </trkpt>
      <trkpt lat="47.73736" lon="6.83537">
        <ele>466.8</ele>
        <time>2021-06-26T07:43:19Z</time>
      </trkpt>
      <trkpt lat="47.73739" lon="6.8352">
        <ele>466.8</ele>
        <time>2021-06-26T07:43:21Z</time>
      </trkpt>
      <trkpt lat="47.73752" lon="6.83471">
        <ele>466.8</ele>
        <time>2021-06-26T07:43:27Z</time>
      </trkpt>
      <trkpt lat="47.73768" lon="6.83405">
        <ele>466.8</ele>
        <time>2021-06-26T07:43:35Z</time>
      </trkpt>
      <trkpt lat="47.7378" lon="6.83352">
        <ele>466.6</ele>
        <time>2021-06-26T07:43:41Z</time>
      </trkpt>
      <trkpt lat="47.73794" lon="6.83299">
        <ele>466.4</ele>
        <time>2021-06-26T07:43:47Z</time>
      </trkpt>
      <trkpt lat="47.73812" lon="6.83244">
        <ele>466.2</ele>
        <time>2021-06-26T07:43:54Z</time>
      </trkpt>
      <trkpt lat="47.73826" lon="6.83201">
        <ele>466</ele>
        <time>2021-06-26T07:43:59Z</time>
      </trkpt>
      <trkpt lat="47.73828" lon="6.8319">
        <ele>465.6</ele>
        <time>2021-06-26T07:44:00Z</time>
      </trkpt>
      <trkpt lat="47.73829" lon="6.83179">
        <ele>465.6</ele>
        <time>2021-06-26T07:44:01Z</time>
      </trkpt>
      <trkpt lat="47.73831" lon="6.83146">
        <ele>464.6</ele>
        <time>2021-06-26T07:44:04Z</time>
      </trkpt>
      <trkpt lat="47.73831" lon="6.83135">
        <ele>464.4</ele>
        <time>2021-06-26T07:44:05Z</time>
      </trkpt>
      <trkpt lat="47.73833" lon="6.83066">
        <ele>463.4</ele>
        <time>2021-06-26T07:44:12Z</time>
      </trkpt>
      <trkpt lat="47.73833" lon="6.83056">
        <ele>463</ele>
        <time>2021-06-26T07:44:13Z</time>
      </trkpt>
      <trkpt lat="47.73834" lon="6.83023">
        <ele>462.6</ele>
        <time>2021-06-26T07:44:17Z</time>
      </trkpt>
      <trkpt lat="47.73835" lon="6.83016">
        <ele>462.6</ele>
        <time>2021-06-26T07:44:18Z</time>
      </trkpt>
      <trkpt lat="47.73837" lon="6.83002">
        <ele>462.6</ele>
        <time>2021-06-26T07:44:20Z</time>
      </trkpt>
      <trkpt lat="47.73839" lon="6.8298">
        <ele>463</ele>
        <time>2021-06-26T07:44:23Z</time>
      </trkpt>
      <trkpt lat="47.7384" lon="6.82973">
        <ele>463.2</ele>
        <time>2021-06-26T07:44:24Z</time>
      </trkpt>
      <trkpt lat="47.73849" lon="6.8294">
        <ele>464</ele>
        <time>2021-06-26T07:44:30Z</time>
      </trkpt>
      <trkpt lat="47.73863" lon="6.82932">
        <ele>464.2</ele>
        <time>2021-06-26T07:44:34Z</time>
      </trkpt>
      <trkpt lat="47.73877" lon="6.82926">
        <ele>464.2</ele>
        <time>2021-06-26T07:44:37Z</time>
      </trkpt>
      <trkpt lat="47.73886" lon="6.8292">
        <ele>464.2</ele>
        <time>2021-06-26T07:44:39Z</time>
      </trkpt>
      <trkpt lat="47.73904" lon="6.82899">
        <ele>464</ele>
        <time>2021-06-26T07:44:45Z</time>
      </trkpt>
      <trkpt lat="47.73906" lon="6.82883">
        <ele>464</ele>
        <time>2021-06-26T07:44:48Z</time>
      </trkpt>
      <trkpt lat="47.73906" lon="6.82853">
        <ele>464.6</ele>
        <time>2021-06-26T07:44:53Z</time>
      </trkpt>
      <trkpt lat="47.73906" lon="6.82848">
        <ele>464.8</ele>
        <time>2021-06-26T07:44:54Z</time>
      </trkpt>
      <trkpt lat="47.73905" lon="6.82836">
        <ele>465.6</ele>
        <time>2021-06-26T07:44:56Z</time>
      </trkpt>
      <trkpt lat="47.73901" lon="6.82819">
        <ele>466.2</ele>
        <time>2021-06-26T07:44:59Z</time>
      </trkpt>
      <trkpt lat="47.73901" lon="6.82813">
        <ele>466.6</ele>
        <time>2021-06-26T07:45:00Z</time>
      </trkpt>
      <trkpt lat="47.73904" lon="6.82801">
        <ele>467.4</ele>
        <time>2021-06-26T07:45:03Z</time>
      </trkpt>
      <trkpt lat="47.73905" lon="6.82798">
        <ele>468</ele>
        <time>2021-06-26T07:45:04Z</time>
      </trkpt>
      <trkpt lat="47.73913" lon="6.8279">
        <ele>468.4</ele>
        <time>2021-06-26T07:45:07Z</time>
      </trkpt>
      <trkpt lat="47.73934" lon="6.82775">
        <ele>469</ele>
        <time>2021-06-26T07:45:12Z</time>
      </trkpt>
      <trkpt lat="47.73938" lon="6.82773">
        <ele>469</ele>
        <time>2021-06-26T07:45:13Z</time>
      </trkpt>
      <trkpt lat="47.73957" lon="6.8277">
        <ele>469.2</ele>
        <time>2021-06-26T07:45:17Z</time>
      </trkpt>
      <trkpt lat="47.74" lon="6.82759">
        <ele>469.4</ele>
        <time>2021-06-26T07:45:25Z</time>
      </trkpt>
      <trkpt lat="47.7401" lon="6.82754">
        <ele>469.6</ele>
        <time>2021-06-26T07:45:26Z</time>
      </trkpt>
      <trkpt lat="47.74021" lon="6.82748">
        <ele>469.4</ele>
        <time>2021-06-26T07:45:29Z</time>
      </trkpt>
      <trkpt lat="47.74032" lon="6.82742">
        <ele>469.4</ele>
        <time>2021-06-26T07:45:31Z</time>
      </trkpt>
      <trkpt lat="47.74079" lon="6.82719">
        <ele>469</ele>
        <time>2021-06-26T07:45:40Z</time>
      </trkpt>
      <trkpt lat="47.74111" lon="6.82702">
        <ele>469.2</ele>
        <time>2021-06-26T07:45:47Z</time>
      </trkpt>
      <trkpt lat="47.74133" lon="6.82691">
        <ele>469.4</ele>
        <time>2021-06-26T07:45:53Z</time>
      </trkpt>
      <trkpt lat="47.74137" lon="6.82689">
        <ele>469.4</ele>
        <time>2021-06-26T07:45:54Z</time>
      </trkpt>
      <trkpt lat="47.74151" lon="6.82669">
        <ele>469.8</ele>
        <time>2021-06-26T07:45:58Z</time>
      </trkpt>
      <trkpt lat="47.7416" lon="6.82655">
        <ele>470.2</ele>
        <time>2021-06-26T07:46:02Z</time>
      </trkpt>
      <trkpt lat="47.74172" lon="6.82633">
        <ele>470.8</ele>
        <time>2021-06-26T07:46:06Z</time>
      </trkpt>
      <trkpt lat="47.74177" lon="6.82623">
        <ele>471.2</ele>
        <time>2021-06-26T07:46:08Z</time>
      </trkpt>
      <trkpt lat="47.74186" lon="6.82604">
        <ele>471.4</ele>
        <time>2021-06-26T07:46:10Z</time>
      </trkpt>
      <trkpt lat="47.74186" lon="6.82604">
        <ele>471.6</ele>
        <time>2021-06-26T07:46:11Z</time>
      </trkpt>
      <trkpt lat="47.74192" lon="6.82573">
        <ele>472.2</ele>
        <time>2021-06-26T07:46:15Z</time>
      </trkpt>
      <trkpt lat="47.74193" lon="6.82567">
        <ele>472.4</ele>
        <time>2021-06-26T07:46:16Z</time>
      </trkpt>
      <trkpt lat="47.74193" lon="6.82567">
        <ele>472.6</ele>
        <time>2021-06-26T07:46:17Z</time>
      </trkpt>
      <trkpt lat="47.74205" lon="6.82544">
        <ele>473.8</ele>
        <time>2021-06-26T07:46:22Z</time>
      </trkpt>
      <trkpt lat="47.74216" lon="6.82534">
        <ele>474</ele>
        <time>2021-06-26T07:46:24Z</time>
      </trkpt>
      <trkpt lat="47.74229" lon="6.82527">
        <ele>474.6</ele>
        <time>2021-06-26T07:46:27Z</time>
      </trkpt>
      <trkpt lat="47.74233" lon="6.82525">
        <ele>474.8</ele>
        <time>2021-06-26T07:46:29Z</time>
      </trkpt>
      <trkpt lat="47.74241" lon="6.82522">
        <ele>475</ele>
        <time>2021-06-26T07:46:30Z</time>
      </trkpt>
      <trkpt lat="47.74254" lon="6.82518">
        <ele>475.2</ele>
        <time>2021-06-26T07:46:33Z</time>
      </trkpt>
      <trkpt lat="47.74289" lon="6.82509">
        <ele>475.6</ele>
        <time>2021-06-26T07:46:42Z</time>
      </trkpt>
      <trkpt lat="47.74307" lon="6.82505">
        <ele>476</ele>
        <time>2021-06-26T07:46:45Z</time>
      </trkpt>
      <trkpt lat="47.74317" lon="6.82503">
        <ele>476.2</ele>
        <time>2021-06-26T07:46:48Z</time>
      </trkpt>
      <trkpt lat="47.74356" lon="6.82497">
        <ele>476.4</ele>
        <time>2021-06-26T07:46:56Z</time>
      </trkpt>
      <trkpt lat="47.74374" lon="6.82495">
        <ele>476.6</ele>
        <time>2021-06-26T07:46:59Z</time>
      </trkpt>
      <trkpt lat="47.74378" lon="6.82494">
        <ele>477</ele>
        <time>2021-06-26T07:47:01Z</time>
      </trkpt>
      <trkpt lat="47.74387" lon="6.82493">
        <ele>477.2</ele>
        <time>2021-06-26T07:47:03Z</time>
      </trkpt>
      <trkpt lat="47.74413" lon="6.82487">
        <ele>478.4</ele>
        <time>2021-06-26T07:47:09Z</time>
      </trkpt>
      <trkpt lat="47.74413" lon="6.82487">
        <ele>478.8</ele>
        <time>2021-06-26T07:47:10Z</time>
      </trkpt>
      <trkpt lat="47.74427" lon="6.82483">
        <ele>479.4</ele>
        <time>2021-06-26T07:47:13Z</time>
      </trkpt>
      <trkpt lat="47.74438" lon="6.8248">
        <ele>480.2</ele>
        <time>2021-06-26T07:47:16Z</time>
      </trkpt>
      <trkpt lat="47.74443" lon="6.8248">
        <ele>480.6</ele>
        <time>2021-06-26T07:47:18Z</time>
      </trkpt>
      <trkpt lat="47.74465" lon="6.82474">
        <ele>481.4</ele>
        <time>2021-06-26T07:47:23Z</time>
      </trkpt>
      <trkpt lat="47.74477" lon="6.8247">
        <ele>481.6</ele>
        <time>2021-06-26T07:47:26Z</time>
      </trkpt>
      <trkpt lat="47.74497" lon="6.82463">
        <ele>482.4</ele>
        <time>2021-06-26T07:47:31Z</time>
      </trkpt>
      <trkpt lat="47.74505" lon="6.82459">
        <ele>482.6</ele>
        <time>2021-06-26T07:47:33Z</time>
      </trkpt>
      <trkpt lat="47.74505" lon="6.82459">
        <ele>482.8</ele>
        <time>2021-06-26T07:47:34Z</time>
      </trkpt>
      <trkpt lat="47.74521" lon="6.82451">
        <ele>483.6</ele>
        <time>2021-06-26T07:47:38Z</time>
      </trkpt>
      <trkpt lat="47.74541" lon="6.82443">
        <ele>484</ele>
        <time>2021-06-26T07:47:42Z</time>
      </trkpt>
      <trkpt lat="47.74563" lon="6.82432">
        <ele>484.8</ele>
        <time>2021-06-26T07:47:49Z</time>
      </trkpt>
      <trkpt lat="47.74571" lon="6.8243">
        <ele>485</ele>
        <time>2021-06-26T07:47:50Z</time>
      </trkpt>
      <trkpt lat="47.74591" lon="6.82417">
        <ele>486.2</ele>
        <time>2021-06-26T07:47:57Z</time>
      </trkpt>
      <trkpt lat="47.74598" lon="6.82412">
        <ele>486.4</ele>
        <time>2021-06-26T07:47:58Z</time>
      </trkpt>
      <trkpt lat="47.74614" lon="6.82397">
        <ele>487.4</ele>
        <time>2021-06-26T07:48:03Z</time>
      </trkpt>
      <trkpt lat="47.74629" lon="6.82381">
        <ele>488.6</ele>
        <time>2021-06-26T07:48:08Z</time>
      </trkpt>
      <trkpt lat="47.74646" lon="6.82359">
        <ele>489.6</ele>
        <time>2021-06-26T07:48:14Z</time>
      </trkpt>
      <trkpt lat="47.74649" lon="6.82355">
        <ele>489.8</ele>
        <time>2021-06-26T07:48:15Z</time>
      </trkpt>
      <trkpt lat="47.74674" lon="6.82313">
        <ele>490.8</ele>
        <time>2021-06-26T07:48:24Z</time>
      </trkpt>
      <trkpt lat="47.74677" lon="6.82309">
        <ele>490.8</ele>
        <time>2021-06-26T07:48:25Z</time>
      </trkpt>
      <trkpt lat="47.7468" lon="6.82304">
        <ele>491</ele>
        <time>2021-06-26T07:48:26Z</time>
      </trkpt>
      <trkpt lat="47.74718" lon="6.82265">
        <ele>491</ele>
        <time>2021-06-26T07:48:36Z</time>
      </trkpt>
      <trkpt lat="47.74748" lon="6.82231">
        <ele>491.2</ele>
        <time>2021-06-26T07:48:44Z</time>
      </trkpt>
      <trkpt lat="47.74791" lon="6.82176">
        <ele>491.6</ele>
        <time>2021-06-26T07:48:55Z</time>
      </trkpt>
      <trkpt lat="47.74795" lon="6.82171">
        <ele>491.6</ele>
        <time>2021-06-26T07:48:56Z</time>
      </trkpt>
      <trkpt lat="47.74807" lon="6.82157">
        <ele>491.8</ele>
        <time>2021-06-26T07:48:59Z</time>
      </trkpt>
      <trkpt lat="47.74826" lon="6.82132">
        <ele>491.8</ele>
        <time>2021-06-26T07:49:04Z</time>
      </trkpt>
      <trkpt lat="47.74854" lon="6.82101">
        <ele>492.6</ele>
        <time>2021-06-26T07:49:11Z</time>
      </trkpt>
      <trkpt lat="47.74863" lon="6.82092">
        <ele>492.8</ele>
        <time>2021-06-26T07:49:13Z</time>
      </trkpt>
      <trkpt lat="47.7489" lon="6.82062">
        <ele>493.6</ele>
        <time>2021-06-26T07:49:20Z</time>
      </trkpt>
      <trkpt lat="47.74899" lon="6.82054">
        <ele>493.6</ele>
        <time>2021-06-26T07:49:22Z</time>
      </trkpt>
      <trkpt lat="47.74922" lon="6.82037">
        <ele>493.6</ele>
        <time>2021-06-26T07:49:27Z</time>
      </trkpt>
      <trkpt lat="47.74958" lon="6.82009">
        <ele>493.8</ele>
        <time>2021-06-26T07:49:35Z</time>
      </trkpt>
      <trkpt lat="47.74997" lon="6.81978">
        <ele>493.6</ele>
        <time>2021-06-26T07:49:43Z</time>
      </trkpt>
      <trkpt lat="47.75014" lon="6.81967">
        <ele>493.6</ele>
        <time>2021-06-26T07:49:46Z</time>
      </trkpt>
      <trkpt lat="47.75037" lon="6.81954">
        <ele>493</ele>
        <time>2021-06-26T07:49:50Z</time>
      </trkpt>
      <trkpt lat="47.75067" lon="6.81949">
        <ele>492.2</ele>
        <time>2021-06-26T07:49:56Z</time>
      </trkpt>
      <trkpt lat="47.75078" lon="6.8195">
        <ele>492.2</ele>
        <time>2021-06-26T07:49:57Z</time>
      </trkpt>
      <trkpt lat="47.75084" lon="6.81951">
        <ele>492</ele>
        <time>2021-06-26T07:49:59Z</time>
      </trkpt>
      <trkpt lat="47.75096" lon="6.81954">
        <ele>492</ele>
        <time>2021-06-26T07:50:00Z</time>
      </trkpt>
      <trkpt lat="47.75108" lon="6.81958">
        <ele>492</ele>
        <time>2021-06-26T07:50:02Z</time>
      </trkpt>
      <trkpt lat="47.75158" lon="6.81977">
        <ele>492.2</ele>
        <time>2021-06-26T07:50:11Z</time>
      </trkpt>
      <trkpt lat="47.75173" lon="6.8198">
        <ele>492.4</ele>
        <time>2021-06-26T07:50:14Z</time>
      </trkpt>
      <trkpt lat="47.75182" lon="6.81987">
        <ele>492.4</ele>
        <time>2021-06-26T07:50:16Z</time>
      </trkpt>
      <trkpt lat="47.75185" lon="6.8199">
        <ele>492.4</ele>
        <time>2021-06-26T07:50:17Z</time>
      </trkpt>
      <trkpt lat="47.75193" lon="6.81995">
        <ele>492.4</ele>
        <time>2021-06-26T07:50:20Z</time>
      </trkpt>
      <trkpt lat="47.75194" lon="6.81995">
        <ele>492.4</ele>
        <time>2021-06-26T07:50:21Z</time>
      </trkpt>
      <trkpt lat="47.75195" lon="6.81994">
        <ele>492.6</ele>
        <time>2021-06-26T07:50:23Z</time>
      </trkpt>
      <trkpt lat="47.75195" lon="6.81994">
        <ele>492.6</ele>
        <time>2021-06-26T07:50:24Z</time>
      </trkpt>
      <trkpt lat="47.75193" lon="6.81989">
        <ele>492.4</ele>
        <time>2021-06-26T07:51:50Z</time>
      </trkpt>
      <trkpt lat="47.75189" lon="6.81987">
        <ele>492.2</ele>
        <time>2021-06-26T07:51:52Z</time>
      </trkpt>
      <trkpt lat="47.75185" lon="6.8198">
        <ele>492.2</ele>
        <time>2021-06-26T07:51:54Z</time>
      </trkpt>
      <trkpt lat="47.75185" lon="6.81974">
        <ele>492.2</ele>
        <time>2021-06-26T07:51:56Z</time>
      </trkpt>
      <trkpt lat="47.75192" lon="6.8197">
        <ele>492.2</ele>
        <time>2021-06-26T07:51:58Z</time>
      </trkpt>
      <trkpt lat="47.75201" lon="6.81966">
        <ele>492.2</ele>
        <time>2021-06-26T07:52:00Z</time>
      </trkpt>
      <trkpt lat="47.75245" lon="6.81941">
        <ele>491.8</ele>
        <time>2021-06-26T07:52:09Z</time>
      </trkpt>
      <trkpt lat="47.75258" lon="6.81933">
        <ele>492.4</ele>
        <time>2021-06-26T07:52:12Z</time>
      </trkpt>
      <trkpt lat="47.75273" lon="6.81926">
        <ele>492.6</ele>
        <time>2021-06-26T07:52:15Z</time>
      </trkpt>
      <trkpt lat="47.75292" lon="6.81914">
        <ele>493.2</ele>
        <time>2021-06-26T07:52:19Z</time>
      </trkpt>
      <trkpt lat="47.75302" lon="6.81908">
        <ele>493.2</ele>
        <time>2021-06-26T07:52:21Z</time>
      </trkpt>
      <trkpt lat="47.75337" lon="6.81891">
        <ele>493.4</ele>
        <time>2021-06-26T07:52:28Z</time>
      </trkpt>
      <trkpt lat="47.75382" lon="6.81889">
        <ele>494</ele>
        <time>2021-06-26T07:52:36Z</time>
      </trkpt>
      <trkpt lat="47.75393" lon="6.81889">
        <ele>494.2</ele>
        <time>2021-06-26T07:52:39Z</time>
      </trkpt>
      <trkpt lat="47.75409" lon="6.81891">
        <ele>494.2</ele>
        <time>2021-06-26T07:52:41Z</time>
      </trkpt>
      <trkpt lat="47.75414" lon="6.81893">
        <ele>494.2</ele>
        <time>2021-06-26T07:52:42Z</time>
      </trkpt>
      <trkpt lat="47.75419" lon="6.81895">
        <ele>494.2</ele>
        <time>2021-06-26T07:52:43Z</time>
      </trkpt>
      <trkpt lat="47.75429" lon="6.81903">
        <ele>494.4</ele>
        <time>2021-06-26T07:52:45Z</time>
      </trkpt>
      <trkpt lat="47.75439" lon="6.81912">
        <ele>494.4</ele>
        <time>2021-06-26T07:52:47Z</time>
      </trkpt>
      <trkpt lat="47.75474" lon="6.81939">
        <ele>494.8</ele>
        <time>2021-06-26T07:52:54Z</time>
      </trkpt>
      <trkpt lat="47.75485" lon="6.81942">
        <ele>495</ele>
        <time>2021-06-26T07:52:56Z</time>
      </trkpt>
      <trkpt lat="47.7549" lon="6.81943">
        <ele>495.2</ele>
        <time>2021-06-26T07:52:57Z</time>
      </trkpt>
      <trkpt lat="47.75496" lon="6.81944">
        <ele>495.2</ele>
        <time>2021-06-26T07:52:58Z</time>
      </trkpt>
      <trkpt lat="47.75501" lon="6.81943">
        <ele>495.6</ele>
        <time>2021-06-26T07:52:59Z</time>
      </trkpt>
      <trkpt lat="47.7553" lon="6.81937">
        <ele>496.2</ele>
        <time>2021-06-26T07:53:04Z</time>
      </trkpt>
      <trkpt lat="47.7553" lon="6.81937">
        <ele>496.4</ele>
        <time>2021-06-26T07:53:05Z</time>
      </trkpt>
      <trkpt lat="47.75585" lon="6.81918">
        <ele>496.8</ele>
        <time>2021-06-26T07:53:14Z</time>
      </trkpt>
      <trkpt lat="47.75591" lon="6.81916">
        <ele>496.8</ele>
        <time>2021-06-26T07:53:15Z</time>
      </trkpt>
      <trkpt lat="47.75647" lon="6.81902">
        <ele>497.2</ele>
        <time>2021-06-26T07:53:25Z</time>
      </trkpt>
      <trkpt lat="47.75652" lon="6.81902">
        <ele>497.2</ele>
        <time>2021-06-26T07:53:26Z</time>
      </trkpt>
      <trkpt lat="47.75664" lon="6.81902">
        <ele>497.4</ele>
        <time>2021-06-26T07:53:28Z</time>
      </trkpt>
      <trkpt lat="47.75681" lon="6.81902">
        <ele>497.6</ele>
        <time>2021-06-26T07:53:31Z</time>
      </trkpt>
      <trkpt lat="47.75743" lon="6.81911">
        <ele>498.2</ele>
        <time>2021-06-26T07:53:42Z</time>
      </trkpt>
      <trkpt lat="47.75788" lon="6.81928">
        <ele>498.4</ele>
        <time>2021-06-26T07:53:51Z</time>
      </trkpt>
      <trkpt lat="47.75799" lon="6.81932">
        <ele>498.4</ele>
        <time>2021-06-26T07:53:52Z</time>
      </trkpt>
      <trkpt lat="47.75821" lon="6.81939">
        <ele>498.6</ele>
        <time>2021-06-26T07:53:56Z</time>
      </trkpt>
      <trkpt lat="47.75821" lon="6.81939">
        <ele>498.6</ele>
        <time>2021-06-26T07:53:57Z</time>
      </trkpt>
      <trkpt lat="47.75838" lon="6.81941">
        <ele>499</ele>
        <time>2021-06-26T07:53:59Z</time>
      </trkpt>
      <trkpt lat="47.75852" lon="6.8195">
        <ele>499.2</ele>
        <time>2021-06-26T07:54:02Z</time>
      </trkpt>
      <trkpt lat="47.75861" lon="6.81959">
        <ele>499.4</ele>
        <time>2021-06-26T07:54:04Z</time>
      </trkpt>
      <trkpt lat="47.75897" lon="6.81989">
        <ele>500</ele>
        <time>2021-06-26T07:54:11Z</time>
      </trkpt>
      <trkpt lat="47.75928" lon="6.82006">
        <ele>500.2</ele>
        <time>2021-06-26T07:54:17Z</time>
      </trkpt>
      <trkpt lat="47.75977" lon="6.82025">
        <ele>500</ele>
        <time>2021-06-26T07:54:26Z</time>
      </trkpt>
      <trkpt lat="47.76015" lon="6.82044">
        <ele>500.6</ele>
        <time>2021-06-26T07:54:33Z</time>
      </trkpt>
      <trkpt lat="47.7602" lon="6.82047">
        <ele>500.6</ele>
        <time>2021-06-26T07:54:34Z</time>
      </trkpt>
      <trkpt lat="47.7603" lon="6.82054">
        <ele>500.8</ele>
        <time>2021-06-26T07:54:36Z</time>
      </trkpt>
      <trkpt lat="47.7606" lon="6.82074">
        <ele>501.4</ele>
        <time>2021-06-26T07:54:42Z</time>
      </trkpt>
      <trkpt lat="47.76095" lon="6.82096">
        <ele>501.6</ele>
        <time>2021-06-26T07:54:49Z</time>
      </trkpt>
      <trkpt lat="47.76143" lon="6.82124">
        <ele>502</ele>
        <time>2021-06-26T07:54:58Z</time>
      </trkpt>
      <trkpt lat="47.76175" lon="6.82143">
        <ele>501.6</ele>
        <time>2021-06-26T07:55:04Z</time>
      </trkpt>
      <trkpt lat="47.76224" lon="6.82183">
        <ele>502.4</ele>
        <time>2021-06-26T07:55:14Z</time>
      </trkpt>
      <trkpt lat="47.76224" lon="6.82183">
        <ele>502.8</ele>
        <time>2021-06-26T07:55:15Z</time>
      </trkpt>
      <trkpt lat="47.76258" lon="6.82208">
        <ele>503.2</ele>
        <time>2021-06-26T07:55:21Z</time>
      </trkpt>
      <trkpt lat="47.7629" lon="6.82219">
        <ele>503.8</ele>
        <time>2021-06-26T07:55:27Z</time>
      </trkpt>
      <trkpt lat="47.76307" lon="6.82224">
        <ele>504</ele>
        <time>2021-06-26T07:55:30Z</time>
      </trkpt>
      <trkpt lat="47.76334" lon="6.82232">
        <ele>504.8</ele>
        <time>2021-06-26T07:55:35Z</time>
      </trkpt>
      <trkpt lat="47.76355" lon="6.82241">
        <ele>505</ele>
        <time>2021-06-26T07:55:39Z</time>
      </trkpt>
      <trkpt lat="47.76396" lon="6.82266">
        <ele>505.6</ele>
        <time>2021-06-26T07:55:47Z</time>
      </trkpt>
      <trkpt lat="47.76406" lon="6.82272">
        <ele>505.8</ele>
        <time>2021-06-26T07:55:49Z</time>
      </trkpt>
      <trkpt lat="47.76447" lon="6.82304">
        <ele>506.6</ele>
        <time>2021-06-26T07:55:57Z</time>
      </trkpt>
      <trkpt lat="47.76451" lon="6.82309">
        <ele>506.8</ele>
        <time>2021-06-26T07:55:58Z</time>
      </trkpt>
      <trkpt lat="47.76455" lon="6.82315">
        <ele>506.8</ele>
        <time>2021-06-26T07:55:59Z</time>
      </trkpt>
      <trkpt lat="47.76459" lon="6.82321">
        <ele>507</ele>
        <time>2021-06-26T07:56:00Z</time>
      </trkpt>
      <trkpt lat="47.76465" lon="6.82334">
        <ele>507</ele>
        <time>2021-06-26T07:56:02Z</time>
      </trkpt>
      <trkpt lat="47.76479" lon="6.82369">
        <ele>507.8</ele>
        <time>2021-06-26T07:56:08Z</time>
      </trkpt>
      <trkpt lat="47.76481" lon="6.82374">
        <ele>508.2</ele>
        <time>2021-06-26T07:56:09Z</time>
      </trkpt>
      <trkpt lat="47.76487" lon="6.82394">
        <ele>509.2</ele>
        <time>2021-06-26T07:56:13Z</time>
      </trkpt>
      <trkpt lat="47.76492" lon="6.82406">
        <ele>510.2</ele>
        <time>2021-06-26T07:56:16Z</time>
      </trkpt>
      <trkpt lat="47.76494" lon="6.82411">
        <ele>510.4</ele>
        <time>2021-06-26T07:56:17Z</time>
      </trkpt>
      <trkpt lat="47.76504" lon="6.82428">
        <ele>511.6</ele>
        <time>2021-06-26T07:56:21Z</time>
      </trkpt>
      <trkpt lat="47.76509" lon="6.82437">
        <ele>511.8</ele>
        <time>2021-06-26T07:56:23Z</time>
      </trkpt>
      <trkpt lat="47.76523" lon="6.82456">
        <ele>512.6</ele>
        <time>2021-06-26T07:56:27Z</time>
      </trkpt>
      <trkpt lat="47.76531" lon="6.82463">
        <ele>513</ele>
        <time>2021-06-26T07:56:29Z</time>
      </trkpt>
      <trkpt lat="47.76548" lon="6.82476">
        <ele>513.6</ele>
        <time>2021-06-26T07:56:34Z</time>
      </trkpt>
      <trkpt lat="47.76567" lon="6.82486">
        <ele>513.8</ele>
        <time>2021-06-26T07:56:37Z</time>
      </trkpt>
      <trkpt lat="47.76614" lon="6.82508">
        <ele>514.4</ele>
        <time>2021-06-26T07:56:47Z</time>
      </trkpt>
      <trkpt lat="47.76618" lon="6.82509">
        <ele>514.4</ele>
        <time>2021-06-26T07:56:48Z</time>
      </trkpt>
      <trkpt lat="47.76648" lon="6.82521">
        <ele>515.4</ele>
        <time>2021-06-26T07:56:55Z</time>
      </trkpt>
      <trkpt lat="47.76653" lon="6.82523">
        <ele>515.6</ele>
        <time>2021-06-26T07:56:56Z</time>
      </trkpt>
      <trkpt lat="47.76674" lon="6.82541">
        <ele>516.4</ele>
        <time>2021-06-26T07:57:02Z</time>
      </trkpt>
      <trkpt lat="47.76674" lon="6.82541">
        <ele>516.6</ele>
        <time>2021-06-26T07:57:03Z</time>
      </trkpt>
      <trkpt lat="47.76689" lon="6.82562">
        <ele>517.8</ele>
        <time>2021-06-26T07:57:08Z</time>
      </trkpt>
      <trkpt lat="47.76691" lon="6.82565">
        <ele>518</ele>
        <time>2021-06-26T07:57:09Z</time>
      </trkpt>
      <trkpt lat="47.76699" lon="6.82579">
        <ele>519</ele>
        <time>2021-06-26T07:57:13Z</time>
      </trkpt>
      <trkpt lat="47.76706" lon="6.82588">
        <ele>520</ele>
        <time>2021-06-26T07:57:16Z</time>
      </trkpt>
      <trkpt lat="47.76706" lon="6.82588">
        <ele>520.2</ele>
        <time>2021-06-26T07:57:17Z</time>
      </trkpt>
      <trkpt lat="47.76714" lon="6.82596">
        <ele>521.4</ele>
        <time>2021-06-26T07:57:19Z</time>
      </trkpt>
      <trkpt lat="47.76727" lon="6.82605">
        <ele>522.4</ele>
        <time>2021-06-26T07:57:23Z</time>
      </trkpt>
      <trkpt lat="47.76731" lon="6.82608">
        <ele>522.6</ele>
        <time>2021-06-26T07:57:24Z</time>
      </trkpt>
      <trkpt lat="47.76746" lon="6.82618">
        <ele>523.6</ele>
        <time>2021-06-26T07:57:28Z</time>
      </trkpt>
      <trkpt lat="47.76754" lon="6.82624">
        <ele>523.6</ele>
        <time>2021-06-26T07:57:30Z</time>
      </trkpt>
      <trkpt lat="47.76777" lon="6.82642">
        <ele>523.4</ele>
        <time>2021-06-26T07:57:35Z</time>
      </trkpt>
      <trkpt lat="47.76809" lon="6.82667">
        <ele>522.4</ele>
        <time>2021-06-26T07:57:41Z</time>
      </trkpt>
      <trkpt lat="47.76809" lon="6.82667">
        <ele>522.2</ele>
        <time>2021-06-26T07:57:42Z</time>
      </trkpt>
      <trkpt lat="47.76839" lon="6.82694">
        <ele>521.2</ele>
        <time>2021-06-26T07:57:47Z</time>
      </trkpt>
      <trkpt lat="47.76849" lon="6.82706">
        <ele>521.2</ele>
        <time>2021-06-26T07:57:49Z</time>
      </trkpt>
      <trkpt lat="47.76895" lon="6.82761">
        <ele>520.6</ele>
        <time>2021-06-26T07:57:59Z</time>
      </trkpt>
      <trkpt lat="47.76899" lon="6.82766">
        <ele>520.6</ele>
        <time>2021-06-26T07:58:00Z</time>
      </trkpt>
      <trkpt lat="47.76933" lon="6.82797">
        <ele>521.4</ele>
        <time>2021-06-26T07:58:07Z</time>
      </trkpt>
      <trkpt lat="47.76944" lon="6.82803">
        <ele>521.4</ele>
        <time>2021-06-26T07:58:09Z</time>
      </trkpt>
      <trkpt lat="47.76971" lon="6.82812">
        <ele>521.8</ele>
        <time>2021-06-26T07:58:14Z</time>
      </trkpt>
      <trkpt lat="47.76997" lon="6.8282">
        <ele>522.4</ele>
        <time>2021-06-26T07:58:19Z</time>
      </trkpt>
      <trkpt lat="47.77012" lon="6.82825">
        <ele>522.6</ele>
        <time>2021-06-26T07:58:22Z</time>
      </trkpt>
      <trkpt lat="47.77064" lon="6.82841">
        <ele>523.4</ele>
        <time>2021-06-26T07:58:32Z</time>
      </trkpt>
      <trkpt lat="47.77074" lon="6.82844">
        <ele>524</ele>
        <time>2021-06-26T07:58:34Z</time>
      </trkpt>
      <trkpt lat="47.77088" lon="6.82849">
        <ele>524.6</ele>
        <time>2021-06-26T07:58:37Z</time>
      </trkpt>
      <trkpt lat="47.77102" lon="6.82854">
        <ele>525</ele>
        <time>2021-06-26T07:58:40Z</time>
      </trkpt>
      <trkpt lat="47.77115" lon="6.82859">
        <ele>525.8</ele>
        <time>2021-06-26T07:58:43Z</time>
      </trkpt>
      <trkpt lat="47.7712" lon="6.82862">
        <ele>526</ele>
        <time>2021-06-26T07:58:44Z</time>
      </trkpt>
      <trkpt lat="47.77137" lon="6.82872">
        <ele>527</ele>
        <time>2021-06-26T07:58:48Z</time>
      </trkpt>
      <trkpt lat="47.77161" lon="6.82886">
        <ele>527.4</ele>
        <time>2021-06-26T07:58:53Z</time>
      </trkpt>
      <trkpt lat="47.7719" lon="6.82902">
        <ele>528</ele>
        <time>2021-06-26T07:58:59Z</time>
      </trkpt>
      <trkpt lat="47.772" lon="6.82906">
        <ele>528</ele>
        <time>2021-06-26T07:59:01Z</time>
      </trkpt>
      <trkpt lat="47.77236" lon="6.8291">
        <ele>528.6</ele>
        <time>2021-06-26T07:59:08Z</time>
      </trkpt>
      <trkpt lat="47.77262" lon="6.82909">
        <ele>529</ele>
        <time>2021-06-26T07:59:13Z</time>
      </trkpt>
      <trkpt lat="47.77277" lon="6.82908">
        <ele>529.2</ele>
        <time>2021-06-26T07:59:16Z</time>
      </trkpt>
      <trkpt lat="47.77313" lon="6.82914">
        <ele>529.4</ele>
        <time>2021-06-26T07:59:23Z</time>
      </trkpt>
      <trkpt lat="47.77323" lon="6.82919">
        <ele>529.2</ele>
        <time>2021-06-26T07:59:25Z</time>
      </trkpt>
      <trkpt lat="47.77347" lon="6.82934">
        <ele>529.6</ele>
        <time>2021-06-26T07:59:30Z</time>
      </trkpt>
      <trkpt lat="47.77375" lon="6.82961">
        <ele>529.6</ele>
        <time>2021-06-26T07:59:36Z</time>
      </trkpt>
      <trkpt lat="47.77378" lon="6.82966">
        <ele>529.6</ele>
        <time>2021-06-26T07:59:37Z</time>
      </trkpt>
      <trkpt lat="47.77392" lon="6.82988">
        <ele>529.8</ele>
        <time>2021-06-26T07:59:41Z</time>
      </trkpt>
      <trkpt lat="47.77404" lon="6.83011">
        <ele>530.2</ele>
        <time>2021-06-26T07:59:45Z</time>
      </trkpt>
      <trkpt lat="47.77412" lon="6.83027">
        <ele>530.8</ele>
        <time>2021-06-26T07:59:48Z</time>
      </trkpt>
      <trkpt lat="47.77419" lon="6.83038">
        <ele>531.2</ele>
        <time>2021-06-26T07:59:50Z</time>
      </trkpt>
      <trkpt lat="47.77422" lon="6.83042">
        <ele>531.2</ele>
        <time>2021-06-26T07:59:51Z</time>
      </trkpt>
      <trkpt lat="47.77443" lon="6.83089">
        <ele>532.4</ele>
        <time>2021-06-26T07:59:59Z</time>
      </trkpt>
      <trkpt lat="47.77445" lon="6.83094">
        <ele>532.6</ele>
        <time>2021-06-26T08:00:00Z</time>
      </trkpt>
      <trkpt lat="47.77458" lon="6.83125">
        <ele>533.4</ele>
        <time>2021-06-26T08:00:05Z</time>
      </trkpt>
      <trkpt lat="47.77463" lon="6.83137">
        <ele>533.6</ele>
        <time>2021-06-26T08:00:07Z</time>
      </trkpt>
      <trkpt lat="47.77466" lon="6.83149">
        <ele>533.8</ele>
        <time>2021-06-26T08:00:09Z</time>
      </trkpt>
      <trkpt lat="47.77476" lon="6.83177">
        <ele>534.2</ele>
        <time>2021-06-26T08:00:13Z</time>
      </trkpt>
      <trkpt lat="47.7748" lon="6.83188">
        <ele>534.4</ele>
        <time>2021-06-26T08:00:15Z</time>
      </trkpt>
      <trkpt lat="47.77496" lon="6.83223">
        <ele>535</ele>
        <time>2021-06-26T08:00:21Z</time>
      </trkpt>
      <trkpt lat="47.77505" lon="6.83245">
        <ele>535.4</ele>
        <time>2021-06-26T08:00:25Z</time>
      </trkpt>
      <trkpt lat="47.77513" lon="6.83261">
        <ele>535.6</ele>
        <time>2021-06-26T08:00:28Z</time>
      </trkpt>
      <trkpt lat="47.77525" lon="6.83279">
        <ele>536.4</ele>
        <time>2021-06-26T08:00:32Z</time>
      </trkpt>
      <trkpt lat="47.77536" lon="6.83297">
        <ele>537</ele>
        <time>2021-06-26T08:00:36Z</time>
      </trkpt>
      <trkpt lat="47.77549" lon="6.83314">
        <ele>537.4</ele>
        <time>2021-06-26T08:00:40Z</time>
      </trkpt>
      <trkpt lat="47.77564" lon="6.83334">
        <ele>538</ele>
        <time>2021-06-26T08:00:45Z</time>
      </trkpt>
      <trkpt lat="47.77573" lon="6.83346">
        <ele>538.4</ele>
        <time>2021-06-26T08:00:48Z</time>
      </trkpt>
      <trkpt lat="47.77576" lon="6.8335">
        <ele>538.6</ele>
        <time>2021-06-26T08:00:49Z</time>
      </trkpt>
      <trkpt lat="47.77592" lon="6.83369">
        <ele>539.2</ele>
        <time>2021-06-26T08:00:54Z</time>
      </trkpt>
      <trkpt lat="47.77596" lon="6.83373">
        <ele>539.8</ele>
        <time>2021-06-26T08:00:55Z</time>
      </trkpt>
      <trkpt lat="47.77617" lon="6.83399">
        <ele>540.6</ele>
        <time>2021-06-26T08:01:02Z</time>
      </trkpt>
      <trkpt lat="47.77622" lon="6.83406">
        <ele>541</ele>
        <time>2021-06-26T08:01:04Z</time>
      </trkpt>
      <trkpt lat="47.77633" lon="6.83421">
        <ele>541.8</ele>
        <time>2021-06-26T08:01:08Z</time>
      </trkpt>
      <trkpt lat="47.77644" lon="6.83435">
        <ele>542.2</ele>
        <time>2021-06-26T08:01:12Z</time>
      </trkpt>
      <trkpt lat="47.77652" lon="6.83445">
        <ele>542.8</ele>
        <time>2021-06-26T08:01:15Z</time>
      </trkpt>
      <trkpt lat="47.77662" lon="6.83458">
        <ele>544</ele>
        <time>2021-06-26T08:01:19Z</time>
      </trkpt>
      <trkpt lat="47.77665" lon="6.83462">
        <ele>544.4</ele>
        <time>2021-06-26T08:01:20Z</time>
      </trkpt>
      <trkpt lat="47.77675" lon="6.83475">
        <ele>545</ele>
        <time>2021-06-26T08:01:24Z</time>
      </trkpt>
      <trkpt lat="47.7769" lon="6.83495">
        <ele>546</ele>
        <time>2021-06-26T08:01:30Z</time>
      </trkpt>
      <trkpt lat="47.77692" lon="6.83499">
        <ele>546.2</ele>
        <time>2021-06-26T08:01:31Z</time>
      </trkpt>
      <trkpt lat="47.77703" lon="6.83514">
        <ele>547.2</ele>
        <time>2021-06-26T08:01:36Z</time>
      </trkpt>
      <trkpt lat="47.7771" lon="6.83522">
        <ele>547.8</ele>
        <time>2021-06-26T08:01:39Z</time>
      </trkpt>
      <trkpt lat="47.77717" lon="6.83531">
        <ele>548.4</ele>
        <time>2021-06-26T08:01:42Z</time>
      </trkpt>
      <trkpt lat="47.7773" lon="6.83543">
        <ele>549.4</ele>
        <time>2021-06-26T08:01:47Z</time>
      </trkpt>
      <trkpt lat="47.77733" lon="6.83545">
        <ele>549.4</ele>
        <time>2021-06-26T08:01:48Z</time>
      </trkpt>
      <trkpt lat="47.77751" lon="6.83556">
        <ele>550.6</ele>
        <time>2021-06-26T08:01:55Z</time>
      </trkpt>
      <trkpt lat="47.77754" lon="6.83557">
        <ele>550.8</ele>
        <time>2021-06-26T08:01:56Z</time>
      </trkpt>
      <trkpt lat="47.77763" lon="6.83561">
        <ele>551.8</ele>
        <time>2021-06-26T08:02:00Z</time>
      </trkpt>
      <trkpt lat="47.77771" lon="6.83565">
        <ele>552.6</ele>
        <time>2021-06-26T08:02:03Z</time>
      </trkpt>
      <trkpt lat="47.77776" lon="6.83568">
        <ele>553</ele>
        <time>2021-06-26T08:02:05Z</time>
      </trkpt>
      <trkpt lat="47.77784" lon="6.83572">
        <ele>553.6</ele>
        <time>2021-06-26T08:02:08Z</time>
      </trkpt>
      <trkpt lat="47.77786" lon="6.83573">
        <ele>554</ele>
        <time>2021-06-26T08:02:09Z</time>
      </trkpt>
      <trkpt lat="47.77798" lon="6.83578">
        <ele>554.8</ele>
        <time>2021-06-26T08:02:13Z</time>
      </trkpt>
      <trkpt lat="47.7781" lon="6.83583">
        <ele>556.2</ele>
        <time>2021-06-26T08:02:18Z</time>
      </trkpt>
      <trkpt lat="47.77813" lon="6.83584">
        <ele>556.2</ele>
        <time>2021-06-26T08:02:19Z</time>
      </trkpt>
      <trkpt lat="47.77826" lon="6.83577">
        <ele>557.2</ele>
        <time>2021-06-26T08:02:23Z</time>
      </trkpt>
      <trkpt lat="47.77829" lon="6.83573">
        <ele>557.4</ele>
        <time>2021-06-26T08:02:24Z</time>
      </trkpt>
      <trkpt lat="47.77833" lon="6.8356">
        <ele>558.2</ele>
        <time>2021-06-26T08:02:27Z</time>
      </trkpt>
      <trkpt lat="47.77834" lon="6.83552">
        <ele>558.2</ele>
        <time>2021-06-26T08:02:28Z</time>
      </trkpt>
      <trkpt lat="47.77831" lon="6.83523">
        <ele>558.4</ele>
        <time>2021-06-26T08:02:33Z</time>
      </trkpt>
      <trkpt lat="47.77841" lon="6.8349">
        <ele>558.6</ele>
        <time>2021-06-26T08:02:38Z</time>
      </trkpt>
      <trkpt lat="47.77844" lon="6.83479">
        <ele>558.6</ele>
        <time>2021-06-26T08:02:40Z</time>
      </trkpt>
      <trkpt lat="47.77851" lon="6.83462">
        <ele>558.6</ele>
        <time>2021-06-26T08:02:43Z</time>
      </trkpt>
      <trkpt lat="47.77861" lon="6.83445">
        <ele>558.8</ele>
        <time>2021-06-26T08:02:46Z</time>
      </trkpt>
      <trkpt lat="47.77864" lon="6.8344">
        <ele>559</ele>
        <time>2021-06-26T08:02:47Z</time>
      </trkpt>
      <trkpt lat="47.77871" lon="6.83432">
        <ele>559.2</ele>
        <time>2021-06-26T08:02:49Z</time>
      </trkpt>
      <trkpt lat="47.7788" lon="6.83424">
        <ele>559.2</ele>
        <time>2021-06-26T08:02:51Z</time>
      </trkpt>
      <trkpt lat="47.77884" lon="6.83423">
        <ele>559.2</ele>
        <time>2021-06-26T08:02:52Z</time>
      </trkpt>
      <trkpt lat="47.77921" lon="6.83406">
        <ele>559.8</ele>
        <time>2021-06-26T08:03:00Z</time>
      </trkpt>
      <trkpt lat="47.7794" lon="6.83399">
        <ele>560.2</ele>
        <time>2021-06-26T08:03:04Z</time>
      </trkpt>
      <trkpt lat="47.77952" lon="6.83396">
        <ele>560.2</ele>
        <time>2021-06-26T08:03:07Z</time>
      </trkpt>
      <trkpt lat="47.77977" lon="6.83396">
        <ele>560.8</ele>
        <time>2021-06-26T08:03:13Z</time>
      </trkpt>
      <trkpt lat="47.77981" lon="6.83396">
        <ele>561.4</ele>
        <time>2021-06-26T08:03:14Z</time>
      </trkpt>
      <trkpt lat="47.77987" lon="6.83396">
        <ele>561.8</ele>
        <time>2021-06-26T08:03:16Z</time>
      </trkpt>
      <trkpt lat="47.77993" lon="6.83395">
        <ele>562</ele>
        <time>2021-06-26T08:03:18Z</time>
      </trkpt>
      <trkpt lat="47.77995" lon="6.8339">
        <ele>562.4</ele>
        <time>2021-06-26T08:03:20Z</time>
      </trkpt>
      <trkpt lat="47.77994" lon="6.83388">
        <ele>562.4</ele>
        <time>2021-06-26T08:03:21Z</time>
      </trkpt>
      <trkpt lat="47.77982" lon="6.83387">
        <ele>563</ele>
        <time>2021-06-26T08:03:27Z</time>
      </trkpt>
      <trkpt lat="47.77975" lon="6.83389">
        <ele>562.8</ele>
        <time>2021-06-26T08:03:31Z</time>
      </trkpt>
      <trkpt lat="47.77976" lon="6.83391">
        <ele>562.8</ele>
        <time>2021-06-26T08:03:32Z</time>
      </trkpt>
      <trkpt lat="47.77986" lon="6.83394">
        <ele>562.6</ele>
        <time>2021-06-26T08:03:37Z</time>
      </trkpt>
      <trkpt lat="47.78002" lon="6.83393">
        <ele>562.8</ele>
        <time>2021-06-26T08:03:44Z</time>
      </trkpt>
      <trkpt lat="47.7802" lon="6.83391">
        <ele>563.2</ele>
        <time>2021-06-26T08:03:49Z</time>
      </trkpt>
      <trkpt lat="47.78045" lon="6.83382">
        <ele>564</ele>
        <time>2021-06-26T08:03:55Z</time>
      </trkpt>
      <trkpt lat="47.78049" lon="6.83381">
        <ele>564.2</ele>
        <time>2021-06-26T08:03:56Z</time>
      </trkpt>
      <trkpt lat="47.78062" lon="6.83379">
        <ele>564.4</ele>
        <time>2021-06-26T08:03:59Z</time>
      </trkpt>
      <trkpt lat="47.78067" lon="6.83377">
        <ele>564.8</ele>
        <time>2021-06-26T08:04:00Z</time>
      </trkpt>
      <trkpt lat="47.78083" lon="6.83371">
        <ele>565.6</ele>
        <time>2021-06-26T08:04:05Z</time>
      </trkpt>
      <trkpt lat="47.78086" lon="6.83371">
        <ele>565.6</ele>
        <time>2021-06-26T08:04:06Z</time>
      </trkpt>
      <trkpt lat="47.78099" lon="6.83365">
        <ele>566.8</ele>
        <time>2021-06-26T08:04:10Z</time>
      </trkpt>
      <trkpt lat="47.78108" lon="6.83359">
        <ele>567.6</ele>
        <time>2021-06-26T08:04:13Z</time>
      </trkpt>
      <trkpt lat="47.78117" lon="6.83352">
        <ele>568.4</ele>
        <time>2021-06-26T08:04:16Z</time>
      </trkpt>
      <trkpt lat="47.78127" lon="6.83346">
        <ele>568.8</ele>
        <time>2021-06-26T08:04:19Z</time>
      </trkpt>
      <trkpt lat="47.78136" lon="6.83342">
        <ele>569.4</ele>
        <time>2021-06-26T08:04:22Z</time>
      </trkpt>
      <trkpt lat="47.78145" lon="6.83334">
        <ele>570</ele>
        <time>2021-06-26T08:04:25Z</time>
      </trkpt>
      <trkpt lat="47.78156" lon="6.83328">
        <ele>570.4</ele>
        <time>2021-06-26T08:04:27Z</time>
      </trkpt>
      <trkpt lat="47.78169" lon="6.83326">
        <ele>571</ele>
        <time>2021-06-26T08:04:31Z</time>
      </trkpt>
      <trkpt lat="47.78177" lon="6.83326">
        <ele>571.4</ele>
        <time>2021-06-26T08:04:33Z</time>
      </trkpt>
      <trkpt lat="47.78193" lon="6.83331">
        <ele>572.4</ele>
        <time>2021-06-26T08:04:38Z</time>
      </trkpt>
      <trkpt lat="47.78206" lon="6.83341">
        <ele>573.4</ele>
        <time>2021-06-26T08:04:43Z</time>
      </trkpt>
      <trkpt lat="47.78208" lon="6.83344">
        <ele>573.6</ele>
        <time>2021-06-26T08:04:44Z</time>
      </trkpt>
      <trkpt lat="47.7822" lon="6.83356">
        <ele>574.4</ele>
        <time>2021-06-26T08:04:49Z</time>
      </trkpt>
      <trkpt lat="47.78227" lon="6.83363">
        <ele>575.4</ele>
        <time>2021-06-26T08:04:52Z</time>
      </trkpt>
      <trkpt lat="47.78237" lon="6.83372">
        <ele>576.8</ele>
        <time>2021-06-26T08:04:56Z</time>
      </trkpt>
      <trkpt lat="47.78239" lon="6.83374">
        <ele>577</ele>
        <time>2021-06-26T08:04:57Z</time>
      </trkpt>
      <trkpt lat="47.7825" lon="6.83379">
        <ele>578.2</ele>
        <time>2021-06-26T08:05:01Z</time>
      </trkpt>
      <trkpt lat="47.78262" lon="6.83387">
        <ele>579.4</ele>
        <time>2021-06-26T08:05:05Z</time>
      </trkpt>
      <trkpt lat="47.78278" lon="6.83399">
        <ele>580.2</ele>
        <time>2021-06-26T08:05:10Z</time>
      </trkpt>
      <trkpt lat="47.78281" lon="6.83401">
        <ele>580.4</ele>
        <time>2021-06-26T08:05:11Z</time>
      </trkpt>
      <trkpt lat="47.78284" lon="6.83403">
        <ele>580.6</ele>
        <time>2021-06-26T08:05:12Z</time>
      </trkpt>
      <trkpt lat="47.78307" lon="6.83417">
        <ele>581.6</ele>
        <time>2021-06-26T08:05:19Z</time>
      </trkpt>
      <trkpt lat="47.78331" lon="6.83422">
        <ele>582.2</ele>
        <time>2021-06-26T08:05:26Z</time>
      </trkpt>
      <trkpt lat="47.78338" lon="6.83421">
        <ele>582.6</ele>
        <time>2021-06-26T08:05:28Z</time>
      </trkpt>
      <trkpt lat="47.78366" lon="6.83418">
        <ele>583.4</ele>
        <time>2021-06-26T08:05:36Z</time>
      </trkpt>
      <trkpt lat="47.7837" lon="6.83418">
        <ele>583.6</ele>
        <time>2021-06-26T08:05:37Z</time>
      </trkpt>
      <trkpt lat="47.78392" lon="6.83417">
        <ele>584.4</ele>
        <time>2021-06-26T08:05:43Z</time>
      </trkpt>
      <trkpt lat="47.78395" lon="6.83416">
        <ele>584.4</ele>
        <time>2021-06-26T08:05:44Z</time>
      </trkpt>
      <trkpt lat="47.78419" lon="6.83414">
        <ele>585.4</ele>
        <time>2021-06-26T08:05:51Z</time>
      </trkpt>
      <trkpt lat="47.78422" lon="6.83413">
        <ele>585.6</ele>
        <time>2021-06-26T08:05:52Z</time>
      </trkpt>
      <trkpt lat="47.78429" lon="6.83413">
        <ele>586</ele>
        <time>2021-06-26T08:05:54Z</time>
      </trkpt>
      <trkpt lat="47.78438" lon="6.83411">
        <ele>586.8</ele>
        <time>2021-06-26T08:05:57Z</time>
      </trkpt>
      <trkpt lat="47.78445" lon="6.83411">
        <ele>587.2</ele>
        <time>2021-06-26T08:05:59Z</time>
      </trkpt>
      <trkpt lat="47.78457" lon="6.8341">
        <ele>588</ele>
        <time>2021-06-26T08:06:03Z</time>
      </trkpt>
      <trkpt lat="47.78469" lon="6.83408">
        <ele>588.8</ele>
        <time>2021-06-26T08:06:07Z</time>
      </trkpt>
      <trkpt lat="47.78475" lon="6.83406">
        <ele>589.2</ele>
        <time>2021-06-26T08:06:09Z</time>
      </trkpt>
      <trkpt lat="47.78485" lon="6.83402">
        <ele>590.4</ele>
        <time>2021-06-26T08:06:13Z</time>
      </trkpt>
      <trkpt lat="47.78492" lon="6.83398">
        <ele>591</ele>
        <time>2021-06-26T08:06:16Z</time>
      </trkpt>
      <trkpt lat="47.78495" lon="6.83396">
        <ele>591.4</ele>
        <time>2021-06-26T08:06:17Z</time>
      </trkpt>
      <trkpt lat="47.78508" lon="6.8338">
        <ele>592.8</ele>
        <time>2021-06-26T08:06:23Z</time>
      </trkpt>
      <trkpt lat="47.78515" lon="6.83368">
        <ele>593.8</ele>
        <time>2021-06-26T08:06:27Z</time>
      </trkpt>
      <trkpt lat="47.78525" lon="6.83356">
        <ele>595</ele>
        <time>2021-06-26T08:06:32Z</time>
      </trkpt>
      <trkpt lat="47.78527" lon="6.83352">
        <ele>595.2</ele>
        <time>2021-06-26T08:06:33Z</time>
      </trkpt>
      <trkpt lat="47.78538" lon="6.83333">
        <ele>596.2</ele>
        <time>2021-06-26T08:06:39Z</time>
      </trkpt>
      <trkpt lat="47.78544" lon="6.83325">
        <ele>596.6</ele>
        <time>2021-06-26T08:06:42Z</time>
      </trkpt>
      <trkpt lat="47.78547" lon="6.83319">
        <ele>597.2</ele>
        <time>2021-06-26T08:06:44Z</time>
      </trkpt>
      <trkpt lat="47.78561" lon="6.833">
        <ele>598.4</ele>
        <time>2021-06-26T08:06:50Z</time>
      </trkpt>
      <trkpt lat="47.78563" lon="6.83296">
        <ele>598.6</ele>
        <time>2021-06-26T08:06:51Z</time>
      </trkpt>
      <trkpt lat="47.78575" lon="6.83277">
        <ele>599.4</ele>
        <time>2021-06-26T08:06:57Z</time>
      </trkpt>
      <trkpt lat="47.78577" lon="6.83274">
        <ele>599.6</ele>
        <time>2021-06-26T08:06:58Z</time>
      </trkpt>
      <trkpt lat="47.78587" lon="6.83259">
        <ele>600.6</ele>
        <time>2021-06-26T08:07:03Z</time>
      </trkpt>
      <trkpt lat="47.78593" lon="6.8325">
        <ele>601.2</ele>
        <time>2021-06-26T08:07:06Z</time>
      </trkpt>
      <trkpt lat="47.78599" lon="6.83242">
        <ele>601.8</ele>
        <time>2021-06-26T08:07:09Z</time>
      </trkpt>
      <trkpt lat="47.7861" lon="6.83228">
        <ele>602.4</ele>
        <time>2021-06-26T08:07:14Z</time>
      </trkpt>
      <trkpt lat="47.78614" lon="6.83223">
        <ele>602.8</ele>
        <time>2021-06-26T08:07:16Z</time>
      </trkpt>
      <trkpt lat="47.78626" lon="6.8321">
        <ele>603.8</ele>
        <time>2021-06-26T08:07:21Z</time>
      </trkpt>
      <trkpt lat="47.78643" lon="6.83194">
        <ele>604.8</ele>
        <time>2021-06-26T08:07:28Z</time>
      </trkpt>
      <trkpt lat="47.78648" lon="6.83189">
        <ele>605.2</ele>
        <time>2021-06-26T08:07:30Z</time>
      </trkpt>
      <trkpt lat="47.78655" lon="6.83182">
        <ele>606</ele>
        <time>2021-06-26T08:07:33Z</time>
      </trkpt>
      <trkpt lat="47.7867" lon="6.83166">
        <ele>607</ele>
        <time>2021-06-26T08:07:39Z</time>
      </trkpt>
      <trkpt lat="47.78683" lon="6.83154">
        <ele>608</ele>
        <time>2021-06-26T08:07:44Z</time>
      </trkpt>
      <trkpt lat="47.78694" lon="6.83143">
        <ele>608.8</ele>
        <time>2021-06-26T08:07:48Z</time>
      </trkpt>
      <trkpt lat="47.78699" lon="6.83138">
        <ele>609.2</ele>
        <time>2021-06-26T08:07:50Z</time>
      </trkpt>
      <trkpt lat="47.78712" lon="6.83126">
        <ele>610.2</ele>
        <time>2021-06-26T08:07:55Z</time>
      </trkpt>
      <trkpt lat="47.78723" lon="6.83116">
        <ele>611</ele>
        <time>2021-06-26T08:07:59Z</time>
      </trkpt>
      <trkpt lat="47.78728" lon="6.83111">
        <ele>611.2</ele>
        <time>2021-06-26T08:08:01Z</time>
      </trkpt>
      <trkpt lat="47.78745" lon="6.83096">
        <ele>612.2</ele>
        <time>2021-06-26T08:08:07Z</time>
      </trkpt>
      <trkpt lat="47.78758" lon="6.83083">
        <ele>613.4</ele>
        <time>2021-06-26T08:08:12Z</time>
      </trkpt>
      <trkpt lat="47.78769" lon="6.83073">
        <ele>614.2</ele>
        <time>2021-06-26T08:08:16Z</time>
      </trkpt>
      <trkpt lat="47.78771" lon="6.83071">
        <ele>614.2</ele>
        <time>2021-06-26T08:08:17Z</time>
      </trkpt>
      <trkpt lat="47.78784" lon="6.8306">
        <ele>615.2</ele>
        <time>2021-06-26T08:08:22Z</time>
      </trkpt>
      <trkpt lat="47.78793" lon="6.83054">
        <ele>615.8</ele>
        <time>2021-06-26T08:08:25Z</time>
      </trkpt>
      <trkpt lat="47.78801" lon="6.83049">
        <ele>616.4</ele>
        <time>2021-06-26T08:08:28Z</time>
      </trkpt>
      <trkpt lat="47.78814" lon="6.8304">
        <ele>617.6</ele>
        <time>2021-06-26T08:08:33Z</time>
      </trkpt>
      <trkpt lat="47.7883" lon="6.83029">
        <ele>618.8</ele>
        <time>2021-06-26T08:08:39Z</time>
      </trkpt>
      <trkpt lat="47.78833" lon="6.83028">
        <ele>619</ele>
        <time>2021-06-26T08:08:40Z</time>
      </trkpt>
      <trkpt lat="47.78843" lon="6.8302">
        <ele>619.6</ele>
        <time>2021-06-26T08:08:44Z</time>
      </trkpt>
      <trkpt lat="47.78851" lon="6.83015">
        <ele>620.2</ele>
        <time>2021-06-26T08:08:47Z</time>
      </trkpt>
      <trkpt lat="47.78856" lon="6.83012">
        <ele>620.8</ele>
        <time>2021-06-26T08:08:49Z</time>
      </trkpt>
      <trkpt lat="47.78867" lon="6.83008">
        <ele>621.4</ele>
        <time>2021-06-26T08:08:53Z</time>
      </trkpt>
      <trkpt lat="47.78875" lon="6.83004">
        <ele>621.8</ele>
        <time>2021-06-26T08:08:56Z</time>
      </trkpt>
      <trkpt lat="47.78888" lon="6.82995">
        <ele>622.6</ele>
        <time>2021-06-26T08:09:01Z</time>
      </trkpt>
      <trkpt lat="47.78891" lon="6.82995">
        <ele>622.8</ele>
        <time>2021-06-26T08:09:02Z</time>
      </trkpt>
      <trkpt lat="47.78905" lon="6.82991">
        <ele>624</ele>
        <time>2021-06-26T08:09:07Z</time>
      </trkpt>
      <trkpt lat="47.78916" lon="6.82984">
        <ele>625</ele>
        <time>2021-06-26T08:09:11Z</time>
      </trkpt>
      <trkpt lat="47.78932" lon="6.82976">
        <ele>626</ele>
        <time>2021-06-26T08:09:16Z</time>
      </trkpt>
      <trkpt lat="47.78936" lon="6.82975">
        <ele>626.2</ele>
        <time>2021-06-26T08:09:17Z</time>
      </trkpt>
      <trkpt lat="47.78952" lon="6.82966">
        <ele>627.2</ele>
        <time>2021-06-26T08:09:22Z</time>
      </trkpt>
      <trkpt lat="47.78955" lon="6.82965">
        <ele>627.2</ele>
        <time>2021-06-26T08:09:23Z</time>
      </trkpt>
      <trkpt lat="47.78971" lon="6.8296">
        <ele>628.2</ele>
        <time>2021-06-26T08:09:28Z</time>
      </trkpt>
      <trkpt lat="47.78981" lon="6.82957">
        <ele>628.8</ele>
        <time>2021-06-26T08:09:31Z</time>
      </trkpt>
      <trkpt lat="47.78991" lon="6.82954">
        <ele>629</ele>
        <time>2021-06-26T08:09:34Z</time>
      </trkpt>
      <trkpt lat="47.7901" lon="6.82952">
        <ele>630</ele>
        <time>2021-06-26T08:09:40Z</time>
      </trkpt>
      <trkpt lat="47.79013" lon="6.82952">
        <ele>630.2</ele>
        <time>2021-06-26T08:09:41Z</time>
      </trkpt>
      <trkpt lat="47.79029" lon="6.82954">
        <ele>631.2</ele>
        <time>2021-06-26T08:09:46Z</time>
      </trkpt>
      <trkpt lat="47.79039" lon="6.82958">
        <ele>631.8</ele>
        <time>2021-06-26T08:09:49Z</time>
      </trkpt>
      <trkpt lat="47.79044" lon="6.82962">
        <ele>632.4</ele>
        <time>2021-06-26T08:09:51Z</time>
      </trkpt>
      <trkpt lat="47.79061" lon="6.82972">
        <ele>633</ele>
        <time>2021-06-26T08:09:57Z</time>
      </trkpt>
      <trkpt lat="47.79065" lon="6.82973">
        <ele>633.4</ele>
        <time>2021-06-26T08:09:58Z</time>
      </trkpt>
      <trkpt lat="47.79081" lon="6.82971">
        <ele>634.2</ele>
        <time>2021-06-26T08:10:03Z</time>
      </trkpt>
      <trkpt lat="47.79088" lon="6.82968">
        <ele>634.6</ele>
        <time>2021-06-26T08:10:05Z</time>
      </trkpt>
      <trkpt lat="47.79103" lon="6.82958">
        <ele>635.2</ele>
        <time>2021-06-26T08:10:10Z</time>
      </trkpt>
      <trkpt lat="47.79112" lon="6.82952">
        <ele>635.8</ele>
        <time>2021-06-26T08:10:13Z</time>
      </trkpt>
      <trkpt lat="47.79127" lon="6.82942">
        <ele>636.6</ele>
        <time>2021-06-26T08:10:18Z</time>
      </trkpt>
      <trkpt lat="47.7913" lon="6.8294">
        <ele>636.8</ele>
        <time>2021-06-26T08:10:19Z</time>
      </trkpt>
      <trkpt lat="47.79145" lon="6.82928">
        <ele>637.8</ele>
        <time>2021-06-26T08:10:25Z</time>
      </trkpt>
      <trkpt lat="47.79155" lon="6.8292">
        <ele>638.8</ele>
        <time>2021-06-26T08:10:29Z</time>
      </trkpt>
      <trkpt lat="47.79158" lon="6.82917">
        <ele>638.8</ele>
        <time>2021-06-26T08:10:30Z</time>
      </trkpt>
      <trkpt lat="47.79169" lon="6.82908">
        <ele>639.8</ele>
        <time>2021-06-26T08:10:34Z</time>
      </trkpt>
      <trkpt lat="47.79177" lon="6.829">
        <ele>640.4</ele>
        <time>2021-06-26T08:10:37Z</time>
      </trkpt>
      <trkpt lat="47.79191" lon="6.82892">
        <ele>640.8</ele>
        <time>2021-06-26T08:10:41Z</time>
      </trkpt>
      <trkpt lat="47.79199" lon="6.82892">
        <ele>641</ele>
        <time>2021-06-26T08:10:43Z</time>
      </trkpt>
      <trkpt lat="47.79213" lon="6.82902">
        <ele>641.6</ele>
        <time>2021-06-26T08:10:48Z</time>
      </trkpt>
      <trkpt lat="47.79216" lon="6.82906">
        <ele>641.8</ele>
        <time>2021-06-26T08:10:49Z</time>
      </trkpt>
      <trkpt lat="47.79236" lon="6.82934">
        <ele>642.6</ele>
        <time>2021-06-26T08:10:57Z</time>
      </trkpt>
      <trkpt lat="47.79238" lon="6.82938">
        <ele>642.8</ele>
        <time>2021-06-26T08:10:58Z</time>
      </trkpt>
      <trkpt lat="47.79256" lon="6.82973">
        <ele>643.4</ele>
        <time>2021-06-26T08:11:06Z</time>
      </trkpt>
      <trkpt lat="47.79264" lon="6.82984">
        <ele>643.8</ele>
        <time>2021-06-26T08:11:09Z</time>
      </trkpt>
      <trkpt lat="47.79281" lon="6.83008">
        <ele>644.8</ele>
        <time>2021-06-26T08:11:16Z</time>
      </trkpt>
      <trkpt lat="47.79293" lon="6.83024">
        <ele>645.8</ele>
        <time>2021-06-26T08:11:21Z</time>
      </trkpt>
      <trkpt lat="47.79298" lon="6.83031">
        <ele>646.2</ele>
        <time>2021-06-26T08:11:23Z</time>
      </trkpt>
      <trkpt lat="47.79308" lon="6.83043">
        <ele>646.8</ele>
        <time>2021-06-26T08:11:27Z</time>
      </trkpt>
      <trkpt lat="47.79318" lon="6.83053">
        <ele>648</ele>
        <time>2021-06-26T08:11:31Z</time>
      </trkpt>
      <trkpt lat="47.79331" lon="6.83061">
        <ele>649.2</ele>
        <time>2021-06-26T08:11:36Z</time>
      </trkpt>
      <trkpt lat="47.79335" lon="6.83062">
        <ele>649.4</ele>
        <time>2021-06-26T08:11:37Z</time>
      </trkpt>
      <trkpt lat="47.79346" lon="6.83065">
        <ele>650.4</ele>
        <time>2021-06-26T08:11:41Z</time>
      </trkpt>
      <trkpt lat="47.79363" lon="6.83072">
        <ele>651.6</ele>
        <time>2021-06-26T08:11:47Z</time>
      </trkpt>
      <trkpt lat="47.79376" lon="6.83077">
        <ele>652.6</ele>
        <time>2021-06-26T08:11:52Z</time>
      </trkpt>
      <trkpt lat="47.79399" lon="6.83085">
        <ele>653.6</ele>
        <time>2021-06-26T08:11:59Z</time>
      </trkpt>
      <trkpt lat="47.79402" lon="6.83087">
        <ele>653.8</ele>
        <time>2021-06-26T08:12:00Z</time>
      </trkpt>
      <trkpt lat="47.79417" lon="6.83097">
        <ele>655</ele>
        <time>2021-06-26T08:12:05Z</time>
      </trkpt>
      <trkpt lat="47.79419" lon="6.83099">
        <ele>655.2</ele>
        <time>2021-06-26T08:12:06Z</time>
      </trkpt>
      <trkpt lat="47.79428" lon="6.83109">
        <ele>656.2</ele>
        <time>2021-06-26T08:12:10Z</time>
      </trkpt>
      <trkpt lat="47.7943" lon="6.83111">
        <ele>656.2</ele>
        <time>2021-06-26T08:12:11Z</time>
      </trkpt>
      <trkpt lat="47.79439" lon="6.83116">
        <ele>657.2</ele>
        <time>2021-06-26T08:12:14Z</time>
      </trkpt>
      <trkpt lat="47.79446" lon="6.83122">
        <ele>657.8</ele>
        <time>2021-06-26T08:12:17Z</time>
      </trkpt>
      <trkpt lat="47.79451" lon="6.83126">
        <ele>658.2</ele>
        <time>2021-06-26T08:12:19Z</time>
      </trkpt>
      <trkpt lat="47.79462" lon="6.83131">
        <ele>659.2</ele>
        <time>2021-06-26T08:12:23Z</time>
      </trkpt>
      <trkpt lat="47.79482" lon="6.83132">
        <ele>660.4</ele>
        <time>2021-06-26T08:12:29Z</time>
      </trkpt>
      <trkpt lat="47.79485" lon="6.8313">
        <ele>660.6</ele>
        <time>2021-06-26T08:12:30Z</time>
      </trkpt>
      <trkpt lat="47.79505" lon="6.83126">
        <ele>661.6</ele>
        <time>2021-06-26T08:12:36Z</time>
      </trkpt>
      <trkpt lat="47.79508" lon="6.83125">
        <ele>661.6</ele>
        <time>2021-06-26T08:12:37Z</time>
      </trkpt>
      <trkpt lat="47.79525" lon="6.83122">
        <ele>662.8</ele>
        <time>2021-06-26T08:12:43Z</time>
      </trkpt>
      <trkpt lat="47.79528" lon="6.83121">
        <ele>663</ele>
        <time>2021-06-26T08:12:44Z</time>
      </trkpt>
      <trkpt lat="47.79542" lon="6.83118">
        <ele>664</ele>
        <time>2021-06-26T08:12:49Z</time>
      </trkpt>
      <trkpt lat="47.79554" lon="6.83119">
        <ele>664.8</ele>
        <time>2021-06-26T08:12:53Z</time>
      </trkpt>
      <trkpt lat="47.79561" lon="6.83121">
        <ele>664.8</ele>
        <time>2021-06-26T08:12:55Z</time>
      </trkpt>
      <trkpt lat="47.79578" lon="6.83131">
        <ele>666</ele>
        <time>2021-06-26T08:13:01Z</time>
      </trkpt>
      <trkpt lat="47.7959" lon="6.83139">
        <ele>667</ele>
        <time>2021-06-26T08:13:05Z</time>
      </trkpt>
      <trkpt lat="47.79599" lon="6.83144">
        <ele>667.8</ele>
        <time>2021-06-26T08:13:08Z</time>
      </trkpt>
      <trkpt lat="47.79605" lon="6.83149">
        <ele>668.2</ele>
        <time>2021-06-26T08:13:10Z</time>
      </trkpt>
      <trkpt lat="47.79623" lon="6.83159">
        <ele>669.4</ele>
        <time>2021-06-26T08:13:16Z</time>
      </trkpt>
      <trkpt lat="47.79641" lon="6.8317">
        <ele>670.4</ele>
        <time>2021-06-26T08:13:22Z</time>
      </trkpt>
      <trkpt lat="47.79659" lon="6.83181">
        <ele>671.2</ele>
        <time>2021-06-26T08:13:28Z</time>
      </trkpt>
      <trkpt lat="47.79662" lon="6.83182">
        <ele>671.4</ele>
        <time>2021-06-26T08:13:29Z</time>
      </trkpt>
      <trkpt lat="47.79673" lon="6.83189">
        <ele>672.2</ele>
        <time>2021-06-26T08:13:33Z</time>
      </trkpt>
      <trkpt lat="47.79684" lon="6.83195">
        <ele>673.4</ele>
        <time>2021-06-26T08:13:37Z</time>
      </trkpt>
      <trkpt lat="47.79702" lon="6.83198">
        <ele>674.4</ele>
        <time>2021-06-26T08:13:43Z</time>
      </trkpt>
      <trkpt lat="47.79705" lon="6.83198">
        <ele>674.4</ele>
        <time>2021-06-26T08:13:44Z</time>
      </trkpt>
      <trkpt lat="47.79721" lon="6.83197">
        <ele>675.4</ele>
        <time>2021-06-26T08:13:49Z</time>
      </trkpt>
      <trkpt lat="47.79731" lon="6.83198">
        <ele>676</ele>
        <time>2021-06-26T08:13:52Z</time>
      </trkpt>
      <trkpt lat="47.79741" lon="6.83201">
        <ele>676.8</ele>
        <time>2021-06-26T08:13:55Z</time>
      </trkpt>
      <trkpt lat="47.79748" lon="6.83205">
        <ele>677</ele>
        <time>2021-06-26T08:13:57Z</time>
      </trkpt>
      <trkpt lat="47.79759" lon="6.83208">
        <ele>677.6</ele>
        <time>2021-06-26T08:14:00Z</time>
      </trkpt>
      <trkpt lat="47.79762" lon="6.8321">
        <ele>677.8</ele>
        <time>2021-06-26T08:14:01Z</time>
      </trkpt>
      <trkpt lat="47.79782" lon="6.83217">
        <ele>678.8</ele>
        <time>2021-06-26T08:14:07Z</time>
      </trkpt>
      <trkpt lat="47.79785" lon="6.83217">
        <ele>679</ele>
        <time>2021-06-26T08:14:08Z</time>
      </trkpt>
      <trkpt lat="47.79801" lon="6.83222">
        <ele>679.8</ele>
        <time>2021-06-26T08:14:13Z</time>
      </trkpt>
      <trkpt lat="47.79804" lon="6.83222">
        <ele>680</ele>
        <time>2021-06-26T08:14:14Z</time>
      </trkpt>
      <trkpt lat="47.7982" lon="6.83227">
        <ele>681</ele>
        <time>2021-06-26T08:14:19Z</time>
      </trkpt>
      <trkpt lat="47.79827" lon="6.83229">
        <ele>681.4</ele>
        <time>2021-06-26T08:14:21Z</time>
      </trkpt>
      <trkpt lat="47.79836" lon="6.83231">
        <ele>682</ele>
        <time>2021-06-26T08:14:24Z</time>
      </trkpt>
      <trkpt lat="47.79852" lon="6.83236">
        <ele>683</ele>
        <time>2021-06-26T08:14:29Z</time>
      </trkpt>
      <trkpt lat="47.79854" lon="6.83236">
        <ele>683.4</ele>
        <time>2021-06-26T08:14:30Z</time>
      </trkpt>
      <trkpt lat="47.79868" lon="6.83238">
        <ele>684.6</ele>
        <time>2021-06-26T08:14:35Z</time>
      </trkpt>
      <trkpt lat="47.79885" lon="6.83227">
        <ele>685.8</ele>
        <time>2021-06-26T08:14:41Z</time>
      </trkpt>
      <trkpt lat="47.79895" lon="6.83209">
        <ele>687</ele>
        <time>2021-06-26T08:14:46Z</time>
      </trkpt>
      <trkpt lat="47.79902" lon="6.83198">
        <ele>687.4</ele>
        <time>2021-06-26T08:14:49Z</time>
      </trkpt>
      <trkpt lat="47.79913" lon="6.83183">
        <ele>688</ele>
        <time>2021-06-26T08:14:53Z</time>
      </trkpt>
      <trkpt lat="47.79922" lon="6.83176">
        <ele>688.8</ele>
        <time>2021-06-26T08:14:56Z</time>
      </trkpt>
      <trkpt lat="47.79929" lon="6.83174">
        <ele>689</ele>
        <time>2021-06-26T08:14:58Z</time>
      </trkpt>
      <trkpt lat="47.79944" lon="6.83175">
        <ele>689.8</ele>
        <time>2021-06-26T08:15:02Z</time>
      </trkpt>
      <trkpt lat="47.79951" lon="6.83178">
        <ele>690.2</ele>
        <time>2021-06-26T08:15:04Z</time>
      </trkpt>
      <trkpt lat="47.79971" lon="6.83191">
        <ele>690.8</ele>
        <time>2021-06-26T08:15:10Z</time>
      </trkpt>
      <trkpt lat="47.7998" lon="6.83201">
        <ele>691.2</ele>
        <time>2021-06-26T08:15:13Z</time>
      </trkpt>
      <trkpt lat="47.7999" lon="6.83218">
        <ele>691.6</ele>
        <time>2021-06-26T08:15:17Z</time>
      </trkpt>
      <trkpt lat="47.80002" lon="6.83248">
        <ele>692</ele>
        <time>2021-06-26T08:15:23Z</time>
      </trkpt>
      <trkpt lat="47.80005" lon="6.83258">
        <ele>692.2</ele>
        <time>2021-06-26T08:15:25Z</time>
      </trkpt>
      <trkpt lat="47.80006" lon="6.83283">
        <ele>693.2</ele>
        <time>2021-06-26T08:15:30Z</time>
      </trkpt>
      <trkpt lat="47.79999" lon="6.83303">
        <ele>694.2</ele>
        <time>2021-06-26T08:15:35Z</time>
      </trkpt>
      <trkpt lat="47.79989" lon="6.83315">
        <ele>695.6</ele>
        <time>2021-06-26T08:15:39Z</time>
      </trkpt>
      <trkpt lat="47.79978" lon="6.83326">
        <ele>696.2</ele>
        <time>2021-06-26T08:15:43Z</time>
      </trkpt>
      <trkpt lat="47.79972" lon="6.83331">
        <ele>696.6</ele>
        <time>2021-06-26T08:15:45Z</time>
      </trkpt>
      <trkpt lat="47.79964" lon="6.8334">
        <ele>697.2</ele>
        <time>2021-06-26T08:15:48Z</time>
      </trkpt>
      <trkpt lat="47.79956" lon="6.83348">
        <ele>697.8</ele>
        <time>2021-06-26T08:15:51Z</time>
      </trkpt>
      <trkpt lat="47.79941" lon="6.83365">
        <ele>698.8</ele>
        <time>2021-06-26T08:15:56Z</time>
      </trkpt>
      <trkpt lat="47.79938" lon="6.83368">
        <ele>699</ele>
        <time>2021-06-26T08:15:57Z</time>
      </trkpt>
      <trkpt lat="47.79926" lon="6.83389">
        <ele>700</ele>
        <time>2021-06-26T08:16:03Z</time>
      </trkpt>
      <trkpt lat="47.79918" lon="6.8341">
        <ele>701</ele>
        <time>2021-06-26T08:16:08Z</time>
      </trkpt>
      <trkpt lat="47.79917" lon="6.83415">
        <ele>701.4</ele>
        <time>2021-06-26T08:16:09Z</time>
      </trkpt>
      <trkpt lat="47.79912" lon="6.83433">
        <ele>702.2</ele>
        <time>2021-06-26T08:16:13Z</time>
      </trkpt>
      <trkpt lat="47.79908" lon="6.83451">
        <ele>702.8</ele>
        <time>2021-06-26T08:16:17Z</time>
      </trkpt>
      <trkpt lat="47.79905" lon="6.8346">
        <ele>703.4</ele>
        <time>2021-06-26T08:16:19Z</time>
      </trkpt>
      <trkpt lat="47.799" lon="6.83481">
        <ele>704.2</ele>
        <time>2021-06-26T08:16:24Z</time>
      </trkpt>
      <trkpt lat="47.799" lon="6.83485">
        <ele>704.4</ele>
        <time>2021-06-26T08:16:25Z</time>
      </trkpt>
      <trkpt lat="47.79897" lon="6.83505">
        <ele>705.4</ele>
        <time>2021-06-26T08:16:29Z</time>
      </trkpt>
      <trkpt lat="47.79897" lon="6.83515">
        <ele>706</ele>
        <time>2021-06-26T08:16:31Z</time>
      </trkpt>
      <trkpt lat="47.79896" lon="6.83531">
        <ele>706.4</ele>
        <time>2021-06-26T08:16:34Z</time>
      </trkpt>
      <trkpt lat="47.79893" lon="6.83567">
        <ele>707.6</ele>
        <time>2021-06-26T08:16:41Z</time>
      </trkpt>
      <trkpt lat="47.7988" lon="6.83586">
        <ele>708.2</ele>
        <time>2021-06-26T08:16:46Z</time>
      </trkpt>
      <trkpt lat="47.79871" lon="6.83593">
        <ele>708.8</ele>
        <time>2021-06-26T08:16:49Z</time>
      </trkpt>
      <trkpt lat="47.79861" lon="6.83598">
        <ele>709.4</ele>
        <time>2021-06-26T08:16:52Z</time>
      </trkpt>
      <trkpt lat="47.79852" lon="6.836">
        <ele>710</ele>
        <time>2021-06-26T08:16:55Z</time>
      </trkpt>
      <trkpt lat="47.7984" lon="6.83603">
        <ele>710.6</ele>
        <time>2021-06-26T08:16:59Z</time>
      </trkpt>
      <trkpt lat="47.79837" lon="6.83604">
        <ele>711</ele>
        <time>2021-06-26T08:17:00Z</time>
      </trkpt>
      <trkpt lat="47.79822" lon="6.83609">
        <ele>712</ele>
        <time>2021-06-26T08:17:05Z</time>
      </trkpt>
      <trkpt lat="47.79817" lon="6.83613">
        <ele>712.6</ele>
        <time>2021-06-26T08:17:07Z</time>
      </trkpt>
      <trkpt lat="47.79807" lon="6.8362">
        <ele>713.4</ele>
        <time>2021-06-26T08:17:11Z</time>
      </trkpt>
      <trkpt lat="47.79801" lon="6.83624">
        <ele>714</ele>
        <time>2021-06-26T08:17:13Z</time>
      </trkpt>
      <trkpt lat="47.79796" lon="6.83626">
        <ele>714.6</ele>
        <time>2021-06-26T08:17:15Z</time>
      </trkpt>
      <trkpt lat="47.79784" lon="6.83633">
        <ele>715.2</ele>
        <time>2021-06-26T08:17:19Z</time>
      </trkpt>
      <trkpt lat="47.79781" lon="6.83635">
        <ele>715.6</ele>
        <time>2021-06-26T08:17:20Z</time>
      </trkpt>
      <trkpt lat="47.79769" lon="6.83642">
        <ele>716.8</ele>
        <time>2021-06-26T08:17:24Z</time>
      </trkpt>
      <trkpt lat="47.79757" lon="6.83645">
        <ele>717.4</ele>
        <time>2021-06-26T08:17:28Z</time>
      </trkpt>
      <trkpt lat="47.79754" lon="6.83645">
        <ele>717.8</ele>
        <time>2021-06-26T08:17:29Z</time>
      </trkpt>
      <trkpt lat="47.79736" lon="6.83644">
        <ele>719</ele>
        <time>2021-06-26T08:17:35Z</time>
      </trkpt>
      <trkpt lat="47.79733" lon="6.83645">
        <ele>719.2</ele>
        <time>2021-06-26T08:17:36Z</time>
      </trkpt>
      <trkpt lat="47.79727" lon="6.83654">
        <ele>719.8</ele>
        <time>2021-06-26T08:17:39Z</time>
      </trkpt>
      <trkpt lat="47.79726" lon="6.83659">
        <ele>720.2</ele>
        <time>2021-06-26T08:17:40Z</time>
      </trkpt>
      <trkpt lat="47.79726" lon="6.83671">
        <ele>720.4</ele>
        <time>2021-06-26T08:17:43Z</time>
      </trkpt>
      <trkpt lat="47.79736" lon="6.83681">
        <ele>721.2</ele>
        <time>2021-06-26T08:17:47Z</time>
      </trkpt>
      <trkpt lat="47.79739" lon="6.83681">
        <ele>721.2</ele>
        <time>2021-06-26T08:17:48Z</time>
      </trkpt>
      <trkpt lat="47.79745" lon="6.83681">
        <ele>721.6</ele>
        <time>2021-06-26T08:17:50Z</time>
      </trkpt>
      <trkpt lat="47.79751" lon="6.83681">
        <ele>721.8</ele>
        <time>2021-06-26T08:17:52Z</time>
      </trkpt>
      <trkpt lat="47.79757" lon="6.8368">
        <ele>722.4</ele>
        <time>2021-06-26T08:17:54Z</time>
      </trkpt>
      <trkpt lat="47.79765" lon="6.83682">
        <ele>723</ele>
        <time>2021-06-26T08:17:57Z</time>
      </trkpt>
      <trkpt lat="47.79774" lon="6.83682">
        <ele>723.4</ele>
        <time>2021-06-26T08:18:00Z</time>
      </trkpt>
      <trkpt lat="47.79786" lon="6.83681">
        <ele>724.4</ele>
        <time>2021-06-26T08:18:04Z</time>
      </trkpt>
      <trkpt lat="47.79788" lon="6.83681">
        <ele>724.6</ele>
        <time>2021-06-26T08:18:05Z</time>
      </trkpt>
      <trkpt lat="47.79803" lon="6.8368">
        <ele>725.8</ele>
        <time>2021-06-26T08:18:11Z</time>
      </trkpt>
      <trkpt lat="47.79818" lon="6.8368">
        <ele>727</ele>
        <time>2021-06-26T08:18:16Z</time>
      </trkpt>
      <trkpt lat="47.79824" lon="6.83679">
        <ele>727.4</ele>
        <time>2021-06-26T08:18:18Z</time>
      </trkpt>
      <trkpt lat="47.7984" lon="6.83681">
        <ele>728.2</ele>
        <time>2021-06-26T08:18:22Z</time>
      </trkpt>
      <trkpt lat="47.79848" lon="6.83679">
        <ele>728.6</ele>
        <time>2021-06-26T08:18:24Z</time>
      </trkpt>
      <trkpt lat="47.79858" lon="6.83684">
        <ele>729.2</ele>
        <time>2021-06-26T08:18:27Z</time>
      </trkpt>
      <trkpt lat="47.7987" lon="6.8369">
        <ele>730.2</ele>
        <time>2021-06-26T08:18:31Z</time>
      </trkpt>
      <trkpt lat="47.79872" lon="6.83691">
        <ele>730.2</ele>
        <time>2021-06-26T08:18:32Z</time>
      </trkpt>
      <trkpt lat="47.79884" lon="6.837">
        <ele>731.2</ele>
        <time>2021-06-26T08:18:37Z</time>
      </trkpt>
      <trkpt lat="47.79887" lon="6.83702">
        <ele>731.8</ele>
        <time>2021-06-26T08:18:38Z</time>
      </trkpt>
      <trkpt lat="47.79892" lon="6.83705">
        <ele>732.2</ele>
        <time>2021-06-26T08:18:40Z</time>
      </trkpt>
      <trkpt lat="47.79897" lon="6.83707">
        <ele>732.6</ele>
        <time>2021-06-26T08:18:42Z</time>
      </trkpt>
      <trkpt lat="47.79905" lon="6.83711">
        <ele>733</ele>
        <time>2021-06-26T08:18:45Z</time>
      </trkpt>
      <trkpt lat="47.79911" lon="6.83713">
        <ele>733.6</ele>
        <time>2021-06-26T08:18:47Z</time>
      </trkpt>
      <trkpt lat="47.79928" lon="6.83718">
        <ele>734.8</ele>
        <time>2021-06-26T08:18:53Z</time>
      </trkpt>
      <trkpt lat="47.79941" lon="6.83718">
        <ele>736.2</ele>
        <time>2021-06-26T08:18:58Z</time>
      </trkpt>
      <trkpt lat="47.79947" lon="6.83718">
        <ele>736.6</ele>
        <time>2021-06-26T08:19:00Z</time>
      </trkpt>
      <trkpt lat="47.79959" lon="6.83716">
        <ele>737.6</ele>
        <time>2021-06-26T08:19:04Z</time>
      </trkpt>
      <trkpt lat="47.79964" lon="6.83714">
        <ele>738.2</ele>
        <time>2021-06-26T08:19:06Z</time>
      </trkpt>
      <trkpt lat="47.79973" lon="6.83709">
        <ele>739</ele>
        <time>2021-06-26T08:19:09Z</time>
      </trkpt>
      <trkpt lat="47.79984" lon="6.83701">
        <ele>739.6</ele>
        <time>2021-06-26T08:19:13Z</time>
      </trkpt>
      <trkpt lat="47.79992" lon="6.83691">
        <ele>740.4</ele>
        <time>2021-06-26T08:19:16Z</time>
      </trkpt>
      <trkpt lat="47.80005" lon="6.83682">
        <ele>740.8</ele>
        <time>2021-06-26T08:19:21Z</time>
      </trkpt>
      <trkpt lat="47.80011" lon="6.83681">
        <ele>741.2</ele>
        <time>2021-06-26T08:19:23Z</time>
      </trkpt>
      <trkpt lat="47.80019" lon="6.83681">
        <ele>742.6</ele>
        <time>2021-06-26T08:19:26Z</time>
      </trkpt>
      <trkpt lat="47.80022" lon="6.83681">
        <ele>742.8</ele>
        <time>2021-06-26T08:19:27Z</time>
      </trkpt>
      <trkpt lat="47.80033" lon="6.83677">
        <ele>743.8</ele>
        <time>2021-06-26T08:19:31Z</time>
      </trkpt>
      <trkpt lat="47.80038" lon="6.83673">
        <ele>744.4</ele>
        <time>2021-06-26T08:19:33Z</time>
      </trkpt>
      <trkpt lat="47.80044" lon="6.83664">
        <ele>745</ele>
        <time>2021-06-26T08:19:36Z</time>
      </trkpt>
      <trkpt lat="47.80048" lon="6.83653">
        <ele>745.6</ele>
        <time>2021-06-26T08:19:39Z</time>
      </trkpt>
      <trkpt lat="47.80049" lon="6.83646">
        <ele>746</ele>
        <time>2021-06-26T08:19:41Z</time>
      </trkpt>
      <trkpt lat="47.80052" lon="6.83631">
        <ele>747</ele>
        <time>2021-06-26T08:19:45Z</time>
      </trkpt>
      <trkpt lat="47.80053" lon="6.83627">
        <ele>747.2</ele>
        <time>2021-06-26T08:19:46Z</time>
      </trkpt>
      <trkpt lat="47.80052" lon="6.8361">
        <ele>748</ele>
        <time>2021-06-26T08:19:50Z</time>
      </trkpt>
      <trkpt lat="47.80052" lon="6.83605">
        <ele>748.2</ele>
        <time>2021-06-26T08:19:51Z</time>
      </trkpt>
      <trkpt lat="47.80046" lon="6.83577">
        <ele>749.4</ele>
        <time>2021-06-26T08:19:58Z</time>
      </trkpt>
      <trkpt lat="47.80045" lon="6.83574">
        <ele>749.6</ele>
        <time>2021-06-26T08:19:59Z</time>
      </trkpt>
      <trkpt lat="47.80043" lon="6.83553">
        <ele>750.6</ele>
        <time>2021-06-26T08:20:04Z</time>
      </trkpt>
      <trkpt lat="47.80043" lon="6.8355">
        <ele>750.8</ele>
        <time>2021-06-26T08:20:05Z</time>
      </trkpt>
      <trkpt lat="47.80044" lon="6.83537">
        <ele>751.8</ele>
        <time>2021-06-26T08:20:08Z</time>
      </trkpt>
      <trkpt lat="47.80045" lon="6.8352">
        <ele>752.8</ele>
        <time>2021-06-26T08:20:12Z</time>
      </trkpt>
      <trkpt lat="47.80046" lon="6.83516">
        <ele>753.2</ele>
        <time>2021-06-26T08:20:13Z</time>
      </trkpt>
      <trkpt lat="47.8005" lon="6.83502">
        <ele>753.8</ele>
        <time>2021-06-26T08:20:16Z</time>
      </trkpt>
      <trkpt lat="47.80057" lon="6.83486">
        <ele>754.2</ele>
        <time>2021-06-26T08:20:20Z</time>
      </trkpt>
      <trkpt lat="47.8007" lon="6.83466">
        <ele>754.8</ele>
        <time>2021-06-26T08:20:26Z</time>
      </trkpt>
      <trkpt lat="47.80075" lon="6.83461">
        <ele>755</ele>
        <time>2021-06-26T08:20:28Z</time>
      </trkpt>
      <trkpt lat="47.80089" lon="6.83448">
        <ele>755.8</ele>
        <time>2021-06-26T08:20:33Z</time>
      </trkpt>
      <trkpt lat="47.80092" lon="6.83445">
        <ele>756</ele>
        <time>2021-06-26T08:20:34Z</time>
      </trkpt>
      <trkpt lat="47.80106" lon="6.83429">
        <ele>757.2</ele>
        <time>2021-06-26T08:20:40Z</time>
      </trkpt>
      <trkpt lat="47.80109" lon="6.83426">
        <ele>757.2</ele>
        <time>2021-06-26T08:20:41Z</time>
      </trkpt>
      <trkpt lat="47.80114" lon="6.83416">
        <ele>758</ele>
        <time>2021-06-26T08:20:44Z</time>
      </trkpt>
      <trkpt lat="47.80122" lon="6.83403">
        <ele>758.6</ele>
        <time>2021-06-26T08:20:48Z</time>
      </trkpt>
      <trkpt lat="47.8013" lon="6.83397">
        <ele>759.2</ele>
        <time>2021-06-26T08:20:51Z</time>
      </trkpt>
      <trkpt lat="47.80133" lon="6.83398">
        <ele>759.4</ele>
        <time>2021-06-26T08:20:52Z</time>
      </trkpt>
      <trkpt lat="47.80137" lon="6.83406">
        <ele>759.8</ele>
        <time>2021-06-26T08:20:55Z</time>
      </trkpt>
      <trkpt lat="47.80137" lon="6.8341">
        <ele>760</ele>
        <time>2021-06-26T08:20:56Z</time>
      </trkpt>
      <trkpt lat="47.80136" lon="6.83413">
        <ele>760.2</ele>
        <time>2021-06-26T08:20:57Z</time>
      </trkpt>
      <trkpt lat="47.80131" lon="6.83426">
        <ele>761.4</ele>
        <time>2021-06-26T08:21:01Z</time>
      </trkpt>
      <trkpt lat="47.80124" lon="6.83442">
        <ele>762.6</ele>
        <time>2021-06-26T08:21:06Z</time>
      </trkpt>
      <trkpt lat="47.80121" lon="6.83454">
        <ele>763.2</ele>
        <time>2021-06-26T08:21:09Z</time>
      </trkpt>
      <trkpt lat="47.8012" lon="6.83462">
        <ele>763.6</ele>
        <time>2021-06-26T08:21:11Z</time>
      </trkpt>
      <trkpt lat="47.8012" lon="6.8348">
        <ele>764.8</ele>
        <time>2021-06-26T08:21:15Z</time>
      </trkpt>
      <trkpt lat="47.80119" lon="6.83484">
        <ele>765</ele>
        <time>2021-06-26T08:21:16Z</time>
      </trkpt>
      <trkpt lat="47.80119" lon="6.83497">
        <ele>765.8</ele>
        <time>2021-06-26T08:21:19Z</time>
      </trkpt>
      <trkpt lat="47.80123" lon="6.83516">
        <ele>767</ele>
        <time>2021-06-26T08:21:23Z</time>
      </trkpt>
      <trkpt lat="47.80124" lon="6.83528">
        <ele>768.2</ele>
        <time>2021-06-26T08:21:26Z</time>
      </trkpt>
      <trkpt lat="47.80125" lon="6.8354">
        <ele>768.8</ele>
        <time>2021-06-26T08:21:29Z</time>
      </trkpt>
      <trkpt lat="47.80127" lon="6.83549">
        <ele>769.2</ele>
        <time>2021-06-26T08:21:31Z</time>
      </trkpt>
      <trkpt lat="47.8013" lon="6.83575">
        <ele>770.2</ele>
        <time>2021-06-26T08:21:37Z</time>
      </trkpt>
      <trkpt lat="47.80131" lon="6.83579">
        <ele>770.2</ele>
        <time>2021-06-26T08:21:38Z</time>
      </trkpt>
      <trkpt lat="47.80134" lon="6.83596">
        <ele>771.2</ele>
        <time>2021-06-26T08:21:42Z</time>
      </trkpt>
      <trkpt lat="47.80137" lon="6.83612">
        <ele>772.2</ele>
        <time>2021-06-26T08:21:46Z</time>
      </trkpt>
      <trkpt lat="47.8014" lon="6.83628">
        <ele>773.2</ele>
        <time>2021-06-26T08:21:50Z</time>
      </trkpt>
      <trkpt lat="47.80141" lon="6.83632">
        <ele>773.6</ele>
        <time>2021-06-26T08:21:51Z</time>
      </trkpt>
      <trkpt lat="47.80145" lon="6.83649">
        <ele>774.6</ele>
        <time>2021-06-26T08:21:55Z</time>
      </trkpt>
      <trkpt lat="47.80147" lon="6.83653">
        <ele>774.6</ele>
        <time>2021-06-26T08:21:56Z</time>
      </trkpt>
      <trkpt lat="47.8015" lon="6.83677">
        <ele>775.8</ele>
        <time>2021-06-26T08:22:01Z</time>
      </trkpt>
      <trkpt lat="47.80151" lon="6.83686">
        <ele>776.2</ele>
        <time>2021-06-26T08:22:03Z</time>
      </trkpt>
      <trkpt lat="47.80153" lon="6.83699">
        <ele>777</ele>
        <time>2021-06-26T08:22:06Z</time>
      </trkpt>
      <trkpt lat="47.80158" lon="6.83715">
        <ele>777.8</ele>
        <time>2021-06-26T08:22:10Z</time>
      </trkpt>
      <trkpt lat="47.8016" lon="6.83719">
        <ele>778</ele>
        <time>2021-06-26T08:22:11Z</time>
      </trkpt>
      <trkpt lat="47.80166" lon="6.83736">
        <ele>778.8</ele>
        <time>2021-06-26T08:22:15Z</time>
      </trkpt>
      <trkpt lat="47.8017" lon="6.83744">
        <ele>779</ele>
        <time>2021-06-26T08:22:17Z</time>
      </trkpt>
      <trkpt lat="47.80173" lon="6.83763">
        <ele>779.8</ele>
        <time>2021-06-26T08:22:21Z</time>
      </trkpt>
      <trkpt lat="47.80175" lon="6.83774">
        <ele>780.2</ele>
        <time>2021-06-26T08:22:23Z</time>
      </trkpt>
      <trkpt lat="47.80175" lon="6.83795">
        <ele>780.6</ele>
        <time>2021-06-26T08:22:27Z</time>
      </trkpt>
      <trkpt lat="47.80174" lon="6.83804">
        <ele>781.2</ele>
        <time>2021-06-26T08:22:29Z</time>
      </trkpt>
      <trkpt lat="47.8017" lon="6.83818">
        <ele>781.6</ele>
        <time>2021-06-26T08:22:32Z</time>
      </trkpt>
      <trkpt lat="47.80156" lon="6.83832">
        <ele>782.4</ele>
        <time>2021-06-26T08:22:37Z</time>
      </trkpt>
      <trkpt lat="47.80138" lon="6.83839">
        <ele>783.4</ele>
        <time>2021-06-26T08:22:43Z</time>
      </trkpt>
      <trkpt lat="47.80135" lon="6.8384">
        <ele>783.8</ele>
        <time>2021-06-26T08:22:44Z</time>
      </trkpt>
      <trkpt lat="47.80126" lon="6.83841">
        <ele>784.4</ele>
        <time>2021-06-26T08:22:47Z</time>
      </trkpt>
      <trkpt lat="47.80123" lon="6.83843">
        <ele>784.4</ele>
        <time>2021-06-26T08:22:48Z</time>
      </trkpt>
      <trkpt lat="47.80116" lon="6.83843">
        <ele>785</ele>
        <time>2021-06-26T08:22:51Z</time>
      </trkpt>
      <trkpt lat="47.80113" lon="6.83844">
        <ele>785.2</ele>
        <time>2021-06-26T08:22:52Z</time>
      </trkpt>
      <trkpt lat="47.80111" lon="6.83844">
        <ele>785.4</ele>
        <time>2021-06-26T08:22:53Z</time>
      </trkpt>
      <trkpt lat="47.80103" lon="6.83844">
        <ele>786</ele>
        <time>2021-06-26T08:22:56Z</time>
      </trkpt>
      <trkpt lat="47.80099" lon="6.83847">
        <ele>786.6</ele>
        <time>2021-06-26T08:22:58Z</time>
      </trkpt>
      <trkpt lat="47.80093" lon="6.8385">
        <ele>786.8</ele>
        <time>2021-06-26T08:23:00Z</time>
      </trkpt>
      <trkpt lat="47.80089" lon="6.83852">
        <ele>787</ele>
        <time>2021-06-26T08:23:01Z</time>
      </trkpt>
      <trkpt lat="47.80079" lon="6.83855">
        <ele>787.6</ele>
        <time>2021-06-26T08:23:04Z</time>
      </trkpt>
      <trkpt lat="47.80066" lon="6.8386">
        <ele>788.4</ele>
        <time>2021-06-26T08:23:08Z</time>
      </trkpt>
      <trkpt lat="47.80065" lon="6.83863">
        <ele>788.6</ele>
        <time>2021-06-26T08:23:09Z</time>
      </trkpt>
      <trkpt lat="47.80039" lon="6.83872">
        <ele>789.6</ele>
        <time>2021-06-26T08:23:15Z</time>
      </trkpt>
      <trkpt lat="47.80035" lon="6.83873">
        <ele>789.8</ele>
        <time>2021-06-26T08:23:16Z</time>
      </trkpt>
      <trkpt lat="47.80015" lon="6.83878">
        <ele>791</ele>
        <time>2021-06-26T08:23:22Z</time>
      </trkpt>
      <trkpt lat="47.80015" lon="6.83879">
        <ele>791</ele>
        <time>2021-06-26T08:23:23Z</time>
      </trkpt>
      <trkpt lat="47.80003" lon="6.8389">
        <ele>792.2</ele>
        <time>2021-06-26T08:23:29Z</time>
      </trkpt>
      <trkpt lat="47.80001" lon="6.83892">
        <ele>792.4</ele>
        <time>2021-06-26T08:23:30Z</time>
      </trkpt>
      <trkpt lat="47.79991" lon="6.83901">
        <ele>793.2</ele>
        <time>2021-06-26T08:23:34Z</time>
      </trkpt>
      <trkpt lat="47.79977" lon="6.83915">
        <ele>794</ele>
        <time>2021-06-26T08:23:39Z</time>
      </trkpt>
      <trkpt lat="47.79975" lon="6.83917">
        <ele>794.6</ele>
        <time>2021-06-26T08:23:40Z</time>
      </trkpt>
      <trkpt lat="47.79963" lon="6.83927">
        <ele>795.6</ele>
        <time>2021-06-26T08:23:45Z</time>
      </trkpt>
      <trkpt lat="47.79946" lon="6.83941">
        <ele>796.4</ele>
        <time>2021-06-26T08:23:50Z</time>
      </trkpt>
      <trkpt lat="47.79933" lon="6.83952">
        <ele>797.4</ele>
        <time>2021-06-26T08:23:54Z</time>
      </trkpt>
      <trkpt lat="47.7993" lon="6.83954">
        <ele>797.8</ele>
        <time>2021-06-26T08:23:55Z</time>
      </trkpt>
      <trkpt lat="47.79915" lon="6.83951">
        <ele>799</ele>
        <time>2021-06-26T08:24:00Z</time>
      </trkpt>
      <trkpt lat="47.79911" lon="6.83949">
        <ele>799</ele>
        <time>2021-06-26T08:24:01Z</time>
      </trkpt>
      <trkpt lat="47.79897" lon="6.83941">
        <ele>800.2</ele>
        <time>2021-06-26T08:24:06Z</time>
      </trkpt>
      <trkpt lat="47.79891" lon="6.83939">
        <ele>800.6</ele>
        <time>2021-06-26T08:24:08Z</time>
      </trkpt>
      <trkpt lat="47.79881" lon="6.83937">
        <ele>801.4</ele>
        <time>2021-06-26T08:24:11Z</time>
      </trkpt>
      <trkpt lat="47.79867" lon="6.83937">
        <ele>801.8</ele>
        <time>2021-06-26T08:24:16Z</time>
      </trkpt>
      <trkpt lat="47.79861" lon="6.83938">
        <ele>802.2</ele>
        <time>2021-06-26T08:24:18Z</time>
      </trkpt>
      <trkpt lat="47.79848" lon="6.83941">
        <ele>803.4</ele>
        <time>2021-06-26T08:24:23Z</time>
      </trkpt>
      <trkpt lat="47.79838" lon="6.83943">
        <ele>804</ele>
        <time>2021-06-26T08:24:26Z</time>
      </trkpt>
      <trkpt lat="47.79835" lon="6.83942">
        <ele>804.2</ele>
        <time>2021-06-26T08:24:27Z</time>
      </trkpt>
      <trkpt lat="47.79833" lon="6.83941">
        <ele>804.4</ele>
        <time>2021-06-26T08:24:28Z</time>
      </trkpt>
      <trkpt lat="47.79825" lon="6.83935">
        <ele>805.2</ele>
        <time>2021-06-26T08:24:31Z</time>
      </trkpt>
      <trkpt lat="47.79821" lon="6.83929">
        <ele>805.4</ele>
        <time>2021-06-26T08:24:33Z</time>
      </trkpt>
      <trkpt lat="47.79809" lon="6.83917">
        <ele>806.8</ele>
        <time>2021-06-26T08:24:38Z</time>
      </trkpt>
      <trkpt lat="47.79806" lon="6.83915">
        <ele>807.2</ele>
        <time>2021-06-26T08:24:39Z</time>
      </trkpt>
      <trkpt lat="47.79798" lon="6.83912">
        <ele>808</ele>
        <time>2021-06-26T08:24:42Z</time>
      </trkpt>
      <trkpt lat="47.79786" lon="6.83909">
        <ele>808.8</ele>
        <time>2021-06-26T08:24:46Z</time>
      </trkpt>
      <trkpt lat="47.79783" lon="6.83909">
        <ele>809.2</ele>
        <time>2021-06-26T08:24:47Z</time>
      </trkpt>
      <trkpt lat="47.79765" lon="6.83906">
        <ele>810.2</ele>
        <time>2021-06-26T08:24:53Z</time>
      </trkpt>
      <trkpt lat="47.79762" lon="6.83905">
        <ele>810.4</ele>
        <time>2021-06-26T08:24:54Z</time>
      </trkpt>
      <trkpt lat="47.79744" lon="6.83901">
        <ele>811.4</ele>
        <time>2021-06-26T08:25:00Z</time>
      </trkpt>
      <trkpt lat="47.79738" lon="6.83899">
        <ele>811.8</ele>
        <time>2021-06-26T08:25:02Z</time>
      </trkpt>
      <trkpt lat="47.79729" lon="6.83896">
        <ele>812.6</ele>
        <time>2021-06-26T08:25:05Z</time>
      </trkpt>
      <trkpt lat="47.79718" lon="6.83898">
        <ele>813.4</ele>
        <time>2021-06-26T08:25:09Z</time>
      </trkpt>
      <trkpt lat="47.79713" lon="6.83902">
        <ele>813.8</ele>
        <time>2021-06-26T08:25:11Z</time>
      </trkpt>
      <trkpt lat="47.7971" lon="6.8391">
        <ele>814</ele>
        <time>2021-06-26T08:25:13Z</time>
      </trkpt>
      <trkpt lat="47.79709" lon="6.83914">
        <ele>814.2</ele>
        <time>2021-06-26T08:25:14Z</time>
      </trkpt>
      <trkpt lat="47.79711" lon="6.83927">
        <ele>814.6</ele>
        <time>2021-06-26T08:25:17Z</time>
      </trkpt>
      <trkpt lat="47.79713" lon="6.8393">
        <ele>814.6</ele>
        <time>2021-06-26T08:25:18Z</time>
      </trkpt>
      <trkpt lat="47.79717" lon="6.83933">
        <ele>814.8</ele>
        <time>2021-06-26T08:25:19Z</time>
      </trkpt>
      <trkpt lat="47.7972" lon="6.83934">
        <ele>815</ele>
        <time>2021-06-26T08:25:20Z</time>
      </trkpt>
      <trkpt lat="47.79724" lon="6.83935">
        <ele>815</ele>
        <time>2021-06-26T08:25:21Z</time>
      </trkpt>
      <trkpt lat="47.79734" lon="6.83935">
        <ele>815.4</ele>
        <time>2021-06-26T08:25:24Z</time>
      </trkpt>
      <trkpt lat="47.79741" lon="6.83935">
        <ele>815.6</ele>
        <time>2021-06-26T08:25:26Z</time>
      </trkpt>
      <trkpt lat="47.79755" lon="6.83933">
        <ele>816</ele>
        <time>2021-06-26T08:25:30Z</time>
      </trkpt>
      <trkpt lat="47.79767" lon="6.83934">
        <ele>816.6</ele>
        <time>2021-06-26T08:25:34Z</time>
      </trkpt>
      <trkpt lat="47.79775" lon="6.83938">
        <ele>817.4</ele>
        <time>2021-06-26T08:25:37Z</time>
      </trkpt>
      <trkpt lat="47.79778" lon="6.83939">
        <ele>817.8</ele>
        <time>2021-06-26T08:25:38Z</time>
      </trkpt>
      <trkpt lat="47.79786" lon="6.83945">
        <ele>818.6</ele>
        <time>2021-06-26T08:25:41Z</time>
      </trkpt>
      <trkpt lat="47.79791" lon="6.8395">
        <ele>819.2</ele>
        <time>2021-06-26T08:25:43Z</time>
      </trkpt>
      <trkpt lat="47.79798" lon="6.83958">
        <ele>819.8</ele>
        <time>2021-06-26T08:25:46Z</time>
      </trkpt>
      <trkpt lat="47.79801" lon="6.83965">
        <ele>820.4</ele>
        <time>2021-06-26T08:25:48Z</time>
      </trkpt>
      <trkpt lat="47.79806" lon="6.83976">
        <ele>821.2</ele>
        <time>2021-06-26T08:25:51Z</time>
      </trkpt>
      <trkpt lat="47.79811" lon="6.83992">
        <ele>822</ele>
        <time>2021-06-26T08:25:55Z</time>
      </trkpt>
      <trkpt lat="47.79813" lon="6.83995">
        <ele>822.4</ele>
        <time>2021-06-26T08:25:56Z</time>
      </trkpt>
      <trkpt lat="47.79819" lon="6.84004">
        <ele>823.4</ele>
        <time>2021-06-26T08:25:59Z</time>
      </trkpt>
      <trkpt lat="47.79822" lon="6.84006">
        <ele>823.6</ele>
        <time>2021-06-26T08:26:00Z</time>
      </trkpt>
      <trkpt lat="47.79834" lon="6.84009">
        <ele>824.6</ele>
        <time>2021-06-26T08:26:04Z</time>
      </trkpt>
      <trkpt lat="47.7984" lon="6.8401">
        <ele>825</ele>
        <time>2021-06-26T08:26:06Z</time>
      </trkpt>
      <trkpt lat="47.79853" lon="6.84009">
        <ele>825.6</ele>
        <time>2021-06-26T08:26:10Z</time>
      </trkpt>
      <trkpt lat="47.79863" lon="6.8401">
        <ele>826</ele>
        <time>2021-06-26T08:26:13Z</time>
      </trkpt>
      <trkpt lat="47.79869" lon="6.84011">
        <ele>826.4</ele>
        <time>2021-06-26T08:26:15Z</time>
      </trkpt>
      <trkpt lat="47.79885" lon="6.84018">
        <ele>827</ele>
        <time>2021-06-26T08:26:20Z</time>
      </trkpt>
      <trkpt lat="47.79893" lon="6.84024">
        <ele>827.6</ele>
        <time>2021-06-26T08:26:23Z</time>
      </trkpt>
      <trkpt lat="47.79903" lon="6.84032">
        <ele>828.6</ele>
        <time>2021-06-26T08:26:27Z</time>
      </trkpt>
      <trkpt lat="47.79905" lon="6.84035">
        <ele>828.8</ele>
        <time>2021-06-26T08:26:28Z</time>
      </trkpt>
      <trkpt lat="47.79916" lon="6.84049">
        <ele>829.6</ele>
        <time>2021-06-26T08:26:33Z</time>
      </trkpt>
      <trkpt lat="47.79922" lon="6.84058">
        <ele>830.2</ele>
        <time>2021-06-26T08:26:36Z</time>
      </trkpt>
      <trkpt lat="47.79926" lon="6.84064">
        <ele>830.8</ele>
        <time>2021-06-26T08:26:38Z</time>
      </trkpt>
      <trkpt lat="47.79935" lon="6.84081">
        <ele>831.8</ele>
        <time>2021-06-26T08:26:43Z</time>
      </trkpt>
      <trkpt lat="47.79938" lon="6.84088">
        <ele>832.2</ele>
        <time>2021-06-26T08:26:45Z</time>
      </trkpt>
      <trkpt lat="47.79942" lon="6.84095">
        <ele>833</ele>
        <time>2021-06-26T08:26:47Z</time>
      </trkpt>
      <trkpt lat="47.79951" lon="6.84111">
        <ele>834.2</ele>
        <time>2021-06-26T08:26:52Z</time>
      </trkpt>
      <trkpt lat="47.79961" lon="6.84118">
        <ele>835.2</ele>
        <time>2021-06-26T08:26:56Z</time>
      </trkpt>
      <trkpt lat="47.79967" lon="6.84116">
        <ele>835.8</ele>
        <time>2021-06-26T08:26:58Z</time>
      </trkpt>
      <trkpt lat="47.79975" lon="6.84103">
        <ele>836.4</ele>
        <time>2021-06-26T08:27:02Z</time>
      </trkpt>
      <trkpt lat="47.79981" lon="6.84078">
        <ele>837</ele>
        <time>2021-06-26T08:27:07Z</time>
      </trkpt>
      <trkpt lat="47.79985" lon="6.84067">
        <ele>837.2</ele>
        <time>2021-06-26T08:27:09Z</time>
      </trkpt>
      <trkpt lat="47.79991" lon="6.84056">
        <ele>837.4</ele>
        <time>2021-06-26T08:27:12Z</time>
      </trkpt>
      <trkpt lat="47.80001" lon="6.8405">
        <ele>838.4</ele>
        <time>2021-06-26T08:27:16Z</time>
      </trkpt>
      <trkpt lat="47.80006" lon="6.84048">
        <ele>839</ele>
        <time>2021-06-26T08:27:18Z</time>
      </trkpt>
      <trkpt lat="47.80015" lon="6.84049">
        <ele>839.4</ele>
        <time>2021-06-26T08:27:21Z</time>
      </trkpt>
      <trkpt lat="47.8003" lon="6.84045">
        <ele>840.6</ele>
        <time>2021-06-26T08:27:26Z</time>
      </trkpt>
      <trkpt lat="47.80033" lon="6.84044">
        <ele>841</ele>
        <time>2021-06-26T08:27:27Z</time>
      </trkpt>
      <trkpt lat="47.80043" lon="6.84032">
        <ele>841.6</ele>
        <time>2021-06-26T08:27:31Z</time>
      </trkpt>
      <trkpt lat="47.80047" lon="6.84026">
        <ele>842</ele>
        <time>2021-06-26T08:27:33Z</time>
      </trkpt>
      <trkpt lat="47.80061" lon="6.84014">
        <ele>842.6</ele>
        <time>2021-06-26T08:27:38Z</time>
      </trkpt>
      <trkpt lat="47.8007" lon="6.84011">
        <ele>842.8</ele>
        <time>2021-06-26T08:27:41Z</time>
      </trkpt>
      <trkpt lat="47.80079" lon="6.84009">
        <ele>843.6</ele>
        <time>2021-06-26T08:27:44Z</time>
      </trkpt>
      <trkpt lat="47.80085" lon="6.8401">
        <ele>844</ele>
        <time>2021-06-26T08:27:46Z</time>
      </trkpt>
      <trkpt lat="47.80093" lon="6.8401">
        <ele>845</ele>
        <time>2021-06-26T08:27:49Z</time>
      </trkpt>
      <trkpt lat="47.80101" lon="6.84011">
        <ele>845.4</ele>
        <time>2021-06-26T08:27:52Z</time>
      </trkpt>
      <trkpt lat="47.8011" lon="6.84012">
        <ele>846</ele>
        <time>2021-06-26T08:27:55Z</time>
      </trkpt>
      <trkpt lat="47.80126" lon="6.84013">
        <ele>847</ele>
        <time>2021-06-26T08:28:00Z</time>
      </trkpt>
      <trkpt lat="47.80133" lon="6.84013">
        <ele>847.4</ele>
        <time>2021-06-26T08:28:02Z</time>
      </trkpt>
      <trkpt lat="47.80145" lon="6.84015">
        <ele>848.4</ele>
        <time>2021-06-26T08:28:06Z</time>
      </trkpt>
      <trkpt lat="47.80154" lon="6.84014">
        <ele>849</ele>
        <time>2021-06-26T08:28:09Z</time>
      </trkpt>
      <trkpt lat="47.80161" lon="6.84013">
        <ele>849.6</ele>
        <time>2021-06-26T08:28:11Z</time>
      </trkpt>
      <trkpt lat="47.80176" lon="6.84014">
        <ele>850.6</ele>
        <time>2021-06-26T08:28:16Z</time>
      </trkpt>
      <trkpt lat="47.80179" lon="6.84015">
        <ele>850.8</ele>
        <time>2021-06-26T08:28:17Z</time>
      </trkpt>
      <trkpt lat="47.8019" lon="6.84017">
        <ele>851.8</ele>
        <time>2021-06-26T08:28:21Z</time>
      </trkpt>
      <trkpt lat="47.80196" lon="6.84017">
        <ele>852.2</ele>
        <time>2021-06-26T08:28:23Z</time>
      </trkpt>
      <trkpt lat="47.80206" lon="6.84019">
        <ele>852.8</ele>
        <time>2021-06-26T08:28:27Z</time>
      </trkpt>
      <trkpt lat="47.80211" lon="6.84022">
        <ele>853.4</ele>
        <time>2021-06-26T08:28:29Z</time>
      </trkpt>
      <trkpt lat="47.80219" lon="6.84026">
        <ele>853.8</ele>
        <time>2021-06-26T08:28:32Z</time>
      </trkpt>
      <trkpt lat="47.80228" lon="6.84031">
        <ele>854.4</ele>
        <time>2021-06-26T08:28:35Z</time>
      </trkpt>
      <trkpt lat="47.80235" lon="6.84034">
        <ele>855</ele>
        <time>2021-06-26T08:28:37Z</time>
      </trkpt>
      <trkpt lat="47.80246" lon="6.84043">
        <ele>855.4</ele>
        <time>2021-06-26T08:28:41Z</time>
      </trkpt>
      <trkpt lat="47.80249" lon="6.84046">
        <ele>855.8</ele>
        <time>2021-06-26T08:28:42Z</time>
      </trkpt>
      <trkpt lat="47.80252" lon="6.84048">
        <ele>856</ele>
        <time>2021-06-26T08:28:43Z</time>
      </trkpt>
      <trkpt lat="47.80269" lon="6.84055">
        <ele>857.2</ele>
        <time>2021-06-26T08:28:48Z</time>
      </trkpt>
      <trkpt lat="47.80272" lon="6.84057">
        <ele>857.6</ele>
        <time>2021-06-26T08:28:49Z</time>
      </trkpt>
      <trkpt lat="47.80283" lon="6.84064">
        <ele>858.2</ele>
        <time>2021-06-26T08:28:53Z</time>
      </trkpt>
      <trkpt lat="47.80294" lon="6.8407">
        <ele>859.6</ele>
        <time>2021-06-26T08:28:57Z</time>
      </trkpt>
      <trkpt lat="47.80314" lon="6.84074">
        <ele>860.6</ele>
        <time>2021-06-26T08:29:04Z</time>
      </trkpt>
      <trkpt lat="47.80316" lon="6.84074">
        <ele>860.8</ele>
        <time>2021-06-26T08:29:05Z</time>
      </trkpt>
      <trkpt lat="47.80329" lon="6.84076">
        <ele>861.6</ele>
        <time>2021-06-26T08:29:09Z</time>
      </trkpt>
      <trkpt lat="47.80336" lon="6.84077">
        <ele>862</ele>
        <time>2021-06-26T08:29:11Z</time>
      </trkpt>
      <trkpt lat="47.8035" lon="6.84087">
        <ele>862.8</ele>
        <time>2021-06-26T08:29:15Z</time>
      </trkpt>
      <trkpt lat="47.80352" lon="6.84089">
        <ele>862.8</ele>
        <time>2021-06-26T08:29:16Z</time>
      </trkpt>
      <trkpt lat="47.80364" lon="6.84097">
        <ele>864</ele>
        <time>2021-06-26T08:29:20Z</time>
      </trkpt>
      <trkpt lat="47.80369" lon="6.84101">
        <ele>864.4</ele>
        <time>2021-06-26T08:29:22Z</time>
      </trkpt>
      <trkpt lat="47.80378" lon="6.84105">
        <ele>865</ele>
        <time>2021-06-26T08:29:25Z</time>
      </trkpt>
      <trkpt lat="47.80387" lon="6.84109">
        <ele>866.2</ele>
        <time>2021-06-26T08:29:28Z</time>
      </trkpt>
      <trkpt lat="47.8039" lon="6.84109">
        <ele>866.2</ele>
        <time>2021-06-26T08:29:29Z</time>
      </trkpt>
      <trkpt lat="47.80402" lon="6.84113">
        <ele>867</ele>
        <time>2021-06-26T08:29:33Z</time>
      </trkpt>
      <trkpt lat="47.80407" lon="6.84115">
        <ele>867.6</ele>
        <time>2021-06-26T08:29:35Z</time>
      </trkpt>
      <trkpt lat="47.8042" lon="6.8412">
        <ele>868.2</ele>
        <time>2021-06-26T08:29:39Z</time>
      </trkpt>
      <trkpt lat="47.80426" lon="6.84123">
        <ele>868.6</ele>
        <time>2021-06-26T08:29:41Z</time>
      </trkpt>
      <trkpt lat="47.80438" lon="6.84129">
        <ele>869.4</ele>
        <time>2021-06-26T08:29:45Z</time>
      </trkpt>
      <trkpt lat="47.80453" lon="6.84135">
        <ele>870.6</ele>
        <time>2021-06-26T08:29:50Z</time>
      </trkpt>
      <trkpt lat="47.80462" lon="6.84138">
        <ele>871.2</ele>
        <time>2021-06-26T08:29:53Z</time>
      </trkpt>
      <trkpt lat="47.80468" lon="6.8414">
        <ele>871.6</ele>
        <time>2021-06-26T08:29:55Z</time>
      </trkpt>
      <trkpt lat="47.80481" lon="6.84146">
        <ele>872.8</ele>
        <time>2021-06-26T08:30:00Z</time>
      </trkpt>
      <trkpt lat="47.80499" lon="6.84153">
        <ele>874</ele>
        <time>2021-06-26T08:30:06Z</time>
      </trkpt>
      <trkpt lat="47.80511" lon="6.84157">
        <ele>875</ele>
        <time>2021-06-26T08:30:10Z</time>
      </trkpt>
      <trkpt lat="47.80515" lon="6.84157">
        <ele>875.2</ele>
        <time>2021-06-26T08:30:11Z</time>
      </trkpt>
      <trkpt lat="47.80535" lon="6.84164">
        <ele>876.4</ele>
        <time>2021-06-26T08:30:18Z</time>
      </trkpt>
      <trkpt lat="47.8054" lon="6.8417">
        <ele>876.6</ele>
        <time>2021-06-26T08:30:20Z</time>
      </trkpt>
      <trkpt lat="47.80542" lon="6.84174">
        <ele>876.8</ele>
        <time>2021-06-26T08:30:21Z</time>
      </trkpt>
      <trkpt lat="47.80541" lon="6.84183">
        <ele>877</ele>
        <time>2021-06-26T08:30:23Z</time>
      </trkpt>
      <trkpt lat="47.80539" lon="6.84186">
        <ele>877.2</ele>
        <time>2021-06-26T08:30:24Z</time>
      </trkpt>
      <trkpt lat="47.80532" lon="6.84188">
        <ele>877.4</ele>
        <time>2021-06-26T08:30:26Z</time>
      </trkpt>
      <trkpt lat="47.8053" lon="6.84188">
        <ele>877.4</ele>
        <time>2021-06-26T08:30:27Z</time>
      </trkpt>
      <trkpt lat="47.80517" lon="6.84181">
        <ele>878</ele>
        <time>2021-06-26T08:30:31Z</time>
      </trkpt>
      <trkpt lat="47.80515" lon="6.84179">
        <ele>878.2</ele>
        <time>2021-06-26T08:30:32Z</time>
      </trkpt>
      <trkpt lat="47.80501" lon="6.84173">
        <ele>879.4</ele>
        <time>2021-06-26T08:30:37Z</time>
      </trkpt>
      <trkpt lat="47.80497" lon="6.84172">
        <ele>879.4</ele>
        <time>2021-06-26T08:30:38Z</time>
      </trkpt>
      <trkpt lat="47.80482" lon="6.84167">
        <ele>880.4</ele>
        <time>2021-06-26T08:30:43Z</time>
      </trkpt>
      <trkpt lat="47.80473" lon="6.84166">
        <ele>881</ele>
        <time>2021-06-26T08:30:46Z</time>
      </trkpt>
      <trkpt lat="47.80466" lon="6.84165">
        <ele>881.6</ele>
        <time>2021-06-26T08:30:48Z</time>
      </trkpt>
      <trkpt lat="47.80455" lon="6.84164">
        <ele>882.4</ele>
        <time>2021-06-26T08:30:52Z</time>
      </trkpt>
      <trkpt lat="47.80452" lon="6.84163">
        <ele>882.6</ele>
        <time>2021-06-26T08:30:53Z</time>
      </trkpt>
      <trkpt lat="47.80434" lon="6.8416">
        <ele>884</ele>
        <time>2021-06-26T08:30:59Z</time>
      </trkpt>
      <trkpt lat="47.80425" lon="6.84158">
        <ele>884.6</ele>
        <time>2021-06-26T08:31:02Z</time>
      </trkpt>
      <trkpt lat="47.80419" lon="6.84157">
        <ele>885</ele>
        <time>2021-06-26T08:31:04Z</time>
      </trkpt>
      <trkpt lat="47.80407" lon="6.84155">
        <ele>886</ele>
        <time>2021-06-26T08:31:08Z</time>
      </trkpt>
      <trkpt lat="47.80404" lon="6.84155">
        <ele>886.2</ele>
        <time>2021-06-26T08:31:09Z</time>
      </trkpt>
      <trkpt lat="47.80388" lon="6.84154">
        <ele>887.2</ele>
        <time>2021-06-26T08:31:14Z</time>
      </trkpt>
      <trkpt lat="47.80379" lon="6.84154">
        <ele>887.8</ele>
        <time>2021-06-26T08:31:17Z</time>
      </trkpt>
      <trkpt lat="47.80373" lon="6.84155">
        <ele>888.2</ele>
        <time>2021-06-26T08:31:19Z</time>
      </trkpt>
      <trkpt lat="47.80362" lon="6.84156">
        <ele>889</ele>
        <time>2021-06-26T08:31:23Z</time>
      </trkpt>
      <trkpt lat="47.80352" lon="6.84155">
        <ele>889.4</ele>
        <time>2021-06-26T08:31:26Z</time>
      </trkpt>
      <trkpt lat="47.80347" lon="6.84157">
        <ele>889.6</ele>
        <time>2021-06-26T08:31:28Z</time>
      </trkpt>
      <trkpt lat="47.80334" lon="6.84157">
        <ele>890.4</ele>
        <time>2021-06-26T08:31:32Z</time>
      </trkpt>
      <trkpt lat="47.80318" lon="6.84157">
        <ele>891.4</ele>
        <time>2021-06-26T08:31:37Z</time>
      </trkpt>
      <trkpt lat="47.80315" lon="6.84157">
        <ele>891.6</ele>
        <time>2021-06-26T08:31:38Z</time>
      </trkpt>
      <trkpt lat="47.80302" lon="6.84153">
        <ele>892.8</ele>
        <time>2021-06-26T08:31:43Z</time>
      </trkpt>
      <trkpt lat="47.80284" lon="6.84147">
        <ele>893.8</ele>
        <time>2021-06-26T08:31:49Z</time>
      </trkpt>
      <trkpt lat="47.80274" lon="6.84145">
        <ele>894.6</ele>
        <time>2021-06-26T08:31:52Z</time>
      </trkpt>
      <trkpt lat="47.80267" lon="6.84141">
        <ele>894.8</ele>
        <time>2021-06-26T08:31:55Z</time>
      </trkpt>
      <trkpt lat="47.8026" lon="6.84137">
        <ele>895.6</ele>
        <time>2021-06-26T08:31:58Z</time>
      </trkpt>
      <trkpt lat="47.80255" lon="6.84134">
        <ele>895.8</ele>
        <time>2021-06-26T08:32:00Z</time>
      </trkpt>
      <trkpt lat="47.80239" lon="6.84128">
        <ele>897</ele>
        <time>2021-06-26T08:32:05Z</time>
      </trkpt>
      <trkpt lat="47.80224" lon="6.84123">
        <ele>898</ele>
        <time>2021-06-26T08:32:10Z</time>
      </trkpt>
      <trkpt lat="47.80221" lon="6.84122">
        <ele>898</ele>
        <time>2021-06-26T08:32:11Z</time>
      </trkpt>
      <trkpt lat="47.80212" lon="6.84118">
        <ele>899</ele>
        <time>2021-06-26T08:32:15Z</time>
      </trkpt>
      <trkpt lat="47.80207" lon="6.84117">
        <ele>899.2</ele>
        <time>2021-06-26T08:32:17Z</time>
      </trkpt>
      <trkpt lat="47.80192" lon="6.84117">
        <ele>900</ele>
        <time>2021-06-26T08:32:21Z</time>
      </trkpt>
      <trkpt lat="47.80185" lon="6.84119">
        <ele>900.4</ele>
        <time>2021-06-26T08:32:23Z</time>
      </trkpt>
      <trkpt lat="47.80166" lon="6.84125">
        <ele>901.2</ele>
        <time>2021-06-26T08:32:28Z</time>
      </trkpt>
      <trkpt lat="47.80162" lon="6.84127">
        <ele>901.4</ele>
        <time>2021-06-26T08:32:29Z</time>
      </trkpt>
      <trkpt lat="47.80149" lon="6.84136">
        <ele>902.4</ele>
        <time>2021-06-26T08:32:34Z</time>
      </trkpt>
      <trkpt lat="47.80144" lon="6.84141">
        <ele>903</ele>
        <time>2021-06-26T08:32:36Z</time>
      </trkpt>
      <trkpt lat="47.80136" lon="6.8415">
        <ele>903.6</ele>
        <time>2021-06-26T08:32:39Z</time>
      </trkpt>
      <trkpt lat="47.8012" lon="6.84164">
        <ele>904.2</ele>
        <time>2021-06-26T08:32:45Z</time>
      </trkpt>
      <trkpt lat="47.80111" lon="6.84173">
        <ele>904.6</ele>
        <time>2021-06-26T08:32:49Z</time>
      </trkpt>
      <trkpt lat="47.80105" lon="6.8418">
        <ele>905.2</ele>
        <time>2021-06-26T08:32:52Z</time>
      </trkpt>
      <trkpt lat="47.80098" lon="6.8419">
        <ele>905.8</ele>
        <time>2021-06-26T08:32:55Z</time>
      </trkpt>
      <trkpt lat="47.80091" lon="6.84197">
        <ele>906</ele>
        <time>2021-06-26T08:32:57Z</time>
      </trkpt>
      <trkpt lat="47.80082" lon="6.84212">
        <ele>907</ele>
        <time>2021-06-26T08:33:01Z</time>
      </trkpt>
      <trkpt lat="47.80076" lon="6.84223">
        <ele>907.2</ele>
        <time>2021-06-26T08:33:04Z</time>
      </trkpt>
      <trkpt lat="47.80068" lon="6.84244">
        <ele>908</ele>
        <time>2021-06-26T08:33:09Z</time>
      </trkpt>
      <trkpt lat="47.80066" lon="6.84252">
        <ele>908.4</ele>
        <time>2021-06-26T08:33:11Z</time>
      </trkpt>
      <trkpt lat="47.80061" lon="6.84274">
        <ele>909.4</ele>
        <time>2021-06-26T08:33:16Z</time>
      </trkpt>
      <trkpt lat="47.80059" lon="6.84288">
        <ele>909.8</ele>
        <time>2021-06-26T08:33:19Z</time>
      </trkpt>
      <trkpt lat="47.80056" lon="6.84301">
        <ele>910.4</ele>
        <time>2021-06-26T08:33:22Z</time>
      </trkpt>
      <trkpt lat="47.80054" lon="6.84314">
        <ele>911.2</ele>
        <time>2021-06-26T08:33:25Z</time>
      </trkpt>
      <trkpt lat="47.80052" lon="6.84323">
        <ele>911.6</ele>
        <time>2021-06-26T08:33:27Z</time>
      </trkpt>
      <trkpt lat="47.80049" lon="6.84345">
        <ele>912.8</ele>
        <time>2021-06-26T08:33:32Z</time>
      </trkpt>
      <trkpt lat="47.80044" lon="6.84369">
        <ele>914</ele>
        <time>2021-06-26T08:33:38Z</time>
      </trkpt>
      <trkpt lat="47.80044" lon="6.84374">
        <ele>914.2</ele>
        <time>2021-06-26T08:33:39Z</time>
      </trkpt>
      <trkpt lat="47.8004" lon="6.84391">
        <ele>914.8</ele>
        <time>2021-06-26T08:33:43Z</time>
      </trkpt>
      <trkpt lat="47.80039" lon="6.84394">
        <ele>914.8</ele>
        <time>2021-06-26T08:33:44Z</time>
      </trkpt>
      <trkpt lat="47.80038" lon="6.84398">
        <ele>915.2</ele>
        <time>2021-06-26T08:33:45Z</time>
      </trkpt>
      <trkpt lat="47.80026" lon="6.84415">
        <ele>916.2</ele>
        <time>2021-06-26T08:33:50Z</time>
      </trkpt>
      <trkpt lat="47.80023" lon="6.84417">
        <ele>916.2</ele>
        <time>2021-06-26T08:33:51Z</time>
      </trkpt>
      <trkpt lat="47.80006" lon="6.84423">
        <ele>917</ele>
        <time>2021-06-26T08:33:56Z</time>
      </trkpt>
      <trkpt lat="47.79998" lon="6.84425">
        <ele>917.4</ele>
        <time>2021-06-26T08:33:58Z</time>
      </trkpt>
      <trkpt lat="47.79979" lon="6.84421">
        <ele>917.6</ele>
        <time>2021-06-26T08:34:03Z</time>
      </trkpt>
      <trkpt lat="47.79962" lon="6.84408">
        <ele>918</ele>
        <time>2021-06-26T08:34:09Z</time>
      </trkpt>
      <trkpt lat="47.79958" lon="6.84406">
        <ele>918.2</ele>
        <time>2021-06-26T08:34:10Z</time>
      </trkpt>
      <trkpt lat="47.79941" lon="6.84395">
        <ele>919.4</ele>
        <time>2021-06-26T08:34:16Z</time>
      </trkpt>
      <trkpt lat="47.79938" lon="6.84393">
        <ele>919.6</ele>
        <time>2021-06-26T08:34:17Z</time>
      </trkpt>
      <trkpt lat="47.79926" lon="6.84383">
        <ele>920.4</ele>
        <time>2021-06-26T08:34:21Z</time>
      </trkpt>
      <trkpt lat="47.79921" lon="6.84378">
        <ele>920.8</ele>
        <time>2021-06-26T08:34:23Z</time>
      </trkpt>
      <trkpt lat="47.79904" lon="6.84367">
        <ele>921.6</ele>
        <time>2021-06-26T08:34:28Z</time>
      </trkpt>
      <trkpt lat="47.79898" lon="6.84363">
        <ele>922.4</ele>
        <time>2021-06-26T08:34:30Z</time>
      </trkpt>
      <trkpt lat="47.79892" lon="6.84359">
        <ele>922.6</ele>
        <time>2021-06-26T08:34:32Z</time>
      </trkpt>
      <trkpt lat="47.79876" lon="6.84345">
        <ele>923.6</ele>
        <time>2021-06-26T08:34:37Z</time>
      </trkpt>
      <trkpt lat="47.79863" lon="6.84338">
        <ele>924.6</ele>
        <time>2021-06-26T08:34:41Z</time>
      </trkpt>
      <trkpt lat="47.79859" lon="6.84336">
        <ele>924.6</ele>
        <time>2021-06-26T08:34:42Z</time>
      </trkpt>
      <trkpt lat="47.79847" lon="6.84325">
        <ele>925.6</ele>
        <time>2021-06-26T08:34:46Z</time>
      </trkpt>
      <trkpt lat="47.79845" lon="6.84324">
        <ele>925.8</ele>
        <time>2021-06-26T08:34:47Z</time>
      </trkpt>
      <trkpt lat="47.79825" lon="6.84319">
        <ele>927</ele>
        <time>2021-06-26T08:34:53Z</time>
      </trkpt>
      <trkpt lat="47.79806" lon="6.84314">
        <ele>928</ele>
        <time>2021-06-26T08:34:59Z</time>
      </trkpt>
      <trkpt lat="47.79788" lon="6.8431">
        <ele>929.2</ele>
        <time>2021-06-26T08:35:05Z</time>
      </trkpt>
      <trkpt lat="47.79784" lon="6.8431">
        <ele>929.4</ele>
        <time>2021-06-26T08:35:06Z</time>
      </trkpt>
      <trkpt lat="47.79764" lon="6.84304">
        <ele>930.2</ele>
        <time>2021-06-26T08:35:12Z</time>
      </trkpt>
      <trkpt lat="47.79761" lon="6.84302">
        <ele>930.4</ele>
        <time>2021-06-26T08:35:13Z</time>
      </trkpt>
      <trkpt lat="47.79732" lon="6.84289">
        <ele>931</ele>
        <time>2021-06-26T08:35:21Z</time>
      </trkpt>
      <trkpt lat="47.79728" lon="6.84288">
        <ele>931.2</ele>
        <time>2021-06-26T08:35:22Z</time>
      </trkpt>
      <trkpt lat="47.79699" lon="6.84277">
        <ele>932</ele>
        <time>2021-06-26T08:35:30Z</time>
      </trkpt>
      <trkpt lat="47.79696" lon="6.84274">
        <ele>932.2</ele>
        <time>2021-06-26T08:35:31Z</time>
      </trkpt>
      <trkpt lat="47.79678" lon="6.84255">
        <ele>933</ele>
        <time>2021-06-26T08:35:37Z</time>
      </trkpt>
      <trkpt lat="47.79677" lon="6.84252">
        <ele>933.2</ele>
        <time>2021-06-26T08:35:38Z</time>
      </trkpt>
      <trkpt lat="47.79671" lon="6.84243">
        <ele>934</ele>
        <time>2021-06-26T08:35:41Z</time>
      </trkpt>
      <trkpt lat="47.79666" lon="6.84236">
        <ele>934.6</ele>
        <time>2021-06-26T08:35:43Z</time>
      </trkpt>
      <trkpt lat="47.79657" lon="6.84226">
        <ele>935.2</ele>
        <time>2021-06-26T08:35:46Z</time>
      </trkpt>
      <trkpt lat="47.79654" lon="6.84225">
        <ele>935.4</ele>
        <time>2021-06-26T08:35:47Z</time>
      </trkpt>
      <trkpt lat="47.79651" lon="6.84226">
        <ele>935.6</ele>
        <time>2021-06-26T08:35:48Z</time>
      </trkpt>
      <trkpt lat="47.79648" lon="6.84228">
        <ele>936</ele>
        <time>2021-06-26T08:35:49Z</time>
      </trkpt>
      <trkpt lat="47.79645" lon="6.8423">
        <ele>936</ele>
        <time>2021-06-26T08:35:50Z</time>
      </trkpt>
      <trkpt lat="47.79641" lon="6.84241">
        <ele>936.6</ele>
        <time>2021-06-26T08:35:52Z</time>
      </trkpt>
      <trkpt lat="47.79647" lon="6.84262">
        <ele>937</ele>
        <time>2021-06-26T08:35:56Z</time>
      </trkpt>
      <trkpt lat="47.79665" lon="6.84283">
        <ele>937</ele>
        <time>2021-06-26T08:36:02Z</time>
      </trkpt>
      <trkpt lat="47.79673" lon="6.84292">
        <ele>937.6</ele>
        <time>2021-06-26T08:36:05Z</time>
      </trkpt>
      <trkpt lat="47.79685" lon="6.84301">
        <ele>938.2</ele>
        <time>2021-06-26T08:36:09Z</time>
      </trkpt>
      <trkpt lat="47.79694" lon="6.84307">
        <ele>939</ele>
        <time>2021-06-26T08:36:12Z</time>
      </trkpt>
      <trkpt lat="47.79705" lon="6.84315">
        <ele>940</ele>
        <time>2021-06-26T08:36:16Z</time>
      </trkpt>
      <trkpt lat="47.79708" lon="6.84318">
        <ele>940.2</ele>
        <time>2021-06-26T08:36:17Z</time>
      </trkpt>
      <trkpt lat="47.79722" lon="6.84328">
        <ele>941</ele>
        <time>2021-06-26T08:36:22Z</time>
      </trkpt>
      <trkpt lat="47.79731" lon="6.84335">
        <ele>941.6</ele>
        <time>2021-06-26T08:36:25Z</time>
      </trkpt>
      <trkpt lat="47.79738" lon="6.84341">
        <ele>942</ele>
        <time>2021-06-26T08:36:28Z</time>
      </trkpt>
      <trkpt lat="47.79752" lon="6.84352">
        <ele>943.2</ele>
        <time>2021-06-26T08:36:33Z</time>
      </trkpt>
      <trkpt lat="47.79757" lon="6.84357">
        <ele>943.6</ele>
        <time>2021-06-26T08:36:35Z</time>
      </trkpt>
      <trkpt lat="47.79766" lon="6.84362">
        <ele>944.4</ele>
        <time>2021-06-26T08:36:38Z</time>
      </trkpt>
      <trkpt lat="47.79784" lon="6.84373">
        <ele>945.4</ele>
        <time>2021-06-26T08:36:44Z</time>
      </trkpt>
      <trkpt lat="47.79798" lon="6.8438">
        <ele>946.4</ele>
        <time>2021-06-26T08:36:49Z</time>
      </trkpt>
      <trkpt lat="47.79806" lon="6.84386">
        <ele>946.8</ele>
        <time>2021-06-26T08:36:52Z</time>
      </trkpt>
      <trkpt lat="47.79816" lon="6.84397">
        <ele>947.4</ele>
        <time>2021-06-26T08:36:56Z</time>
      </trkpt>
      <trkpt lat="47.79825" lon="6.84408">
        <ele>948.2</ele>
        <time>2021-06-26T08:37:00Z</time>
      </trkpt>
      <trkpt lat="47.7983" lon="6.84414">
        <ele>948.6</ele>
        <time>2021-06-26T08:37:02Z</time>
      </trkpt>
      <trkpt lat="47.79843" lon="6.84433">
        <ele>949.6</ele>
        <time>2021-06-26T08:37:08Z</time>
      </trkpt>
      <trkpt lat="47.79846" lon="6.84436">
        <ele>949.8</ele>
        <time>2021-06-26T08:37:09Z</time>
      </trkpt>
      <trkpt lat="47.79864" lon="6.84458">
        <ele>950.8</ele>
        <time>2021-06-26T08:37:17Z</time>
      </trkpt>
      <trkpt lat="47.79866" lon="6.84462">
        <ele>951.2</ele>
        <time>2021-06-26T08:37:18Z</time>
      </trkpt>
      <trkpt lat="47.79876" lon="6.84474">
        <ele>952</ele>
        <time>2021-06-26T08:37:22Z</time>
      </trkpt>
      <trkpt lat="47.79886" lon="6.84485">
        <ele>952.4</ele>
        <time>2021-06-26T08:37:26Z</time>
      </trkpt>
      <trkpt lat="47.7989" lon="6.84491">
        <ele>952.8</ele>
        <time>2021-06-26T08:37:28Z</time>
      </trkpt>
      <trkpt lat="47.79898" lon="6.84501">
        <ele>953.4</ele>
        <time>2021-06-26T08:37:32Z</time>
      </trkpt>
      <trkpt lat="47.79903" lon="6.84508">
        <ele>954</ele>
        <time>2021-06-26T08:37:35Z</time>
      </trkpt>
      <trkpt lat="47.7991" lon="6.84517">
        <ele>955</ele>
        <time>2021-06-26T08:37:39Z</time>
      </trkpt>
      <trkpt lat="47.79923" lon="6.84539">
        <ele>956</ele>
        <time>2021-06-26T08:37:45Z</time>
      </trkpt>
      <trkpt lat="47.79943" lon="6.84554">
        <ele>957.2</ele>
        <time>2021-06-26T08:37:51Z</time>
      </trkpt>
      <trkpt lat="47.79962" lon="6.84563">
        <ele>958</ele>
        <time>2021-06-26T08:37:56Z</time>
      </trkpt>
      <trkpt lat="47.79967" lon="6.84562">
        <ele>958.4</ele>
        <time>2021-06-26T08:37:57Z</time>
      </trkpt>
      <trkpt lat="47.79984" lon="6.84561">
        <ele>959.4</ele>
        <time>2021-06-26T08:38:02Z</time>
      </trkpt>
      <trkpt lat="47.80005" lon="6.84557">
        <ele>960.4</ele>
        <time>2021-06-26T08:38:08Z</time>
      </trkpt>
      <trkpt lat="47.80022" lon="6.8456">
        <ele>961.4</ele>
        <time>2021-06-26T08:38:13Z</time>
      </trkpt>
      <trkpt lat="47.80037" lon="6.84558">
        <ele>962.4</ele>
        <time>2021-06-26T08:38:18Z</time>
      </trkpt>
      <trkpt lat="47.8004" lon="6.84557">
        <ele>962.6</ele>
        <time>2021-06-26T08:38:19Z</time>
      </trkpt>
      <trkpt lat="47.80047" lon="6.84555">
        <ele>962.8</ele>
        <time>2021-06-26T08:38:21Z</time>
      </trkpt>
      <trkpt lat="47.80055" lon="6.84552">
        <ele>963.6</ele>
        <time>2021-06-26T08:38:24Z</time>
      </trkpt>
      <trkpt lat="47.80068" lon="6.84545">
        <ele>964.4</ele>
        <time>2021-06-26T08:38:28Z</time>
      </trkpt>
      <trkpt lat="47.80071" lon="6.84544">
        <ele>964.6</ele>
        <time>2021-06-26T08:38:29Z</time>
      </trkpt>
      <trkpt lat="47.80089" lon="6.84528">
        <ele>965.8</ele>
        <time>2021-06-26T08:38:35Z</time>
      </trkpt>
      <trkpt lat="47.80091" lon="6.84524">
        <ele>965.8</ele>
        <time>2021-06-26T08:38:36Z</time>
      </trkpt>
      <trkpt lat="47.80107" lon="6.84493">
        <ele>966.2</ele>
        <time>2021-06-26T08:38:43Z</time>
      </trkpt>
      <trkpt lat="47.80115" lon="6.84476">
        <ele>966.6</ele>
        <time>2021-06-26T08:38:47Z</time>
      </trkpt>
      <trkpt lat="47.8012" lon="6.84466">
        <ele>967.2</ele>
        <time>2021-06-26T08:38:50Z</time>
      </trkpt>
      <trkpt lat="47.80129" lon="6.84442">
        <ele>967.6</ele>
        <time>2021-06-26T08:38:55Z</time>
      </trkpt>
      <trkpt lat="47.80131" lon="6.84438">
        <ele>967.8</ele>
        <time>2021-06-26T08:38:56Z</time>
      </trkpt>
      <trkpt lat="47.80142" lon="6.84404">
        <ele>968.8</ele>
        <time>2021-06-26T08:39:03Z</time>
      </trkpt>
      <trkpt lat="47.80144" lon="6.844">
        <ele>969</ele>
        <time>2021-06-26T08:39:04Z</time>
      </trkpt>
      <trkpt lat="47.80156" lon="6.84374">
        <ele>970</ele>
        <time>2021-06-26T08:39:10Z</time>
      </trkpt>
      <trkpt lat="47.80159" lon="6.84371">
        <ele>970</ele>
        <time>2021-06-26T08:39:11Z</time>
      </trkpt>
      <trkpt lat="47.80173" lon="6.84359">
        <ele>971.2</ele>
        <time>2021-06-26T08:39:16Z</time>
      </trkpt>
      <trkpt lat="47.80176" lon="6.84357">
        <ele>971.2</ele>
        <time>2021-06-26T08:39:17Z</time>
      </trkpt>
      <trkpt lat="47.80193" lon="6.84356">
        <ele>972.2</ele>
        <time>2021-06-26T08:39:22Z</time>
      </trkpt>
      <trkpt lat="47.80196" lon="6.84357">
        <ele>972.4</ele>
        <time>2021-06-26T08:39:23Z</time>
      </trkpt>
      <trkpt lat="47.80208" lon="6.84362">
        <ele>973.4</ele>
        <time>2021-06-26T08:39:27Z</time>
      </trkpt>
      <trkpt lat="47.80221" lon="6.84369">
        <ele>974.2</ele>
        <time>2021-06-26T08:39:31Z</time>
      </trkpt>
      <trkpt lat="47.80224" lon="6.8437">
        <ele>974.4</ele>
        <time>2021-06-26T08:39:32Z</time>
      </trkpt>
      <trkpt lat="47.80243" lon="6.8438">
        <ele>975.6</ele>
        <time>2021-06-26T08:39:38Z</time>
      </trkpt>
      <trkpt lat="47.8025" lon="6.84383">
        <ele>975.8</ele>
        <time>2021-06-26T08:39:40Z</time>
      </trkpt>
      <trkpt lat="47.80259" lon="6.84388">
        <ele>976.8</ele>
        <time>2021-06-26T08:39:43Z</time>
      </trkpt>
      <trkpt lat="47.80275" lon="6.84396">
        <ele>977.4</ele>
        <time>2021-06-26T08:39:48Z</time>
      </trkpt>
      <trkpt lat="47.80282" lon="6.84397">
        <ele>978</ele>
        <time>2021-06-26T08:39:50Z</time>
      </trkpt>
      <trkpt lat="47.80298" lon="6.84402">
        <ele>979.2</ele>
        <time>2021-06-26T08:39:55Z</time>
      </trkpt>
      <trkpt lat="47.80318" lon="6.84404">
        <ele>980.2</ele>
        <time>2021-06-26T08:40:01Z</time>
      </trkpt>
      <trkpt lat="47.80325" lon="6.84404">
        <ele>980.4</ele>
        <time>2021-06-26T08:40:03Z</time>
      </trkpt>
      <trkpt lat="47.80335" lon="6.84404">
        <ele>981.6</ele>
        <time>2021-06-26T08:40:06Z</time>
      </trkpt>
      <trkpt lat="47.80352" lon="6.84405">
        <ele>982.2</ele>
        <time>2021-06-26T08:40:11Z</time>
      </trkpt>
      <trkpt lat="47.80359" lon="6.84406">
        <ele>982.6</ele>
        <time>2021-06-26T08:40:13Z</time>
      </trkpt>
      <trkpt lat="47.80376" lon="6.8441">
        <ele>983.8</ele>
        <time>2021-06-26T08:40:18Z</time>
      </trkpt>
      <trkpt lat="47.80394" lon="6.84413">
        <ele>985</ele>
        <time>2021-06-26T08:40:23Z</time>
      </trkpt>
      <trkpt lat="47.80403" lon="6.84416">
        <ele>985.4</ele>
        <time>2021-06-26T08:40:26Z</time>
      </trkpt>
      <trkpt lat="47.80415" lon="6.8442">
        <ele>986.2</ele>
        <time>2021-06-26T08:40:30Z</time>
      </trkpt>
      <trkpt lat="47.80428" lon="6.84425">
        <ele>986.8</ele>
        <time>2021-06-26T08:40:34Z</time>
      </trkpt>
      <trkpt lat="47.80438" lon="6.84428">
        <ele>987.4</ele>
        <time>2021-06-26T08:40:37Z</time>
      </trkpt>
      <trkpt lat="47.80454" lon="6.84435">
        <ele>988.4</ele>
        <time>2021-06-26T08:40:42Z</time>
      </trkpt>
      <trkpt lat="47.80457" lon="6.84438">
        <ele>988.6</ele>
        <time>2021-06-26T08:40:43Z</time>
      </trkpt>
      <trkpt lat="47.80476" lon="6.8445">
        <ele>989.6</ele>
        <time>2021-06-26T08:40:49Z</time>
      </trkpt>
      <trkpt lat="47.80479" lon="6.84452">
        <ele>990</ele>
        <time>2021-06-26T08:40:50Z</time>
      </trkpt>
      <trkpt lat="47.80497" lon="6.84467">
        <ele>991</ele>
        <time>2021-06-26T08:40:56Z</time>
      </trkpt>
      <trkpt lat="47.805" lon="6.8447">
        <ele>991.2</ele>
        <time>2021-06-26T08:40:57Z</time>
      </trkpt>
      <trkpt lat="47.80515" lon="6.8448">
        <ele>992</ele>
        <time>2021-06-26T08:41:02Z</time>
      </trkpt>
      <trkpt lat="47.80521" lon="6.84484">
        <ele>992.4</ele>
        <time>2021-06-26T08:41:04Z</time>
      </trkpt>
      <trkpt lat="47.8053" lon="6.8449">
        <ele>993</ele>
        <time>2021-06-26T08:41:07Z</time>
      </trkpt>
      <trkpt lat="47.80539" lon="6.84498">
        <ele>993.6</ele>
        <time>2021-06-26T08:41:10Z</time>
      </trkpt>
      <trkpt lat="47.80544" lon="6.84503">
        <ele>994.2</ele>
        <time>2021-06-26T08:41:12Z</time>
      </trkpt>
      <trkpt lat="47.80558" lon="6.84516">
        <ele>995.4</ele>
        <time>2021-06-26T08:41:17Z</time>
      </trkpt>
      <trkpt lat="47.80572" lon="6.84528">
        <ele>996.4</ele>
        <time>2021-06-26T08:41:22Z</time>
      </trkpt>
      <trkpt lat="47.80578" lon="6.84532">
        <ele>996.8</ele>
        <time>2021-06-26T08:41:24Z</time>
      </trkpt>
      <trkpt lat="47.80587" lon="6.84538">
        <ele>997.6</ele>
        <time>2021-06-26T08:41:27Z</time>
      </trkpt>
      <trkpt lat="47.80601" lon="6.84549">
        <ele>998.6</ele>
        <time>2021-06-26T08:41:32Z</time>
      </trkpt>
      <trkpt lat="47.80623" lon="6.84566">
        <ele>999.8</ele>
        <time>2021-06-26T08:41:39Z</time>
      </trkpt>
      <trkpt lat="47.80633" lon="6.8457">
        <ele>1000.2</ele>
        <time>2021-06-26T08:41:42Z</time>
      </trkpt>
      <trkpt lat="47.80643" lon="6.84575">
        <ele>1000.8</ele>
        <time>2021-06-26T08:41:45Z</time>
      </trkpt>
      <trkpt lat="47.80659" lon="6.8458">
        <ele>1002</ele>
        <time>2021-06-26T08:41:50Z</time>
      </trkpt>
      <trkpt lat="47.80676" lon="6.84585">
        <ele>1003</ele>
        <time>2021-06-26T08:41:56Z</time>
      </trkpt>
      <trkpt lat="47.80683" lon="6.84586">
        <ele>1003.4</ele>
        <time>2021-06-26T08:41:58Z</time>
      </trkpt>
      <trkpt lat="47.80696" lon="6.84589">
        <ele>1004</ele>
        <time>2021-06-26T08:42:02Z</time>
      </trkpt>
      <trkpt lat="47.80713" lon="6.84593">
        <ele>1005</ele>
        <time>2021-06-26T08:42:07Z</time>
      </trkpt>
      <trkpt lat="47.80716" lon="6.84593">
        <ele>1005.2</ele>
        <time>2021-06-26T08:42:08Z</time>
      </trkpt>
      <trkpt lat="47.80735" lon="6.84597">
        <ele>1006.2</ele>
        <time>2021-06-26T08:42:14Z</time>
      </trkpt>
      <trkpt lat="47.80754" lon="6.84597">
        <ele>1007</ele>
        <time>2021-06-26T08:42:20Z</time>
      </trkpt>
      <trkpt lat="47.80756" lon="6.84596">
        <ele>1007.2</ele>
        <time>2021-06-26T08:42:21Z</time>
      </trkpt>
      <trkpt lat="47.80772" lon="6.84588">
        <ele>1008.2</ele>
        <time>2021-06-26T08:42:26Z</time>
      </trkpt>
      <trkpt lat="47.80779" lon="6.84582">
        <ele>1008.4</ele>
        <time>2021-06-26T08:42:28Z</time>
      </trkpt>
      <trkpt lat="47.80787" lon="6.84573">
        <ele>1009.2</ele>
        <time>2021-06-26T08:42:31Z</time>
      </trkpt>
      <trkpt lat="47.80801" lon="6.84561">
        <ele>1010</ele>
        <time>2021-06-26T08:42:36Z</time>
      </trkpt>
      <trkpt lat="47.80805" lon="6.84558">
        <ele>1010.2</ele>
        <time>2021-06-26T08:42:37Z</time>
      </trkpt>
      <trkpt lat="47.80822" lon="6.84544">
        <ele>1011.4</ele>
        <time>2021-06-26T08:42:43Z</time>
      </trkpt>
      <trkpt lat="47.80825" lon="6.84541">
        <ele>1011.6</ele>
        <time>2021-06-26T08:42:44Z</time>
      </trkpt>
      <trkpt lat="47.80837" lon="6.84533">
        <ele>1012.4</ele>
        <time>2021-06-26T08:42:48Z</time>
      </trkpt>
      <trkpt lat="47.80842" lon="6.84529">
        <ele>1012.8</ele>
        <time>2021-06-26T08:42:50Z</time>
      </trkpt>
      <trkpt lat="47.80857" lon="6.84516">
        <ele>1013.2</ele>
        <time>2021-06-26T08:42:55Z</time>
      </trkpt>
      <trkpt lat="47.80859" lon="6.84513">
        <ele>1013.4</ele>
        <time>2021-06-26T08:42:56Z</time>
      </trkpt>
      <trkpt lat="47.80872" lon="6.84492">
        <ele>1014</ele>
        <time>2021-06-26T08:43:01Z</time>
      </trkpt>
      <trkpt lat="47.80873" lon="6.84489">
        <ele>1014.4</ele>
        <time>2021-06-26T08:43:02Z</time>
      </trkpt>
      <trkpt lat="47.80888" lon="6.84465">
        <ele>1015.2</ele>
        <time>2021-06-26T08:43:08Z</time>
      </trkpt>
      <trkpt lat="47.80891" lon="6.84465">
        <ele>1015.6</ele>
        <time>2021-06-26T08:43:09Z</time>
      </trkpt>
      <trkpt lat="47.80895" lon="6.84465">
        <ele>1015.8</ele>
        <time>2021-06-26T08:43:10Z</time>
      </trkpt>
      <trkpt lat="47.80898" lon="6.84466">
        <ele>1015.8</ele>
        <time>2021-06-26T08:43:11Z</time>
      </trkpt>
      <trkpt lat="47.80902" lon="6.84479">
        <ele>1016.4</ele>
        <time>2021-06-26T08:43:14Z</time>
      </trkpt>
      <trkpt lat="47.80897" lon="6.84494">
        <ele>1016.6</ele>
        <time>2021-06-26T08:43:17Z</time>
      </trkpt>
      <trkpt lat="47.80884" lon="6.84511">
        <ele>1017.8</ele>
        <time>2021-06-26T08:43:22Z</time>
      </trkpt>
      <trkpt lat="47.80876" lon="6.8452">
        <ele>1018</ele>
        <time>2021-06-26T08:43:25Z</time>
      </trkpt>
      <trkpt lat="47.80867" lon="6.84533">
        <ele>1019</ele>
        <time>2021-06-26T08:43:29Z</time>
      </trkpt>
      <trkpt lat="47.80857" lon="6.84545">
        <ele>1019.8</ele>
        <time>2021-06-26T08:43:34Z</time>
      </trkpt>
      <trkpt lat="47.80855" lon="6.84547">
        <ele>1020</ele>
        <time>2021-06-26T08:43:35Z</time>
      </trkpt>
      <trkpt lat="47.80845" lon="6.84559">
        <ele>1021.2</ele>
        <time>2021-06-26T08:43:40Z</time>
      </trkpt>
      <trkpt lat="47.80825" lon="6.84581">
        <ele>1022.2</ele>
        <time>2021-06-26T08:43:46Z</time>
      </trkpt>
      <trkpt lat="47.80816" lon="6.84592">
        <ele>1022.8</ele>
        <time>2021-06-26T08:43:49Z</time>
      </trkpt>
      <trkpt lat="47.80811" lon="6.84601">
        <ele>1023.4</ele>
        <time>2021-06-26T08:43:51Z</time>
      </trkpt>
      <trkpt lat="47.80797" lon="6.84619">
        <ele>1024.4</ele>
        <time>2021-06-26T08:43:57Z</time>
      </trkpt>
      <trkpt lat="47.80795" lon="6.84622">
        <ele>1024.4</ele>
        <time>2021-06-26T08:43:58Z</time>
      </trkpt>
      <trkpt lat="47.80783" lon="6.84639">
        <ele>1025.4</ele>
        <time>2021-06-26T08:44:03Z</time>
      </trkpt>
      <trkpt lat="47.80759" lon="6.84655">
        <ele>1026.2</ele>
        <time>2021-06-26T08:44:09Z</time>
      </trkpt>
      <trkpt lat="47.80754" lon="6.84659">
        <ele>1026.6</ele>
        <time>2021-06-26T08:44:10Z</time>
      </trkpt>
      <trkpt lat="47.80736" lon="6.84666">
        <ele>1027.6</ele>
        <time>2021-06-26T08:44:15Z</time>
      </trkpt>
      <trkpt lat="47.80716" lon="6.8467">
        <ele>1028.8</ele>
        <time>2021-06-26T08:44:21Z</time>
      </trkpt>
      <trkpt lat="47.80709" lon="6.8467">
        <ele>1029.4</ele>
        <time>2021-06-26T08:44:23Z</time>
      </trkpt>
      <trkpt lat="47.80699" lon="6.8467">
        <ele>1030</ele>
        <time>2021-06-26T08:44:26Z</time>
      </trkpt>
      <trkpt lat="47.80688" lon="6.8467">
        <ele>1030.6</ele>
        <time>2021-06-26T08:44:29Z</time>
      </trkpt>
      <trkpt lat="47.80682" lon="6.84669">
        <ele>1031.2</ele>
        <time>2021-06-26T08:44:31Z</time>
      </trkpt>
      <trkpt lat="47.80665" lon="6.8467">
        <ele>1032</ele>
        <time>2021-06-26T08:44:36Z</time>
      </trkpt>
      <trkpt lat="47.80662" lon="6.8467">
        <ele>1032.4</ele>
        <time>2021-06-26T08:44:37Z</time>
      </trkpt>
      <trkpt lat="47.80643" lon="6.84669">
        <ele>1033.6</ele>
        <time>2021-06-26T08:44:43Z</time>
      </trkpt>
      <trkpt lat="47.80627" lon="6.84668">
        <ele>1034.8</ele>
        <time>2021-06-26T08:44:48Z</time>
      </trkpt>
      <trkpt lat="47.80607" lon="6.84664">
        <ele>1036</ele>
        <time>2021-06-26T08:44:54Z</time>
      </trkpt>
      <trkpt lat="47.80604" lon="6.84663">
        <ele>1036.2</ele>
        <time>2021-06-26T08:44:55Z</time>
      </trkpt>
      <trkpt lat="47.8059" lon="6.8466">
        <ele>1037</ele>
        <time>2021-06-26T08:44:59Z</time>
      </trkpt>
      <trkpt lat="47.8058" lon="6.84654">
        <ele>1037.4</ele>
        <time>2021-06-26T08:45:02Z</time>
      </trkpt>
      <trkpt lat="47.80566" lon="6.84649">
        <ele>1038.2</ele>
        <time>2021-06-26T08:45:06Z</time>
      </trkpt>
      <trkpt lat="47.8055" lon="6.84642">
        <ele>1039.2</ele>
        <time>2021-06-26T08:45:11Z</time>
      </trkpt>
      <trkpt lat="47.80546" lon="6.84641">
        <ele>1039.6</ele>
        <time>2021-06-26T08:45:12Z</time>
      </trkpt>
      <trkpt lat="47.80532" lon="6.8464">
        <ele>1040.4</ele>
        <time>2021-06-26T08:45:16Z</time>
      </trkpt>
      <trkpt lat="47.80526" lon="6.84645">
        <ele>1040.6</ele>
        <time>2021-06-26T08:45:18Z</time>
      </trkpt>
      <trkpt lat="47.80525" lon="6.84649">
        <ele>1040.8</ele>
        <time>2021-06-26T08:45:19Z</time>
      </trkpt>
      <trkpt lat="47.80526" lon="6.8466">
        <ele>1041</ele>
        <time>2021-06-26T08:45:21Z</time>
      </trkpt>
      <trkpt lat="47.80528" lon="6.84664">
        <ele>1041.2</ele>
        <time>2021-06-26T08:45:22Z</time>
      </trkpt>
      <trkpt lat="47.80535" lon="6.84669">
        <ele>1041.2</ele>
        <time>2021-06-26T08:45:24Z</time>
      </trkpt>
      <trkpt lat="47.80539" lon="6.84671">
        <ele>1041.6</ele>
        <time>2021-06-26T08:45:25Z</time>
      </trkpt>
      <trkpt lat="47.80558" lon="6.84676">
        <ele>1042.2</ele>
        <time>2021-06-26T08:45:30Z</time>
      </trkpt>
      <trkpt lat="47.80574" lon="6.8468">
        <ele>1042.6</ele>
        <time>2021-06-26T08:45:34Z</time>
      </trkpt>
      <trkpt lat="47.80589" lon="6.84686">
        <ele>1043</ele>
        <time>2021-06-26T08:45:38Z</time>
      </trkpt>
      <trkpt lat="47.80593" lon="6.84687">
        <ele>1043</ele>
        <time>2021-06-26T08:45:39Z</time>
      </trkpt>
      <trkpt lat="47.80608" lon="6.84693">
        <ele>1043.8</ele>
        <time>2021-06-26T08:45:43Z</time>
      </trkpt>
      <trkpt lat="47.80615" lon="6.84695">
        <ele>1044.2</ele>
        <time>2021-06-26T08:45:45Z</time>
      </trkpt>
      <trkpt lat="47.80628" lon="6.84703">
        <ele>1044.8</ele>
        <time>2021-06-26T08:45:49Z</time>
      </trkpt>
      <trkpt lat="47.80635" lon="6.84706">
        <ele>1045.2</ele>
        <time>2021-06-26T08:45:51Z</time>
      </trkpt>
      <trkpt lat="47.80648" lon="6.84712">
        <ele>1046</ele>
        <time>2021-06-26T08:45:55Z</time>
      </trkpt>
      <trkpt lat="47.80657" lon="6.84719">
        <ele>1046.4</ele>
        <time>2021-06-26T08:45:58Z</time>
      </trkpt>
      <trkpt lat="47.80665" lon="6.84724">
        <ele>1047.2</ele>
        <time>2021-06-26T08:46:01Z</time>
      </trkpt>
      <trkpt lat="47.80672" lon="6.84728">
        <ele>1047.4</ele>
        <time>2021-06-26T08:46:03Z</time>
      </trkpt>
      <trkpt lat="47.80681" lon="6.84733">
        <ele>1048</ele>
        <time>2021-06-26T08:46:06Z</time>
      </trkpt>
      <trkpt lat="47.80689" lon="6.84736">
        <ele>1048.6</ele>
        <time>2021-06-26T08:46:09Z</time>
      </trkpt>
      <trkpt lat="47.80695" lon="6.84737">
        <ele>1049</ele>
        <time>2021-06-26T08:46:11Z</time>
      </trkpt>
      <trkpt lat="47.80706" lon="6.84741">
        <ele>1050</ele>
        <time>2021-06-26T08:46:14Z</time>
      </trkpt>
      <trkpt lat="47.8071" lon="6.84742">
        <ele>1050.2</ele>
        <time>2021-06-26T08:46:15Z</time>
      </trkpt>
      <trkpt lat="47.80728" lon="6.84747">
        <ele>1051.2</ele>
        <time>2021-06-26T08:46:20Z</time>
      </trkpt>
      <trkpt lat="47.80734" lon="6.84748">
        <ele>1051.6</ele>
        <time>2021-06-26T08:46:22Z</time>
      </trkpt>
      <trkpt lat="47.80752" lon="6.84752">
        <ele>1052.4</ele>
        <time>2021-06-26T08:46:27Z</time>
      </trkpt>
      <trkpt lat="47.80767" lon="6.84753">
        <ele>1053.4</ele>
        <time>2021-06-26T08:46:31Z</time>
      </trkpt>
      <trkpt lat="47.80773" lon="6.84753">
        <ele>1053.8</ele>
        <time>2021-06-26T08:46:33Z</time>
      </trkpt>
      <trkpt lat="47.80785" lon="6.84751">
        <ele>1054.4</ele>
        <time>2021-06-26T08:46:36Z</time>
      </trkpt>
      <trkpt lat="47.80806" lon="6.84751">
        <ele>1055.6</ele>
        <time>2021-06-26T08:46:42Z</time>
      </trkpt>
      <trkpt lat="47.80822" lon="6.84746">
        <ele>1056.6</ele>
        <time>2021-06-26T08:46:47Z</time>
      </trkpt>
      <trkpt lat="47.80828" lon="6.84743">
        <ele>1056.8</ele>
        <time>2021-06-26T08:46:49Z</time>
      </trkpt>
      <trkpt lat="47.8084" lon="6.84737">
        <ele>1057.6</ele>
        <time>2021-06-26T08:46:53Z</time>
      </trkpt>
      <trkpt lat="47.80847" lon="6.84732">
        <ele>1057.8</ele>
        <time>2021-06-26T08:46:55Z</time>
      </trkpt>
      <trkpt lat="47.80862" lon="6.84723">
        <ele>1058.6</ele>
        <time>2021-06-26T08:47:00Z</time>
      </trkpt>
      <trkpt lat="47.80872" lon="6.84716">
        <ele>1059.2</ele>
        <time>2021-06-26T08:47:03Z</time>
      </trkpt>
      <trkpt lat="47.80878" lon="6.84713">
        <ele>1059.8</ele>
        <time>2021-06-26T08:47:05Z</time>
      </trkpt>
      <trkpt lat="47.80895" lon="6.84706">
        <ele>1060.8</ele>
        <time>2021-06-26T08:47:10Z</time>
      </trkpt>
      <trkpt lat="47.80905" lon="6.84703">
        <ele>1061.2</ele>
        <time>2021-06-26T08:47:13Z</time>
      </trkpt>
      <trkpt lat="47.80914" lon="6.84699">
        <ele>1062</ele>
        <time>2021-06-26T08:47:16Z</time>
      </trkpt>
      <trkpt lat="47.8093" lon="6.84695">
        <ele>1063</ele>
        <time>2021-06-26T08:47:21Z</time>
      </trkpt>
      <trkpt lat="47.80933" lon="6.84695">
        <ele>1063.2</ele>
        <time>2021-06-26T08:47:22Z</time>
      </trkpt>
      <trkpt lat="47.80949" lon="6.84689">
        <ele>1064.4</ele>
        <time>2021-06-26T08:47:27Z</time>
      </trkpt>
      <trkpt lat="47.80967" lon="6.84683">
        <ele>1065.6</ele>
        <time>2021-06-26T08:47:33Z</time>
      </trkpt>
      <trkpt lat="47.80985" lon="6.84665">
        <ele>1066.6</ele>
        <time>2021-06-26T08:47:39Z</time>
      </trkpt>
      <trkpt lat="47.80988" lon="6.84663">
        <ele>1067</ele>
        <time>2021-06-26T08:47:40Z</time>
      </trkpt>
      <trkpt lat="47.80999" lon="6.8465">
        <ele>1067.6</ele>
        <time>2021-06-26T08:47:44Z</time>
      </trkpt>
      <trkpt lat="47.81006" lon="6.8464">
        <ele>1068.4</ele>
        <time>2021-06-26T08:47:47Z</time>
      </trkpt>
      <trkpt lat="47.8101" lon="6.84631">
        <ele>1068.8</ele>
        <time>2021-06-26T08:47:49Z</time>
      </trkpt>
      <trkpt lat="47.81016" lon="6.84614">
        <ele>1069.6</ele>
        <time>2021-06-26T08:47:53Z</time>
      </trkpt>
      <trkpt lat="47.81018" lon="6.84603">
        <ele>1070.2</ele>
        <time>2021-06-26T08:47:55Z</time>
      </trkpt>
      <trkpt lat="47.8102" lon="6.84599">
        <ele>1070.2</ele>
        <time>2021-06-26T08:47:56Z</time>
      </trkpt>
      <trkpt lat="47.81021" lon="6.84589">
        <ele>1070.6</ele>
        <time>2021-06-26T08:47:58Z</time>
      </trkpt>
      <trkpt lat="47.81024" lon="6.84563">
        <ele>1071.2</ele>
        <time>2021-06-26T08:48:03Z</time>
      </trkpt>
      <trkpt lat="47.81025" lon="6.84548">
        <ele>1072</ele>
        <time>2021-06-26T08:48:06Z</time>
      </trkpt>
      <trkpt lat="47.81028" lon="6.84527">
        <ele>1072.4</ele>
        <time>2021-06-26T08:48:10Z</time>
      </trkpt>
      <trkpt lat="47.81029" lon="6.84512">
        <ele>1073</ele>
        <time>2021-06-26T08:48:13Z</time>
      </trkpt>
      <trkpt lat="47.81031" lon="6.84498">
        <ele>1073.6</ele>
        <time>2021-06-26T08:48:16Z</time>
      </trkpt>
      <trkpt lat="47.81032" lon="6.84489">
        <ele>1074.2</ele>
        <time>2021-06-26T08:48:18Z</time>
      </trkpt>
      <trkpt lat="47.81033" lon="6.84474">
        <ele>1075</ele>
        <time>2021-06-26T08:48:22Z</time>
      </trkpt>
      <trkpt lat="47.81035" lon="6.84467">
        <ele>1075.4</ele>
        <time>2021-06-26T08:48:24Z</time>
      </trkpt>
      <trkpt lat="47.81035" lon="6.8445">
        <ele>1076</ele>
        <time>2021-06-26T08:48:28Z</time>
      </trkpt>
      <trkpt lat="47.81035" lon="6.84442">
        <ele>1076.2</ele>
        <time>2021-06-26T08:48:30Z</time>
      </trkpt>
      <trkpt lat="47.81035" lon="6.84437">
        <ele>1076.6</ele>
        <time>2021-06-26T08:48:31Z</time>
      </trkpt>
      <trkpt lat="47.81034" lon="6.84433">
        <ele>1076.8</ele>
        <time>2021-06-26T08:48:32Z</time>
      </trkpt>
      <trkpt lat="47.81033" lon="6.84414">
        <ele>1077.6</ele>
        <time>2021-06-26T08:48:36Z</time>
      </trkpt>
      <trkpt lat="47.81033" lon="6.84409">
        <ele>1077.8</ele>
        <time>2021-06-26T08:48:37Z</time>
      </trkpt>
      <trkpt lat="47.81033" lon="6.84401">
        <ele>1078.2</ele>
        <time>2021-06-26T08:48:39Z</time>
      </trkpt>
      <trkpt lat="47.81031" lon="6.84385">
        <ele>1078.8</ele>
        <time>2021-06-26T08:48:42Z</time>
      </trkpt>
      <trkpt lat="47.81026" lon="6.84356">
        <ele>1079.8</ele>
        <time>2021-06-26T08:48:48Z</time>
      </trkpt>
      <trkpt lat="47.81023" lon="6.84328">
        <ele>1080.2</ele>
        <time>2021-06-26T08:48:54Z</time>
      </trkpt>
      <trkpt lat="47.81021" lon="6.84308">
        <ele>1080.8</ele>
        <time>2021-06-26T08:48:57Z</time>
      </trkpt>
      <trkpt lat="47.81024" lon="6.84294">
        <ele>1081.4</ele>
        <time>2021-06-26T08:49:00Z</time>
      </trkpt>
      <trkpt lat="47.81023" lon="6.84289">
        <ele>1081.8</ele>
        <time>2021-06-26T08:49:01Z</time>
      </trkpt>
      <trkpt lat="47.81024" lon="6.84263">
        <ele>1082.6</ele>
        <time>2021-06-26T08:49:06Z</time>
      </trkpt>
      <trkpt lat="47.81024" lon="6.84257">
        <ele>1082.8</ele>
        <time>2021-06-26T08:49:07Z</time>
      </trkpt>
      <trkpt lat="47.81025" lon="6.84229">
        <ele>1084</ele>
        <time>2021-06-26T08:49:11Z</time>
      </trkpt>
      <trkpt lat="47.81026" lon="6.84225">
        <ele>1084.2</ele>
        <time>2021-06-26T08:49:12Z</time>
      </trkpt>
      <trkpt lat="47.81022" lon="6.8421">
        <ele>1085</ele>
        <time>2021-06-26T08:49:16Z</time>
      </trkpt>
      <trkpt lat="47.8102" lon="6.84206">
        <ele>1085.2</ele>
        <time>2021-06-26T08:49:17Z</time>
      </trkpt>
      <trkpt lat="47.8101" lon="6.84194">
        <ele>1086.4</ele>
        <time>2021-06-26T08:49:21Z</time>
      </trkpt>
      <trkpt lat="47.80996" lon="6.84186">
        <ele>1087.2</ele>
        <time>2021-06-26T08:49:26Z</time>
      </trkpt>
      <trkpt lat="47.80989" lon="6.84183">
        <ele>1087.4</ele>
        <time>2021-06-26T08:49:28Z</time>
      </trkpt>
      <trkpt lat="47.80975" lon="6.84168">
        <ele>1088.4</ele>
        <time>2021-06-26T08:49:33Z</time>
      </trkpt>
      <trkpt lat="47.80972" lon="6.84164">
        <ele>1088.4</ele>
        <time>2021-06-26T08:49:34Z</time>
      </trkpt>
      <trkpt lat="47.80964" lon="6.84148">
        <ele>1089.6</ele>
        <time>2021-06-26T08:49:38Z</time>
      </trkpt>
      <trkpt lat="47.80958" lon="6.84131">
        <ele>1090.6</ele>
        <time>2021-06-26T08:49:42Z</time>
      </trkpt>
      <trkpt lat="47.80957" lon="6.84126">
        <ele>1091</ele>
        <time>2021-06-26T08:49:43Z</time>
      </trkpt>
      <trkpt lat="47.80953" lon="6.84103">
        <ele>1092.2</ele>
        <time>2021-06-26T08:49:48Z</time>
      </trkpt>
      <trkpt lat="47.80953" lon="6.84099">
        <ele>1092.4</ele>
        <time>2021-06-26T08:49:49Z</time>
      </trkpt>
      <trkpt lat="47.80949" lon="6.84065">
        <ele>1093.4</ele>
        <time>2021-06-26T08:49:55Z</time>
      </trkpt>
      <trkpt lat="47.80951" lon="6.84035">
        <ele>1094.4</ele>
        <time>2021-06-26T08:50:01Z</time>
      </trkpt>
      <trkpt lat="47.80952" lon="6.84025">
        <ele>1095</ele>
        <time>2021-06-26T08:50:03Z</time>
      </trkpt>
      <trkpt lat="47.80955" lon="6.8401">
        <ele>1095.6</ele>
        <time>2021-06-26T08:50:06Z</time>
      </trkpt>
      <trkpt lat="47.80964" lon="6.83988">
        <ele>1096.8</ele>
        <time>2021-06-26T08:50:11Z</time>
      </trkpt>
      <trkpt lat="47.80981" lon="6.83972">
        <ele>1097.8</ele>
        <time>2021-06-26T08:50:17Z</time>
      </trkpt>
      <trkpt lat="47.80984" lon="6.8397">
        <ele>1098</ele>
        <time>2021-06-26T08:50:18Z</time>
      </trkpt>
      <trkpt lat="47.80998" lon="6.83963">
        <ele>1098.8</ele>
        <time>2021-06-26T08:50:22Z</time>
      </trkpt>
      <trkpt lat="47.81014" lon="6.83953">
        <ele>1099.8</ele>
        <time>2021-06-26T08:50:27Z</time>
      </trkpt>
      <trkpt lat="47.81017" lon="6.83952">
        <ele>1100.2</ele>
        <time>2021-06-26T08:50:28Z</time>
      </trkpt>
      <trkpt lat="47.81037" lon="6.8394">
        <ele>1101.2</ele>
        <time>2021-06-26T08:50:34Z</time>
      </trkpt>
      <trkpt lat="47.81047" lon="6.83937">
        <ele>1101.8</ele>
        <time>2021-06-26T08:50:37Z</time>
      </trkpt>
      <trkpt lat="47.81061" lon="6.83934">
        <ele>1102.6</ele>
        <time>2021-06-26T08:50:41Z</time>
      </trkpt>
      <trkpt lat="47.81078" lon="6.83934">
        <ele>1103.6</ele>
        <time>2021-06-26T08:50:46Z</time>
      </trkpt>
      <trkpt lat="47.81082" lon="6.83934">
        <ele>1103.8</ele>
        <time>2021-06-26T08:50:47Z</time>
      </trkpt>
      <trkpt lat="47.81099" lon="6.83935">
        <ele>1104.8</ele>
        <time>2021-06-26T08:50:52Z</time>
      </trkpt>
      <trkpt lat="47.81118" lon="6.8394">
        <ele>1105.8</ele>
        <time>2021-06-26T08:50:58Z</time>
      </trkpt>
      <trkpt lat="47.81122" lon="6.83942">
        <ele>1106</ele>
        <time>2021-06-26T08:50:59Z</time>
      </trkpt>
      <trkpt lat="47.81135" lon="6.83949">
        <ele>1107.2</ele>
        <time>2021-06-26T08:51:03Z</time>
      </trkpt>
      <trkpt lat="47.81152" lon="6.83959">
        <ele>1108.2</ele>
        <time>2021-06-26T08:51:08Z</time>
      </trkpt>
      <trkpt lat="47.81155" lon="6.83961">
        <ele>1108.6</ele>
        <time>2021-06-26T08:51:09Z</time>
      </trkpt>
      <trkpt lat="47.81172" lon="6.83971">
        <ele>1109.6</ele>
        <time>2021-06-26T08:51:14Z</time>
      </trkpt>
      <trkpt lat="47.81184" lon="6.8398">
        <ele>1110.4</ele>
        <time>2021-06-26T08:51:18Z</time>
      </trkpt>
      <trkpt lat="47.81187" lon="6.83983">
        <ele>1110.8</ele>
        <time>2021-06-26T08:51:19Z</time>
      </trkpt>
      <trkpt lat="47.81202" lon="6.83994">
        <ele>1111.8</ele>
        <time>2021-06-26T08:51:24Z</time>
      </trkpt>
      <trkpt lat="47.81211" lon="6.84002">
        <ele>1112.4</ele>
        <time>2021-06-26T08:51:27Z</time>
      </trkpt>
      <trkpt lat="47.81216" lon="6.84007">
        <ele>1113</ele>
        <time>2021-06-26T08:51:29Z</time>
      </trkpt>
      <trkpt lat="47.8123" lon="6.84021">
        <ele>1114.2</ele>
        <time>2021-06-26T08:51:34Z</time>
      </trkpt>
      <trkpt lat="47.81233" lon="6.84024">
        <ele>1114.2</ele>
        <time>2021-06-26T08:51:35Z</time>
      </trkpt>
      <trkpt lat="47.81248" lon="6.84039">
        <ele>1115.4</ele>
        <time>2021-06-26T08:51:40Z</time>
      </trkpt>
      <trkpt lat="47.8126" lon="6.84051">
        <ele>1116</ele>
        <time>2021-06-26T08:51:44Z</time>
      </trkpt>
      <trkpt lat="47.81266" lon="6.84056">
        <ele>1116.4</ele>
        <time>2021-06-26T08:51:46Z</time>
      </trkpt>
      <trkpt lat="47.81281" lon="6.8407">
        <ele>1117.6</ele>
        <time>2021-06-26T08:51:51Z</time>
      </trkpt>
      <trkpt lat="47.81289" lon="6.84079">
        <ele>1118</ele>
        <time>2021-06-26T08:51:54Z</time>
      </trkpt>
      <trkpt lat="47.81301" lon="6.8409">
        <ele>1118.8</ele>
        <time>2021-06-26T08:51:58Z</time>
      </trkpt>
      <trkpt lat="47.81327" lon="6.84115">
        <ele>1119.8</ele>
        <time>2021-06-26T08:52:06Z</time>
      </trkpt>
      <trkpt lat="47.81338" lon="6.84126">
        <ele>1120.2</ele>
        <time>2021-06-26T08:52:09Z</time>
      </trkpt>
      <trkpt lat="47.81359" lon="6.84146">
        <ele>1120.4</ele>
        <time>2021-06-26T08:52:15Z</time>
      </trkpt>
      <trkpt lat="47.81383" lon="6.84172">
        <ele>1120.8</ele>
        <time>2021-06-26T08:52:23Z</time>
      </trkpt>
      <trkpt lat="47.81393" lon="6.84181">
        <ele>1121</ele>
        <time>2021-06-26T08:52:26Z</time>
      </trkpt>
      <trkpt lat="47.81405" lon="6.84195">
        <ele>1121.2</ele>
        <time>2021-06-26T08:52:30Z</time>
      </trkpt>
      <trkpt lat="47.81423" lon="6.84212">
        <ele>1121.4</ele>
        <time>2021-06-26T08:52:37Z</time>
      </trkpt>
      <trkpt lat="47.81442" lon="6.84228">
        <ele>1121.6</ele>
        <time>2021-06-26T08:52:45Z</time>
      </trkpt>
      <trkpt lat="47.81466" lon="6.8424">
        <ele>1121.4</ele>
        <time>2021-06-26T08:52:53Z</time>
      </trkpt>
      <trkpt lat="47.81484" lon="6.84243">
        <ele>1121.4</ele>
        <time>2021-06-26T08:52:58Z</time>
      </trkpt>
      <trkpt lat="47.81491" lon="6.84242">
        <ele>1121.6</ele>
        <time>2021-06-26T08:53:00Z</time>
      </trkpt>
      <trkpt lat="47.81521" lon="6.84243">
        <ele>1121.8</ele>
        <time>2021-06-26T08:53:09Z</time>
      </trkpt>
      <trkpt lat="47.81547" lon="6.8424">
        <ele>1121.6</ele>
        <time>2021-06-26T08:53:17Z</time>
      </trkpt>
      <trkpt lat="47.8157" lon="6.84238">
        <ele>1122.2</ele>
        <time>2021-06-26T08:53:23Z</time>
      </trkpt>
      <trkpt lat="47.81579" lon="6.84237">
        <ele>1122.4</ele>
        <time>2021-06-26T08:53:25Z</time>
      </trkpt>
      <trkpt lat="47.81583" lon="6.84237">
        <ele>1122.6</ele>
        <time>2021-06-26T08:53:26Z</time>
      </trkpt>
      <trkpt lat="47.81594" lon="6.84236">
        <ele>1123.2</ele>
        <time>2021-06-26T08:53:29Z</time>
      </trkpt>
      <trkpt lat="47.81615" lon="6.84234">
        <ele>1124.2</ele>
        <time>2021-06-26T08:53:34Z</time>
      </trkpt>
      <trkpt lat="47.81622" lon="6.84233">
        <ele>1124.8</ele>
        <time>2021-06-26T08:53:36Z</time>
      </trkpt>
      <trkpt lat="47.81626" lon="6.84233">
        <ele>1125.2</ele>
        <time>2021-06-26T08:53:37Z</time>
      </trkpt>
      <trkpt lat="47.81656" lon="6.84229">
        <ele>1126.4</ele>
        <time>2021-06-26T08:53:44Z</time>
      </trkpt>
      <trkpt lat="47.81664" lon="6.84228">
        <ele>1126.8</ele>
        <time>2021-06-26T08:53:46Z</time>
      </trkpt>
      <trkpt lat="47.8168" lon="6.84225">
        <ele>1127.6</ele>
        <time>2021-06-26T08:53:50Z</time>
      </trkpt>
      <trkpt lat="47.81687" lon="6.84224">
        <ele>1127.8</ele>
        <time>2021-06-26T08:53:52Z</time>
      </trkpt>
      <trkpt lat="47.81698" lon="6.84222">
        <ele>1128.8</ele>
        <time>2021-06-26T08:53:55Z</time>
      </trkpt>
      <trkpt lat="47.81711" lon="6.84217">
        <ele>1130</ele>
        <time>2021-06-26T08:53:59Z</time>
      </trkpt>
      <trkpt lat="47.81724" lon="6.84211">
        <ele>1131</ele>
        <time>2021-06-26T08:54:03Z</time>
      </trkpt>
      <trkpt lat="47.81731" lon="6.84208">
        <ele>1131.6</ele>
        <time>2021-06-26T08:54:05Z</time>
      </trkpt>
      <trkpt lat="47.81734" lon="6.84207">
        <ele>1132</ele>
        <time>2021-06-26T08:54:06Z</time>
      </trkpt>
      <trkpt lat="47.81737" lon="6.84206">
        <ele>1132.2</ele>
        <time>2021-06-26T08:54:07Z</time>
      </trkpt>
      <trkpt lat="47.81745" lon="6.84202">
        <ele>1133.2</ele>
        <time>2021-06-26T08:54:10Z</time>
      </trkpt>
      <trkpt lat="47.81748" lon="6.84201">
        <ele>1133.4</ele>
        <time>2021-06-26T08:54:11Z</time>
      </trkpt>
      <trkpt lat="47.81757" lon="6.84197">
        <ele>1134.4</ele>
        <time>2021-06-26T08:54:14Z</time>
      </trkpt>
      <trkpt lat="47.81773" lon="6.8419">
        <ele>1135.6</ele>
        <time>2021-06-26T08:54:19Z</time>
      </trkpt>
      <trkpt lat="47.81785" lon="6.84183">
        <ele>1136.8</ele>
        <time>2021-06-26T08:54:23Z</time>
      </trkpt>
      <trkpt lat="47.81797" lon="6.84177">
        <ele>1137.8</ele>
        <time>2021-06-26T08:54:27Z</time>
      </trkpt>
      <trkpt lat="47.818" lon="6.84175">
        <ele>1138</ele>
        <time>2021-06-26T08:54:28Z</time>
      </trkpt>
      <trkpt lat="47.8182" lon="6.84163">
        <ele>1138.8</ele>
        <time>2021-06-26T08:54:35Z</time>
      </trkpt>
      <trkpt lat="47.81823" lon="6.84161">
        <ele>1139</ele>
        <time>2021-06-26T08:54:36Z</time>
      </trkpt>
      <trkpt lat="47.81837" lon="6.84152">
        <ele>1140.4</ele>
        <time>2021-06-26T08:54:41Z</time>
      </trkpt>
      <trkpt lat="47.81848" lon="6.84144">
        <ele>1141.2</ele>
        <time>2021-06-26T08:54:45Z</time>
      </trkpt>
      <trkpt lat="47.8185" lon="6.84143">
        <ele>1141.4</ele>
        <time>2021-06-26T08:54:46Z</time>
      </trkpt>
      <trkpt lat="47.81856" lon="6.84139">
        <ele>1142.2</ele>
        <time>2021-06-26T08:54:48Z</time>
      </trkpt>
      <trkpt lat="47.81861" lon="6.84135">
        <ele>1142.8</ele>
        <time>2021-06-26T08:54:50Z</time>
      </trkpt>
      <trkpt lat="47.81868" lon="6.84131">
        <ele>1143.4</ele>
        <time>2021-06-26T08:54:53Z</time>
      </trkpt>
      <trkpt lat="47.81873" lon="6.84127">
        <ele>1144</ele>
        <time>2021-06-26T08:54:55Z</time>
      </trkpt>
      <trkpt lat="47.81882" lon="6.84119">
        <ele>1145.2</ele>
        <time>2021-06-26T08:54:59Z</time>
      </trkpt>
      <trkpt lat="47.81885" lon="6.84116">
        <ele>1145.4</ele>
        <time>2021-06-26T08:55:00Z</time>
      </trkpt>
      <trkpt lat="47.81891" lon="6.8411">
        <ele>1146.4</ele>
        <time>2021-06-26T08:55:03Z</time>
      </trkpt>
      <trkpt lat="47.81898" lon="6.84105">
        <ele>1147.4</ele>
        <time>2021-06-26T08:55:06Z</time>
      </trkpt>
      <trkpt lat="47.819" lon="6.84104">
        <ele>1147.6</ele>
        <time>2021-06-26T08:55:07Z</time>
      </trkpt>
      <trkpt lat="47.81905" lon="6.84101">
        <ele>1148</ele>
        <time>2021-06-26T08:55:09Z</time>
      </trkpt>
      <trkpt lat="47.81913" lon="6.84097">
        <ele>1148.8</ele>
        <time>2021-06-26T08:55:12Z</time>
      </trkpt>
      <trkpt lat="47.81924" lon="6.84088">
        <ele>1149.6</ele>
        <time>2021-06-26T08:55:16Z</time>
      </trkpt>
      <trkpt lat="47.81932" lon="6.8408">
        <ele>1150.2</ele>
        <time>2021-06-26T08:55:19Z</time>
      </trkpt>
      <trkpt lat="47.81949" lon="6.84067">
        <ele>1151</ele>
        <time>2021-06-26T08:55:24Z</time>
      </trkpt>
      <trkpt lat="47.81952" lon="6.84064">
        <ele>1151.2</ele>
        <time>2021-06-26T08:55:25Z</time>
      </trkpt>
      <trkpt lat="47.81976" lon="6.84044">
        <ele>1152</ele>
        <time>2021-06-26T08:55:32Z</time>
      </trkpt>
      <trkpt lat="47.81983" lon="6.84038">
        <ele>1152.2</ele>
        <time>2021-06-26T08:55:34Z</time>
      </trkpt>
      <trkpt lat="47.81986" lon="6.84036">
        <ele>1152.4</ele>
        <time>2021-06-26T08:55:35Z</time>
      </trkpt>
      <trkpt lat="47.82005" lon="6.8402">
        <ele>1153</ele>
        <time>2021-06-26T08:55:40Z</time>
      </trkpt>
      <trkpt lat="47.82015" lon="6.84008">
        <ele>1153.4</ele>
        <time>2021-06-26T08:55:43Z</time>
      </trkpt>
      <trkpt lat="47.82029" lon="6.8399">
        <ele>1153.8</ele>
        <time>2021-06-26T08:55:47Z</time>
      </trkpt>
      <trkpt lat="47.82038" lon="6.83973">
        <ele>1154.6</ele>
        <time>2021-06-26T08:55:50Z</time>
      </trkpt>
      <trkpt lat="47.82052" lon="6.83943">
        <ele>1155</ele>
        <time>2021-06-26T08:55:55Z</time>
      </trkpt>
      <trkpt lat="47.82066" lon="6.83908">
        <ele>1155.2</ele>
        <time>2021-06-26T08:56:01Z</time>
      </trkpt>
      <trkpt lat="47.82069" lon="6.83896">
        <ele>1155.4</ele>
        <time>2021-06-26T08:56:03Z</time>
      </trkpt>
      <trkpt lat="47.82072" lon="6.83883">
        <ele>1155.8</ele>
        <time>2021-06-26T08:56:05Z</time>
      </trkpt>
      <trkpt lat="47.82079" lon="6.83847">
        <ele>1156</ele>
        <time>2021-06-26T08:56:10Z</time>
      </trkpt>
      <trkpt lat="47.8208" lon="6.8384">
        <ele>1156</ele>
        <time>2021-06-26T08:56:11Z</time>
      </trkpt>
      <trkpt lat="47.82086" lon="6.8378">
        <ele>1157</ele>
        <time>2021-06-26T08:56:20Z</time>
      </trkpt>
      <trkpt lat="47.82087" lon="6.83774">
        <ele>1157.2</ele>
        <time>2021-06-26T08:56:21Z</time>
      </trkpt>
      <trkpt lat="47.82088" lon="6.83747">
        <ele>1158</ele>
        <time>2021-06-26T08:56:26Z</time>
      </trkpt>
      <trkpt lat="47.82089" lon="6.83735">
        <ele>1158.2</ele>
        <time>2021-06-26T08:56:28Z</time>
      </trkpt>
      <trkpt lat="47.82091" lon="6.83724">
        <ele>1158.4</ele>
        <time>2021-06-26T08:56:30Z</time>
      </trkpt>
      <trkpt lat="47.82091" lon="6.83702">
        <ele>1158.4</ele>
        <time>2021-06-26T08:56:33Z</time>
      </trkpt>
      <trkpt lat="47.82086" lon="6.83659">
        <ele>1158</ele>
        <time>2021-06-26T08:56:39Z</time>
      </trkpt>
      <trkpt lat="47.82072" lon="6.83604">
        <ele>1157</ele>
        <time>2021-06-26T08:56:46Z</time>
      </trkpt>
      <trkpt lat="47.82067" lon="6.83589">
        <ele>1156.8</ele>
        <time>2021-06-26T08:56:48Z</time>
      </trkpt>
      <trkpt lat="47.82052" lon="6.83542">
        <ele>1156.4</ele>
        <time>2021-06-26T08:56:55Z</time>
      </trkpt>
      <trkpt lat="47.8204" lon="6.83507">
        <ele>1156.6</ele>
        <time>2021-06-26T08:57:02Z</time>
      </trkpt>
      <trkpt lat="47.82041" lon="6.83487">
        <ele>1156.6</ele>
        <time>2021-06-26T08:57:06Z</time>
      </trkpt>
      <trkpt lat="47.82052" lon="6.83474">
        <ele>1156.8</ele>
        <time>2021-06-26T08:57:11Z</time>
      </trkpt>
      <trkpt lat="47.8206" lon="6.8347">
        <ele>1156.8</ele>
        <time>2021-06-26T08:57:16Z</time>
      </trkpt>
      <trkpt lat="47.82065" lon="6.83467">
        <ele>1157</ele>
        <time>2021-06-26T08:57:23Z</time>
      </trkpt>
      <trkpt lat="47.82062" lon="6.83469">
        <ele>1157.2</ele>
        <time>2021-06-26T09:02:49Z</time>
      </trkpt>
      <trkpt lat="47.82058" lon="6.83471">
        <ele>1157.2</ele>
        <time>2021-06-26T09:02:52Z</time>
      </trkpt>
      <trkpt lat="47.82042" lon="6.83474">
        <ele>1157.4</ele>
        <time>2021-06-26T09:03:03Z</time>
      </trkpt>
      <trkpt lat="47.82032" lon="6.83468">
        <ele>1157.8</ele>
        <time>2021-06-26T09:03:11Z</time>
      </trkpt>
      <trkpt lat="47.82027" lon="6.83462">
        <ele>1157.6</ele>
        <time>2021-06-26T09:03:17Z</time>
      </trkpt>
      <trkpt lat="47.82028" lon="6.83458">
        <ele>1157.2</ele>
        <time>2021-06-26T09:03:20Z</time>
      </trkpt>
      <trkpt lat="47.82032" lon="6.83454">
        <ele>1156.4</ele>
        <time>2021-06-26T09:03:25Z</time>
      </trkpt>
      <trkpt lat="47.82034" lon="6.83454">
        <ele>1156.2</ele>
        <time>2021-06-26T09:03:27Z</time>
      </trkpt>
      <trkpt lat="47.82036" lon="6.83454">
        <ele>1155.8</ele>
        <time>2021-06-26T09:03:32Z</time>
      </trkpt>
      <trkpt lat="47.82033" lon="6.83503">
        <ele>1156.4</ele>
        <time>2021-06-26T09:29:27Z</time>
      </trkpt>
      <trkpt lat="47.82035" lon="6.83509">
        <ele>1156.6</ele>
        <time>2021-06-26T09:29:29Z</time>
      </trkpt>
      <trkpt lat="47.82043" lon="6.83537">
        <ele>1156.6</ele>
        <time>2021-06-26T09:29:35Z</time>
      </trkpt>
      <trkpt lat="47.82045" lon="6.83543">
        <ele>1156.6</ele>
        <time>2021-06-26T09:29:36Z</time>
      </trkpt>
      <trkpt lat="47.82056" lon="6.83573">
        <ele>1156.4</ele>
        <time>2021-06-26T09:29:41Z</time>
      </trkpt>
      <trkpt lat="47.82058" lon="6.83579">
        <ele>1156.4</ele>
        <time>2021-06-26T09:29:42Z</time>
      </trkpt>
      <trkpt lat="47.8206" lon="6.83585">
        <ele>1156.2</ele>
        <time>2021-06-26T09:29:43Z</time>
      </trkpt>
      <trkpt lat="47.82067" lon="6.83612">
        <ele>1156</ele>
        <time>2021-06-26T09:29:47Z</time>
      </trkpt>
      <trkpt lat="47.82081" lon="6.83673">
        <ele>1156.2</ele>
        <time>2021-06-26T09:29:56Z</time>
      </trkpt>
      <trkpt lat="47.82084" lon="6.83718">
        <ele>1156.8</ele>
        <time>2021-06-26T09:30:03Z</time>
      </trkpt>
      <trkpt lat="47.82084" lon="6.8373">
        <ele>1157.2</ele>
        <time>2021-06-26T09:30:05Z</time>
      </trkpt>
      <trkpt lat="47.8208" lon="6.83783">
        <ele>1157.4</ele>
        <time>2021-06-26T09:30:13Z</time>
      </trkpt>
      <trkpt lat="47.82074" lon="6.83836">
        <ele>1157</ele>
        <time>2021-06-26T09:30:20Z</time>
      </trkpt>
      <trkpt lat="47.82067" lon="6.8388">
        <ele>1156.2</ele>
        <time>2021-06-26T09:30:26Z</time>
      </trkpt>
      <trkpt lat="47.82065" lon="6.83886">
        <ele>1156</ele>
        <time>2021-06-26T09:30:27Z</time>
      </trkpt>
      <trkpt lat="47.82046" lon="6.83941">
        <ele>1155.4</ele>
        <time>2021-06-26T09:30:35Z</time>
      </trkpt>
      <trkpt lat="47.82023" lon="6.83986">
        <ele>1155.6</ele>
        <time>2021-06-26T09:30:42Z</time>
      </trkpt>
      <trkpt lat="47.82015" lon="6.83997">
        <ele>1155.8</ele>
        <time>2021-06-26T09:30:44Z</time>
      </trkpt>
      <trkpt lat="47.81997" lon="6.84017">
        <ele>1155.4</ele>
        <time>2021-06-26T09:30:48Z</time>
      </trkpt>
      <trkpt lat="47.81987" lon="6.84027">
        <ele>1155.4</ele>
        <time>2021-06-26T09:30:50Z</time>
      </trkpt>
      <trkpt lat="47.81982" lon="6.84031">
        <ele>1155.2</ele>
        <time>2021-06-26T09:30:51Z</time>
      </trkpt>
      <trkpt lat="47.81954" lon="6.84053">
        <ele>1154</ele>
        <time>2021-06-26T09:30:56Z</time>
      </trkpt>
      <trkpt lat="47.81937" lon="6.84066">
        <ele>1153.8</ele>
        <time>2021-06-26T09:30:59Z</time>
      </trkpt>
      <trkpt lat="47.81895" lon="6.841">
        <ele>1153</ele>
        <time>2021-06-26T09:31:06Z</time>
      </trkpt>
      <trkpt lat="47.81864" lon="6.84124">
        <ele>1151.8</ele>
        <time>2021-06-26T09:31:10Z</time>
      </trkpt>
      <trkpt lat="47.81855" lon="6.8413">
        <ele>1150.8</ele>
        <time>2021-06-26T09:31:11Z</time>
      </trkpt>
      <trkpt lat="47.81847" lon="6.84136">
        <ele>1150.2</ele>
        <time>2021-06-26T09:31:12Z</time>
      </trkpt>
      <trkpt lat="47.81828" lon="6.84149">
        <ele>1149</ele>
        <time>2021-06-26T09:31:14Z</time>
      </trkpt>
      <trkpt lat="47.81809" lon="6.8416">
        <ele>1147.4</ele>
        <time>2021-06-26T09:31:16Z</time>
      </trkpt>
      <trkpt lat="47.81799" lon="6.84166">
        <ele>1146.8</ele>
        <time>2021-06-26T09:31:17Z</time>
      </trkpt>
      <trkpt lat="47.81789" lon="6.84171">
        <ele>1145.6</ele>
        <time>2021-06-26T09:31:18Z</time>
      </trkpt>
      <trkpt lat="47.8177" lon="6.84182">
        <ele>1143.8</ele>
        <time>2021-06-26T09:31:20Z</time>
      </trkpt>
      <trkpt lat="47.8176" lon="6.84187">
        <ele>1142.6</ele>
        <time>2021-06-26T09:31:21Z</time>
      </trkpt>
      <trkpt lat="47.81729" lon="6.84202">
        <ele>1141.2</ele>
        <time>2021-06-26T09:31:24Z</time>
      </trkpt>
      <trkpt lat="47.81719" lon="6.84206">
        <ele>1140.4</ele>
        <time>2021-06-26T09:31:25Z</time>
      </trkpt>
      <trkpt lat="47.81708" lon="6.8421">
        <ele>1140</ele>
        <time>2021-06-26T09:31:26Z</time>
      </trkpt>
      <trkpt lat="47.81697" lon="6.84213">
        <ele>1139</ele>
        <time>2021-06-26T09:31:27Z</time>
      </trkpt>
      <trkpt lat="47.81674" lon="6.84219">
        <ele>1137.6</ele>
        <time>2021-06-26T09:31:29Z</time>
      </trkpt>
      <trkpt lat="47.81663" lon="6.84221">
        <ele>1136</ele>
        <time>2021-06-26T09:31:30Z</time>
      </trkpt>
      <trkpt lat="47.81652" lon="6.84223">
        <ele>1135.4</ele>
        <time>2021-06-26T09:31:31Z</time>
      </trkpt>
      <trkpt lat="47.8164" lon="6.84224">
        <ele>1133.4</ele>
        <time>2021-06-26T09:31:32Z</time>
      </trkpt>
      <trkpt lat="47.81618" lon="6.84226">
        <ele>1131</ele>
        <time>2021-06-26T09:31:34Z</time>
      </trkpt>
      <trkpt lat="47.81596" lon="6.84228">
        <ele>1129.2</ele>
        <time>2021-06-26T09:31:36Z</time>
      </trkpt>
      <trkpt lat="47.81585" lon="6.84229">
        <ele>1128.2</ele>
        <time>2021-06-26T09:31:37Z</time>
      </trkpt>
      <trkpt lat="47.81564" lon="6.8423">
        <ele>1127.2</ele>
        <time>2021-06-26T09:31:39Z</time>
      </trkpt>
      <trkpt lat="47.81553" lon="6.84231">
        <ele>1127</ele>
        <time>2021-06-26T09:31:40Z</time>
      </trkpt>
      <trkpt lat="47.81523" lon="6.84233">
        <ele>1126</ele>
        <time>2021-06-26T09:31:43Z</time>
      </trkpt>
      <trkpt lat="47.81504" lon="6.84234">
        <ele>1125.4</ele>
        <time>2021-06-26T09:31:45Z</time>
      </trkpt>
      <trkpt lat="47.81495" lon="6.84234">
        <ele>1124.8</ele>
        <time>2021-06-26T09:31:46Z</time>
      </trkpt>
      <trkpt lat="47.81461" lon="6.8423">
        <ele>1124.2</ele>
        <time>2021-06-26T09:31:50Z</time>
      </trkpt>
      <trkpt lat="47.81453" lon="6.84227">
        <ele>1124</ele>
        <time>2021-06-26T09:31:51Z</time>
      </trkpt>
      <trkpt lat="47.81446" lon="6.84222">
        <ele>1123.6</ele>
        <time>2021-06-26T09:31:52Z</time>
      </trkpt>
      <trkpt lat="47.81432" lon="6.84212">
        <ele>1123.2</ele>
        <time>2021-06-26T09:31:54Z</time>
      </trkpt>
      <trkpt lat="47.81403" lon="6.84182">
        <ele>1122.6</ele>
        <time>2021-06-26T09:31:59Z</time>
      </trkpt>
      <trkpt lat="47.81397" lon="6.84175">
        <ele>1122.6</ele>
        <time>2021-06-26T09:32:00Z</time>
      </trkpt>
      <trkpt lat="47.81392" lon="6.84169">
        <ele>1122.6</ele>
        <time>2021-06-26T09:32:01Z</time>
      </trkpt>
      <trkpt lat="47.81358" lon="6.84133">
        <ele>1122.2</ele>
        <time>2021-06-26T09:32:07Z</time>
      </trkpt>
      <trkpt lat="47.81328" lon="6.84103">
        <ele>1121.8</ele>
        <time>2021-06-26T09:32:12Z</time>
      </trkpt>
      <trkpt lat="47.8131" lon="6.84085">
        <ele>1121.6</ele>
        <time>2021-06-26T09:32:15Z</time>
      </trkpt>
      <trkpt lat="47.81303" lon="6.8408">
        <ele>1121.4</ele>
        <time>2021-06-26T09:32:16Z</time>
      </trkpt>
      <trkpt lat="47.81271" lon="6.84049">
        <ele>1120.2</ele>
        <time>2021-06-26T09:32:21Z</time>
      </trkpt>
      <trkpt lat="47.81251" lon="6.84029">
        <ele>1119</ele>
        <time>2021-06-26T09:32:24Z</time>
      </trkpt>
      <trkpt lat="47.81243" lon="6.84022">
        <ele>1119</ele>
        <time>2021-06-26T09:32:25Z</time>
      </trkpt>
      <trkpt lat="47.81229" lon="6.84008">
        <ele>1118</ele>
        <time>2021-06-26T09:32:27Z</time>
      </trkpt>
      <trkpt lat="47.81206" lon="6.83986">
        <ele>1117.2</ele>
        <time>2021-06-26T09:32:30Z</time>
      </trkpt>
      <trkpt lat="47.812" lon="6.8398">
        <ele>1116.8</ele>
        <time>2021-06-26T09:32:31Z</time>
      </trkpt>
      <trkpt lat="47.81182" lon="6.83968">
        <ele>1115.6</ele>
        <time>2021-06-26T09:32:33Z</time>
      </trkpt>
      <trkpt lat="47.81154" lon="6.8395">
        <ele>1114.2</ele>
        <time>2021-06-26T09:32:36Z</time>
      </trkpt>
      <trkpt lat="47.81135" lon="6.83939">
        <ele>1113.2</ele>
        <time>2021-06-26T09:32:38Z</time>
      </trkpt>
      <trkpt lat="47.81117" lon="6.83931">
        <ele>1112</ele>
        <time>2021-06-26T09:32:40Z</time>
      </trkpt>
      <trkpt lat="47.81098" lon="6.83927">
        <ele>1111</ele>
        <time>2021-06-26T09:32:42Z</time>
      </trkpt>
      <trkpt lat="47.81078" lon="6.83924">
        <ele>1109.6</ele>
        <time>2021-06-26T09:32:44Z</time>
      </trkpt>
      <trkpt lat="47.81058" lon="6.83924">
        <ele>1108.6</ele>
        <time>2021-06-26T09:32:46Z</time>
      </trkpt>
      <trkpt lat="47.81039" lon="6.83927">
        <ele>1107.4</ele>
        <time>2021-06-26T09:32:48Z</time>
      </trkpt>
      <trkpt lat="47.81023" lon="6.83935">
        <ele>1106.2</ele>
        <time>2021-06-26T09:32:50Z</time>
      </trkpt>
      <trkpt lat="47.81012" lon="6.83942">
        <ele>1105.4</ele>
        <time>2021-06-26T09:32:51Z</time>
      </trkpt>
      <trkpt lat="47.81003" lon="6.83947">
        <ele>1105.2</ele>
        <time>2021-06-26T09:32:52Z</time>
      </trkpt>
      <trkpt lat="47.80985" lon="6.83958">
        <ele>1103.6</ele>
        <time>2021-06-26T09:32:54Z</time>
      </trkpt>
      <trkpt lat="47.80967" lon="6.8397">
        <ele>1102.4</ele>
        <time>2021-06-26T09:32:56Z</time>
      </trkpt>
      <trkpt lat="47.8096" lon="6.83979">
        <ele>1102.2</ele>
        <time>2021-06-26T09:32:57Z</time>
      </trkpt>
      <trkpt lat="47.80953" lon="6.8399">
        <ele>1101.4</ele>
        <time>2021-06-26T09:32:58Z</time>
      </trkpt>
      <trkpt lat="47.80949" lon="6.84003">
        <ele>1101</ele>
        <time>2021-06-26T09:32:59Z</time>
      </trkpt>
      <trkpt lat="47.80946" lon="6.84017">
        <ele>1100</ele>
        <time>2021-06-26T09:33:00Z</time>
      </trkpt>
      <trkpt lat="47.80942" lon="6.84047">
        <ele>1099.2</ele>
        <time>2021-06-26T09:33:02Z</time>
      </trkpt>
      <trkpt lat="47.80942" lon="6.84063">
        <ele>1098.4</ele>
        <time>2021-06-26T09:33:03Z</time>
      </trkpt>
      <trkpt lat="47.80943" lon="6.84078">
        <ele>1098</ele>
        <time>2021-06-26T09:33:04Z</time>
      </trkpt>
      <trkpt lat="47.80945" lon="6.84094">
        <ele>1097.4</ele>
        <time>2021-06-26T09:33:05Z</time>
      </trkpt>
      <trkpt lat="47.80947" lon="6.84109">
        <ele>1097</ele>
        <time>2021-06-26T09:33:06Z</time>
      </trkpt>
      <trkpt lat="47.80951" lon="6.84124">
        <ele>1096</ele>
        <time>2021-06-26T09:33:07Z</time>
      </trkpt>
      <trkpt lat="47.80955" lon="6.84139">
        <ele>1095.6</ele>
        <time>2021-06-26T09:33:08Z</time>
      </trkpt>
      <trkpt lat="47.8096" lon="6.84152">
        <ele>1094.8</ele>
        <time>2021-06-26T09:33:09Z</time>
      </trkpt>
      <trkpt lat="47.80966" lon="6.84165">
        <ele>1094.6</ele>
        <time>2021-06-26T09:33:10Z</time>
      </trkpt>
      <trkpt lat="47.80983" lon="6.84184">
        <ele>1093</ele>
        <time>2021-06-26T09:33:12Z</time>
      </trkpt>
      <trkpt lat="47.81002" lon="6.84197">
        <ele>1092</ele>
        <time>2021-06-26T09:33:14Z</time>
      </trkpt>
      <trkpt lat="47.81011" lon="6.84205">
        <ele>1091.6</ele>
        <time>2021-06-26T09:33:15Z</time>
      </trkpt>
      <trkpt lat="47.81017" lon="6.84213">
        <ele>1090.6</ele>
        <time>2021-06-26T09:33:16Z</time>
      </trkpt>
      <trkpt lat="47.81023" lon="6.84226">
        <ele>1090.2</ele>
        <time>2021-06-26T09:33:17Z</time>
      </trkpt>
      <trkpt lat="47.81025" lon="6.84239">
        <ele>1089.4</ele>
        <time>2021-06-26T09:33:18Z</time>
      </trkpt>
      <trkpt lat="47.81026" lon="6.84252">
        <ele>1089.2</ele>
        <time>2021-06-26T09:33:19Z</time>
      </trkpt>
      <trkpt lat="47.81025" lon="6.84267">
        <ele>1088.2</ele>
        <time>2021-06-26T09:33:20Z</time>
      </trkpt>
      <trkpt lat="47.81023" lon="6.84298">
        <ele>1086.8</ele>
        <time>2021-06-26T09:33:22Z</time>
      </trkpt>
      <trkpt lat="47.81023" lon="6.84314">
        <ele>1086</ele>
        <time>2021-06-26T09:33:23Z</time>
      </trkpt>
      <trkpt lat="47.81025" lon="6.84329">
        <ele>1085.6</ele>
        <time>2021-06-26T09:33:24Z</time>
      </trkpt>
      <trkpt lat="47.81027" lon="6.84376">
        <ele>1084</ele>
        <time>2021-06-26T09:33:27Z</time>
      </trkpt>
      <trkpt lat="47.81029" lon="6.84403">
        <ele>1083</ele>
        <time>2021-06-26T09:33:29Z</time>
      </trkpt>
      <trkpt lat="47.8103" lon="6.84418">
        <ele>1082.2</ele>
        <time>2021-06-26T09:33:30Z</time>
      </trkpt>
      <trkpt lat="47.81031" lon="6.84432">
        <ele>1082</ele>
        <time>2021-06-26T09:33:31Z</time>
      </trkpt>
      <trkpt lat="47.81029" lon="6.84448">
        <ele>1081.4</ele>
        <time>2021-06-26T09:33:32Z</time>
      </trkpt>
      <trkpt lat="47.81028" lon="6.84462">
        <ele>1080.8</ele>
        <time>2021-06-26T09:33:33Z</time>
      </trkpt>
      <trkpt lat="47.81028" lon="6.845">
        <ele>1079.6</ele>
        <time>2021-06-26T09:33:35Z</time>
      </trkpt>
      <trkpt lat="47.81027" lon="6.84517">
        <ele>1078.4</ele>
        <time>2021-06-26T09:33:36Z</time>
      </trkpt>
      <trkpt lat="47.81024" lon="6.84548">
        <ele>1076.8</ele>
        <time>2021-06-26T09:33:38Z</time>
      </trkpt>
      <trkpt lat="47.81024" lon="6.84563">
        <ele>1075.8</ele>
        <time>2021-06-26T09:33:39Z</time>
      </trkpt>
      <trkpt lat="47.81018" lon="6.84605">
        <ele>1074.6</ele>
        <time>2021-06-26T09:33:42Z</time>
      </trkpt>
      <trkpt lat="47.81011" lon="6.84644">
        <ele>1072.8</ele>
        <time>2021-06-26T09:33:45Z</time>
      </trkpt>
      <trkpt lat="47.8101" lon="6.84657">
        <ele>1072.4</ele>
        <time>2021-06-26T09:33:46Z</time>
      </trkpt>
      <trkpt lat="47.81009" lon="6.84669">
        <ele>1071.6</ele>
        <time>2021-06-26T09:33:47Z</time>
      </trkpt>
      <trkpt lat="47.81008" lon="6.84681">
        <ele>1071</ele>
        <time>2021-06-26T09:33:48Z</time>
      </trkpt>
      <trkpt lat="47.81003" lon="6.84699">
        <ele>1070.6</ele>
        <time>2021-06-26T09:33:50Z</time>
      </trkpt>
      <trkpt lat="47.80996" lon="6.84712">
        <ele>1070.6</ele>
        <time>2021-06-26T09:33:52Z</time>
      </trkpt>
      <trkpt lat="47.80989" lon="6.84723">
        <ele>1070.8</ele>
        <time>2021-06-26T09:33:54Z</time>
      </trkpt>
      <trkpt lat="47.80982" lon="6.84733">
        <ele>1071.4</ele>
        <time>2021-06-26T09:33:56Z</time>
      </trkpt>
      <trkpt lat="47.80971" lon="6.84746">
        <ele>1072.8</ele>
        <time>2021-06-26T09:33:59Z</time>
      </trkpt>
      <trkpt lat="47.80968" lon="6.8475">
        <ele>1073</ele>
        <time>2021-06-26T09:34:00Z</time>
      </trkpt>
      <trkpt lat="47.80954" lon="6.84763">
        <ele>1073.8</ele>
        <time>2021-06-26T09:34:04Z</time>
      </trkpt>
      <trkpt lat="47.8095" lon="6.84766">
        <ele>1074.2</ele>
        <time>2021-06-26T09:34:05Z</time>
      </trkpt>
      <trkpt lat="47.80934" lon="6.84778">
        <ele>1074.8</ele>
        <time>2021-06-26T09:34:09Z</time>
      </trkpt>
      <trkpt lat="47.8093" lon="6.84781">
        <ele>1075</ele>
        <time>2021-06-26T09:34:10Z</time>
      </trkpt>
      <trkpt lat="47.80926" lon="6.84784">
        <ele>1075</ele>
        <time>2021-06-26T09:34:11Z</time>
      </trkpt>
      <trkpt lat="47.80916" lon="6.84789">
        <ele>1075.2</ele>
        <time>2021-06-26T09:34:13Z</time>
      </trkpt>
      <trkpt lat="47.80885" lon="6.84797">
        <ele>1074.8</ele>
        <time>2021-06-26T09:34:18Z</time>
      </trkpt>
      <trkpt lat="47.80844" lon="6.84806">
        <ele>1072.8</ele>
        <time>2021-06-26T09:34:23Z</time>
      </trkpt>
      <trkpt lat="47.80827" lon="6.8481">
        <ele>1071.6</ele>
        <time>2021-06-26T09:34:25Z</time>
      </trkpt>
      <trkpt lat="47.80819" lon="6.84812">
        <ele>1070.4</ele>
        <time>2021-06-26T09:34:26Z</time>
      </trkpt>
      <trkpt lat="47.80802" lon="6.84816">
        <ele>1069</ele>
        <time>2021-06-26T09:34:28Z</time>
      </trkpt>
      <trkpt lat="47.80787" lon="6.8482">
        <ele>1068.6</ele>
        <time>2021-06-26T09:34:30Z</time>
      </trkpt>
      <trkpt lat="47.80752" lon="6.84827">
        <ele>1068</ele>
        <time>2021-06-26T09:34:35Z</time>
      </trkpt>
      <trkpt lat="47.80745" lon="6.84827">
        <ele>1068</ele>
        <time>2021-06-26T09:34:36Z</time>
      </trkpt>
      <trkpt lat="47.80707" lon="6.84828">
        <ele>1067.8</ele>
        <time>2021-06-26T09:34:42Z</time>
      </trkpt>
      <trkpt lat="47.80668" lon="6.84824">
        <ele>1068.4</ele>
        <time>2021-06-26T09:34:49Z</time>
      </trkpt>
      <trkpt lat="47.80654" lon="6.84823">
        <ele>1069.2</ele>
        <time>2021-06-26T09:34:52Z</time>
      </trkpt>
      <trkpt lat="47.80641" lon="6.84821">
        <ele>1070.2</ele>
        <time>2021-06-26T09:34:55Z</time>
      </trkpt>
      <trkpt lat="47.80637" lon="6.84821">
        <ele>1070.2</ele>
        <time>2021-06-26T09:34:56Z</time>
      </trkpt>
      <trkpt lat="47.80625" lon="6.84819">
        <ele>1071.4</ele>
        <time>2021-06-26T09:34:59Z</time>
      </trkpt>
      <trkpt lat="47.80621" lon="6.84817">
        <ele>1071.6</ele>
        <time>2021-06-26T09:35:00Z</time>
      </trkpt>
      <trkpt lat="47.80617" lon="6.84815">
        <ele>1072</ele>
        <time>2021-06-26T09:35:01Z</time>
      </trkpt>
      <trkpt lat="47.80607" lon="6.84812">
        <ele>1072.6</ele>
        <time>2021-06-26T09:35:03Z</time>
      </trkpt>
      <trkpt lat="47.80584" lon="6.84804">
        <ele>1073.2</ele>
        <time>2021-06-26T09:35:08Z</time>
      </trkpt>
      <trkpt lat="47.80574" lon="6.84801">
        <ele>1073.6</ele>
        <time>2021-06-26T09:35:10Z</time>
      </trkpt>
      <trkpt lat="47.80564" lon="6.84797">
        <ele>1074</ele>
        <time>2021-06-26T09:35:12Z</time>
      </trkpt>
      <trkpt lat="47.80541" lon="6.84787">
        <ele>1074.2</ele>
        <time>2021-06-26T09:35:16Z</time>
      </trkpt>
      <trkpt lat="47.80504" lon="6.84765">
        <ele>1073</ele>
        <time>2021-06-26T09:35:22Z</time>
      </trkpt>
      <trkpt lat="47.80497" lon="6.8476">
        <ele>1072.6</ele>
        <time>2021-06-26T09:35:23Z</time>
      </trkpt>
      <trkpt lat="47.80474" lon="6.84744">
        <ele>1071.2</ele>
        <time>2021-06-26T09:35:26Z</time>
      </trkpt>
      <trkpt lat="47.80457" lon="6.84731">
        <ele>1069.8</ele>
        <time>2021-06-26T09:35:28Z</time>
      </trkpt>
      <trkpt lat="47.80439" lon="6.84719">
        <ele>1068.4</ele>
        <time>2021-06-26T09:35:30Z</time>
      </trkpt>
      <trkpt lat="47.80421" lon="6.84706">
        <ele>1067.2</ele>
        <time>2021-06-26T09:35:32Z</time>
      </trkpt>
      <trkpt lat="47.80412" lon="6.847">
        <ele>1065.8</ele>
        <time>2021-06-26T09:35:33Z</time>
      </trkpt>
      <trkpt lat="47.80403" lon="6.84694">
        <ele>1065.2</ele>
        <time>2021-06-26T09:35:34Z</time>
      </trkpt>
      <trkpt lat="47.80394" lon="6.84691">
        <ele>1064.2</ele>
        <time>2021-06-26T09:35:35Z</time>
      </trkpt>
      <trkpt lat="47.80376" lon="6.84689">
        <ele>1063.2</ele>
        <time>2021-06-26T09:35:37Z</time>
      </trkpt>
      <trkpt lat="47.80349" lon="6.84695">
        <ele>1061.8</ele>
        <time>2021-06-26T09:35:40Z</time>
      </trkpt>
      <trkpt lat="47.80341" lon="6.847">
        <ele>1061.2</ele>
        <time>2021-06-26T09:35:41Z</time>
      </trkpt>
      <trkpt lat="47.80332" lon="6.84707">
        <ele>1060.8</ele>
        <time>2021-06-26T09:35:42Z</time>
      </trkpt>
      <trkpt lat="47.80325" lon="6.84714">
        <ele>1060.2</ele>
        <time>2021-06-26T09:35:43Z</time>
      </trkpt>
      <trkpt lat="47.80317" lon="6.84723">
        <ele>1059.6</ele>
        <time>2021-06-26T09:35:44Z</time>
      </trkpt>
      <trkpt lat="47.8031" lon="6.84733">
        <ele>1059.4</ele>
        <time>2021-06-26T09:35:45Z</time>
      </trkpt>
      <trkpt lat="47.80304" lon="6.84744">
        <ele>1058.6</ele>
        <time>2021-06-26T09:35:46Z</time>
      </trkpt>
      <trkpt lat="47.80297" lon="6.84755">
        <ele>1058.2</ele>
        <time>2021-06-26T09:35:47Z</time>
      </trkpt>
      <trkpt lat="47.80292" lon="6.84768">
        <ele>1057.4</ele>
        <time>2021-06-26T09:35:48Z</time>
      </trkpt>
      <trkpt lat="47.80287" lon="6.84781">
        <ele>1056.8</ele>
        <time>2021-06-26T09:35:49Z</time>
      </trkpt>
      <trkpt lat="47.80283" lon="6.84796">
        <ele>1056</ele>
        <time>2021-06-26T09:35:50Z</time>
      </trkpt>
      <trkpt lat="47.80278" lon="6.84825">
        <ele>1055.2</ele>
        <time>2021-06-26T09:35:52Z</time>
      </trkpt>
      <trkpt lat="47.80277" lon="6.84844">
        <ele>1054</ele>
        <time>2021-06-26T09:35:53Z</time>
      </trkpt>
      <trkpt lat="47.80276" lon="6.84873">
        <ele>1051.8</ele>
        <time>2021-06-26T09:35:55Z</time>
      </trkpt>
      <trkpt lat="47.80276" lon="6.84908">
        <ele>1050.4</ele>
        <time>2021-06-26T09:35:57Z</time>
      </trkpt>
      <trkpt lat="47.80277" lon="6.84921">
        <ele>1050</ele>
        <time>2021-06-26T09:35:58Z</time>
      </trkpt>
      <trkpt lat="47.80279" lon="6.84937">
        <ele>1049.2</ele>
        <time>2021-06-26T09:35:59Z</time>
      </trkpt>
      <trkpt lat="47.80286" lon="6.84965">
        <ele>1048</ele>
        <time>2021-06-26T09:36:01Z</time>
      </trkpt>
      <trkpt lat="47.80296" lon="6.84989">
        <ele>1047.2</ele>
        <time>2021-06-26T09:36:03Z</time>
      </trkpt>
      <trkpt lat="47.80301" lon="6.84999">
        <ele>1047</ele>
        <time>2021-06-26T09:36:04Z</time>
      </trkpt>
      <trkpt lat="47.80323" lon="6.85028">
        <ele>1046.8</ele>
        <time>2021-06-26T09:36:08Z</time>
      </trkpt>
      <trkpt lat="47.80334" lon="6.85041">
        <ele>1046.8</ele>
        <time>2021-06-26T09:36:10Z</time>
      </trkpt>
      <trkpt lat="47.80339" lon="6.85048">
        <ele>1047</ele>
        <time>2021-06-26T09:36:11Z</time>
      </trkpt>
      <trkpt lat="47.80348" lon="6.85064">
        <ele>1047.6</ele>
        <time>2021-06-26T09:36:13Z</time>
      </trkpt>
      <trkpt lat="47.80371" lon="6.85106">
        <ele>1047.6</ele>
        <time>2021-06-26T09:36:18Z</time>
      </trkpt>
      <trkpt lat="47.80376" lon="6.85114">
        <ele>1047.6</ele>
        <time>2021-06-26T09:36:19Z</time>
      </trkpt>
      <trkpt lat="47.8038" lon="6.85123">
        <ele>1047.6</ele>
        <time>2021-06-26T09:36:20Z</time>
      </trkpt>
      <trkpt lat="47.80397" lon="6.85164">
        <ele>1046.2</ele>
        <time>2021-06-26T09:36:24Z</time>
      </trkpt>
      <trkpt lat="47.80406" lon="6.85186">
        <ele>1045.6</ele>
        <time>2021-06-26T09:36:26Z</time>
      </trkpt>
      <trkpt lat="47.8042" lon="6.85222">
        <ele>1044.6</ele>
        <time>2021-06-26T09:36:29Z</time>
      </trkpt>
      <trkpt lat="47.80425" lon="6.8523">
        <ele>1044.2</ele>
        <time>2021-06-26T09:36:30Z</time>
      </trkpt>
      <trkpt lat="47.80435" lon="6.85248">
        <ele>1043</ele>
        <time>2021-06-26T09:36:32Z</time>
      </trkpt>
      <trkpt lat="47.8045" lon="6.85272">
        <ele>1042.4</ele>
        <time>2021-06-26T09:36:35Z</time>
      </trkpt>
      <trkpt lat="47.80477" lon="6.85318">
        <ele>1042.2</ele>
        <time>2021-06-26T09:36:41Z</time>
      </trkpt>
      <trkpt lat="47.80494" lon="6.85347">
        <ele>1042.8</ele>
        <time>2021-06-26T09:36:45Z</time>
      </trkpt>
      <trkpt lat="47.80502" lon="6.85363">
        <ele>1043.2</ele>
        <time>2021-06-26T09:36:47Z</time>
      </trkpt>
      <trkpt lat="47.80519" lon="6.85401">
        <ele>1044</ele>
        <time>2021-06-26T09:36:52Z</time>
      </trkpt>
      <trkpt lat="47.80525" lon="6.85418">
        <ele>1044.4</ele>
        <time>2021-06-26T09:36:54Z</time>
      </trkpt>
      <trkpt lat="47.80527" lon="6.85425">
        <ele>1044.6</ele>
        <time>2021-06-26T09:36:55Z</time>
      </trkpt>
      <trkpt lat="47.80538" lon="6.85483">
        <ele>1044.8</ele>
        <time>2021-06-26T09:37:01Z</time>
      </trkpt>
      <trkpt lat="47.80544" lon="6.85563">
        <ele>1043.2</ele>
        <time>2021-06-26T09:37:08Z</time>
      </trkpt>
      <trkpt lat="47.80545" lon="6.85575">
        <ele>1042.8</ele>
        <time>2021-06-26T09:37:09Z</time>
      </trkpt>
      <trkpt lat="47.80551" lon="6.8561">
        <ele>1041.8</ele>
        <time>2021-06-26T09:37:12Z</time>
      </trkpt>
      <trkpt lat="47.80555" lon="6.85634">
        <ele>1040.8</ele>
        <time>2021-06-26T09:37:14Z</time>
      </trkpt>
      <trkpt lat="47.80557" lon="6.85645">
        <ele>1040.4</ele>
        <time>2021-06-26T09:37:15Z</time>
      </trkpt>
      <trkpt lat="47.80568" lon="6.857">
        <ele>1039.2</ele>
        <time>2021-06-26T09:37:20Z</time>
      </trkpt>
      <trkpt lat="47.80574" lon="6.85732">
        <ele>1038.4</ele>
        <time>2021-06-26T09:37:23Z</time>
      </trkpt>
      <trkpt lat="47.80579" lon="6.85763">
        <ele>1038</ele>
        <time>2021-06-26T09:37:26Z</time>
      </trkpt>
      <trkpt lat="47.80584" lon="6.85812">
        <ele>1037.8</ele>
        <time>2021-06-26T09:37:31Z</time>
      </trkpt>
      <trkpt lat="47.80583" lon="6.8587">
        <ele>1038</ele>
        <time>2021-06-26T09:37:37Z</time>
      </trkpt>
      <trkpt lat="47.80581" lon="6.8593">
        <ele>1037.2</ele>
        <time>2021-06-26T09:37:42Z</time>
      </trkpt>
      <trkpt lat="47.80581" lon="6.85972">
        <ele>1036</ele>
        <time>2021-06-26T09:37:45Z</time>
      </trkpt>
      <trkpt lat="47.80583" lon="6.86002">
        <ele>1034.8</ele>
        <time>2021-06-26T09:37:47Z</time>
      </trkpt>
      <trkpt lat="47.80584" lon="6.86018">
        <ele>1033.8</ele>
        <time>2021-06-26T09:37:48Z</time>
      </trkpt>
      <trkpt lat="47.80588" lon="6.86054">
        <ele>1032</ele>
        <time>2021-06-26T09:37:50Z</time>
      </trkpt>
      <trkpt lat="47.80589" lon="6.86071">
        <ele>1031.4</ele>
        <time>2021-06-26T09:37:51Z</time>
      </trkpt>
      <trkpt lat="47.8059" lon="6.86089">
        <ele>1029.6</ele>
        <time>2021-06-26T09:37:52Z</time>
      </trkpt>
      <trkpt lat="47.8059" lon="6.86104">
        <ele>1028.2</ele>
        <time>2021-06-26T09:37:53Z</time>
      </trkpt>
      <trkpt lat="47.80593" lon="6.86144">
        <ele>1026</ele>
        <time>2021-06-26T09:37:55Z</time>
      </trkpt>
      <trkpt lat="47.80595" lon="6.86181">
        <ele>1023.6</ele>
        <time>2021-06-26T09:37:57Z</time>
      </trkpt>
      <trkpt lat="47.80596" lon="6.86216">
        <ele>1021.8</ele>
        <time>2021-06-26T09:37:59Z</time>
      </trkpt>
      <trkpt lat="47.80596" lon="6.86258">
        <ele>1019</ele>
        <time>2021-06-26T09:38:01Z</time>
      </trkpt>
      <trkpt lat="47.80596" lon="6.86278">
        <ele>1017.2</ele>
        <time>2021-06-26T09:38:02Z</time>
      </trkpt>
      <trkpt lat="47.80595" lon="6.86293">
        <ele>1016.4</ele>
        <time>2021-06-26T09:38:03Z</time>
      </trkpt>
      <trkpt lat="47.80594" lon="6.86313">
        <ele>1015</ele>
        <time>2021-06-26T09:38:04Z</time>
      </trkpt>
      <trkpt lat="47.80593" lon="6.86356">
        <ele>1012.8</ele>
        <time>2021-06-26T09:38:06Z</time>
      </trkpt>
      <trkpt lat="47.80592" lon="6.86392">
        <ele>1010.4</ele>
        <time>2021-06-26T09:38:08Z</time>
      </trkpt>
      <trkpt lat="47.80594" lon="6.86436">
        <ele>1008.2</ele>
        <time>2021-06-26T09:38:10Z</time>
      </trkpt>
      <trkpt lat="47.80594" lon="6.86455">
        <ele>1005.6</ele>
        <time>2021-06-26T09:38:11Z</time>
      </trkpt>
      <trkpt lat="47.80596" lon="6.86491">
        <ele>1003</ele>
        <time>2021-06-26T09:38:13Z</time>
      </trkpt>
      <trkpt lat="47.80599" lon="6.86535">
        <ele>1000.8</ele>
        <time>2021-06-26T09:38:15Z</time>
      </trkpt>
      <trkpt lat="47.80601" lon="6.86575">
        <ele>998.4</ele>
        <time>2021-06-26T09:38:17Z</time>
      </trkpt>
      <trkpt lat="47.80604" lon="6.86611">
        <ele>995.2</ele>
        <time>2021-06-26T09:38:19Z</time>
      </trkpt>
      <trkpt lat="47.80609" lon="6.86656">
        <ele>993</ele>
        <time>2021-06-26T09:38:21Z</time>
      </trkpt>
      <trkpt lat="47.80612" lon="6.86675">
        <ele>991.4</ele>
        <time>2021-06-26T09:38:22Z</time>
      </trkpt>
      <trkpt lat="47.80614" lon="6.86691">
        <ele>990.6</ele>
        <time>2021-06-26T09:38:23Z</time>
      </trkpt>
      <trkpt lat="47.80617" lon="6.86711">
        <ele>989</ele>
        <time>2021-06-26T09:38:24Z</time>
      </trkpt>
      <trkpt lat="47.80623" lon="6.86754">
        <ele>986.6</ele>
        <time>2021-06-26T09:38:26Z</time>
      </trkpt>
      <trkpt lat="47.80625" lon="6.86769">
        <ele>985.6</ele>
        <time>2021-06-26T09:38:27Z</time>
      </trkpt>
      <trkpt lat="47.80627" lon="6.86787">
        <ele>983.6</ele>
        <time>2021-06-26T09:38:28Z</time>
      </trkpt>
      <trkpt lat="47.80633" lon="6.86822">
        <ele>981.4</ele>
        <time>2021-06-26T09:38:30Z</time>
      </trkpt>
      <trkpt lat="47.80635" lon="6.8684">
        <ele>979.8</ele>
        <time>2021-06-26T09:38:31Z</time>
      </trkpt>
      <trkpt lat="47.80636" lon="6.86856">
        <ele>979.2</ele>
        <time>2021-06-26T09:38:32Z</time>
      </trkpt>
      <trkpt lat="47.80633" lon="6.86872">
        <ele>977.8</ele>
        <time>2021-06-26T09:38:33Z</time>
      </trkpt>
      <trkpt lat="47.80628" lon="6.86887">
        <ele>977</ele>
        <time>2021-06-26T09:38:34Z</time>
      </trkpt>
      <trkpt lat="47.80621" lon="6.86901">
        <ele>975.6</ele>
        <time>2021-06-26T09:38:35Z</time>
      </trkpt>
      <trkpt lat="47.80614" lon="6.86913">
        <ele>975</ele>
        <time>2021-06-26T09:38:36Z</time>
      </trkpt>
      <trkpt lat="47.80606" lon="6.86926">
        <ele>973.4</ele>
        <time>2021-06-26T09:38:37Z</time>
      </trkpt>
      <trkpt lat="47.80589" lon="6.86949">
        <ele>971.4</ele>
        <time>2021-06-26T09:38:39Z</time>
      </trkpt>
      <trkpt lat="47.80572" lon="6.86972">
        <ele>969.2</ele>
        <time>2021-06-26T09:38:41Z</time>
      </trkpt>
      <trkpt lat="47.80563" lon="6.86983">
        <ele>968</ele>
        <time>2021-06-26T09:38:42Z</time>
      </trkpt>
      <trkpt lat="47.80545" lon="6.87007">
        <ele>966.6</ele>
        <time>2021-06-26T09:38:44Z</time>
      </trkpt>
      <trkpt lat="47.80529" lon="6.87036">
        <ele>964.6</ele>
        <time>2021-06-26T09:38:46Z</time>
      </trkpt>
      <trkpt lat="47.8052" lon="6.87065">
        <ele>962.4</ele>
        <time>2021-06-26T09:38:48Z</time>
      </trkpt>
      <trkpt lat="47.80516" lon="6.87083">
        <ele>961.8</ele>
        <time>2021-06-26T09:38:49Z</time>
      </trkpt>
      <trkpt lat="47.80514" lon="6.87102">
        <ele>960.2</ele>
        <time>2021-06-26T09:38:50Z</time>
      </trkpt>
      <trkpt lat="47.80513" lon="6.87122">
        <ele>958.6</ele>
        <time>2021-06-26T09:38:51Z</time>
      </trkpt>
      <trkpt lat="47.80513" lon="6.8716">
        <ele>956.8</ele>
        <time>2021-06-26T09:38:53Z</time>
      </trkpt>
      <trkpt lat="47.80513" lon="6.87178">
        <ele>956</ele>
        <time>2021-06-26T09:38:54Z</time>
      </trkpt>
      <trkpt lat="47.80514" lon="6.87195">
        <ele>954</ele>
        <time>2021-06-26T09:38:55Z</time>
      </trkpt>
      <trkpt lat="47.80517" lon="6.87211">
        <ele>953</ele>
        <time>2021-06-26T09:38:56Z</time>
      </trkpt>
      <trkpt lat="47.80521" lon="6.87224">
        <ele>950.8</ele>
        <time>2021-06-26T09:38:57Z</time>
      </trkpt>
      <trkpt lat="47.80533" lon="6.87244">
        <ele>948.6</ele>
        <time>2021-06-26T09:38:59Z</time>
      </trkpt>
      <trkpt lat="47.8054" lon="6.87247">
        <ele>947.4</ele>
        <time>2021-06-26T09:39:00Z</time>
      </trkpt>
      <trkpt lat="47.80548" lon="6.87244">
        <ele>947</ele>
        <time>2021-06-26T09:39:01Z</time>
      </trkpt>
      <trkpt lat="47.80556" lon="6.87237">
        <ele>946.2</ele>
        <time>2021-06-26T09:39:02Z</time>
      </trkpt>
      <trkpt lat="47.80573" lon="6.87219">
        <ele>944.8</ele>
        <time>2021-06-26T09:39:04Z</time>
      </trkpt>
      <trkpt lat="47.80584" lon="6.8721">
        <ele>944.4</ele>
        <time>2021-06-26T09:39:05Z</time>
      </trkpt>
      <trkpt lat="47.80595" lon="6.87203">
        <ele>943.6</ele>
        <time>2021-06-26T09:39:06Z</time>
      </trkpt>
      <trkpt lat="47.80617" lon="6.87194">
        <ele>942.2</ele>
        <time>2021-06-26T09:39:08Z</time>
      </trkpt>
      <trkpt lat="47.80639" lon="6.87188">
        <ele>940.4</ele>
        <time>2021-06-26T09:39:10Z</time>
      </trkpt>
      <trkpt lat="47.8065" lon="6.87184">
        <ele>938.6</ele>
        <time>2021-06-26T09:39:11Z</time>
      </trkpt>
      <trkpt lat="47.80672" lon="6.87169">
        <ele>936.2</ele>
        <time>2021-06-26T09:39:13Z</time>
      </trkpt>
      <trkpt lat="47.80693" lon="6.87145">
        <ele>934</ele>
        <time>2021-06-26T09:39:15Z</time>
      </trkpt>
      <trkpt lat="47.80717" lon="6.87118">
        <ele>931.8</ele>
        <time>2021-06-26T09:39:17Z</time>
      </trkpt>
      <trkpt lat="47.80728" lon="6.87108">
        <ele>931</ele>
        <time>2021-06-26T09:39:18Z</time>
      </trkpt>
      <trkpt lat="47.80737" lon="6.87099">
        <ele>929.4</ele>
        <time>2021-06-26T09:39:19Z</time>
      </trkpt>
      <trkpt lat="47.80746" lon="6.87087">
        <ele>927.6</ele>
        <time>2021-06-26T09:39:20Z</time>
      </trkpt>
      <trkpt lat="47.80762" lon="6.87061">
        <ele>925.2</ele>
        <time>2021-06-26T09:39:22Z</time>
      </trkpt>
      <trkpt lat="47.80772" lon="6.87047">
        <ele>924.8</ele>
        <time>2021-06-26T09:39:23Z</time>
      </trkpt>
      <trkpt lat="47.80778" lon="6.87038">
        <ele>923.6</ele>
        <time>2021-06-26T09:39:24Z</time>
      </trkpt>
      <trkpt lat="47.80797" lon="6.8702">
        <ele>921.2</ele>
        <time>2021-06-26T09:39:26Z</time>
      </trkpt>
      <trkpt lat="47.8081" lon="6.87012">
        <ele>920.6</ele>
        <time>2021-06-26T09:39:27Z</time>
      </trkpt>
      <trkpt lat="47.80821" lon="6.87008">
        <ele>919</ele>
        <time>2021-06-26T09:39:28Z</time>
      </trkpt>
      <trkpt lat="47.8084" lon="6.87005">
        <ele>917</ele>
        <time>2021-06-26T09:39:30Z</time>
      </trkpt>
      <trkpt lat="47.8085" lon="6.87005">
        <ele>916</ele>
        <time>2021-06-26T09:39:31Z</time>
      </trkpt>
      <trkpt lat="47.80864" lon="6.8701">
        <ele>915</ele>
        <time>2021-06-26T09:39:32Z</time>
      </trkpt>
      <trkpt lat="47.80875" lon="6.87014">
        <ele>913.6</ele>
        <time>2021-06-26T09:39:33Z</time>
      </trkpt>
      <trkpt lat="47.80888" lon="6.8702">
        <ele>912.8</ele>
        <time>2021-06-26T09:39:34Z</time>
      </trkpt>
      <trkpt lat="47.80898" lon="6.87027">
        <ele>911.2</ele>
        <time>2021-06-26T09:39:35Z</time>
      </trkpt>
      <trkpt lat="47.80922" lon="6.87044">
        <ele>908.8</ele>
        <time>2021-06-26T09:39:37Z</time>
      </trkpt>
      <trkpt lat="47.80931" lon="6.87049">
        <ele>908</ele>
        <time>2021-06-26T09:39:38Z</time>
      </trkpt>
      <trkpt lat="47.80942" lon="6.87052">
        <ele>906.4</ele>
        <time>2021-06-26T09:39:39Z</time>
      </trkpt>
      <trkpt lat="47.80953" lon="6.87053">
        <ele>904.6</ele>
        <time>2021-06-26T09:39:40Z</time>
      </trkpt>
      <trkpt lat="47.80964" lon="6.87055">
        <ele>904</ele>
        <time>2021-06-26T09:39:41Z</time>
      </trkpt>
      <trkpt lat="47.80976" lon="6.8706">
        <ele>902.4</ele>
        <time>2021-06-26T09:39:42Z</time>
      </trkpt>
      <trkpt lat="47.80985" lon="6.87067">
        <ele>901.8</ele>
        <time>2021-06-26T09:39:43Z</time>
      </trkpt>
      <trkpt lat="47.80991" lon="6.87076">
        <ele>900.4</ele>
        <time>2021-06-26T09:39:44Z</time>
      </trkpt>
      <trkpt lat="47.81005" lon="6.87101">
        <ele>898.2</ele>
        <time>2021-06-26T09:39:46Z</time>
      </trkpt>
      <trkpt lat="47.81021" lon="6.87124">
        <ele>896.2</ele>
        <time>2021-06-26T09:39:48Z</time>
      </trkpt>
      <trkpt lat="47.81039" lon="6.87127">
        <ele>894.2</ele>
        <time>2021-06-26T09:39:50Z</time>
      </trkpt>
      <trkpt lat="47.81046" lon="6.87126">
        <ele>893</ele>
        <time>2021-06-26T09:39:51Z</time>
      </trkpt>
      <trkpt lat="47.81065" lon="6.87124">
        <ele>891.4</ele>
        <time>2021-06-26T09:39:53Z</time>
      </trkpt>
      <trkpt lat="47.81086" lon="6.87122">
        <ele>889.6</ele>
        <time>2021-06-26T09:39:55Z</time>
      </trkpt>
      <trkpt lat="47.81109" lon="6.87127">
        <ele>887.8</ele>
        <time>2021-06-26T09:39:57Z</time>
      </trkpt>
      <trkpt lat="47.81133" lon="6.87131">
        <ele>885.6</ele>
        <time>2021-06-26T09:39:59Z</time>
      </trkpt>
      <trkpt lat="47.81143" lon="6.8713">
        <ele>884.2</ele>
        <time>2021-06-26T09:40:00Z</time>
      </trkpt>
      <trkpt lat="47.8117" lon="6.87127">
        <ele>882</ele>
        <time>2021-06-26T09:40:02Z</time>
      </trkpt>
      <trkpt lat="47.81183" lon="6.87122">
        <ele>881.4</ele>
        <time>2021-06-26T09:40:03Z</time>
      </trkpt>
      <trkpt lat="47.81193" lon="6.87116">
        <ele>880.2</ele>
        <time>2021-06-26T09:40:04Z</time>
      </trkpt>
      <trkpt lat="47.812" lon="6.8711">
        <ele>879.6</ele>
        <time>2021-06-26T09:40:05Z</time>
      </trkpt>
      <trkpt lat="47.81207" lon="6.871">
        <ele>878</ele>
        <time>2021-06-26T09:40:06Z</time>
      </trkpt>
      <trkpt lat="47.81211" lon="6.87088">
        <ele>877.2</ele>
        <time>2021-06-26T09:40:07Z</time>
      </trkpt>
      <trkpt lat="47.81217" lon="6.87072">
        <ele>876</ele>
        <time>2021-06-26T09:40:08Z</time>
      </trkpt>
      <trkpt lat="47.81223" lon="6.87057">
        <ele>875.6</ele>
        <time>2021-06-26T09:40:09Z</time>
      </trkpt>
      <trkpt lat="47.81227" lon="6.87046">
        <ele>874.6</ele>
        <time>2021-06-26T09:40:10Z</time>
      </trkpt>
      <trkpt lat="47.81234" lon="6.87032">
        <ele>873.6</ele>
        <time>2021-06-26T09:40:11Z</time>
      </trkpt>
      <trkpt lat="47.81248" lon="6.86999">
        <ele>871.4</ele>
        <time>2021-06-26T09:40:13Z</time>
      </trkpt>
      <trkpt lat="47.81254" lon="6.8698">
        <ele>870.6</ele>
        <time>2021-06-26T09:40:14Z</time>
      </trkpt>
      <trkpt lat="47.81258" lon="6.86965">
        <ele>869.2</ele>
        <time>2021-06-26T09:40:15Z</time>
      </trkpt>
      <trkpt lat="47.81265" lon="6.86925">
        <ele>866.8</ele>
        <time>2021-06-26T09:40:17Z</time>
      </trkpt>
      <trkpt lat="47.81273" lon="6.86884">
        <ele>863.8</ele>
        <time>2021-06-26T09:40:19Z</time>
      </trkpt>
      <trkpt lat="47.81283" lon="6.86855">
        <ele>861.6</ele>
        <time>2021-06-26T09:40:21Z</time>
      </trkpt>
      <trkpt lat="47.81284" lon="6.86844">
        <ele>860.4</ele>
        <time>2021-06-26T09:40:22Z</time>
      </trkpt>
      <trkpt lat="47.81286" lon="6.86825">
        <ele>859.4</ele>
        <time>2021-06-26T09:40:23Z</time>
      </trkpt>
      <trkpt lat="47.81285" lon="6.86809">
        <ele>857.6</ele>
        <time>2021-06-26T09:40:24Z</time>
      </trkpt>
      <trkpt lat="47.81282" lon="6.86797">
        <ele>857</ele>
        <time>2021-06-26T09:40:25Z</time>
      </trkpt>
      <trkpt lat="47.81276" lon="6.86781">
        <ele>855.8</ele>
        <time>2021-06-26T09:40:26Z</time>
      </trkpt>
      <trkpt lat="47.81268" lon="6.86767">
        <ele>855.2</ele>
        <time>2021-06-26T09:40:27Z</time>
      </trkpt>
      <trkpt lat="47.8126" lon="6.86752">
        <ele>854</ele>
        <time>2021-06-26T09:40:28Z</time>
      </trkpt>
      <trkpt lat="47.8125" lon="6.86719">
        <ele>852.2</ele>
        <time>2021-06-26T09:40:30Z</time>
      </trkpt>
      <trkpt lat="47.81249" lon="6.86705">
        <ele>850.8</ele>
        <time>2021-06-26T09:40:31Z</time>
      </trkpt>
      <trkpt lat="47.81242" lon="6.86666">
        <ele>848.4</ele>
        <time>2021-06-26T09:40:33Z</time>
      </trkpt>
      <trkpt lat="47.81232" lon="6.8663">
        <ele>846.8</ele>
        <time>2021-06-26T09:40:35Z</time>
      </trkpt>
      <trkpt lat="47.81229" lon="6.86612">
        <ele>845.8</ele>
        <time>2021-06-26T09:40:36Z</time>
      </trkpt>
      <trkpt lat="47.81226" lon="6.86595">
        <ele>844.4</ele>
        <time>2021-06-26T09:40:37Z</time>
      </trkpt>
      <trkpt lat="47.81217" lon="6.86563">
        <ele>842.2</ele>
        <time>2021-06-26T09:40:39Z</time>
      </trkpt>
      <trkpt lat="47.81209" lon="6.8653">
        <ele>840</ele>
        <time>2021-06-26T09:40:41Z</time>
      </trkpt>
      <trkpt lat="47.81208" lon="6.86516">
        <ele>839</ele>
        <time>2021-06-26T09:40:42Z</time>
      </trkpt>
      <trkpt lat="47.81209" lon="6.86495">
        <ele>838.4</ele>
        <time>2021-06-26T09:40:43Z</time>
      </trkpt>
      <trkpt lat="47.81211" lon="6.86478">
        <ele>836.6</ele>
        <time>2021-06-26T09:40:44Z</time>
      </trkpt>
      <trkpt lat="47.81216" lon="6.86445">
        <ele>834.6</ele>
        <time>2021-06-26T09:40:46Z</time>
      </trkpt>
      <trkpt lat="47.81216" lon="6.86432">
        <ele>834</ele>
        <time>2021-06-26T09:40:47Z</time>
      </trkpt>
      <trkpt lat="47.81217" lon="6.86413">
        <ele>832.4</ele>
        <time>2021-06-26T09:40:48Z</time>
      </trkpt>
      <trkpt lat="47.81215" lon="6.8638">
        <ele>830.8</ele>
        <time>2021-06-26T09:40:50Z</time>
      </trkpt>
      <trkpt lat="47.81214" lon="6.86367">
        <ele>829.6</ele>
        <time>2021-06-26T09:40:51Z</time>
      </trkpt>
      <trkpt lat="47.81212" lon="6.8633">
        <ele>827.8</ele>
        <time>2021-06-26T09:40:53Z</time>
      </trkpt>
      <trkpt lat="47.81213" lon="6.86297">
        <ele>826</ele>
        <time>2021-06-26T09:40:55Z</time>
      </trkpt>
      <trkpt lat="47.81212" lon="6.86268">
        <ele>824.2</ele>
        <time>2021-06-26T09:40:57Z</time>
      </trkpt>
      <trkpt lat="47.81205" lon="6.86234">
        <ele>822.2</ele>
        <time>2021-06-26T09:40:59Z</time>
      </trkpt>
      <trkpt lat="47.81201" lon="6.86219">
        <ele>821.6</ele>
        <time>2021-06-26T09:41:00Z</time>
      </trkpt>
      <trkpt lat="47.81199" lon="6.86204">
        <ele>820.4</ele>
        <time>2021-06-26T09:41:01Z</time>
      </trkpt>
      <trkpt lat="47.81197" lon="6.86188">
        <ele>819</ele>
        <time>2021-06-26T09:41:02Z</time>
      </trkpt>
      <trkpt lat="47.81199" lon="6.86157">
        <ele>817.2</ele>
        <time>2021-06-26T09:41:04Z</time>
      </trkpt>
      <trkpt lat="47.81202" lon="6.86142">
        <ele>816.6</ele>
        <time>2021-06-26T09:41:05Z</time>
      </trkpt>
      <trkpt lat="47.81206" lon="6.8613">
        <ele>816</ele>
        <time>2021-06-26T09:41:06Z</time>
      </trkpt>
      <trkpt lat="47.81216" lon="6.86098">
        <ele>814.6</ele>
        <time>2021-06-26T09:41:08Z</time>
      </trkpt>
      <trkpt lat="47.81225" lon="6.86068">
        <ele>812.8</ele>
        <time>2021-06-26T09:41:10Z</time>
      </trkpt>
      <trkpt lat="47.81233" lon="6.86041">
        <ele>811.2</ele>
        <time>2021-06-26T09:41:12Z</time>
      </trkpt>
      <trkpt lat="47.81239" lon="6.86023">
        <ele>810</ele>
        <time>2021-06-26T09:41:13Z</time>
      </trkpt>
      <trkpt lat="47.81248" lon="6.85992">
        <ele>808.2</ele>
        <time>2021-06-26T09:41:15Z</time>
      </trkpt>
      <trkpt lat="47.81252" lon="6.8598">
        <ele>807.4</ele>
        <time>2021-06-26T09:41:16Z</time>
      </trkpt>
      <trkpt lat="47.81256" lon="6.85959">
        <ele>806.4</ele>
        <time>2021-06-26T09:41:17Z</time>
      </trkpt>
      <trkpt lat="47.81262" lon="6.85924">
        <ele>805.2</ele>
        <time>2021-06-26T09:41:19Z</time>
      </trkpt>
      <trkpt lat="47.81266" lon="6.85892">
        <ele>803.6</ele>
        <time>2021-06-26T09:41:21Z</time>
      </trkpt>
      <trkpt lat="47.81268" lon="6.85873">
        <ele>802.8</ele>
        <time>2021-06-26T09:41:22Z</time>
      </trkpt>
      <trkpt lat="47.8127" lon="6.85831">
        <ele>800.8</ele>
        <time>2021-06-26T09:41:24Z</time>
      </trkpt>
      <trkpt lat="47.81272" lon="6.85791">
        <ele>799.4</ele>
        <time>2021-06-26T09:41:26Z</time>
      </trkpt>
      <trkpt lat="47.81272" lon="6.85771">
        <ele>798.4</ele>
        <time>2021-06-26T09:41:27Z</time>
      </trkpt>
      <trkpt lat="47.81271" lon="6.85752">
        <ele>797.2</ele>
        <time>2021-06-26T09:41:28Z</time>
      </trkpt>
      <trkpt lat="47.81274" lon="6.85717">
        <ele>795.2</ele>
        <time>2021-06-26T09:41:30Z</time>
      </trkpt>
      <trkpt lat="47.81279" lon="6.85682">
        <ele>793.4</ele>
        <time>2021-06-26T09:41:32Z</time>
      </trkpt>
      <trkpt lat="47.81282" lon="6.85667">
        <ele>791.4</ele>
        <time>2021-06-26T09:41:33Z</time>
      </trkpt>
      <trkpt lat="47.81288" lon="6.85655">
        <ele>790.8</ele>
        <time>2021-06-26T09:41:34Z</time>
      </trkpt>
      <trkpt lat="47.81294" lon="6.85643">
        <ele>789.8</ele>
        <time>2021-06-26T09:41:35Z</time>
      </trkpt>
      <trkpt lat="47.81299" lon="6.85631">
        <ele>789.2</ele>
        <time>2021-06-26T09:41:36Z</time>
      </trkpt>
      <trkpt lat="47.81302" lon="6.85617">
        <ele>787.8</ele>
        <time>2021-06-26T09:41:37Z</time>
      </trkpt>
      <trkpt lat="47.81303" lon="6.85603">
        <ele>787.4</ele>
        <time>2021-06-26T09:41:38Z</time>
      </trkpt>
      <trkpt lat="47.81304" lon="6.85587">
        <ele>786</ele>
        <time>2021-06-26T09:41:39Z</time>
      </trkpt>
      <trkpt lat="47.81307" lon="6.85555">
        <ele>784</ele>
        <time>2021-06-26T09:41:41Z</time>
      </trkpt>
      <trkpt lat="47.81309" lon="6.8554">
        <ele>782.4</ele>
        <time>2021-06-26T09:41:42Z</time>
      </trkpt>
      <trkpt lat="47.81311" lon="6.85524">
        <ele>781.8</ele>
        <time>2021-06-26T09:41:43Z</time>
      </trkpt>
      <trkpt lat="47.81313" lon="6.85506">
        <ele>780.8</ele>
        <time>2021-06-26T09:41:44Z</time>
      </trkpt>
      <trkpt lat="47.81316" lon="6.85473">
        <ele>779</ele>
        <time>2021-06-26T09:41:46Z</time>
      </trkpt>
      <trkpt lat="47.81319" lon="6.85457">
        <ele>778.4</ele>
        <time>2021-06-26T09:41:47Z</time>
      </trkpt>
      <trkpt lat="47.81323" lon="6.85446">
        <ele>777.4</ele>
        <time>2021-06-26T09:41:48Z</time>
      </trkpt>
      <trkpt lat="47.81337" lon="6.85414">
        <ele>775</ele>
        <time>2021-06-26T09:41:50Z</time>
      </trkpt>
      <trkpt lat="47.81344" lon="6.854">
        <ele>774.4</ele>
        <time>2021-06-26T09:41:51Z</time>
      </trkpt>
      <trkpt lat="47.81353" lon="6.85389">
        <ele>772.8</ele>
        <time>2021-06-26T09:41:52Z</time>
      </trkpt>
      <trkpt lat="47.81362" lon="6.85379">
        <ele>771.4</ele>
        <time>2021-06-26T09:41:53Z</time>
      </trkpt>
      <trkpt lat="47.81381" lon="6.85364">
        <ele>769.4</ele>
        <time>2021-06-26T09:41:55Z</time>
      </trkpt>
      <trkpt lat="47.81401" lon="6.85347">
        <ele>767.2</ele>
        <time>2021-06-26T09:41:57Z</time>
      </trkpt>
      <trkpt lat="47.81411" lon="6.85339">
        <ele>766.6</ele>
        <time>2021-06-26T09:41:58Z</time>
      </trkpt>
      <trkpt lat="47.81422" lon="6.85333">
        <ele>765.2</ele>
        <time>2021-06-26T09:41:59Z</time>
      </trkpt>
      <trkpt lat="47.81433" lon="6.8533">
        <ele>764.4</ele>
        <time>2021-06-26T09:42:00Z</time>
      </trkpt>
      <trkpt lat="47.81444" lon="6.85328">
        <ele>763.2</ele>
        <time>2021-06-26T09:42:01Z</time>
      </trkpt>
      <trkpt lat="47.81454" lon="6.85325">
        <ele>762.4</ele>
        <time>2021-06-26T09:42:02Z</time>
      </trkpt>
      <trkpt lat="47.81464" lon="6.8532">
        <ele>761.2</ele>
        <time>2021-06-26T09:42:03Z</time>
      </trkpt>
      <trkpt lat="47.81474" lon="6.85315">
        <ele>759.6</ele>
        <time>2021-06-26T09:42:04Z</time>
      </trkpt>
      <trkpt lat="47.81493" lon="6.85301">
        <ele>757.4</ele>
        <time>2021-06-26T09:42:06Z</time>
      </trkpt>
      <trkpt lat="47.81502" lon="6.85291">
        <ele>756.8</ele>
        <time>2021-06-26T09:42:07Z</time>
      </trkpt>
      <trkpt lat="47.81508" lon="6.85279">
        <ele>755.4</ele>
        <time>2021-06-26T09:42:08Z</time>
      </trkpt>
      <trkpt lat="47.81516" lon="6.85267">
        <ele>754.8</ele>
        <time>2021-06-26T09:42:09Z</time>
      </trkpt>
      <trkpt lat="47.81524" lon="6.85258">
        <ele>754.2</ele>
        <time>2021-06-26T09:42:10Z</time>
      </trkpt>
      <trkpt lat="47.81534" lon="6.85253">
        <ele>753.8</ele>
        <time>2021-06-26T09:42:11Z</time>
      </trkpt>
      <trkpt lat="47.81543" lon="6.85249">
        <ele>752.8</ele>
        <time>2021-06-26T09:42:12Z</time>
      </trkpt>
      <trkpt lat="47.81564" lon="6.85243">
        <ele>751.2</ele>
        <time>2021-06-26T09:42:14Z</time>
      </trkpt>
      <trkpt lat="47.81574" lon="6.8524">
        <ele>750.2</ele>
        <time>2021-06-26T09:42:15Z</time>
      </trkpt>
      <trkpt lat="47.81584" lon="6.85239">
        <ele>749.8</ele>
        <time>2021-06-26T09:42:16Z</time>
      </trkpt>
      <trkpt lat="47.81593" lon="6.85242">
        <ele>748.8</ele>
        <time>2021-06-26T09:42:17Z</time>
      </trkpt>
      <trkpt lat="47.81611" lon="6.85254">
        <ele>746.8</ele>
        <time>2021-06-26T09:42:19Z</time>
      </trkpt>
      <trkpt lat="47.81625" lon="6.85275">
        <ele>745.4</ele>
        <time>2021-06-26T09:42:21Z</time>
      </trkpt>
      <trkpt lat="47.81631" lon="6.85287">
        <ele>745.2</ele>
        <time>2021-06-26T09:42:22Z</time>
      </trkpt>
      <trkpt lat="47.81642" lon="6.85315">
        <ele>744</ele>
        <time>2021-06-26T09:42:24Z</time>
      </trkpt>
      <trkpt lat="47.81652" lon="6.85344">
        <ele>742.2</ele>
        <time>2021-06-26T09:42:26Z</time>
      </trkpt>
      <trkpt lat="47.81665" lon="6.85367">
        <ele>740.2</ele>
        <time>2021-06-26T09:42:28Z</time>
      </trkpt>
      <trkpt lat="47.81679" lon="6.85383">
        <ele>738.4</ele>
        <time>2021-06-26T09:42:30Z</time>
      </trkpt>
      <trkpt lat="47.81682" lon="6.85396">
        <ele>737.8</ele>
        <time>2021-06-26T09:42:31Z</time>
      </trkpt>
      <trkpt lat="47.81681" lon="6.85404">
        <ele>736.4</ele>
        <time>2021-06-26T09:42:32Z</time>
      </trkpt>
      <trkpt lat="47.81678" lon="6.85413">
        <ele>735.4</ele>
        <time>2021-06-26T09:42:33Z</time>
      </trkpt>
      <trkpt lat="47.81674" lon="6.85422">
        <ele>735</ele>
        <time>2021-06-26T09:42:34Z</time>
      </trkpt>
      <trkpt lat="47.81671" lon="6.85432">
        <ele>734.6</ele>
        <time>2021-06-26T09:42:35Z</time>
      </trkpt>
      <trkpt lat="47.8167" lon="6.85445">
        <ele>734.2</ele>
        <time>2021-06-26T09:42:36Z</time>
      </trkpt>
      <trkpt lat="47.8167" lon="6.85458">
        <ele>733.4</ele>
        <time>2021-06-26T09:42:37Z</time>
      </trkpt>
      <trkpt lat="47.8167" lon="6.85486">
        <ele>732.2</ele>
        <time>2021-06-26T09:42:39Z</time>
      </trkpt>
      <trkpt lat="47.8167" lon="6.85501">
        <ele>732</ele>
        <time>2021-06-26T09:42:40Z</time>
      </trkpt>
      <trkpt lat="47.81668" lon="6.85515">
        <ele>730.8</ele>
        <time>2021-06-26T09:42:41Z</time>
      </trkpt>
      <trkpt lat="47.81664" lon="6.85529">
        <ele>730.4</ele>
        <time>2021-06-26T09:42:42Z</time>
      </trkpt>
      <trkpt lat="47.81659" lon="6.85544">
        <ele>729.4</ele>
        <time>2021-06-26T09:42:43Z</time>
      </trkpt>
      <trkpt lat="47.81654" lon="6.85559">
        <ele>728</ele>
        <time>2021-06-26T09:42:44Z</time>
      </trkpt>
      <trkpt lat="47.81645" lon="6.85589">
        <ele>726</ele>
        <time>2021-06-26T09:42:46Z</time>
      </trkpt>
      <trkpt lat="47.81638" lon="6.85619">
        <ele>724.4</ele>
        <time>2021-06-26T09:42:48Z</time>
      </trkpt>
      <trkpt lat="47.81631" lon="6.85638">
        <ele>723.6</ele>
        <time>2021-06-26T09:42:49Z</time>
      </trkpt>
      <trkpt lat="47.81625" lon="6.85652">
        <ele>721.6</ele>
        <time>2021-06-26T09:42:50Z</time>
      </trkpt>
      <trkpt lat="47.81618" lon="6.85666">
        <ele>720.8</ele>
        <time>2021-06-26T09:42:51Z</time>
      </trkpt>
      <trkpt lat="47.81612" lon="6.85677">
        <ele>719.8</ele>
        <time>2021-06-26T09:42:52Z</time>
      </trkpt>
      <trkpt lat="47.81599" lon="6.85705">
        <ele>718</ele>
        <time>2021-06-26T09:42:54Z</time>
      </trkpt>
      <trkpt lat="47.81588" lon="6.85735">
        <ele>716.2</ele>
        <time>2021-06-26T09:42:56Z</time>
      </trkpt>
      <trkpt lat="47.81585" lon="6.8575">
        <ele>714.6</ele>
        <time>2021-06-26T09:42:57Z</time>
      </trkpt>
      <trkpt lat="47.81577" lon="6.85781">
        <ele>712.2</ele>
        <time>2021-06-26T09:42:59Z</time>
      </trkpt>
      <trkpt lat="47.81566" lon="6.8581">
        <ele>710</ele>
        <time>2021-06-26T09:43:01Z</time>
      </trkpt>
      <trkpt lat="47.8156" lon="6.85824">
        <ele>709.4</ele>
        <time>2021-06-26T09:43:02Z</time>
      </trkpt>
      <trkpt lat="47.81556" lon="6.8584">
        <ele>708.4</ele>
        <time>2021-06-26T09:43:03Z</time>
      </trkpt>
      <trkpt lat="47.81554" lon="6.85856">
        <ele>707.4</ele>
        <time>2021-06-26T09:43:04Z</time>
      </trkpt>
      <trkpt lat="47.81552" lon="6.85872">
        <ele>706.2</ele>
        <time>2021-06-26T09:43:05Z</time>
      </trkpt>
      <trkpt lat="47.81551" lon="6.85889">
        <ele>704.2</ele>
        <time>2021-06-26T09:43:06Z</time>
      </trkpt>
      <trkpt lat="47.81551" lon="6.85905">
        <ele>703.8</ele>
        <time>2021-06-26T09:43:07Z</time>
      </trkpt>
      <trkpt lat="47.81549" lon="6.85919">
        <ele>702.4</ele>
        <time>2021-06-26T09:43:08Z</time>
      </trkpt>
      <trkpt lat="47.81545" lon="6.85932">
        <ele>701.4</ele>
        <time>2021-06-26T09:43:09Z</time>
      </trkpt>
      <trkpt lat="47.81539" lon="6.85942">
        <ele>699.8</ele>
        <time>2021-06-26T09:43:10Z</time>
      </trkpt>
      <trkpt lat="47.81529" lon="6.85965">
        <ele>697.8</ele>
        <time>2021-06-26T09:43:12Z</time>
      </trkpt>
      <trkpt lat="47.81526" lon="6.85979">
        <ele>697.4</ele>
        <time>2021-06-26T09:43:13Z</time>
      </trkpt>
      <trkpt lat="47.81524" lon="6.85994">
        <ele>696.2</ele>
        <time>2021-06-26T09:43:14Z</time>
      </trkpt>
      <trkpt lat="47.8152" lon="6.86025">
        <ele>694.8</ele>
        <time>2021-06-26T09:43:16Z</time>
      </trkpt>
      <trkpt lat="47.81518" lon="6.86039">
        <ele>693.6</ele>
        <time>2021-06-26T09:43:17Z</time>
      </trkpt>
      <trkpt lat="47.81515" lon="6.86053">
        <ele>692.8</ele>
        <time>2021-06-26T09:43:18Z</time>
      </trkpt>
      <trkpt lat="47.81511" lon="6.86065">
        <ele>691</ele>
        <time>2021-06-26T09:43:19Z</time>
      </trkpt>
      <trkpt lat="47.81504" lon="6.86074">
        <ele>690.4</ele>
        <time>2021-06-26T09:43:20Z</time>
      </trkpt>
      <trkpt lat="47.81497" lon="6.86081">
        <ele>689</ele>
        <time>2021-06-26T09:43:21Z</time>
      </trkpt>
      <trkpt lat="47.81489" lon="6.86084">
        <ele>687.8</ele>
        <time>2021-06-26T09:43:22Z</time>
      </trkpt>
      <trkpt lat="47.81481" lon="6.86086">
        <ele>686.6</ele>
        <time>2021-06-26T09:43:23Z</time>
      </trkpt>
      <trkpt lat="47.81474" lon="6.86089">
        <ele>685.4</ele>
        <time>2021-06-26T09:43:24Z</time>
      </trkpt>
      <trkpt lat="47.81469" lon="6.86095">
        <ele>685</ele>
        <time>2021-06-26T09:43:25Z</time>
      </trkpt>
      <trkpt lat="47.81466" lon="6.86103">
        <ele>684.6</ele>
        <time>2021-06-26T09:43:26Z</time>
      </trkpt>
      <trkpt lat="47.81464" lon="6.8611">
        <ele>684.4</ele>
        <time>2021-06-26T09:43:27Z</time>
      </trkpt>
      <trkpt lat="47.81463" lon="6.86116">
        <ele>684.2</ele>
        <time>2021-06-26T09:43:28Z</time>
      </trkpt>
      <trkpt lat="47.81463" lon="6.86134">
        <ele>683.8</ele>
        <time>2021-06-26T09:43:32Z</time>
      </trkpt>
      <trkpt lat="47.81459" lon="6.8616">
        <ele>683.6</ele>
        <time>2021-06-26T09:43:37Z</time>
      </trkpt>
      <trkpt lat="47.81455" lon="6.86173">
        <ele>683.2</ele>
        <time>2021-06-26T09:43:39Z</time>
      </trkpt>
      <trkpt lat="47.81453" lon="6.86189">
        <ele>682.8</ele>
        <time>2021-06-26T09:43:41Z</time>
      </trkpt>
      <trkpt lat="47.81453" lon="6.86196">
        <ele>682.4</ele>
        <time>2021-06-26T09:43:42Z</time>
      </trkpt>
      <trkpt lat="47.81453" lon="6.86203">
        <ele>682</ele>
        <time>2021-06-26T09:43:43Z</time>
      </trkpt>
      <trkpt lat="47.81457" lon="6.86218">
        <ele>681</ele>
        <time>2021-06-26T09:43:45Z</time>
      </trkpt>
      <trkpt lat="47.8146" lon="6.86238">
        <ele>680</ele>
        <time>2021-06-26T09:43:47Z</time>
      </trkpt>
      <trkpt lat="47.81461" lon="6.86248">
        <ele>679.6</ele>
        <time>2021-06-26T09:43:48Z</time>
      </trkpt>
      <trkpt lat="47.81464" lon="6.86266">
        <ele>678.6</ele>
        <time>2021-06-26T09:43:50Z</time>
      </trkpt>
      <trkpt lat="47.81468" lon="6.86276">
        <ele>678.2</ele>
        <time>2021-06-26T09:43:51Z</time>
      </trkpt>
      <trkpt lat="47.81472" lon="6.86285">
        <ele>677.2</ele>
        <time>2021-06-26T09:43:52Z</time>
      </trkpt>
      <trkpt lat="47.81477" lon="6.86295">
        <ele>676.8</ele>
        <time>2021-06-26T09:43:53Z</time>
      </trkpt>
      <trkpt lat="47.8149" lon="6.86314">
        <ele>675.2</ele>
        <time>2021-06-26T09:43:55Z</time>
      </trkpt>
      <trkpt lat="47.81504" lon="6.86333">
        <ele>674</ele>
        <time>2021-06-26T09:43:57Z</time>
      </trkpt>
      <trkpt lat="47.81517" lon="6.86355">
        <ele>672.8</ele>
        <time>2021-06-26T09:43:59Z</time>
      </trkpt>
      <trkpt lat="47.81533" lon="6.86377">
        <ele>671.6</ele>
        <time>2021-06-26T09:44:01Z</time>
      </trkpt>
      <trkpt lat="47.81548" lon="6.86401">
        <ele>670.2</ele>
        <time>2021-06-26T09:44:03Z</time>
      </trkpt>
      <trkpt lat="47.81562" lon="6.86429">
        <ele>668.4</ele>
        <time>2021-06-26T09:44:05Z</time>
      </trkpt>
      <trkpt lat="47.81576" lon="6.86457">
        <ele>667</ele>
        <time>2021-06-26T09:44:07Z</time>
      </trkpt>
      <trkpt lat="47.81584" lon="6.8647">
        <ele>665.8</ele>
        <time>2021-06-26T09:44:08Z</time>
      </trkpt>
      <trkpt lat="47.816" lon="6.86497">
        <ele>663.8</ele>
        <time>2021-06-26T09:44:10Z</time>
      </trkpt>
      <trkpt lat="47.81616" lon="6.86525">
        <ele>662.2</ele>
        <time>2021-06-26T09:44:12Z</time>
      </trkpt>
      <trkpt lat="47.8162" lon="6.86541">
        <ele>661.2</ele>
        <time>2021-06-26T09:44:13Z</time>
      </trkpt>
      <trkpt lat="47.81623" lon="6.86558">
        <ele>659.4</ele>
        <time>2021-06-26T09:44:14Z</time>
      </trkpt>
      <trkpt lat="47.81623" lon="6.86574">
        <ele>658</ele>
        <time>2021-06-26T09:44:15Z</time>
      </trkpt>
      <trkpt lat="47.81622" lon="6.86588">
        <ele>657.2</ele>
        <time>2021-06-26T09:44:16Z</time>
      </trkpt>
      <trkpt lat="47.81618" lon="6.86602">
        <ele>655.6</ele>
        <time>2021-06-26T09:44:17Z</time>
      </trkpt>
      <trkpt lat="47.81611" lon="6.86632">
        <ele>653.2</ele>
        <time>2021-06-26T09:44:19Z</time>
      </trkpt>
      <trkpt lat="47.81613" lon="6.86663">
        <ele>651.6</ele>
        <time>2021-06-26T09:44:21Z</time>
      </trkpt>
      <trkpt lat="47.81618" lon="6.86677">
        <ele>651</ele>
        <time>2021-06-26T09:44:22Z</time>
      </trkpt>
      <trkpt lat="47.81625" lon="6.86691">
        <ele>649.2</ele>
        <time>2021-06-26T09:44:23Z</time>
      </trkpt>
      <trkpt lat="47.81637" lon="6.86717">
        <ele>647.2</ele>
        <time>2021-06-26T09:44:25Z</time>
      </trkpt>
      <trkpt lat="47.81642" lon="6.86731">
        <ele>645.6</ele>
        <time>2021-06-26T09:44:26Z</time>
      </trkpt>
      <trkpt lat="47.81645" lon="6.86745">
        <ele>645.2</ele>
        <time>2021-06-26T09:44:27Z</time>
      </trkpt>
      <trkpt lat="47.81649" lon="6.86761">
        <ele>644</ele>
        <time>2021-06-26T09:44:28Z</time>
      </trkpt>
      <trkpt lat="47.81654" lon="6.86791">
        <ele>642</ele>
        <time>2021-06-26T09:44:30Z</time>
      </trkpt>
      <trkpt lat="47.81658" lon="6.86822">
        <ele>640</ele>
        <time>2021-06-26T09:44:32Z</time>
      </trkpt>
      <trkpt lat="47.8166" lon="6.86839">
        <ele>639.2</ele>
        <time>2021-06-26T09:44:33Z</time>
      </trkpt>
      <trkpt lat="47.81661" lon="6.86855">
        <ele>637.8</ele>
        <time>2021-06-26T09:44:34Z</time>
      </trkpt>
      <trkpt lat="47.81662" lon="6.86872">
        <ele>636.4</ele>
        <time>2021-06-26T09:44:35Z</time>
      </trkpt>
      <trkpt lat="47.81662" lon="6.86888">
        <ele>635.6</ele>
        <time>2021-06-26T09:44:36Z</time>
      </trkpt>
      <trkpt lat="47.81661" lon="6.86904">
        <ele>634.2</ele>
        <time>2021-06-26T09:44:37Z</time>
      </trkpt>
      <trkpt lat="47.81658" lon="6.8692">
        <ele>633.6</ele>
        <time>2021-06-26T09:44:38Z</time>
      </trkpt>
      <trkpt lat="47.81654" lon="6.86935">
        <ele>631.6</ele>
        <time>2021-06-26T09:44:39Z</time>
      </trkpt>
      <trkpt lat="47.81649" lon="6.86949">
        <ele>630.8</ele>
        <time>2021-06-26T09:44:40Z</time>
      </trkpt>
      <trkpt lat="47.81642" lon="6.86962">
        <ele>629.6</ele>
        <time>2021-06-26T09:44:41Z</time>
      </trkpt>
      <trkpt lat="47.81634" lon="6.86973">
        <ele>629</ele>
        <time>2021-06-26T09:44:42Z</time>
      </trkpt>
      <trkpt lat="47.81627" lon="6.86984">
        <ele>628</ele>
        <time>2021-06-26T09:44:43Z</time>
      </trkpt>
      <trkpt lat="47.81622" lon="6.86996">
        <ele>627.4</ele>
        <time>2021-06-26T09:44:44Z</time>
      </trkpt>
      <trkpt lat="47.8162" lon="6.87008">
        <ele>625.8</ele>
        <time>2021-06-26T09:44:45Z</time>
      </trkpt>
      <trkpt lat="47.81619" lon="6.8702">
        <ele>625</ele>
        <time>2021-06-26T09:44:46Z</time>
      </trkpt>
      <trkpt lat="47.81619" lon="6.87031">
        <ele>624.6</ele>
        <time>2021-06-26T09:44:47Z</time>
      </trkpt>
      <trkpt lat="47.81619" lon="6.87041">
        <ele>624</ele>
        <time>2021-06-26T09:44:48Z</time>
      </trkpt>
      <trkpt lat="47.81618" lon="6.87088">
        <ele>623.6</ele>
        <time>2021-06-26T09:44:53Z</time>
      </trkpt>
      <trkpt lat="47.81616" lon="6.87106">
        <ele>623.6</ele>
        <time>2021-06-26T09:44:55Z</time>
      </trkpt>
      <trkpt lat="47.81611" lon="6.87122">
        <ele>623.6</ele>
        <time>2021-06-26T09:44:57Z</time>
      </trkpt>
      <trkpt lat="47.81608" lon="6.87129">
        <ele>623.4</ele>
        <time>2021-06-26T09:44:58Z</time>
      </trkpt>
      <trkpt lat="47.81601" lon="6.87142">
        <ele>623.4</ele>
        <time>2021-06-26T09:45:00Z</time>
      </trkpt>
      <trkpt lat="47.81594" lon="6.87153">
        <ele>623.2</ele>
        <time>2021-06-26T09:45:02Z</time>
      </trkpt>
      <trkpt lat="47.81587" lon="6.87165">
        <ele>623</ele>
        <time>2021-06-26T09:45:04Z</time>
      </trkpt>
      <trkpt lat="47.8158" lon="6.87179">
        <ele>622.8</ele>
        <time>2021-06-26T09:45:06Z</time>
      </trkpt>
      <trkpt lat="47.81577" lon="6.87186">
        <ele>622.8</ele>
        <time>2021-06-26T09:45:07Z</time>
      </trkpt>
      <trkpt lat="47.81571" lon="6.872">
        <ele>622.4</ele>
        <time>2021-06-26T09:45:09Z</time>
      </trkpt>
      <trkpt lat="47.81565" lon="6.87217">
        <ele>622.2</ele>
        <time>2021-06-26T09:45:11Z</time>
      </trkpt>
      <trkpt lat="47.81561" lon="6.87236">
        <ele>622</ele>
        <time>2021-06-26T09:45:13Z</time>
      </trkpt>
      <trkpt lat="47.81555" lon="6.87264">
        <ele>621.4</ele>
        <time>2021-06-26T09:45:16Z</time>
      </trkpt>
      <trkpt lat="47.81552" lon="6.8728">
        <ele>620.2</ele>
        <time>2021-06-26T09:45:18Z</time>
      </trkpt>
      <trkpt lat="47.81549" lon="6.87286">
        <ele>619.8</ele>
        <time>2021-06-26T09:45:19Z</time>
      </trkpt>
      <trkpt lat="47.81545" lon="6.87297">
        <ele>619.2</ele>
        <time>2021-06-26T09:45:21Z</time>
      </trkpt>
      <trkpt lat="47.81541" lon="6.87305">
        <ele>618.2</ele>
        <time>2021-06-26T09:45:23Z</time>
      </trkpt>
      <trkpt lat="47.8154" lon="6.8731">
        <ele>617.8</ele>
        <time>2021-06-26T09:45:24Z</time>
      </trkpt>
      <trkpt lat="47.81527" lon="6.87332">
        <ele>617</ele>
        <time>2021-06-26T09:45:28Z</time>
      </trkpt>
      <trkpt lat="47.81519" lon="6.87343">
        <ele>616.6</ele>
        <time>2021-06-26T09:45:30Z</time>
      </trkpt>
      <trkpt lat="47.81511" lon="6.87353">
        <ele>616.2</ele>
        <time>2021-06-26T09:45:32Z</time>
      </trkpt>
      <trkpt lat="47.81505" lon="6.87369">
        <ele>615.8</ele>
        <time>2021-06-26T09:45:34Z</time>
      </trkpt>
      <trkpt lat="47.81504" lon="6.87377">
        <ele>615.8</ele>
        <time>2021-06-26T09:45:35Z</time>
      </trkpt>
      <trkpt lat="47.81505" lon="6.87385">
        <ele>615.6</ele>
        <time>2021-06-26T09:45:36Z</time>
      </trkpt>
      <trkpt lat="47.81511" lon="6.87401">
        <ele>614.4</ele>
        <time>2021-06-26T09:45:38Z</time>
      </trkpt>
      <trkpt lat="47.81522" lon="6.87409">
        <ele>614</ele>
        <time>2021-06-26T09:45:40Z</time>
      </trkpt>
      <trkpt lat="47.81528" lon="6.87411">
        <ele>613.8</ele>
        <time>2021-06-26T09:45:41Z</time>
      </trkpt>
      <trkpt lat="47.81534" lon="6.87411">
        <ele>613.6</ele>
        <time>2021-06-26T09:45:42Z</time>
      </trkpt>
      <trkpt lat="47.8154" lon="6.87409">
        <ele>613</ele>
        <time>2021-06-26T09:45:43Z</time>
      </trkpt>
      <trkpt lat="47.81547" lon="6.87406">
        <ele>612.8</ele>
        <time>2021-06-26T09:45:44Z</time>
      </trkpt>
      <trkpt lat="47.81558" lon="6.87394">
        <ele>612.4</ele>
        <time>2021-06-26T09:45:46Z</time>
      </trkpt>
      <trkpt lat="47.81563" lon="6.87386">
        <ele>612.4</ele>
        <time>2021-06-26T09:45:47Z</time>
      </trkpt>
      <trkpt lat="47.81573" lon="6.87372">
        <ele>612.4</ele>
        <time>2021-06-26T09:45:49Z</time>
      </trkpt>
      <trkpt lat="47.81578" lon="6.87368">
        <ele>612</ele>
        <time>2021-06-26T09:45:50Z</time>
      </trkpt>
      <trkpt lat="47.81585" lon="6.87366">
        <ele>612</ele>
        <time>2021-06-26T09:45:51Z</time>
      </trkpt>
      <trkpt lat="47.81608" lon="6.87374">
        <ele>611</ele>
        <time>2021-06-26T09:45:54Z</time>
      </trkpt>
      <trkpt lat="47.81616" lon="6.87378">
        <ele>610.6</ele>
        <time>2021-06-26T09:45:55Z</time>
      </trkpt>
      <trkpt lat="47.81633" lon="6.87386">
        <ele>609.8</ele>
        <time>2021-06-26T09:45:57Z</time>
      </trkpt>
      <trkpt lat="47.81648" lon="6.87394">
        <ele>608</ele>
        <time>2021-06-26T09:45:59Z</time>
      </trkpt>
      <trkpt lat="47.81658" lon="6.87414">
        <ele>606.2</ele>
        <time>2021-06-26T09:46:01Z</time>
      </trkpt>
      <trkpt lat="47.81661" lon="6.87425">
        <ele>605</ele>
        <time>2021-06-26T09:46:02Z</time>
      </trkpt>
      <trkpt lat="47.81662" lon="6.87435">
        <ele>604.6</ele>
        <time>2021-06-26T09:46:03Z</time>
      </trkpt>
      <trkpt lat="47.81662" lon="6.87447">
        <ele>603.8</ele>
        <time>2021-06-26T09:46:04Z</time>
      </trkpt>
      <trkpt lat="47.81662" lon="6.87457">
        <ele>603.2</ele>
        <time>2021-06-26T09:46:05Z</time>
      </trkpt>
      <trkpt lat="47.81666" lon="6.87468">
        <ele>602.4</ele>
        <time>2021-06-26T09:46:06Z</time>
      </trkpt>
      <trkpt lat="47.81671" lon="6.87474">
        <ele>601.8</ele>
        <time>2021-06-26T09:46:07Z</time>
      </trkpt>
      <trkpt lat="47.81676" lon="6.8748">
        <ele>601</ele>
        <time>2021-06-26T09:46:08Z</time>
      </trkpt>
      <trkpt lat="47.81681" lon="6.87483">
        <ele>600.8</ele>
        <time>2021-06-26T09:46:09Z</time>
      </trkpt>
      <trkpt lat="47.81695" lon="6.87483">
        <ele>599.6</ele>
        <time>2021-06-26T09:46:11Z</time>
      </trkpt>
      <trkpt lat="47.81708" lon="6.87482">
        <ele>598.6</ele>
        <time>2021-06-26T09:46:13Z</time>
      </trkpt>
      <trkpt lat="47.81724" lon="6.87484">
        <ele>598</ele>
        <time>2021-06-26T09:46:16Z</time>
      </trkpt>
      <trkpt lat="47.81726" lon="6.8749">
        <ele>597.6</ele>
        <time>2021-06-26T09:46:17Z</time>
      </trkpt>
      <trkpt lat="47.81725" lon="6.87496">
        <ele>597.6</ele>
        <time>2021-06-26T09:46:18Z</time>
      </trkpt>
      <trkpt lat="47.81722" lon="6.875">
        <ele>597.4</ele>
        <time>2021-06-26T09:46:19Z</time>
      </trkpt>
      <trkpt lat="47.8171" lon="6.87506">
        <ele>597</ele>
        <time>2021-06-26T09:46:21Z</time>
      </trkpt>
      <trkpt lat="47.81703" lon="6.87504">
        <ele>596.4</ele>
        <time>2021-06-26T09:46:22Z</time>
      </trkpt>
      <trkpt lat="47.81691" lon="6.87501">
        <ele>595.2</ele>
        <time>2021-06-26T09:46:24Z</time>
      </trkpt>
      <trkpt lat="47.81682" lon="6.87505">
        <ele>594.2</ele>
        <time>2021-06-26T09:46:26Z</time>
      </trkpt>
      <trkpt lat="47.81679" lon="6.8751">
        <ele>594</ele>
        <time>2021-06-26T09:46:27Z</time>
      </trkpt>
      <trkpt lat="47.81676" lon="6.87516">
        <ele>593.4</ele>
        <time>2021-06-26T09:46:28Z</time>
      </trkpt>
      <trkpt lat="47.81671" lon="6.87529">
        <ele>593</ele>
        <time>2021-06-26T09:46:30Z</time>
      </trkpt>
      <trkpt lat="47.81661" lon="6.87544">
        <ele>592.4</ele>
        <time>2021-06-26T09:46:32Z</time>
      </trkpt>
      <trkpt lat="47.81656" lon="6.87549">
        <ele>591.8</ele>
        <time>2021-06-26T09:46:33Z</time>
      </trkpt>
      <trkpt lat="47.8165" lon="6.87551">
        <ele>591.2</ele>
        <time>2021-06-26T09:46:34Z</time>
      </trkpt>
      <trkpt lat="47.81642" lon="6.87552">
        <ele>590.4</ele>
        <time>2021-06-26T09:46:35Z</time>
      </trkpt>
      <trkpt lat="47.81634" lon="6.8755">
        <ele>590</ele>
        <time>2021-06-26T09:46:36Z</time>
      </trkpt>
      <trkpt lat="47.8162" lon="6.8754">
        <ele>589.2</ele>
        <time>2021-06-26T09:46:38Z</time>
      </trkpt>
      <trkpt lat="47.81613" lon="6.87534">
        <ele>588.6</ele>
        <time>2021-06-26T09:46:39Z</time>
      </trkpt>
      <trkpt lat="47.81605" lon="6.87531">
        <ele>588</ele>
        <time>2021-06-26T09:46:40Z</time>
      </trkpt>
      <trkpt lat="47.81597" lon="6.87532">
        <ele>587.4</ele>
        <time>2021-06-26T09:46:41Z</time>
      </trkpt>
      <trkpt lat="47.8159" lon="6.87536">
        <ele>586.6</ele>
        <time>2021-06-26T09:46:42Z</time>
      </trkpt>
      <trkpt lat="47.81581" lon="6.8754">
        <ele>586.4</ele>
        <time>2021-06-26T09:46:43Z</time>
      </trkpt>
      <trkpt lat="47.81573" lon="6.87543">
        <ele>585.6</ele>
        <time>2021-06-26T09:46:44Z</time>
      </trkpt>
      <trkpt lat="47.81566" lon="6.87543">
        <ele>585.2</ele>
        <time>2021-06-26T09:46:45Z</time>
      </trkpt>
      <trkpt lat="47.81557" lon="6.87542">
        <ele>584.4</ele>
        <time>2021-06-26T09:46:46Z</time>
      </trkpt>
      <trkpt lat="47.81543" lon="6.87542">
        <ele>583.4</ele>
        <time>2021-06-26T09:46:48Z</time>
      </trkpt>
      <trkpt lat="47.81538" lon="6.87545">
        <ele>582.6</ele>
        <time>2021-06-26T09:46:49Z</time>
      </trkpt>
      <trkpt lat="47.81534" lon="6.87551">
        <ele>582.4</ele>
        <time>2021-06-26T09:46:50Z</time>
      </trkpt>
      <trkpt lat="47.81534" lon="6.8756">
        <ele>581.8</ele>
        <time>2021-06-26T09:46:51Z</time>
      </trkpt>
      <trkpt lat="47.81537" lon="6.87568">
        <ele>581.6</ele>
        <time>2021-06-26T09:46:52Z</time>
      </trkpt>
      <trkpt lat="47.81543" lon="6.87576">
        <ele>581</ele>
        <time>2021-06-26T09:46:53Z</time>
      </trkpt>
      <trkpt lat="47.81556" lon="6.87589">
        <ele>580.2</ele>
        <time>2021-06-26T09:46:55Z</time>
      </trkpt>
      <trkpt lat="47.8156" lon="6.87596">
        <ele>579.8</ele>
        <time>2021-06-26T09:46:56Z</time>
      </trkpt>
      <trkpt lat="47.8156" lon="6.87604">
        <ele>579</ele>
        <time>2021-06-26T09:46:57Z</time>
      </trkpt>
      <trkpt lat="47.81556" lon="6.87611">
        <ele>578.4</ele>
        <time>2021-06-26T09:46:58Z</time>
      </trkpt>
      <trkpt lat="47.8155" lon="6.87614">
        <ele>578</ele>
        <time>2021-06-26T09:46:59Z</time>
      </trkpt>
      <trkpt lat="47.81543" lon="6.87617">
        <ele>576.8</ele>
        <time>2021-06-26T09:47:00Z</time>
      </trkpt>
      <trkpt lat="47.81537" lon="6.8762">
        <ele>576.4</ele>
        <time>2021-06-26T09:47:01Z</time>
      </trkpt>
      <trkpt lat="47.81531" lon="6.87625">
        <ele>575.6</ele>
        <time>2021-06-26T09:47:02Z</time>
      </trkpt>
      <trkpt lat="47.81526" lon="6.87633">
        <ele>575.2</ele>
        <time>2021-06-26T09:47:03Z</time>
      </trkpt>
      <trkpt lat="47.81524" lon="6.87643">
        <ele>574.6</ele>
        <time>2021-06-26T09:47:04Z</time>
      </trkpt>
      <trkpt lat="47.81524" lon="6.87653">
        <ele>574.2</ele>
        <time>2021-06-26T09:47:05Z</time>
      </trkpt>
      <trkpt lat="47.81527" lon="6.87661">
        <ele>573.8</ele>
        <time>2021-06-26T09:47:06Z</time>
      </trkpt>
      <trkpt lat="47.81532" lon="6.87665">
        <ele>573.4</ele>
        <time>2021-06-26T09:47:07Z</time>
      </trkpt>
      <trkpt lat="47.81538" lon="6.87663">
        <ele>573.2</ele>
        <time>2021-06-26T09:47:08Z</time>
      </trkpt>
      <trkpt lat="47.81544" lon="6.87657">
        <ele>572.4</ele>
        <time>2021-06-26T09:47:09Z</time>
      </trkpt>
      <trkpt lat="47.8155" lon="6.87649">
        <ele>572.2</ele>
        <time>2021-06-26T09:47:10Z</time>
      </trkpt>
      <trkpt lat="47.81557" lon="6.87643">
        <ele>571.6</ele>
        <time>2021-06-26T09:47:11Z</time>
      </trkpt>
      <trkpt lat="47.81564" lon="6.87639">
        <ele>571.2</ele>
        <time>2021-06-26T09:47:12Z</time>
      </trkpt>
      <trkpt lat="47.81573" lon="6.8764">
        <ele>570.4</ele>
        <time>2021-06-26T09:47:13Z</time>
      </trkpt>
      <trkpt lat="47.81581" lon="6.87642">
        <ele>570</ele>
        <time>2021-06-26T09:47:14Z</time>
      </trkpt>
      <trkpt lat="47.81588" lon="6.87645">
        <ele>569.4</ele>
        <time>2021-06-26T09:47:15Z</time>
      </trkpt>
      <trkpt lat="47.81594" lon="6.8765">
        <ele>568.8</ele>
        <time>2021-06-26T09:47:16Z</time>
      </trkpt>
      <trkpt lat="47.81597" lon="6.87658">
        <ele>568.4</ele>
        <time>2021-06-26T09:47:17Z</time>
      </trkpt>
      <trkpt lat="47.81597" lon="6.87668">
        <ele>567.4</ele>
        <time>2021-06-26T09:47:18Z</time>
      </trkpt>
      <trkpt lat="47.81594" lon="6.87677">
        <ele>567</ele>
        <time>2021-06-26T09:47:19Z</time>
      </trkpt>
      <trkpt lat="47.81589" lon="6.87685">
        <ele>566</ele>
        <time>2021-06-26T09:47:20Z</time>
      </trkpt>
      <trkpt lat="47.81582" lon="6.87692">
        <ele>565.6</ele>
        <time>2021-06-26T09:47:21Z</time>
      </trkpt>
      <trkpt lat="47.81575" lon="6.87697">
        <ele>565</ele>
        <time>2021-06-26T09:47:22Z</time>
      </trkpt>
      <trkpt lat="47.81567" lon="6.87701">
        <ele>564.4</ele>
        <time>2021-06-26T09:47:23Z</time>
      </trkpt>
      <trkpt lat="47.81559" lon="6.87705">
        <ele>563.6</ele>
        <time>2021-06-26T09:47:24Z</time>
      </trkpt>
      <trkpt lat="47.81542" lon="6.87714">
        <ele>562.6</ele>
        <time>2021-06-26T09:47:26Z</time>
      </trkpt>
      <trkpt lat="47.81533" lon="6.87716">
        <ele>562</ele>
        <time>2021-06-26T09:47:27Z</time>
      </trkpt>
      <trkpt lat="47.81524" lon="6.87717">
        <ele>561.4</ele>
        <time>2021-06-26T09:47:28Z</time>
      </trkpt>
      <trkpt lat="47.81515" lon="6.87717">
        <ele>560.4</ele>
        <time>2021-06-26T09:47:29Z</time>
      </trkpt>
      <trkpt lat="47.81506" lon="6.87719">
        <ele>559.8</ele>
        <time>2021-06-26T09:47:30Z</time>
      </trkpt>
      <trkpt lat="47.81497" lon="6.87723">
        <ele>558.8</ele>
        <time>2021-06-26T09:47:31Z</time>
      </trkpt>
      <trkpt lat="47.81487" lon="6.87726">
        <ele>558.6</ele>
        <time>2021-06-26T09:47:32Z</time>
      </trkpt>
      <trkpt lat="47.81468" lon="6.87728">
        <ele>556.8</ele>
        <time>2021-06-26T09:47:34Z</time>
      </trkpt>
      <trkpt lat="47.81449" lon="6.87727">
        <ele>555.2</ele>
        <time>2021-06-26T09:47:36Z</time>
      </trkpt>
      <trkpt lat="47.81428" lon="6.8773">
        <ele>554.2</ele>
        <time>2021-06-26T09:47:38Z</time>
      </trkpt>
      <trkpt lat="47.81407" lon="6.87734">
        <ele>553</ele>
        <time>2021-06-26T09:47:40Z</time>
      </trkpt>
      <trkpt lat="47.81389" lon="6.87748">
        <ele>552.2</ele>
        <time>2021-06-26T09:47:42Z</time>
      </trkpt>
      <trkpt lat="47.81382" lon="6.87759">
        <ele>551.6</ele>
        <time>2021-06-26T09:47:43Z</time>
      </trkpt>
      <trkpt lat="47.81376" lon="6.87771">
        <ele>551</ele>
        <time>2021-06-26T09:47:44Z</time>
      </trkpt>
      <trkpt lat="47.81372" lon="6.87786">
        <ele>550.4</ele>
        <time>2021-06-26T09:47:45Z</time>
      </trkpt>
      <trkpt lat="47.81365" lon="6.87816">
        <ele>549.2</ele>
        <time>2021-06-26T09:47:47Z</time>
      </trkpt>
      <trkpt lat="47.81357" lon="6.87847">
        <ele>548</ele>
        <time>2021-06-26T09:47:49Z</time>
      </trkpt>
      <trkpt lat="47.81353" lon="6.87877">
        <ele>546.2</ele>
        <time>2021-06-26T09:47:51Z</time>
      </trkpt>
      <trkpt lat="47.81354" lon="6.87914">
        <ele>545</ele>
        <time>2021-06-26T09:47:53Z</time>
      </trkpt>
      <trkpt lat="47.81355" lon="6.87932">
        <ele>543.8</ele>
        <time>2021-06-26T09:47:54Z</time>
      </trkpt>
      <trkpt lat="47.81359" lon="6.87967">
        <ele>541.8</ele>
        <time>2021-06-26T09:47:56Z</time>
      </trkpt>
      <trkpt lat="47.81366" lon="6.88002">
        <ele>539.6</ele>
        <time>2021-06-26T09:47:58Z</time>
      </trkpt>
      <trkpt lat="47.8137" lon="6.88019">
        <ele>539</ele>
        <time>2021-06-26T09:47:59Z</time>
      </trkpt>
      <trkpt lat="47.81372" lon="6.88037">
        <ele>537.4</ele>
        <time>2021-06-26T09:48:00Z</time>
      </trkpt>
      <trkpt lat="47.81374" lon="6.88055">
        <ele>536.4</ele>
        <time>2021-06-26T09:48:01Z</time>
      </trkpt>
      <trkpt lat="47.81374" lon="6.88074">
        <ele>535.8</ele>
        <time>2021-06-26T09:48:02Z</time>
      </trkpt>
      <trkpt lat="47.81374" lon="6.88092">
        <ele>533.2</ele>
        <time>2021-06-26T09:48:03Z</time>
      </trkpt>
      <trkpt lat="47.81372" lon="6.88128">
        <ele>530.6</ele>
        <time>2021-06-26T09:48:05Z</time>
      </trkpt>
      <trkpt lat="47.81368" lon="6.88162">
        <ele>528</ele>
        <time>2021-06-26T09:48:07Z</time>
      </trkpt>
      <trkpt lat="47.81362" lon="6.88193">
        <ele>526.2</ele>
        <time>2021-06-26T09:48:09Z</time>
      </trkpt>
      <trkpt lat="47.81353" lon="6.88222">
        <ele>524.8</ele>
        <time>2021-06-26T09:48:11Z</time>
      </trkpt>
      <trkpt lat="47.81344" lon="6.88248">
        <ele>524</ele>
        <time>2021-06-26T09:48:13Z</time>
      </trkpt>
      <trkpt lat="47.81341" lon="6.88262">
        <ele>523.4</ele>
        <time>2021-06-26T09:48:14Z</time>
      </trkpt>
      <trkpt lat="47.81339" lon="6.88277">
        <ele>523</ele>
        <time>2021-06-26T09:48:15Z</time>
      </trkpt>
      <trkpt lat="47.81336" lon="6.88306">
        <ele>521.8</ele>
        <time>2021-06-26T09:48:17Z</time>
      </trkpt>
      <trkpt lat="47.81336" lon="6.88327">
        <ele>520.4</ele>
        <time>2021-06-26T09:48:19Z</time>
      </trkpt>
      <trkpt lat="47.81337" lon="6.88335">
        <ele>520</ele>
        <time>2021-06-26T09:48:20Z</time>
      </trkpt>
      <trkpt lat="47.81339" lon="6.88346">
        <ele>519.6</ele>
        <time>2021-06-26T09:48:22Z</time>
      </trkpt>
      <trkpt lat="47.81339" lon="6.88352">
        <ele>519.2</ele>
        <time>2021-06-26T09:48:23Z</time>
      </trkpt>
      <trkpt lat="47.81339" lon="6.88367">
        <ele>518.8</ele>
        <time>2021-06-26T09:48:25Z</time>
      </trkpt>
      <trkpt lat="47.8134" lon="6.88375">
        <ele>518.4</ele>
        <time>2021-06-26T09:48:26Z</time>
      </trkpt>
      <trkpt lat="47.81342" lon="6.88396">
        <ele>518.2</ele>
        <time>2021-06-26T09:48:28Z</time>
      </trkpt>
      <trkpt lat="47.81347" lon="6.88431">
        <ele>517.6</ele>
        <time>2021-06-26T09:48:31Z</time>
      </trkpt>
      <trkpt lat="47.81348" lon="6.88444">
        <ele>516.8</ele>
        <time>2021-06-26T09:48:32Z</time>
      </trkpt>
      <trkpt lat="47.81348" lon="6.88469">
        <ele>516</ele>
        <time>2021-06-26T09:48:34Z</time>
      </trkpt>
      <trkpt lat="47.81348" lon="6.88482">
        <ele>515</ele>
        <time>2021-06-26T09:48:35Z</time>
      </trkpt>
      <trkpt lat="47.81347" lon="6.88496">
        <ele>514.6</ele>
        <time>2021-06-26T09:48:36Z</time>
      </trkpt>
      <trkpt lat="47.81345" lon="6.88509">
        <ele>513.8</ele>
        <time>2021-06-26T09:48:37Z</time>
      </trkpt>
      <trkpt lat="47.81342" lon="6.88521">
        <ele>513.4</ele>
        <time>2021-06-26T09:48:38Z</time>
      </trkpt>
      <trkpt lat="47.81339" lon="6.88532">
        <ele>511.8</ele>
        <time>2021-06-26T09:48:39Z</time>
      </trkpt>
      <trkpt lat="47.81333" lon="6.88546">
        <ele>511.4</ele>
        <time>2021-06-26T09:48:40Z</time>
      </trkpt>
      <trkpt lat="47.81325" lon="6.88565">
        <ele>510.8</ele>
        <time>2021-06-26T09:48:42Z</time>
      </trkpt>
      <trkpt lat="47.81312" lon="6.88597">
        <ele>509.8</ele>
        <time>2021-06-26T09:48:45Z</time>
      </trkpt>
      <trkpt lat="47.81305" lon="6.88618">
        <ele>508.6</ele>
        <time>2021-06-26T09:48:47Z</time>
      </trkpt>
      <trkpt lat="47.81303" lon="6.88629">
        <ele>508.4</ele>
        <time>2021-06-26T09:48:48Z</time>
      </trkpt>
      <trkpt lat="47.81293" lon="6.88659">
        <ele>507.6</ele>
        <time>2021-06-26T09:48:51Z</time>
      </trkpt>
      <trkpt lat="47.81284" lon="6.88676">
        <ele>506.8</ele>
        <time>2021-06-26T09:48:53Z</time>
      </trkpt>
      <trkpt lat="47.81268" lon="6.8871">
        <ele>506.4</ele>
        <time>2021-06-26T09:48:57Z</time>
      </trkpt>
      <trkpt lat="47.8126" lon="6.88725">
        <ele>506</ele>
        <time>2021-06-26T09:48:59Z</time>
      </trkpt>
      <trkpt lat="47.81255" lon="6.88733">
        <ele>506</ele>
        <time>2021-06-26T09:49:00Z</time>
      </trkpt>
      <trkpt lat="47.81247" lon="6.88747">
        <ele>505.4</ele>
        <time>2021-06-26T09:49:02Z</time>
      </trkpt>
      <trkpt lat="47.81243" lon="6.88755">
        <ele>505.2</ele>
        <time>2021-06-26T09:49:03Z</time>
      </trkpt>
      <trkpt lat="47.81237" lon="6.88792">
        <ele>505.2</ele>
        <time>2021-06-26T09:49:07Z</time>
      </trkpt>
      <trkpt lat="47.81234" lon="6.88821">
        <ele>505</ele>
        <time>2021-06-26T09:49:10Z</time>
      </trkpt>
      <trkpt lat="47.81227" lon="6.8884">
        <ele>504.6</ele>
        <time>2021-06-26T09:49:12Z</time>
      </trkpt>
      <trkpt lat="47.81222" lon="6.88848">
        <ele>504.2</ele>
        <time>2021-06-26T09:49:13Z</time>
      </trkpt>
      <trkpt lat="47.81213" lon="6.88874">
        <ele>503.8</ele>
        <time>2021-06-26T09:49:16Z</time>
      </trkpt>
      <trkpt lat="47.81209" lon="6.88893">
        <ele>503.4</ele>
        <time>2021-06-26T09:49:18Z</time>
      </trkpt>
      <trkpt lat="47.81206" lon="6.88912">
        <ele>503.2</ele>
        <time>2021-06-26T09:49:20Z</time>
      </trkpt>
      <trkpt lat="47.81198" lon="6.88958">
        <ele>503.4</ele>
        <time>2021-06-26T09:49:25Z</time>
      </trkpt>
      <trkpt lat="47.81192" lon="6.88974">
        <ele>503.6</ele>
        <time>2021-06-26T09:49:27Z</time>
      </trkpt>
      <trkpt lat="47.81187" lon="6.88989">
        <ele>503.8</ele>
        <time>2021-06-26T09:49:29Z</time>
      </trkpt>
      <trkpt lat="47.81179" lon="6.89016">
        <ele>504.2</ele>
        <time>2021-06-26T09:49:32Z</time>
      </trkpt>
      <trkpt lat="47.81177" lon="6.89026">
        <ele>504.2</ele>
        <time>2021-06-26T09:49:33Z</time>
      </trkpt>
      <trkpt lat="47.81176" lon="6.89035">
        <ele>504.2</ele>
        <time>2021-06-26T09:49:34Z</time>
      </trkpt>
      <trkpt lat="47.81171" lon="6.89091">
        <ele>504</ele>
        <time>2021-06-26T09:49:40Z</time>
      </trkpt>
      <trkpt lat="47.81167" lon="6.89138">
        <ele>503.6</ele>
        <time>2021-06-26T09:49:45Z</time>
      </trkpt>
      <trkpt lat="47.81167" lon="6.89154">
        <ele>503.6</ele>
        <time>2021-06-26T09:49:47Z</time>
      </trkpt>
      <trkpt lat="47.81164" lon="6.89198">
        <ele>503.6</ele>
        <time>2021-06-26T09:49:52Z</time>
      </trkpt>
      <trkpt lat="47.81163" lon="6.89213">
        <ele>503.6</ele>
        <time>2021-06-26T09:49:54Z</time>
      </trkpt>
      <trkpt lat="47.8116" lon="6.89219">
        <ele>503.6</ele>
        <time>2021-06-26T09:49:55Z</time>
      </trkpt>
      <trkpt lat="47.81145" lon="6.89235">
        <ele>503.8</ele>
        <time>2021-06-26T09:49:58Z</time>
      </trkpt>
      <trkpt lat="47.81135" lon="6.89253">
        <ele>504</ele>
        <time>2021-06-26T09:50:01Z</time>
      </trkpt>
      <trkpt lat="47.81125" lon="6.89272">
        <ele>504.2</ele>
        <time>2021-06-26T09:50:04Z</time>
      </trkpt>
      <trkpt lat="47.81113" lon="6.89306">
        <ele>504.2</ele>
        <time>2021-06-26T09:50:09Z</time>
      </trkpt>
      <trkpt lat="47.8111" lon="6.89321">
        <ele>504</ele>
        <time>2021-06-26T09:50:11Z</time>
      </trkpt>
      <trkpt lat="47.81104" lon="6.89361">
        <ele>504</ele>
        <time>2021-06-26T09:50:16Z</time>
      </trkpt>
      <trkpt lat="47.811" lon="6.89435">
        <ele>504.8</ele>
        <time>2021-06-26T09:50:25Z</time>
      </trkpt>
      <trkpt lat="47.81096" lon="6.89502">
        <ele>504.8</ele>
        <time>2021-06-26T09:50:33Z</time>
      </trkpt>
      <trkpt lat="47.81096" lon="6.8952">
        <ele>505.2</ele>
        <time>2021-06-26T09:50:35Z</time>
      </trkpt>
      <trkpt lat="47.81098" lon="6.89552">
        <ele>505.4</ele>
        <time>2021-06-26T09:50:39Z</time>
      </trkpt>
      <trkpt lat="47.81101" lon="6.89601">
        <ele>505.4</ele>
        <time>2021-06-26T09:50:45Z</time>
      </trkpt>
      <trkpt lat="47.81109" lon="6.89665">
        <ele>505</ele>
        <time>2021-06-26T09:50:53Z</time>
      </trkpt>
      <trkpt lat="47.8111" lon="6.89681">
        <ele>504.6</ele>
        <time>2021-06-26T09:50:55Z</time>
      </trkpt>
      <trkpt lat="47.8111" lon="6.89701">
        <ele>504.2</ele>
        <time>2021-06-26T09:50:57Z</time>
      </trkpt>
      <trkpt lat="47.81108" lon="6.89713">
        <ele>504</ele>
        <time>2021-06-26T09:50:58Z</time>
      </trkpt>
      <trkpt lat="47.81108" lon="6.89721">
        <ele>503.6</ele>
        <time>2021-06-26T09:50:59Z</time>
      </trkpt>
      <trkpt lat="47.81102" lon="6.89762">
        <ele>503</ele>
        <time>2021-06-26T09:51:03Z</time>
      </trkpt>
      <trkpt lat="47.81099" lon="6.8977">
        <ele>502.6</ele>
        <time>2021-06-26T09:51:04Z</time>
      </trkpt>
      <trkpt lat="47.81095" lon="6.89776">
        <ele>502.4</ele>
        <time>2021-06-26T09:51:05Z</time>
      </trkpt>
      <trkpt lat="47.81085" lon="6.89786">
        <ele>502</ele>
        <time>2021-06-26T09:51:07Z</time>
      </trkpt>
      <trkpt lat="47.8108" lon="6.89791">
        <ele>501.8</ele>
        <time>2021-06-26T09:51:08Z</time>
      </trkpt>
      <trkpt lat="47.81069" lon="6.898">
        <ele>501.6</ele>
        <time>2021-06-26T09:51:10Z</time>
      </trkpt>
      <trkpt lat="47.81064" lon="6.89804">
        <ele>501.6</ele>
        <time>2021-06-26T09:51:11Z</time>
      </trkpt>
      <trkpt lat="47.81053" lon="6.89813">
        <ele>501.4</ele>
        <time>2021-06-26T09:51:13Z</time>
      </trkpt>
      <trkpt lat="47.81048" lon="6.89819">
        <ele>501.4</ele>
        <time>2021-06-26T09:51:14Z</time>
      </trkpt>
      <trkpt lat="47.8104" lon="6.89833">
        <ele>501.4</ele>
        <time>2021-06-26T09:51:16Z</time>
      </trkpt>
      <trkpt lat="47.81037" lon="6.89842">
        <ele>501.6</ele>
        <time>2021-06-26T09:51:17Z</time>
      </trkpt>
      <trkpt lat="47.81036" lon="6.89849">
        <ele>501.6</ele>
        <time>2021-06-26T09:51:18Z</time>
      </trkpt>
      <trkpt lat="47.81028" lon="6.89873">
        <ele>501.6</ele>
        <time>2021-06-26T09:51:21Z</time>
      </trkpt>
      <trkpt lat="47.81025" lon="6.8988">
        <ele>501.8</ele>
        <time>2021-06-26T09:51:22Z</time>
      </trkpt>
      <trkpt lat="47.81021" lon="6.89886">
        <ele>501.8</ele>
        <time>2021-06-26T09:51:23Z</time>
      </trkpt>
      <trkpt lat="47.81014" lon="6.89901">
        <ele>501.8</ele>
        <time>2021-06-26T09:51:25Z</time>
      </trkpt>
      <trkpt lat="47.81009" lon="6.89906">
        <ele>501.8</ele>
        <time>2021-06-26T09:51:26Z</time>
      </trkpt>
      <trkpt lat="47.81001" lon="6.89915">
        <ele>501.6</ele>
        <time>2021-06-26T09:51:28Z</time>
      </trkpt>
      <trkpt lat="47.80989" lon="6.89933">
        <ele>501.6</ele>
        <time>2021-06-26T09:51:31Z</time>
      </trkpt>
      <trkpt lat="47.80984" lon="6.89948">
        <ele>501.6</ele>
        <time>2021-06-26T09:51:33Z</time>
      </trkpt>
      <trkpt lat="47.80981" lon="6.89964">
        <ele>501.6</ele>
        <time>2021-06-26T09:51:35Z</time>
      </trkpt>
      <trkpt lat="47.80976" lon="6.8998">
        <ele>501.6</ele>
        <time>2021-06-26T09:51:37Z</time>
      </trkpt>
      <trkpt lat="47.80973" lon="6.89997">
        <ele>501.6</ele>
        <time>2021-06-26T09:51:39Z</time>
      </trkpt>
      <trkpt lat="47.80971" lon="6.90004">
        <ele>501.8</ele>
        <time>2021-06-26T09:51:40Z</time>
      </trkpt>
      <trkpt lat="47.80966" lon="6.9002">
        <ele>502</ele>
        <time>2021-06-26T09:51:42Z</time>
      </trkpt>
      <trkpt lat="47.80956" lon="6.90033">
        <ele>502</ele>
        <time>2021-06-26T09:51:44Z</time>
      </trkpt>
      <trkpt lat="47.80952" lon="6.90039">
        <ele>502</ele>
        <time>2021-06-26T09:51:45Z</time>
      </trkpt>
      <trkpt lat="47.8092" lon="6.90081">
        <ele>501.8</ele>
        <time>2021-06-26T09:51:52Z</time>
      </trkpt>
      <trkpt lat="47.80915" lon="6.90086">
        <ele>501.8</ele>
        <time>2021-06-26T09:51:53Z</time>
      </trkpt>
      <trkpt lat="47.80902" lon="6.90101">
        <ele>501.8</ele>
        <time>2021-06-26T09:51:56Z</time>
      </trkpt>
      <trkpt lat="47.8089" lon="6.90111">
        <ele>501.8</ele>
        <time>2021-06-26T09:52:00Z</time>
      </trkpt>
      <trkpt lat="47.80886" lon="6.90115">
        <ele>502</ele>
        <time>2021-06-26T09:52:04Z</time>
      </trkpt>
      <trkpt lat="47.80886" lon="6.90114">
        <ele>501.8</ele>
        <time>2021-06-26T09:52:05Z</time>
      </trkpt>
      <trkpt lat="47.80886" lon="6.90114">
        <ele>501.8</ele>
        <time>2021-06-26T09:52:06Z</time>
      </trkpt>
      <trkpt lat="47.80885" lon="6.90116">
        <ele>501.4</ele>
        <time>2021-06-26T09:52:27Z</time>
      </trkpt>
      <trkpt lat="47.80878" lon="6.90123">
        <ele>501.4</ele>
        <time>2021-06-26T09:52:30Z</time>
      </trkpt>
      <trkpt lat="47.80858" lon="6.90147">
        <ele>501.2</ele>
        <time>2021-06-26T09:52:35Z</time>
      </trkpt>
      <trkpt lat="47.8085" lon="6.90154">
        <ele>501.2</ele>
        <time>2021-06-26T09:52:37Z</time>
      </trkpt>
      <trkpt lat="47.80836" lon="6.90165">
        <ele>501.2</ele>
        <time>2021-06-26T09:52:40Z</time>
      </trkpt>
      <trkpt lat="47.80824" lon="6.90181">
        <ele>501.2</ele>
        <time>2021-06-26T09:52:43Z</time>
      </trkpt>
      <trkpt lat="47.80819" lon="6.90194">
        <ele>501.4</ele>
        <time>2021-06-26T09:52:45Z</time>
      </trkpt>
      <trkpt lat="47.80815" lon="6.90208">
        <ele>501.8</ele>
        <time>2021-06-26T09:52:47Z</time>
      </trkpt>
      <trkpt lat="47.80808" lon="6.90236">
        <ele>502.4</ele>
        <time>2021-06-26T09:52:51Z</time>
      </trkpt>
      <trkpt lat="47.80802" lon="6.90257">
        <ele>503</ele>
        <time>2021-06-26T09:52:54Z</time>
      </trkpt>
      <trkpt lat="47.80794" lon="6.9029">
        <ele>503.6</ele>
        <time>2021-06-26T09:52:59Z</time>
      </trkpt>
      <trkpt lat="47.80788" lon="6.90318">
        <ele>504</ele>
        <time>2021-06-26T09:53:03Z</time>
      </trkpt>
      <trkpt lat="47.80788" lon="6.90332">
        <ele>504.2</ele>
        <time>2021-06-26T09:53:05Z</time>
      </trkpt>
      <trkpt lat="47.80791" lon="6.90345">
        <ele>504.4</ele>
        <time>2021-06-26T09:53:07Z</time>
      </trkpt>
      <trkpt lat="47.80801" lon="6.90362">
        <ele>504.8</ele>
        <time>2021-06-26T09:53:10Z</time>
      </trkpt>
      <trkpt lat="47.80816" lon="6.90393">
        <ele>505.2</ele>
        <time>2021-06-26T09:53:15Z</time>
      </trkpt>
      <trkpt lat="47.80819" lon="6.90401">
        <ele>505.2</ele>
        <time>2021-06-26T09:53:16Z</time>
      </trkpt>
      <trkpt lat="47.8082" lon="6.9041">
        <ele>505.2</ele>
        <time>2021-06-26T09:53:17Z</time>
      </trkpt>
      <trkpt lat="47.80817" lon="6.90429">
        <ele>504.6</ele>
        <time>2021-06-26T09:53:19Z</time>
      </trkpt>
      <trkpt lat="47.80802" lon="6.90472">
        <ele>503</ele>
        <time>2021-06-26T09:53:24Z</time>
      </trkpt>
      <trkpt lat="47.80798" lon="6.90479">
        <ele>502.8</ele>
        <time>2021-06-26T09:53:25Z</time>
      </trkpt>
      <trkpt lat="47.80784" lon="6.90497">
        <ele>502.2</ele>
        <time>2021-06-26T09:53:28Z</time>
      </trkpt>
      <trkpt lat="47.80773" lon="6.90506">
        <ele>501.8</ele>
        <time>2021-06-26T09:53:30Z</time>
      </trkpt>
      <trkpt lat="47.80751" lon="6.90522">
        <ele>501.6</ele>
        <time>2021-06-26T09:53:34Z</time>
      </trkpt>
      <trkpt lat="47.8073" lon="6.90539">
        <ele>501.4</ele>
        <time>2021-06-26T09:53:38Z</time>
      </trkpt>
      <trkpt lat="47.8072" lon="6.90545">
        <ele>501.4</ele>
        <time>2021-06-26T09:53:40Z</time>
      </trkpt>
      <trkpt lat="47.80711" lon="6.90553">
        <ele>501.4</ele>
        <time>2021-06-26T09:53:42Z</time>
      </trkpt>
      <trkpt lat="47.80704" lon="6.90563">
        <ele>501.4</ele>
        <time>2021-06-26T09:53:44Z</time>
      </trkpt>
      <trkpt lat="47.807" lon="6.90574">
        <ele>501.4</ele>
        <time>2021-06-26T09:53:46Z</time>
      </trkpt>
      <trkpt lat="47.80695" lon="6.90596">
        <ele>501.4</ele>
        <time>2021-06-26T09:53:49Z</time>
      </trkpt>
      <trkpt lat="47.80692" lon="6.90605">
        <ele>501.4</ele>
        <time>2021-06-26T09:53:50Z</time>
      </trkpt>
      <trkpt lat="47.80691" lon="6.90622">
        <ele>501.6</ele>
        <time>2021-06-26T09:53:52Z</time>
      </trkpt>
      <trkpt lat="47.80691" lon="6.90631">
        <ele>501.6</ele>
        <time>2021-06-26T09:53:53Z</time>
      </trkpt>
      <trkpt lat="47.80695" lon="6.90691">
        <ele>501.8</ele>
        <time>2021-06-26T09:54:00Z</time>
      </trkpt>
      <trkpt lat="47.80696" lon="6.90701">
        <ele>501.8</ele>
        <time>2021-06-26T09:54:01Z</time>
      </trkpt>
      <trkpt lat="47.80696" lon="6.90734">
        <ele>502.2</ele>
        <time>2021-06-26T09:54:05Z</time>
      </trkpt>
      <trkpt lat="47.80695" lon="6.90745">
        <ele>502.2</ele>
        <time>2021-06-26T09:54:06Z</time>
      </trkpt>
      <trkpt lat="47.80689" lon="6.90778">
        <ele>502.2</ele>
        <time>2021-06-26T09:54:10Z</time>
      </trkpt>
      <trkpt lat="47.80678" lon="6.90827">
        <ele>502.2</ele>
        <time>2021-06-26T09:54:16Z</time>
      </trkpt>
      <trkpt lat="47.80678" lon="6.90835">
        <ele>502.2</ele>
        <time>2021-06-26T09:54:17Z</time>
      </trkpt>
      <trkpt lat="47.80678" lon="6.90843">
        <ele>502.2</ele>
        <time>2021-06-26T09:54:18Z</time>
      </trkpt>
      <trkpt lat="47.80681" lon="6.90908">
        <ele>501.8</ele>
        <time>2021-06-26T09:54:25Z</time>
      </trkpt>
      <trkpt lat="47.80681" lon="6.90937">
        <ele>501.4</ele>
        <time>2021-06-26T09:54:28Z</time>
      </trkpt>
      <trkpt lat="47.80678" lon="6.90965">
        <ele>500.6</ele>
        <time>2021-06-26T09:54:31Z</time>
      </trkpt>
      <trkpt lat="47.80675" lon="6.90985">
        <ele>500.2</ele>
        <time>2021-06-26T09:54:33Z</time>
      </trkpt>
      <trkpt lat="47.80665" lon="6.91032">
        <ele>499.2</ele>
        <time>2021-06-26T09:54:38Z</time>
      </trkpt>
      <trkpt lat="47.80663" lon="6.91044">
        <ele>499</ele>
        <time>2021-06-26T09:54:39Z</time>
      </trkpt>
      <trkpt lat="47.80659" lon="6.91083">
        <ele>498</ele>
        <time>2021-06-26T09:54:43Z</time>
      </trkpt>
      <trkpt lat="47.80659" lon="6.91093">
        <ele>497.8</ele>
        <time>2021-06-26T09:54:44Z</time>
      </trkpt>
      <trkpt lat="47.80659" lon="6.91103">
        <ele>497.6</ele>
        <time>2021-06-26T09:54:45Z</time>
      </trkpt>
      <trkpt lat="47.80664" lon="6.91133">
        <ele>497</ele>
        <time>2021-06-26T09:54:48Z</time>
      </trkpt>
      <trkpt lat="47.80669" lon="6.91154">
        <ele>496.4</ele>
        <time>2021-06-26T09:54:50Z</time>
      </trkpt>
      <trkpt lat="47.80674" lon="6.91173">
        <ele>495.6</ele>
        <time>2021-06-26T09:54:52Z</time>
      </trkpt>
      <trkpt lat="47.80685" lon="6.91212">
        <ele>494.8</ele>
        <time>2021-06-26T09:54:56Z</time>
      </trkpt>
      <trkpt lat="47.80688" lon="6.91224">
        <ele>494.4</ele>
        <time>2021-06-26T09:54:57Z</time>
      </trkpt>
      <trkpt lat="47.80708" lon="6.91301">
        <ele>493.6</ele>
        <time>2021-06-26T09:55:05Z</time>
      </trkpt>
      <trkpt lat="47.80715" lon="6.91329">
        <ele>493.4</ele>
        <time>2021-06-26T09:55:08Z</time>
      </trkpt>
      <trkpt lat="47.80721" lon="6.91365">
        <ele>493.2</ele>
        <time>2021-06-26T09:55:12Z</time>
      </trkpt>
      <trkpt lat="47.80729" lon="6.91408">
        <ele>493.2</ele>
        <time>2021-06-26T09:55:17Z</time>
      </trkpt>
      <trkpt lat="47.80732" lon="6.91416">
        <ele>493.2</ele>
        <time>2021-06-26T09:55:18Z</time>
      </trkpt>
      <trkpt lat="47.80759" lon="6.9147">
        <ele>493</ele>
        <time>2021-06-26T09:55:25Z</time>
      </trkpt>
      <trkpt lat="47.80766" lon="6.91496">
        <ele>492.4</ele>
        <time>2021-06-26T09:55:28Z</time>
      </trkpt>
      <trkpt lat="47.80767" lon="6.91512">
        <ele>492.2</ele>
        <time>2021-06-26T09:55:30Z</time>
      </trkpt>
      <trkpt lat="47.80771" lon="6.91539">
        <ele>491.4</ele>
        <time>2021-06-26T09:55:33Z</time>
      </trkpt>
      <trkpt lat="47.80773" lon="6.91546">
        <ele>491.4</ele>
        <time>2021-06-26T09:55:34Z</time>
      </trkpt>
      <trkpt lat="47.80774" lon="6.91552">
        <ele>491.2</ele>
        <time>2021-06-26T09:55:35Z</time>
      </trkpt>
      <trkpt lat="47.80779" lon="6.91568">
        <ele>491</ele>
        <time>2021-06-26T09:55:37Z</time>
      </trkpt>
      <trkpt lat="47.80785" lon="6.91581">
        <ele>490.6</ele>
        <time>2021-06-26T09:55:39Z</time>
      </trkpt>
      <trkpt lat="47.80789" lon="6.91592">
        <ele>490.4</ele>
        <time>2021-06-26T09:55:41Z</time>
      </trkpt>
      <trkpt lat="47.80797" lon="6.91623">
        <ele>490</ele>
        <time>2021-06-26T09:55:45Z</time>
      </trkpt>
      <trkpt lat="47.80799" lon="6.9163">
        <ele>490.2</ele>
        <time>2021-06-26T09:55:46Z</time>
      </trkpt>
      <trkpt lat="47.80805" lon="6.91658">
        <ele>490.4</ele>
        <time>2021-06-26T09:55:50Z</time>
      </trkpt>
      <trkpt lat="47.80809" lon="6.91683">
        <ele>490.4</ele>
        <time>2021-06-26T09:55:53Z</time>
      </trkpt>
      <trkpt lat="47.8082" lon="6.9174">
        <ele>490.8</ele>
        <time>2021-06-26T09:56:00Z</time>
      </trkpt>
      <trkpt lat="47.80821" lon="6.91747">
        <ele>490.8</ele>
        <time>2021-06-26T09:56:01Z</time>
      </trkpt>
      <trkpt lat="47.80829" lon="6.91797">
        <ele>490.6</ele>
        <time>2021-06-26T09:56:07Z</time>
      </trkpt>
      <trkpt lat="47.80835" lon="6.91855">
        <ele>490.4</ele>
        <time>2021-06-26T09:56:14Z</time>
      </trkpt>
      <trkpt lat="47.80838" lon="6.91873">
        <ele>490.4</ele>
        <time>2021-06-26T09:56:16Z</time>
      </trkpt>
      <trkpt lat="47.80851" lon="6.91895">
        <ele>490.4</ele>
        <time>2021-06-26T09:56:20Z</time>
      </trkpt>
      <trkpt lat="47.80853" lon="6.919">
        <ele>490.4</ele>
        <time>2021-06-26T09:56:21Z</time>
      </trkpt>
      <trkpt lat="47.80857" lon="6.91909">
        <ele>490.6</ele>
        <time>2021-06-26T09:56:23Z</time>
      </trkpt>
      <trkpt lat="47.80857" lon="6.91913">
        <ele>490.6</ele>
        <time>2021-06-26T09:56:24Z</time>
      </trkpt>
      <trkpt lat="47.80858" lon="6.91922">
        <ele>490.6</ele>
        <time>2021-06-26T09:56:26Z</time>
      </trkpt>
      <trkpt lat="47.80863" lon="6.91956">
        <ele>490.6</ele>
        <time>2021-06-26T09:56:31Z</time>
      </trkpt>
      <trkpt lat="47.80868" lon="6.91987">
        <ele>490.6</ele>
        <time>2021-06-26T09:56:35Z</time>
      </trkpt>
      <trkpt lat="47.80869" lon="6.91997">
        <ele>490.6</ele>
        <time>2021-06-26T09:56:36Z</time>
      </trkpt>
      <trkpt lat="47.80876" lon="6.92061">
        <ele>490.2</ele>
        <time>2021-06-26T09:56:43Z</time>
      </trkpt>
      <trkpt lat="47.80877" lon="6.92082">
        <ele>490</ele>
        <time>2021-06-26T09:56:45Z</time>
      </trkpt>
      <trkpt lat="47.80881" lon="6.92107">
        <ele>490</ele>
        <time>2021-06-26T09:56:48Z</time>
      </trkpt>
      <trkpt lat="47.80883" lon="6.92143">
        <ele>489.6</ele>
        <time>2021-06-26T09:56:52Z</time>
      </trkpt>
      <trkpt lat="47.80885" lon="6.92163">
        <ele>489.4</ele>
        <time>2021-06-26T09:56:54Z</time>
      </trkpt>
      <trkpt lat="47.80889" lon="6.92229">
        <ele>488.6</ele>
        <time>2021-06-26T09:57:01Z</time>
      </trkpt>
      <trkpt lat="47.80893" lon="6.92285">
        <ele>487.6</ele>
        <time>2021-06-26T09:57:07Z</time>
      </trkpt>
      <trkpt lat="47.80895" lon="6.92327">
        <ele>486.6</ele>
        <time>2021-06-26T09:57:11Z</time>
      </trkpt>
      <trkpt lat="47.80895" lon="6.92337">
        <ele>486.6</ele>
        <time>2021-06-26T09:57:12Z</time>
      </trkpt>
      <trkpt lat="47.80895" lon="6.92355">
        <ele>486.2</ele>
        <time>2021-06-26T09:57:14Z</time>
      </trkpt>
      <trkpt lat="47.80894" lon="6.92378">
        <ele>486.2</ele>
        <time>2021-06-26T09:57:16Z</time>
      </trkpt>
      <trkpt lat="47.80895" lon="6.92406">
        <ele>486</ele>
        <time>2021-06-26T09:57:19Z</time>
      </trkpt>
      <trkpt lat="47.80897" lon="6.92416">
        <ele>486</ele>
        <time>2021-06-26T09:57:20Z</time>
      </trkpt>
      <trkpt lat="47.80895" lon="6.92483">
        <ele>485.4</ele>
        <time>2021-06-26T09:57:27Z</time>
      </trkpt>
      <trkpt lat="47.80893" lon="6.92537">
        <ele>484.4</ele>
        <time>2021-06-26T09:57:32Z</time>
      </trkpt>
      <trkpt lat="47.80895" lon="6.92567">
        <ele>483.8</ele>
        <time>2021-06-26T09:57:35Z</time>
      </trkpt>
      <trkpt lat="47.80895" lon="6.92576">
        <ele>483.8</ele>
        <time>2021-06-26T09:57:36Z</time>
      </trkpt>
      <trkpt lat="47.80894" lon="6.92637">
        <ele>483.4</ele>
        <time>2021-06-26T09:57:42Z</time>
      </trkpt>
      <trkpt lat="47.80892" lon="6.92656">
        <ele>483.4</ele>
        <time>2021-06-26T09:57:44Z</time>
      </trkpt>
      <trkpt lat="47.80886" lon="6.92713">
        <ele>482.4</ele>
        <time>2021-06-26T09:57:50Z</time>
      </trkpt>
      <trkpt lat="47.80883" lon="6.92743">
        <ele>482</ele>
        <time>2021-06-26T09:57:53Z</time>
      </trkpt>
      <trkpt lat="47.80876" lon="6.92799">
        <ele>481.6</ele>
        <time>2021-06-26T09:57:59Z</time>
      </trkpt>
      <trkpt lat="47.80874" lon="6.92808">
        <ele>481.4</ele>
        <time>2021-06-26T09:58:00Z</time>
      </trkpt>
      <trkpt lat="47.80873" lon="6.92818">
        <ele>481.4</ele>
        <time>2021-06-26T09:58:01Z</time>
      </trkpt>
      <trkpt lat="47.80869" lon="6.92843">
        <ele>481.2</ele>
        <time>2021-06-26T09:58:04Z</time>
      </trkpt>
      <trkpt lat="47.80868" lon="6.92858">
        <ele>481</ele>
        <time>2021-06-26T09:58:06Z</time>
      </trkpt>
      <trkpt lat="47.80865" lon="6.92877">
        <ele>480.6</ele>
        <time>2021-06-26T09:58:08Z</time>
      </trkpt>
      <trkpt lat="47.80861" lon="6.92896">
        <ele>480.2</ele>
        <time>2021-06-26T09:58:10Z</time>
      </trkpt>
      <trkpt lat="47.8086" lon="6.92905">
        <ele>480.2</ele>
        <time>2021-06-26T09:58:11Z</time>
      </trkpt>
      <trkpt lat="47.80854" lon="6.92958">
        <ele>479.6</ele>
        <time>2021-06-26T09:58:16Z</time>
      </trkpt>
      <trkpt lat="47.80849" lon="6.92989">
        <ele>479.2</ele>
        <time>2021-06-26T09:58:19Z</time>
      </trkpt>
      <trkpt lat="47.80841" lon="6.93054">
        <ele>478.4</ele>
        <time>2021-06-26T09:58:25Z</time>
      </trkpt>
      <trkpt lat="47.8084" lon="6.93064">
        <ele>478.4</ele>
        <time>2021-06-26T09:58:26Z</time>
      </trkpt>
      <trkpt lat="47.80839" lon="6.93084">
        <ele>478.2</ele>
        <time>2021-06-26T09:58:28Z</time>
      </trkpt>
      <trkpt lat="47.80836" lon="6.93136">
        <ele>477.8</ele>
        <time>2021-06-26T09:58:33Z</time>
      </trkpt>
      <trkpt lat="47.80834" lon="6.93156">
        <ele>477.2</ele>
        <time>2021-06-26T09:58:35Z</time>
      </trkpt>
      <trkpt lat="47.80827" lon="6.93236">
        <ele>476</ele>
        <time>2021-06-26T09:58:43Z</time>
      </trkpt>
      <trkpt lat="47.80821" lon="6.93305">
        <ele>475</ele>
        <time>2021-06-26T09:58:50Z</time>
      </trkpt>
      <trkpt lat="47.80815" lon="6.93386">
        <ele>474</ele>
        <time>2021-06-26T09:58:58Z</time>
      </trkpt>
      <trkpt lat="47.80815" lon="6.93396">
        <ele>474</ele>
        <time>2021-06-26T09:58:59Z</time>
      </trkpt>
      <trkpt lat="47.80815" lon="6.93405">
        <ele>474</ele>
        <time>2021-06-26T09:59:00Z</time>
      </trkpt>
      <trkpt lat="47.80814" lon="6.93414">
        <ele>473.8</ele>
        <time>2021-06-26T09:59:01Z</time>
      </trkpt>
      <trkpt lat="47.80815" lon="6.93432">
        <ele>473.8</ele>
        <time>2021-06-26T09:59:03Z</time>
      </trkpt>
      <trkpt lat="47.80814" lon="6.93442">
        <ele>473.8</ele>
        <time>2021-06-26T09:59:04Z</time>
      </trkpt>
      <trkpt lat="47.80811" lon="6.93481">
        <ele>473.6</ele>
        <time>2021-06-26T09:59:08Z</time>
      </trkpt>
      <trkpt lat="47.80804" lon="6.93549">
        <ele>473.2</ele>
        <time>2021-06-26T09:59:15Z</time>
      </trkpt>
      <trkpt lat="47.80803" lon="6.93559">
        <ele>473.2</ele>
        <time>2021-06-26T09:59:16Z</time>
      </trkpt>
      <trkpt lat="47.80792" lon="6.9362">
        <ele>472.2</ele>
        <time>2021-06-26T09:59:22Z</time>
      </trkpt>
      <trkpt lat="47.80791" lon="6.93651">
        <ele>471.6</ele>
        <time>2021-06-26T09:59:25Z</time>
      </trkpt>
      <trkpt lat="47.80787" lon="6.9367">
        <ele>471.4</ele>
        <time>2021-06-26T09:59:27Z</time>
      </trkpt>
      <trkpt lat="47.80778" lon="6.93712">
        <ele>471</ele>
        <time>2021-06-26T09:59:31Z</time>
      </trkpt>
      <trkpt lat="47.80775" lon="6.93746">
        <ele>470.4</ele>
        <time>2021-06-26T09:59:34Z</time>
      </trkpt>
      <trkpt lat="47.80769" lon="6.93794">
        <ele>470</ele>
        <time>2021-06-26T09:59:39Z</time>
      </trkpt>
      <trkpt lat="47.80768" lon="6.93803">
        <ele>469.8</ele>
        <time>2021-06-26T09:59:40Z</time>
      </trkpt>
      <trkpt lat="47.80762" lon="6.93847">
        <ele>469.4</ele>
        <time>2021-06-26T09:59:45Z</time>
      </trkpt>
      <trkpt lat="47.80759" lon="6.93869">
        <ele>468.8</ele>
        <time>2021-06-26T09:59:49Z</time>
      </trkpt>
      <trkpt lat="47.80758" lon="6.93885">
        <ele>468.6</ele>
        <time>2021-06-26T09:59:53Z</time>
      </trkpt>
      <trkpt lat="47.80756" lon="6.93902">
        <ele>468.6</ele>
        <time>2021-06-26T09:59:59Z</time>
      </trkpt>
      <trkpt lat="47.80754" lon="6.9391">
        <ele>468.4</ele>
        <time>2021-06-26T10:00:03Z</time>
      </trkpt>
      <trkpt lat="47.80754" lon="6.93911">
        <ele>468.4</ele>
        <time>2021-06-26T10:00:04Z</time>
      </trkpt>
      <trkpt lat="47.80754" lon="6.93911">
        <ele>468.2</ele>
        <time>2021-06-26T10:00:05Z</time>
      </trkpt>
      <trkpt lat="47.80754" lon="6.93919">
        <ele>468</ele>
        <time>2021-06-26T10:00:18Z</time>
      </trkpt>
      <trkpt lat="47.80754" lon="6.93921">
        <ele>468</ele>
        <time>2021-06-26T10:00:19Z</time>
      </trkpt>
      <trkpt lat="47.80754" lon="6.93925">
        <ele>467.8</ele>
        <time>2021-06-26T10:00:20Z</time>
      </trkpt>
      <trkpt lat="47.80749" lon="6.93953">
        <ele>467.4</ele>
        <time>2021-06-26T10:00:26Z</time>
      </trkpt>
      <trkpt lat="47.80747" lon="6.93968">
        <ele>467.2</ele>
        <time>2021-06-26T10:00:28Z</time>
      </trkpt>
      <trkpt lat="47.80745" lon="6.93984">
        <ele>466.8</ele>
        <time>2021-06-26T10:00:30Z</time>
      </trkpt>
      <trkpt lat="47.8074" lon="6.94029">
        <ele>466.6</ele>
        <time>2021-06-26T10:00:36Z</time>
      </trkpt>
      <trkpt lat="47.80734" lon="6.94072">
        <ele>466.8</ele>
        <time>2021-06-26T10:00:41Z</time>
      </trkpt>
      <trkpt lat="47.80726" lon="6.94129">
        <ele>466.4</ele>
        <time>2021-06-26T10:00:48Z</time>
      </trkpt>
      <trkpt lat="47.80718" lon="6.94197">
        <ele>466.4</ele>
        <time>2021-06-26T10:00:56Z</time>
      </trkpt>
      <trkpt lat="47.8071" lon="6.94254">
        <ele>466.4</ele>
        <time>2021-06-26T10:01:03Z</time>
      </trkpt>
      <trkpt lat="47.80702" lon="6.94309">
        <ele>466.4</ele>
        <time>2021-06-26T10:01:10Z</time>
      </trkpt>
      <trkpt lat="47.80696" lon="6.94342">
        <ele>466.4</ele>
        <time>2021-06-26T10:01:15Z</time>
      </trkpt>
      <trkpt lat="47.80695" lon="6.94349">
        <ele>466.4</ele>
        <time>2021-06-26T10:01:16Z</time>
      </trkpt>
      <trkpt lat="47.80683" lon="6.94395">
        <ele>466.4</ele>
        <time>2021-06-26T10:01:22Z</time>
      </trkpt>
      <trkpt lat="47.80681" lon="6.94404">
        <ele>466.4</ele>
        <time>2021-06-26T10:01:23Z</time>
      </trkpt>
      <trkpt lat="47.80679" lon="6.94413">
        <ele>466.2</ele>
        <time>2021-06-26T10:01:24Z</time>
      </trkpt>
      <trkpt lat="47.80671" lon="6.9444">
        <ele>465.8</ele>
        <time>2021-06-26T10:01:27Z</time>
      </trkpt>
      <trkpt lat="47.80657" lon="6.94481">
        <ele>465.4</ele>
        <time>2021-06-26T10:01:32Z</time>
      </trkpt>
      <trkpt lat="47.80645" lon="6.94504">
        <ele>465</ele>
        <time>2021-06-26T10:01:35Z</time>
      </trkpt>
      <trkpt lat="47.80611" lon="6.94564">
        <ele>464.4</ele>
        <time>2021-06-26T10:01:43Z</time>
      </trkpt>
      <trkpt lat="47.80579" lon="6.94622">
        <ele>463.6</ele>
        <time>2021-06-26T10:01:51Z</time>
      </trkpt>
      <trkpt lat="47.80571" lon="6.94637">
        <ele>463.4</ele>
        <time>2021-06-26T10:01:53Z</time>
      </trkpt>
      <trkpt lat="47.8055" lon="6.94685">
        <ele>463.2</ele>
        <time>2021-06-26T10:01:59Z</time>
      </trkpt>
      <trkpt lat="47.80533" lon="6.94727">
        <ele>462.4</ele>
        <time>2021-06-26T10:02:04Z</time>
      </trkpt>
      <trkpt lat="47.80524" lon="6.94744">
        <ele>462.2</ele>
        <time>2021-06-26T10:02:06Z</time>
      </trkpt>
      <trkpt lat="47.80504" lon="6.94797">
        <ele>461.4</ele>
        <time>2021-06-26T10:02:12Z</time>
      </trkpt>
      <trkpt lat="47.80498" lon="6.94814">
        <ele>461.2</ele>
        <time>2021-06-26T10:02:14Z</time>
      </trkpt>
      <trkpt lat="47.80474" lon="6.94872">
        <ele>460.8</ele>
        <time>2021-06-26T10:02:21Z</time>
      </trkpt>
      <trkpt lat="47.8046" lon="6.94909">
        <ele>460.4</ele>
        <time>2021-06-26T10:02:25Z</time>
      </trkpt>
      <trkpt lat="47.80442" lon="6.94953">
        <ele>459.6</ele>
        <time>2021-06-26T10:02:30Z</time>
      </trkpt>
      <trkpt lat="47.80429" lon="6.94986">
        <ele>459.6</ele>
        <time>2021-06-26T10:02:34Z</time>
      </trkpt>
      <trkpt lat="47.80418" lon="6.95012">
        <ele>459.2</ele>
        <time>2021-06-26T10:02:37Z</time>
      </trkpt>
      <trkpt lat="47.80402" lon="6.95055">
        <ele>458.4</ele>
        <time>2021-06-26T10:02:42Z</time>
      </trkpt>
      <trkpt lat="47.80379" lon="6.95115">
        <ele>457.6</ele>
        <time>2021-06-26T10:02:49Z</time>
      </trkpt>
      <trkpt lat="47.80372" lon="6.95131">
        <ele>457.2</ele>
        <time>2021-06-26T10:02:51Z</time>
      </trkpt>
      <trkpt lat="47.80364" lon="6.95147">
        <ele>457</ele>
        <time>2021-06-26T10:02:53Z</time>
      </trkpt>
      <trkpt lat="47.80352" lon="6.9517">
        <ele>457.2</ele>
        <time>2021-06-26T10:02:56Z</time>
      </trkpt>
      <trkpt lat="47.80316" lon="6.95224">
        <ele>456.8</ele>
        <time>2021-06-26T10:03:04Z</time>
      </trkpt>
      <trkpt lat="47.80295" lon="6.95255">
        <ele>456.4</ele>
        <time>2021-06-26T10:03:09Z</time>
      </trkpt>
      <trkpt lat="47.80282" lon="6.95274">
        <ele>456</ele>
        <time>2021-06-26T10:03:12Z</time>
      </trkpt>
      <trkpt lat="47.80257" lon="6.9531">
        <ele>455.4</ele>
        <time>2021-06-26T10:03:18Z</time>
      </trkpt>
      <trkpt lat="47.8024" lon="6.95335">
        <ele>455.2</ele>
        <time>2021-06-26T10:03:22Z</time>
      </trkpt>
      <trkpt lat="47.80203" lon="6.9539">
        <ele>455.4</ele>
        <time>2021-06-26T10:03:31Z</time>
      </trkpt>
      <trkpt lat="47.80174" lon="6.9543">
        <ele>455.2</ele>
        <time>2021-06-26T10:03:39Z</time>
      </trkpt>
      <trkpt lat="47.80142" lon="6.95477">
        <ele>454.6</ele>
        <time>2021-06-26T10:03:47Z</time>
      </trkpt>
      <trkpt lat="47.80109" lon="6.95537">
        <ele>454.2</ele>
        <time>2021-06-26T10:03:56Z</time>
      </trkpt>
      <trkpt lat="47.80094" lon="6.95575">
        <ele>453.8</ele>
        <time>2021-06-26T10:04:01Z</time>
      </trkpt>
      <trkpt lat="47.80086" lon="6.95596">
        <ele>453.6</ele>
        <time>2021-06-26T10:04:04Z</time>
      </trkpt>
      <trkpt lat="47.80084" lon="6.95603">
        <ele>453.4</ele>
        <time>2021-06-26T10:04:05Z</time>
      </trkpt>
      <trkpt lat="47.80073" lon="6.95625">
        <ele>453</ele>
        <time>2021-06-26T10:04:08Z</time>
      </trkpt>
      <trkpt lat="47.80066" lon="6.9564">
        <ele>453</ele>
        <time>2021-06-26T10:04:10Z</time>
      </trkpt>
      <trkpt lat="47.80054" lon="6.95672">
        <ele>452.4</ele>
        <time>2021-06-26T10:04:14Z</time>
      </trkpt>
      <trkpt lat="47.80046" lon="6.95693">
        <ele>452</ele>
        <time>2021-06-26T10:04:17Z</time>
      </trkpt>
      <trkpt lat="47.80025" lon="6.95751">
        <ele>452</ele>
        <time>2021-06-26T10:04:25Z</time>
      </trkpt>
      <trkpt lat="47.80022" lon="6.95758">
        <ele>452</ele>
        <time>2021-06-26T10:04:26Z</time>
      </trkpt>
      <trkpt lat="47.80015" lon="6.95783">
        <ele>452</ele>
        <time>2021-06-26T10:04:30Z</time>
      </trkpt>
      <trkpt lat="47.80014" lon="6.95791">
        <ele>452</ele>
        <time>2021-06-26T10:04:31Z</time>
      </trkpt>
      <trkpt lat="47.80013" lon="6.95798">
        <ele>452</ele>
        <time>2021-06-26T10:04:32Z</time>
      </trkpt>
      <trkpt lat="47.80005" lon="6.95826">
        <ele>452</ele>
        <time>2021-06-26T10:04:36Z</time>
      </trkpt>
      <trkpt lat="47.79987" lon="6.95866">
        <ele>451.6</ele>
        <time>2021-06-26T10:04:43Z</time>
      </trkpt>
      <trkpt lat="47.79984" lon="6.95872">
        <ele>451.6</ele>
        <time>2021-06-26T10:04:45Z</time>
      </trkpt>
      <trkpt lat="47.79983" lon="6.95879">
        <ele>451.6</ele>
        <time>2021-06-26T10:04:47Z</time>
      </trkpt>
      <trkpt lat="47.79985" lon="6.95887">
        <ele>451.6</ele>
        <time>2021-06-26T10:04:50Z</time>
      </trkpt>
      <trkpt lat="47.79982" lon="6.95892">
        <ele>451.6</ele>
        <time>2021-06-26T10:04:52Z</time>
      </trkpt>
      <trkpt lat="47.79973" lon="6.95909">
        <ele>451.8</ele>
        <time>2021-06-26T10:04:58Z</time>
      </trkpt>
      <trkpt lat="47.79963" lon="6.95934">
        <ele>451.8</ele>
        <time>2021-06-26T10:05:03Z</time>
      </trkpt>
      <trkpt lat="47.79948" lon="6.95973">
        <ele>451.6</ele>
        <time>2021-06-26T10:05:09Z</time>
      </trkpt>
      <trkpt lat="47.79937" lon="6.96002">
        <ele>451.6</ele>
        <time>2021-06-26T10:05:13Z</time>
      </trkpt>
      <trkpt lat="47.79927" lon="6.96023">
        <ele>451.4</ele>
        <time>2021-06-26T10:05:16Z</time>
      </trkpt>
      <trkpt lat="47.79901" lon="6.96069">
        <ele>450.8</ele>
        <time>2021-06-26T10:05:23Z</time>
      </trkpt>
      <trkpt lat="47.79897" lon="6.96075">
        <ele>450.6</ele>
        <time>2021-06-26T10:05:24Z</time>
      </trkpt>
      <trkpt lat="47.79867" lon="6.96117">
        <ele>450</ele>
        <time>2021-06-26T10:05:32Z</time>
      </trkpt>
      <trkpt lat="47.79862" lon="6.96123">
        <ele>449.8</ele>
        <time>2021-06-26T10:05:35Z</time>
      </trkpt>
      <trkpt lat="47.7986" lon="6.96125">
        <ele>449.6</ele>
        <time>2021-06-26T10:05:36Z</time>
      </trkpt>
      <trkpt lat="47.79849" lon="6.96141">
        <ele>449.4</ele>
        <time>2021-06-26T10:05:41Z</time>
      </trkpt>
      <trkpt lat="47.79847" lon="6.96146">
        <ele>449.4</ele>
        <time>2021-06-26T10:05:42Z</time>
      </trkpt>
      <trkpt lat="47.79841" lon="6.96155">
        <ele>449.2</ele>
        <time>2021-06-26T10:05:44Z</time>
      </trkpt>
      <trkpt lat="47.79837" lon="6.9616">
        <ele>449.2</ele>
        <time>2021-06-26T10:05:45Z</time>
      </trkpt>
      <trkpt lat="47.79833" lon="6.96164">
        <ele>449.4</ele>
        <time>2021-06-26T10:05:46Z</time>
      </trkpt>
      <trkpt lat="47.79814" lon="6.96178">
        <ele>449.8</ele>
        <time>2021-06-26T10:05:50Z</time>
      </trkpt>
      <trkpt lat="47.79801" lon="6.96189">
        <ele>450</ele>
        <time>2021-06-26T10:05:53Z</time>
      </trkpt>
      <trkpt lat="47.79784" lon="6.96204">
        <ele>450.8</ele>
        <time>2021-06-26T10:05:57Z</time>
      </trkpt>
      <trkpt lat="47.7978" lon="6.96207">
        <ele>451</ele>
        <time>2021-06-26T10:05:58Z</time>
      </trkpt>
      <trkpt lat="47.79777" lon="6.96211">
        <ele>451.2</ele>
        <time>2021-06-26T10:05:59Z</time>
      </trkpt>
      <trkpt lat="47.79764" lon="6.96219">
        <ele>452.2</ele>
        <time>2021-06-26T10:06:02Z</time>
      </trkpt>
      <trkpt lat="47.79737" lon="6.9623">
        <ele>453</ele>
        <time>2021-06-26T10:06:08Z</time>
      </trkpt>
      <trkpt lat="47.79734" lon="6.96231">
        <ele>453</ele>
        <time>2021-06-26T10:06:09Z</time>
      </trkpt>
      <trkpt lat="47.79724" lon="6.96234">
        <ele>453</ele>
        <time>2021-06-26T10:06:12Z</time>
      </trkpt>
      <trkpt lat="47.79723" lon="6.96235">
        <ele>453</ele>
        <time>2021-06-26T10:06:13Z</time>
      </trkpt>
      <trkpt lat="47.79721" lon="6.96236">
        <ele>453</ele>
        <time>2021-06-26T10:06:15Z</time>
      </trkpt>
      <trkpt lat="47.79721" lon="6.96238">
        <ele>453</ele>
        <time>2021-06-26T10:06:17Z</time>
      </trkpt>
      <trkpt lat="47.79721" lon="6.96238">
        <ele>453.4</ele>
        <time>2021-06-26T10:06:19Z</time>
      </trkpt>
      <trkpt lat="47.79723" lon="6.96236">
        <ele>453.6</ele>
        <time>2021-06-26T10:06:21Z</time>
      </trkpt>
      <trkpt lat="47.79725" lon="6.96236">
        <ele>453.6</ele>
        <time>2021-06-26T10:06:22Z</time>
      </trkpt>
      <trkpt lat="47.79727" lon="6.96236">
        <ele>453.6</ele>
        <time>2021-06-26T10:06:23Z</time>
      </trkpt>
      <trkpt lat="47.79736" lon="6.96232">
        <ele>453.6</ele>
        <time>2021-06-26T10:06:27Z</time>
      </trkpt>
      <trkpt lat="47.79753" lon="6.96223">
        <ele>453.6</ele>
        <time>2021-06-26T10:06:31Z</time>
      </trkpt>
      <trkpt lat="47.79764" lon="6.96218">
        <ele>453.6</ele>
        <time>2021-06-26T10:06:33Z</time>
      </trkpt>
      <trkpt lat="47.79784" lon="6.96205">
        <ele>453.6</ele>
        <time>2021-06-26T10:06:37Z</time>
      </trkpt>
      <trkpt lat="47.79812" lon="6.96183">
        <ele>452.8</ele>
        <time>2021-06-26T10:06:42Z</time>
      </trkpt>
      <trkpt lat="47.7983" lon="6.96168">
        <ele>452.4</ele>
        <time>2021-06-26T10:06:45Z</time>
      </trkpt>
      <trkpt lat="47.79844" lon="6.96157">
        <ele>452</ele>
        <time>2021-06-26T10:06:48Z</time>
      </trkpt>
      <trkpt lat="47.79849" lon="6.96149">
        <ele>451.6</ele>
        <time>2021-06-26T10:06:50Z</time>
      </trkpt>
      <trkpt lat="47.79849" lon="6.96145">
        <ele>451.4</ele>
        <time>2021-06-26T10:06:51Z</time>
      </trkpt>
      <trkpt lat="47.79845" lon="6.96141">
        <ele>451</ele>
        <time>2021-06-26T10:06:53Z</time>
      </trkpt>
      <trkpt lat="47.79842" lon="6.96142">
        <ele>450.8</ele>
        <time>2021-06-26T10:06:54Z</time>
      </trkpt>
      <trkpt lat="47.79826" lon="6.96157">
        <ele>450.6</ele>
        <time>2021-06-26T10:06:58Z</time>
      </trkpt>
      <trkpt lat="47.79798" lon="6.96182">
        <ele>450</ele>
        <time>2021-06-26T10:07:04Z</time>
      </trkpt>
      <trkpt lat="47.79761" lon="6.96206">
        <ele>450</ele>
        <time>2021-06-26T10:07:11Z</time>
      </trkpt>
      <trkpt lat="47.79756" lon="6.96209">
        <ele>450</ele>
        <time>2021-06-26T10:07:12Z</time>
      </trkpt>
      <trkpt lat="47.7973" lon="6.96219">
        <ele>450</ele>
        <time>2021-06-26T10:07:17Z</time>
      </trkpt>
      <trkpt lat="47.79707" lon="6.96227">
        <ele>450.4</ele>
        <time>2021-06-26T10:07:21Z</time>
      </trkpt>
      <trkpt lat="47.79683" lon="6.9623">
        <ele>450.4</ele>
        <time>2021-06-26T10:07:25Z</time>
      </trkpt>
      <trkpt lat="47.79643" lon="6.96234">
        <ele>451</ele>
        <time>2021-06-26T10:07:32Z</time>
      </trkpt>
      <trkpt lat="47.79595" lon="6.96235">
        <ele>451</ele>
        <time>2021-06-26T10:07:40Z</time>
      </trkpt>
      <trkpt lat="47.79553" lon="6.96236">
        <ele>450.8</ele>
        <time>2021-06-26T10:07:47Z</time>
      </trkpt>
      <trkpt lat="47.79542" lon="6.96237">
        <ele>450.8</ele>
        <time>2021-06-26T10:07:49Z</time>
      </trkpt>
      <trkpt lat="47.7953" lon="6.96236">
        <ele>450.8</ele>
        <time>2021-06-26T10:07:51Z</time>
      </trkpt>
      <trkpt lat="47.79512" lon="6.96235">
        <ele>451</ele>
        <time>2021-06-26T10:07:54Z</time>
      </trkpt>
      <trkpt lat="47.79499" lon="6.9623">
        <ele>451</ele>
        <time>2021-06-26T10:07:56Z</time>
      </trkpt>
      <trkpt lat="47.79454" lon="6.96217">
        <ele>451</ele>
        <time>2021-06-26T10:08:04Z</time>
      </trkpt>
      <trkpt lat="47.7943" lon="6.96211">
        <ele>450.8</ele>
        <time>2021-06-26T10:08:08Z</time>
      </trkpt>
      <trkpt lat="47.79411" lon="6.96205">
        <ele>450.4</ele>
        <time>2021-06-26T10:08:11Z</time>
      </trkpt>
      <trkpt lat="47.79372" lon="6.96199">
        <ele>449.8</ele>
        <time>2021-06-26T10:08:17Z</time>
      </trkpt>
      <trkpt lat="47.79353" lon="6.96198">
        <ele>449.6</ele>
        <time>2021-06-26T10:08:20Z</time>
      </trkpt>
      <trkpt lat="47.7933" lon="6.96202">
        <ele>448.8</ele>
        <time>2021-06-26T10:08:24Z</time>
      </trkpt>
      <trkpt lat="47.79311" lon="6.96208">
        <ele>448.8</ele>
        <time>2021-06-26T10:08:27Z</time>
      </trkpt>
      <trkpt lat="47.79293" lon="6.96215">
        <ele>448.4</ele>
        <time>2021-06-26T10:08:30Z</time>
      </trkpt>
      <trkpt lat="47.79253" lon="6.96238">
        <ele>448</ele>
        <time>2021-06-26T10:08:37Z</time>
      </trkpt>
      <trkpt lat="47.79241" lon="6.96245">
        <ele>448</ele>
        <time>2021-06-26T10:08:39Z</time>
      </trkpt>
      <trkpt lat="47.79223" lon="6.96257">
        <ele>447.6</ele>
        <time>2021-06-26T10:08:42Z</time>
      </trkpt>
      <trkpt lat="47.79181" lon="6.96282">
        <ele>446.2</ele>
        <time>2021-06-26T10:08:49Z</time>
      </trkpt>
      <trkpt lat="47.79145" lon="6.96305">
        <ele>445.2</ele>
        <time>2021-06-26T10:08:55Z</time>
      </trkpt>
      <trkpt lat="47.79141" lon="6.96307">
        <ele>445.2</ele>
        <time>2021-06-26T10:08:56Z</time>
      </trkpt>
      <trkpt lat="47.79125" lon="6.96315">
        <ele>445</ele>
        <time>2021-06-26T10:08:59Z</time>
      </trkpt>
      <trkpt lat="47.79115" lon="6.96321">
        <ele>444.8</ele>
        <time>2021-06-26T10:09:01Z</time>
      </trkpt>
      <trkpt lat="47.7911" lon="6.96324">
        <ele>444.4</ele>
        <time>2021-06-26T10:09:02Z</time>
      </trkpt>
      <trkpt lat="47.79098" lon="6.96331">
        <ele>444.2</ele>
        <time>2021-06-26T10:09:04Z</time>
      </trkpt>
      <trkpt lat="47.79076" lon="6.96345">
        <ele>443.4</ele>
        <time>2021-06-26T10:09:08Z</time>
      </trkpt>
      <trkpt lat="47.79064" lon="6.96351">
        <ele>443.2</ele>
        <time>2021-06-26T10:09:10Z</time>
      </trkpt>
      <trkpt lat="47.79059" lon="6.96353">
        <ele>443.2</ele>
        <time>2021-06-26T10:09:11Z</time>
      </trkpt>
      <trkpt lat="47.79012" lon="6.96382">
        <ele>442.8</ele>
        <time>2021-06-26T10:09:19Z</time>
      </trkpt>
      <trkpt lat="47.78985" lon="6.96398">
        <ele>442.4</ele>
        <time>2021-06-26T10:09:24Z</time>
      </trkpt>
      <trkpt lat="47.78955" lon="6.96418">
        <ele>442.2</ele>
        <time>2021-06-26T10:09:29Z</time>
      </trkpt>
      <trkpt lat="47.78935" lon="6.96431">
        <ele>441.8</ele>
        <time>2021-06-26T10:09:33Z</time>
      </trkpt>
      <trkpt lat="47.78906" lon="6.9645">
        <ele>441.2</ele>
        <time>2021-06-26T10:09:38Z</time>
      </trkpt>
      <trkpt lat="47.78889" lon="6.96462">
        <ele>440.6</ele>
        <time>2021-06-26T10:09:41Z</time>
      </trkpt>
      <trkpt lat="47.78853" lon="6.96485">
        <ele>440.2</ele>
        <time>2021-06-26T10:09:47Z</time>
      </trkpt>
      <trkpt lat="47.78836" lon="6.96497">
        <ele>439.8</ele>
        <time>2021-06-26T10:09:50Z</time>
      </trkpt>
      <trkpt lat="47.7881" lon="6.96515">
        <ele>439.4</ele>
        <time>2021-06-26T10:09:55Z</time>
      </trkpt>
      <trkpt lat="47.78799" lon="6.96525">
        <ele>439.2</ele>
        <time>2021-06-26T10:09:57Z</time>
      </trkpt>
      <trkpt lat="47.78794" lon="6.9653">
        <ele>439</ele>
        <time>2021-06-26T10:09:58Z</time>
      </trkpt>
      <trkpt lat="47.78758" lon="6.96567">
        <ele>438.4</ele>
        <time>2021-06-26T10:10:05Z</time>
      </trkpt>
      <trkpt lat="47.7872" lon="6.96607">
        <ele>438.2</ele>
        <time>2021-06-26T10:10:13Z</time>
      </trkpt>
      <trkpt lat="47.7871" lon="6.96618">
        <ele>438.2</ele>
        <time>2021-06-26T10:10:15Z</time>
      </trkpt>
      <trkpt lat="47.787" lon="6.96629">
        <ele>438.2</ele>
        <time>2021-06-26T10:10:17Z</time>
      </trkpt>
      <trkpt lat="47.78692" lon="6.96641">
        <ele>438.2</ele>
        <time>2021-06-26T10:10:19Z</time>
      </trkpt>
      <trkpt lat="47.78678" lon="6.9666">
        <ele>438</ele>
        <time>2021-06-26T10:10:22Z</time>
      </trkpt>
      <trkpt lat="47.78657" lon="6.96683">
        <ele>437.8</ele>
        <time>2021-06-26T10:10:26Z</time>
      </trkpt>
      <trkpt lat="47.78623" lon="6.96722">
        <ele>437.6</ele>
        <time>2021-06-26T10:10:33Z</time>
      </trkpt>
      <trkpt lat="47.78588" lon="6.96773">
        <ele>437.8</ele>
        <time>2021-06-26T10:10:41Z</time>
      </trkpt>
      <trkpt lat="47.78567" lon="6.96806">
        <ele>437.6</ele>
        <time>2021-06-26T10:10:46Z</time>
      </trkpt>
      <trkpt lat="47.78559" lon="6.96822">
        <ele>437.6</ele>
        <time>2021-06-26T10:10:48Z</time>
      </trkpt>
      <trkpt lat="47.78548" lon="6.96848">
        <ele>437</ele>
        <time>2021-06-26T10:10:51Z</time>
      </trkpt>
      <trkpt lat="47.78534" lon="6.96882">
        <ele>436.4</ele>
        <time>2021-06-26T10:10:55Z</time>
      </trkpt>
      <trkpt lat="47.78527" lon="6.969">
        <ele>436.2</ele>
        <time>2021-06-26T10:10:57Z</time>
      </trkpt>
      <trkpt lat="47.78504" lon="6.96958">
        <ele>435.6</ele>
        <time>2021-06-26T10:11:04Z</time>
      </trkpt>
      <trkpt lat="47.78493" lon="6.96985">
        <ele>435</ele>
        <time>2021-06-26T10:11:07Z</time>
      </trkpt>
      <trkpt lat="47.78478" lon="6.97026">
        <ele>434.6</ele>
        <time>2021-06-26T10:11:12Z</time>
      </trkpt>
      <trkpt lat="47.78449" lon="6.97099">
        <ele>434.6</ele>
        <time>2021-06-26T10:11:21Z</time>
      </trkpt>
      <trkpt lat="47.78433" lon="6.97136">
        <ele>434.2</ele>
        <time>2021-06-26T10:11:26Z</time>
      </trkpt>
      <trkpt lat="47.78418" lon="6.97173">
        <ele>433.8</ele>
        <time>2021-06-26T10:11:31Z</time>
      </trkpt>
      <trkpt lat="47.78408" lon="6.97199">
        <ele>433.6</ele>
        <time>2021-06-26T10:11:34Z</time>
      </trkpt>
      <trkpt lat="47.78401" lon="6.97214">
        <ele>433.6</ele>
        <time>2021-06-26T10:11:36Z</time>
      </trkpt>
      <trkpt lat="47.78386" lon="6.97258">
        <ele>433.4</ele>
        <time>2021-06-26T10:11:41Z</time>
      </trkpt>
      <trkpt lat="47.78377" lon="6.97284">
        <ele>433.2</ele>
        <time>2021-06-26T10:11:44Z</time>
      </trkpt>
      <trkpt lat="47.78372" lon="6.973">
        <ele>433.2</ele>
        <time>2021-06-26T10:11:46Z</time>
      </trkpt>
      <trkpt lat="47.78368" lon="6.97308">
        <ele>433</ele>
        <time>2021-06-26T10:11:47Z</time>
      </trkpt>
      <trkpt lat="47.78364" lon="6.97316">
        <ele>432.8</ele>
        <time>2021-06-26T10:11:48Z</time>
      </trkpt>
      <trkpt lat="47.78355" lon="6.97333">
        <ele>432.8</ele>
        <time>2021-06-26T10:11:50Z</time>
      </trkpt>
      <trkpt lat="47.78339" lon="6.97371">
        <ele>432.2</ele>
        <time>2021-06-26T10:11:54Z</time>
      </trkpt>
      <trkpt lat="47.7833" lon="6.97388">
        <ele>431.6</ele>
        <time>2021-06-26T10:11:56Z</time>
      </trkpt>
      <trkpt lat="47.78314" lon="6.97428">
        <ele>431.2</ele>
        <time>2021-06-26T10:12:01Z</time>
      </trkpt>
      <trkpt lat="47.78303" lon="6.97454">
        <ele>430.8</ele>
        <time>2021-06-26T10:12:04Z</time>
      </trkpt>
      <trkpt lat="47.78281" lon="6.97509">
        <ele>430</ele>
        <time>2021-06-26T10:12:11Z</time>
      </trkpt>
      <trkpt lat="47.7827" lon="6.97536">
        <ele>429.6</ele>
        <time>2021-06-26T10:12:14Z</time>
      </trkpt>
      <trkpt lat="47.78245" lon="6.97602">
        <ele>429</ele>
        <time>2021-06-26T10:12:22Z</time>
      </trkpt>
      <trkpt lat="47.78216" lon="6.97674">
        <ele>428.6</ele>
        <time>2021-06-26T10:12:31Z</time>
      </trkpt>
      <trkpt lat="47.78193" lon="6.97732">
        <ele>428</ele>
        <time>2021-06-26T10:12:38Z</time>
      </trkpt>
      <trkpt lat="47.7819" lon="6.9774">
        <ele>427.8</ele>
        <time>2021-06-26T10:12:39Z</time>
      </trkpt>
      <trkpt lat="47.78161" lon="6.97811">
        <ele>427.6</ele>
        <time>2021-06-26T10:12:48Z</time>
      </trkpt>
      <trkpt lat="47.78152" lon="6.97832">
        <ele>427.4</ele>
        <time>2021-06-26T10:12:51Z</time>
      </trkpt>
      <trkpt lat="47.78136" lon="6.97874">
        <ele>427.6</ele>
        <time>2021-06-26T10:12:57Z</time>
      </trkpt>
      <trkpt lat="47.78128" lon="6.97895">
        <ele>427.8</ele>
        <time>2021-06-26T10:13:01Z</time>
      </trkpt>
      <trkpt lat="47.78127" lon="6.97912">
        <ele>428</ele>
        <time>2021-06-26T10:13:05Z</time>
      </trkpt>
      <trkpt lat="47.78126" lon="6.97915">
        <ele>428</ele>
        <time>2021-06-26T10:13:06Z</time>
      </trkpt>
      <trkpt lat="47.78119" lon="6.9792">
        <ele>428.2</ele>
        <time>2021-06-26T10:13:08Z</time>
      </trkpt>
      <trkpt lat="47.78114" lon="6.97924">
        <ele>428.2</ele>
        <time>2021-06-26T10:13:09Z</time>
      </trkpt>
      <trkpt lat="47.78107" lon="6.97937">
        <ele>428.2</ele>
        <time>2021-06-26T10:13:11Z</time>
      </trkpt>
      <trkpt lat="47.78097" lon="6.97955">
        <ele>428.2</ele>
        <time>2021-06-26T10:13:14Z</time>
      </trkpt>
      <trkpt lat="47.78087" lon="6.97972">
        <ele>428</ele>
        <time>2021-06-26T10:13:17Z</time>
      </trkpt>
      <trkpt lat="47.78061" lon="6.98007">
        <ele>428</ele>
        <time>2021-06-26T10:13:23Z</time>
      </trkpt>
      <trkpt lat="47.78048" lon="6.98031">
        <ele>427.8</ele>
        <time>2021-06-26T10:13:27Z</time>
      </trkpt>
      <trkpt lat="47.78038" lon="6.98048">
        <ele>427.8</ele>
        <time>2021-06-26T10:13:29Z</time>
      </trkpt>
      <trkpt lat="47.78032" lon="6.98057">
        <ele>428</ele>
        <time>2021-06-26T10:13:30Z</time>
      </trkpt>
      <trkpt lat="47.78022" lon="6.98074">
        <ele>427.8</ele>
        <time>2021-06-26T10:13:32Z</time>
      </trkpt>
      <trkpt lat="47.78011" lon="6.98101">
        <ele>427.4</ele>
        <time>2021-06-26T10:13:35Z</time>
      </trkpt>
      <trkpt lat="47.78007" lon="6.9811">
        <ele>427.2</ele>
        <time>2021-06-26T10:13:36Z</time>
      </trkpt>
      <trkpt lat="47.78002" lon="6.98128">
        <ele>427</ele>
        <time>2021-06-26T10:13:38Z</time>
      </trkpt>
      <trkpt lat="47.77997" lon="6.98146">
        <ele>426.6</ele>
        <time>2021-06-26T10:13:40Z</time>
      </trkpt>
      <trkpt lat="47.7799" lon="6.98179">
        <ele>426.2</ele>
        <time>2021-06-26T10:13:44Z</time>
      </trkpt>
      <trkpt lat="47.77986" lon="6.98195">
        <ele>426.2</ele>
        <time>2021-06-26T10:13:46Z</time>
      </trkpt>
      <trkpt lat="47.77985" lon="6.98203">
        <ele>426.2</ele>
        <time>2021-06-26T10:13:47Z</time>
      </trkpt>
      <trkpt lat="47.77979" lon="6.98229">
        <ele>426</ele>
        <time>2021-06-26T10:13:50Z</time>
      </trkpt>
      <trkpt lat="47.77976" lon="6.9824">
        <ele>426</ele>
        <time>2021-06-26T10:13:51Z</time>
      </trkpt>
      <trkpt lat="47.77971" lon="6.98264">
        <ele>425.8</ele>
        <time>2021-06-26T10:13:54Z</time>
      </trkpt>
      <trkpt lat="47.7796" lon="6.98311">
        <ele>425.2</ele>
        <time>2021-06-26T10:13:59Z</time>
      </trkpt>
      <trkpt lat="47.77954" lon="6.9834">
        <ele>424.8</ele>
        <time>2021-06-26T10:14:02Z</time>
      </trkpt>
      <trkpt lat="47.77946" lon="6.98376">
        <ele>424</ele>
        <time>2021-06-26T10:14:06Z</time>
      </trkpt>
      <trkpt lat="47.77942" lon="6.98394">
        <ele>424</ele>
        <time>2021-06-26T10:14:08Z</time>
      </trkpt>
      <trkpt lat="47.77926" lon="6.98477">
        <ele>423.8</ele>
        <time>2021-06-26T10:14:17Z</time>
      </trkpt>
      <trkpt lat="47.77912" lon="6.98536">
        <ele>423.4</ele>
        <time>2021-06-26T10:14:24Z</time>
      </trkpt>
      <trkpt lat="47.77908" lon="6.98554">
        <ele>423.2</ele>
        <time>2021-06-26T10:14:26Z</time>
      </trkpt>
      <trkpt lat="47.77907" lon="6.98563">
        <ele>423.2</ele>
        <time>2021-06-26T10:14:27Z</time>
      </trkpt>
      <trkpt lat="47.77904" lon="6.98588">
        <ele>423</ele>
        <time>2021-06-26T10:14:30Z</time>
      </trkpt>
      <trkpt lat="47.77902" lon="6.98616">
        <ele>422.8</ele>
        <time>2021-06-26T10:14:33Z</time>
      </trkpt>
      <trkpt lat="47.77901" lon="6.98633">
        <ele>422.8</ele>
        <time>2021-06-26T10:14:35Z</time>
      </trkpt>
      <trkpt lat="47.779" lon="6.98691">
        <ele>422.4</ele>
        <time>2021-06-26T10:14:41Z</time>
      </trkpt>
      <trkpt lat="47.77901" lon="6.98712">
        <ele>422.2</ele>
        <time>2021-06-26T10:14:43Z</time>
      </trkpt>
      <trkpt lat="47.77907" lon="6.98758">
        <ele>421.8</ele>
        <time>2021-06-26T10:14:48Z</time>
      </trkpt>
      <trkpt lat="47.77921" lon="6.98815">
        <ele>421.6</ele>
        <time>2021-06-26T10:14:54Z</time>
      </trkpt>
      <trkpt lat="47.77937" lon="6.98862">
        <ele>421.2</ele>
        <time>2021-06-26T10:15:00Z</time>
      </trkpt>
      <trkpt lat="47.77946" lon="6.98886">
        <ele>421</ele>
        <time>2021-06-26T10:15:03Z</time>
      </trkpt>
      <trkpt lat="47.77953" lon="6.98908">
        <ele>420.8</ele>
        <time>2021-06-26T10:15:06Z</time>
      </trkpt>
      <trkpt lat="47.77963" lon="6.98946">
        <ele>420.4</ele>
        <time>2021-06-26T10:15:10Z</time>
      </trkpt>
      <trkpt lat="47.77965" lon="6.98964">
        <ele>420.2</ele>
        <time>2021-06-26T10:15:12Z</time>
      </trkpt>
      <trkpt lat="47.77972" lon="6.99">
        <ele>420</ele>
        <time>2021-06-26T10:15:16Z</time>
      </trkpt>
      <trkpt lat="47.77974" lon="6.99009">
        <ele>419.8</ele>
        <time>2021-06-26T10:15:17Z</time>
      </trkpt>
      <trkpt lat="47.7798" lon="6.99083">
        <ele>419.8</ele>
        <time>2021-06-26T10:15:25Z</time>
      </trkpt>
      <trkpt lat="47.7798" lon="6.99101">
        <ele>419.8</ele>
        <time>2021-06-26T10:15:27Z</time>
      </trkpt>
      <trkpt lat="47.77978" lon="6.99135">
        <ele>420</ele>
        <time>2021-06-26T10:15:31Z</time>
      </trkpt>
      <trkpt lat="47.77977" lon="6.99175">
        <ele>420</ele>
        <time>2021-06-26T10:15:37Z</time>
      </trkpt>
      <trkpt lat="47.77974" lon="6.99185">
        <ele>420</ele>
        <time>2021-06-26T10:15:41Z</time>
      </trkpt>
      <trkpt lat="47.77974" lon="6.99185">
        <ele>420</ele>
        <time>2021-06-26T10:15:43Z</time>
      </trkpt>
      <trkpt lat="47.77972" lon="6.99188">
        <ele>419.8</ele>
        <time>2021-06-26T10:16:00Z</time>
      </trkpt>
      <trkpt lat="47.7797" lon="6.99192">
        <ele>419.8</ele>
        <time>2021-06-26T10:16:01Z</time>
      </trkpt>
      <trkpt lat="47.77962" lon="6.99221">
        <ele>419.8</ele>
        <time>2021-06-26T10:16:06Z</time>
      </trkpt>
      <trkpt lat="47.77953" lon="6.99254">
        <ele>420</ele>
        <time>2021-06-26T10:16:11Z</time>
      </trkpt>
      <trkpt lat="47.77945" lon="6.99273">
        <ele>420</ele>
        <time>2021-06-26T10:16:14Z</time>
      </trkpt>
      <trkpt lat="47.77934" lon="6.99291">
        <ele>420.2</ele>
        <time>2021-06-26T10:16:17Z</time>
      </trkpt>
      <trkpt lat="47.77909" lon="6.99326">
        <ele>420.4</ele>
        <time>2021-06-26T10:16:24Z</time>
      </trkpt>
      <trkpt lat="47.77899" lon="6.99328">
        <ele>420.4</ele>
        <time>2021-06-26T10:16:26Z</time>
      </trkpt>
      <trkpt lat="47.77889" lon="6.9933">
        <ele>420.4</ele>
        <time>2021-06-26T10:16:28Z</time>
      </trkpt>
      <trkpt lat="47.77884" lon="6.99332">
        <ele>420.4</ele>
        <time>2021-06-26T10:16:29Z</time>
      </trkpt>
      <trkpt lat="47.77864" lon="6.99341">
        <ele>420.2</ele>
        <time>2021-06-26T10:16:33Z</time>
      </trkpt>
      <trkpt lat="47.77849" lon="6.99349">
        <ele>420</ele>
        <time>2021-06-26T10:16:36Z</time>
      </trkpt>
      <trkpt lat="47.77844" lon="6.99351">
        <ele>420</ele>
        <time>2021-06-26T10:16:37Z</time>
      </trkpt>
      <trkpt lat="47.77799" lon="6.99374">
        <ele>418.8</ele>
        <time>2021-06-26T10:16:46Z</time>
      </trkpt>
      <trkpt lat="47.77789" lon="6.99381">
        <ele>418.4</ele>
        <time>2021-06-26T10:16:48Z</time>
      </trkpt>
      <trkpt lat="47.77774" lon="6.99396">
        <ele>418</ele>
        <time>2021-06-26T10:16:51Z</time>
      </trkpt>
      <trkpt lat="47.77767" lon="6.99405">
        <ele>417.6</ele>
        <time>2021-06-26T10:16:53Z</time>
      </trkpt>
      <trkpt lat="47.77742" lon="6.99438">
        <ele>416.8</ele>
        <time>2021-06-26T10:16:59Z</time>
      </trkpt>
      <trkpt lat="47.77735" lon="6.9945">
        <ele>416.4</ele>
        <time>2021-06-26T10:17:01Z</time>
      </trkpt>
      <trkpt lat="47.77713" lon="6.99476">
        <ele>415.6</ele>
        <time>2021-06-26T10:17:06Z</time>
      </trkpt>
      <trkpt lat="47.77705" lon="6.99485">
        <ele>415.4</ele>
        <time>2021-06-26T10:17:08Z</time>
      </trkpt>
      <trkpt lat="47.77677" lon="6.99511">
        <ele>414.8</ele>
        <time>2021-06-26T10:17:14Z</time>
      </trkpt>
      <trkpt lat="47.77671" lon="6.99515">
        <ele>414.6</ele>
        <time>2021-06-26T10:17:15Z</time>
      </trkpt>
      <trkpt lat="47.77647" lon="6.99534">
        <ele>413.4</ele>
        <time>2021-06-26T10:17:20Z</time>
      </trkpt>
      <trkpt lat="47.77625" lon="6.9955">
        <ele>412.2</ele>
        <time>2021-06-26T10:17:25Z</time>
      </trkpt>
      <trkpt lat="47.77621" lon="6.99554">
        <ele>412.2</ele>
        <time>2021-06-26T10:17:26Z</time>
      </trkpt>
      <trkpt lat="47.77607" lon="6.99574">
        <ele>411.2</ele>
        <time>2021-06-26T10:17:31Z</time>
      </trkpt>
      <trkpt lat="47.77597" lon="6.99588">
        <ele>410.6</ele>
        <time>2021-06-26T10:17:37Z</time>
      </trkpt>
      <trkpt lat="47.77597" lon="6.99588">
        <ele>410.4</ele>
        <time>2021-06-26T10:17:39Z</time>
      </trkpt>
      <trkpt lat="47.77598" lon="6.99584">
        <ele>410</ele>
        <time>2021-06-26T10:32:38Z</time>
      </trkpt>
      <trkpt lat="47.776" lon="6.99586">
        <ele>410</ele>
        <time>2021-06-26T10:32:39Z</time>
      </trkpt>
      <trkpt lat="47.7761" lon="6.99597">
        <ele>410</ele>
        <time>2021-06-26T10:32:44Z</time>
      </trkpt>
      <trkpt lat="47.77623" lon="6.9962">
        <ele>411</ele>
        <time>2021-06-26T10:32:50Z</time>
      </trkpt>
      <trkpt lat="47.77631" lon="6.99632">
        <ele>411.2</ele>
        <time>2021-06-26T10:32:53Z</time>
      </trkpt>
      <trkpt lat="47.77638" lon="6.99644">
        <ele>411.4</ele>
        <time>2021-06-26T10:32:56Z</time>
      </trkpt>
      <trkpt lat="47.77649" lon="6.99666">
        <ele>412.2</ele>
        <time>2021-06-26T10:33:02Z</time>
      </trkpt>
      <trkpt lat="47.7765" lon="6.99669">
        <ele>412.4</ele>
        <time>2021-06-26T10:33:03Z</time>
      </trkpt>
      <trkpt lat="47.7765" lon="6.99672">
        <ele>412.4</ele>
        <time>2021-06-26T10:33:04Z</time>
      </trkpt>
      <trkpt lat="47.77649" lon="6.99675">
        <ele>412.4</ele>
        <time>2021-06-26T10:33:05Z</time>
      </trkpt>
      <trkpt lat="47.77648" lon="6.99678">
        <ele>412.4</ele>
        <time>2021-06-26T10:33:06Z</time>
      </trkpt>
      <trkpt lat="47.77633" lon="6.99699">
        <ele>412.8</ele>
        <time>2021-06-26T10:33:13Z</time>
      </trkpt>
      <trkpt lat="47.77617" lon="6.99725">
        <ele>412.6</ele>
        <time>2021-06-26T10:33:19Z</time>
      </trkpt>
      <trkpt lat="47.77586" lon="6.99772">
        <ele>411.4</ele>
        <time>2021-06-26T10:33:28Z</time>
      </trkpt>
      <trkpt lat="47.77583" lon="6.99777">
        <ele>411.2</ele>
        <time>2021-06-26T10:33:29Z</time>
      </trkpt>
      <trkpt lat="47.77562" lon="6.99813">
        <ele>410.4</ele>
        <time>2021-06-26T10:33:37Z</time>
      </trkpt>
      <trkpt lat="47.7756" lon="6.99815">
        <ele>410.4</ele>
        <time>2021-06-26T10:33:40Z</time>
      </trkpt>
      <trkpt lat="47.7756" lon="6.99815">
        <ele>410.4</ele>
        <time>2021-06-26T10:33:41Z</time>
      </trkpt>
      <trkpt lat="47.77556" lon="6.99822">
        <ele>409.8</ele>
        <time>2021-06-26T10:33:54Z</time>
      </trkpt>
      <trkpt lat="47.77551" lon="6.9983">
        <ele>409.8</ele>
        <time>2021-06-26T10:33:56Z</time>
      </trkpt>
      <trkpt lat="47.77532" lon="6.99857">
        <ele>409.6</ele>
        <time>2021-06-26T10:34:02Z</time>
      </trkpt>
      <trkpt lat="47.7752" lon="6.99875">
        <ele>409.4</ele>
        <time>2021-06-26T10:34:06Z</time>
      </trkpt>
      <trkpt lat="47.77516" lon="6.9988">
        <ele>409.2</ele>
        <time>2021-06-26T10:34:07Z</time>
      </trkpt>
      <trkpt lat="47.77508" lon="6.99888">
        <ele>409.2</ele>
        <time>2021-06-26T10:34:09Z</time>
      </trkpt>
      <trkpt lat="47.77473" lon="6.99924">
        <ele>409</ele>
        <time>2021-06-26T10:34:17Z</time>
      </trkpt>
      <trkpt lat="47.77424" lon="6.99971">
        <ele>408.6</ele>
        <time>2021-06-26T10:34:27Z</time>
      </trkpt>
      <trkpt lat="47.77419" lon="6.99976">
        <ele>408.6</ele>
        <time>2021-06-26T10:34:28Z</time>
      </trkpt>
      <trkpt lat="47.77402" lon="6.99983">
        <ele>408.4</ele>
        <time>2021-06-26T10:34:31Z</time>
      </trkpt>
      <trkpt lat="47.77396" lon="6.99985">
        <ele>408.2</ele>
        <time>2021-06-26T10:34:32Z</time>
      </trkpt>
      <trkpt lat="47.7738" lon="6.99995">
        <ele>408.2</ele>
        <time>2021-06-26T10:34:35Z</time>
      </trkpt>
      <trkpt lat="47.7737" lon="7.00006">
        <ele>407.8</ele>
        <time>2021-06-26T10:34:37Z</time>
      </trkpt>
      <trkpt lat="47.77358" lon="7.00024">
        <ele>407.4</ele>
        <time>2021-06-26T10:34:40Z</time>
      </trkpt>
      <trkpt lat="47.77345" lon="7.00043">
        <ele>407.2</ele>
        <time>2021-06-26T10:34:43Z</time>
      </trkpt>
      <trkpt lat="47.77341" lon="7.0005">
        <ele>407.2</ele>
        <time>2021-06-26T10:34:44Z</time>
      </trkpt>
      <trkpt lat="47.77323" lon="7.00075">
        <ele>407</ele>
        <time>2021-06-26T10:34:48Z</time>
      </trkpt>
      <trkpt lat="47.77297" lon="7.00115">
        <ele>406.6</ele>
        <time>2021-06-26T10:34:54Z</time>
      </trkpt>
      <trkpt lat="47.77288" lon="7.00128">
        <ele>406.2</ele>
        <time>2021-06-26T10:34:56Z</time>
      </trkpt>
      <trkpt lat="47.77262" lon="7.00168">
        <ele>405.4</ele>
        <time>2021-06-26T10:35:02Z</time>
      </trkpt>
      <trkpt lat="47.77249" lon="7.00187">
        <ele>405.2</ele>
        <time>2021-06-26T10:35:05Z</time>
      </trkpt>
      <trkpt lat="47.77224" lon="7.00224">
        <ele>405</ele>
        <time>2021-06-26T10:35:11Z</time>
      </trkpt>
      <trkpt lat="47.77202" lon="7.00252">
        <ele>405</ele>
        <time>2021-06-26T10:35:16Z</time>
      </trkpt>
      <trkpt lat="47.77192" lon="7.00262">
        <ele>405</ele>
        <time>2021-06-26T10:35:18Z</time>
      </trkpt>
      <trkpt lat="47.77143" lon="7.00298">
        <ele>405.2</ele>
        <time>2021-06-26T10:35:27Z</time>
      </trkpt>
      <trkpt lat="47.77104" lon="7.00318">
        <ele>405.2</ele>
        <time>2021-06-26T10:35:34Z</time>
      </trkpt>
      <trkpt lat="47.77069" lon="7.00344">
        <ele>405</ele>
        <time>2021-06-26T10:35:41Z</time>
      </trkpt>
      <trkpt lat="47.77028" lon="7.00385">
        <ele>404.6</ele>
        <time>2021-06-26T10:35:49Z</time>
      </trkpt>
      <trkpt lat="47.77018" lon="7.00394">
        <ele>404.2</ele>
        <time>2021-06-26T10:35:51Z</time>
      </trkpt>
      <trkpt lat="47.76986" lon="7.00421">
        <ele>403.4</ele>
        <time>2021-06-26T10:35:57Z</time>
      </trkpt>
      <trkpt lat="47.7697" lon="7.00434">
        <ele>403.2</ele>
        <time>2021-06-26T10:36:00Z</time>
      </trkpt>
      <trkpt lat="47.7693" lon="7.00468">
        <ele>402.6</ele>
        <time>2021-06-26T10:36:08Z</time>
      </trkpt>
      <trkpt lat="47.76919" lon="7.00478">
        <ele>402.6</ele>
        <time>2021-06-26T10:36:10Z</time>
      </trkpt>
      <trkpt lat="47.76896" lon="7.00506">
        <ele>402.4</ele>
        <time>2021-06-26T10:36:15Z</time>
      </trkpt>
      <trkpt lat="47.76887" lon="7.00519">
        <ele>402.2</ele>
        <time>2021-06-26T10:36:17Z</time>
      </trkpt>
      <trkpt lat="47.76867" lon="7.00554">
        <ele>401.8</ele>
        <time>2021-06-26T10:36:22Z</time>
      </trkpt>
      <trkpt lat="47.76832" lon="7.00617">
        <ele>401.2</ele>
        <time>2021-06-26T10:36:31Z</time>
      </trkpt>
      <trkpt lat="47.76817" lon="7.00644">
        <ele>401.2</ele>
        <time>2021-06-26T10:36:35Z</time>
      </trkpt>
      <trkpt lat="47.76812" lon="7.00652">
        <ele>401</ele>
        <time>2021-06-26T10:36:36Z</time>
      </trkpt>
      <trkpt lat="47.768" lon="7.00671">
        <ele>401</ele>
        <time>2021-06-26T10:36:39Z</time>
      </trkpt>
      <trkpt lat="47.76794" lon="7.00677">
        <ele>400.8</ele>
        <time>2021-06-26T10:36:40Z</time>
      </trkpt>
      <trkpt lat="47.76773" lon="7.007">
        <ele>400.6</ele>
        <time>2021-06-26T10:36:44Z</time>
      </trkpt>
      <trkpt lat="47.76755" lon="7.00712">
        <ele>400</ele>
        <time>2021-06-26T10:36:47Z</time>
      </trkpt>
      <trkpt lat="47.76732" lon="7.00726">
        <ele>399.4</ele>
        <time>2021-06-26T10:36:51Z</time>
      </trkpt>
      <trkpt lat="47.76724" lon="7.00728">
        <ele>399.4</ele>
        <time>2021-06-26T10:36:52Z</time>
      </trkpt>
      <trkpt lat="47.76703" lon="7.00732">
        <ele>399.2</ele>
        <time>2021-06-26T10:36:55Z</time>
      </trkpt>
      <trkpt lat="47.76689" lon="7.00732">
        <ele>399.2</ele>
        <time>2021-06-26T10:36:57Z</time>
      </trkpt>
      <trkpt lat="47.76674" lon="7.00735">
        <ele>399</ele>
        <time>2021-06-26T10:36:59Z</time>
      </trkpt>
      <trkpt lat="47.76651" lon="7.00742">
        <ele>399</ele>
        <time>2021-06-26T10:37:02Z</time>
      </trkpt>
      <trkpt lat="47.7661" lon="7.00753">
        <ele>398.2</ele>
        <time>2021-06-26T10:37:08Z</time>
      </trkpt>
      <trkpt lat="47.76604" lon="7.00755">
        <ele>398</ele>
        <time>2021-06-26T10:37:09Z</time>
      </trkpt>
      <trkpt lat="47.76597" lon="7.00757">
        <ele>397.8</ele>
        <time>2021-06-26T10:37:10Z</time>
      </trkpt>
      <trkpt lat="47.7659" lon="7.00761">
        <ele>397.8</ele>
        <time>2021-06-26T10:37:11Z</time>
      </trkpt>
      <trkpt lat="47.76537" lon="7.00792">
        <ele>396.4</ele>
        <time>2021-06-26T10:37:19Z</time>
      </trkpt>
      <trkpt lat="47.76491" lon="7.00819">
        <ele>396</ele>
        <time>2021-06-26T10:37:27Z</time>
      </trkpt>
      <trkpt lat="47.76446" lon="7.00846">
        <ele>396</ele>
        <time>2021-06-26T10:37:35Z</time>
      </trkpt>
      <trkpt lat="47.7641" lon="7.00871">
        <ele>396</ele>
        <time>2021-06-26T10:37:42Z</time>
      </trkpt>
      <trkpt lat="47.76378" lon="7.00899">
        <ele>396</ele>
        <time>2021-06-26T10:37:48Z</time>
      </trkpt>
      <trkpt lat="47.76357" lon="7.00918">
        <ele>396</ele>
        <time>2021-06-26T10:37:52Z</time>
      </trkpt>
      <trkpt lat="47.76351" lon="7.00924">
        <ele>396</ele>
        <time>2021-06-26T10:37:53Z</time>
      </trkpt>
      <trkpt lat="47.76346" lon="7.00929">
        <ele>396</ele>
        <time>2021-06-26T10:37:54Z</time>
      </trkpt>
      <trkpt lat="47.76334" lon="7.00941">
        <ele>396.4</ele>
        <time>2021-06-26T10:37:56Z</time>
      </trkpt>
      <trkpt lat="47.76317" lon="7.00957">
        <ele>396.6</ele>
        <time>2021-06-26T10:37:59Z</time>
      </trkpt>
      <trkpt lat="47.76278" lon="7.00996">
        <ele>396.2</ele>
        <time>2021-06-26T10:38:06Z</time>
      </trkpt>
      <trkpt lat="47.76235" lon="7.01032">
        <ele>395.4</ele>
        <time>2021-06-26T10:38:13Z</time>
      </trkpt>
      <trkpt lat="47.76229" lon="7.01037">
        <ele>395.4</ele>
        <time>2021-06-26T10:38:14Z</time>
      </trkpt>
      <trkpt lat="47.76188" lon="7.01063">
        <ele>394.4</ele>
        <time>2021-06-26T10:38:22Z</time>
      </trkpt>
      <trkpt lat="47.76132" lon="7.0109">
        <ele>393.6</ele>
        <time>2021-06-26T10:38:30Z</time>
      </trkpt>
      <trkpt lat="47.76132" lon="7.0109">
        <ele>393.6</ele>
        <time>2021-06-26T10:38:31Z</time>
      </trkpt>
      <trkpt lat="47.76114" lon="7.01099">
        <ele>393.2</ele>
        <time>2021-06-26T10:38:33Z</time>
      </trkpt>
      <trkpt lat="47.76114" lon="7.01099">
        <ele>393</ele>
        <time>2021-06-26T10:38:34Z</time>
      </trkpt>
      <trkpt lat="47.76101" lon="7.01103">
        <ele>393</ele>
        <time>2021-06-26T10:38:35Z</time>
      </trkpt>
      <trkpt lat="47.76082" lon="7.01108">
        <ele>392.4</ele>
        <time>2021-06-26T10:38:38Z</time>
      </trkpt>
      <trkpt lat="47.7607" lon="7.01111">
        <ele>392.2</ele>
        <time>2021-06-26T10:38:40Z</time>
      </trkpt>
      <trkpt lat="47.76044" lon="7.01115">
        <ele>391.6</ele>
        <time>2021-06-26T10:38:44Z</time>
      </trkpt>
      <trkpt lat="47.76008" lon="7.01125">
        <ele>391</ele>
        <time>2021-06-26T10:38:51Z</time>
      </trkpt>
      <trkpt lat="47.75962" lon="7.01151">
        <ele>391</ele>
        <time>2021-06-26T10:38:58Z</time>
      </trkpt>
      <trkpt lat="47.75921" lon="7.0118">
        <ele>391.2</ele>
        <time>2021-06-26T10:39:05Z</time>
      </trkpt>
      <trkpt lat="47.7591" lon="7.01189">
        <ele>391</ele>
        <time>2021-06-26T10:39:07Z</time>
      </trkpt>
      <trkpt lat="47.75877" lon="7.0122">
        <ele>390</ele>
        <time>2021-06-26T10:39:13Z</time>
      </trkpt>
      <trkpt lat="47.75877" lon="7.0122">
        <ele>390</ele>
        <time>2021-06-26T10:39:14Z</time>
      </trkpt>
      <trkpt lat="47.7585" lon="7.01257">
        <ele>389.8</ele>
        <time>2021-06-26T10:39:20Z</time>
      </trkpt>
      <trkpt lat="47.75826" lon="7.01306">
        <ele>389.2</ele>
        <time>2021-06-26T10:39:27Z</time>
      </trkpt>
      <trkpt lat="47.7582" lon="7.01321">
        <ele>389</ele>
        <time>2021-06-26T10:39:29Z</time>
      </trkpt>
      <trkpt lat="47.75791" lon="7.01389">
        <ele>388.8</ele>
        <time>2021-06-26T10:39:37Z</time>
      </trkpt>
      <trkpt lat="47.75773" lon="7.01447">
        <ele>388.6</ele>
        <time>2021-06-26T10:39:45Z</time>
      </trkpt>
      <trkpt lat="47.75758" lon="7.01531">
        <ele>388.2</ele>
        <time>2021-06-26T10:39:53Z</time>
      </trkpt>
      <trkpt lat="47.75754" lon="7.01549">
        <ele>388</ele>
        <time>2021-06-26T10:39:55Z</time>
      </trkpt>
      <trkpt lat="47.75734" lon="7.01621">
        <ele>387.2</ele>
        <time>2021-06-26T10:40:03Z</time>
      </trkpt>
      <trkpt lat="47.75723" lon="7.01646">
        <ele>386.8</ele>
        <time>2021-06-26T10:40:06Z</time>
      </trkpt>
      <trkpt lat="47.75718" lon="7.01664">
        <ele>386.6</ele>
        <time>2021-06-26T10:40:08Z</time>
      </trkpt>
      <trkpt lat="47.75718" lon="7.01664">
        <ele>386.6</ele>
        <time>2021-06-26T10:40:09Z</time>
      </trkpt>
      <trkpt lat="47.75713" lon="7.01682">
        <ele>386.6</ele>
        <time>2021-06-26T10:40:10Z</time>
      </trkpt>
      <trkpt lat="47.75705" lon="7.01708">
        <ele>386.2</ele>
        <time>2021-06-26T10:40:13Z</time>
      </trkpt>
      <trkpt lat="47.75691" lon="7.0175">
        <ele>385.8</ele>
        <time>2021-06-26T10:40:18Z</time>
      </trkpt>
      <trkpt lat="47.75681" lon="7.0179">
        <ele>385.6</ele>
        <time>2021-06-26T10:40:23Z</time>
      </trkpt>
      <trkpt lat="47.75678" lon="7.01823">
        <ele>385.6</ele>
        <time>2021-06-26T10:40:27Z</time>
      </trkpt>
      <trkpt lat="47.7568" lon="7.0183">
        <ele>385.4</ele>
        <time>2021-06-26T10:40:28Z</time>
      </trkpt>
      <trkpt lat="47.75688" lon="7.0184">
        <ele>385.2</ele>
        <time>2021-06-26T10:40:30Z</time>
      </trkpt>
      <trkpt lat="47.75697" lon="7.01852">
        <ele>385</ele>
        <time>2021-06-26T10:40:32Z</time>
      </trkpt>
      <trkpt lat="47.75697" lon="7.01852">
        <ele>384.8</ele>
        <time>2021-06-26T10:40:33Z</time>
      </trkpt>
      <trkpt lat="47.75701" lon="7.01859">
        <ele>384.6</ele>
        <time>2021-06-26T10:40:34Z</time>
      </trkpt>
      <trkpt lat="47.75715" lon="7.01889">
        <ele>384.4</ele>
        <time>2021-06-26T10:40:37Z</time>
      </trkpt>
      <trkpt lat="47.75732" lon="7.01936">
        <ele>384.2</ele>
        <time>2021-06-26T10:40:44Z</time>
      </trkpt>
      <trkpt lat="47.75748" lon="7.01974">
        <ele>383.8</ele>
        <time>2021-06-26T10:40:48Z</time>
      </trkpt>
      <trkpt lat="47.7576" lon="7.02003">
        <ele>383.8</ele>
        <time>2021-06-26T10:40:52Z</time>
      </trkpt>
      <trkpt lat="47.7577" lon="7.02035">
        <ele>384</ele>
        <time>2021-06-26T10:40:56Z</time>
      </trkpt>
      <trkpt lat="47.75777" lon="7.0206">
        <ele>383.8</ele>
        <time>2021-06-26T10:40:59Z</time>
      </trkpt>
      <trkpt lat="47.75783" lon="7.02111">
        <ele>383.2</ele>
        <time>2021-06-26T10:41:05Z</time>
      </trkpt>
      <trkpt lat="47.75783" lon="7.0212">
        <ele>383</ele>
        <time>2021-06-26T10:41:06Z</time>
      </trkpt>
      <trkpt lat="47.75783" lon="7.0218">
        <ele>383</ele>
        <time>2021-06-26T10:41:13Z</time>
      </trkpt>
      <trkpt lat="47.75773" lon="7.02258">
        <ele>383</ele>
        <time>2021-06-26T10:41:22Z</time>
      </trkpt>
      <trkpt lat="47.7577" lon="7.02278">
        <ele>382.8</ele>
        <time>2021-06-26T10:41:24Z</time>
      </trkpt>
      <trkpt lat="47.7576" lon="7.02355">
        <ele>382.4</ele>
        <time>2021-06-26T10:41:33Z</time>
      </trkpt>
      <trkpt lat="47.75762" lon="7.02408">
        <ele>382.2</ele>
        <time>2021-06-26T10:41:39Z</time>
      </trkpt>
      <trkpt lat="47.75763" lon="7.02416">
        <ele>382.2</ele>
        <time>2021-06-26T10:41:40Z</time>
      </trkpt>
      <trkpt lat="47.75767" lon="7.02442">
        <ele>382</ele>
        <time>2021-06-26T10:41:43Z</time>
      </trkpt>
      <trkpt lat="47.75775" lon="7.02485">
        <ele>381.2</ele>
        <time>2021-06-26T10:41:49Z</time>
      </trkpt>
      <trkpt lat="47.75778" lon="7.02501">
        <ele>381</ele>
        <time>2021-06-26T10:41:50Z</time>
      </trkpt>
      <trkpt lat="47.75792" lon="7.0256">
        <ele>380.6</ele>
        <time>2021-06-26T10:41:57Z</time>
      </trkpt>
      <trkpt lat="47.75809" lon="7.02633">
        <ele>381</ele>
        <time>2021-06-26T10:42:06Z</time>
      </trkpt>
      <trkpt lat="47.75829" lon="7.02716">
        <ele>380.6</ele>
        <time>2021-06-26T10:42:16Z</time>
      </trkpt>
      <trkpt lat="47.75833" lon="7.02733">
        <ele>380.6</ele>
        <time>2021-06-26T10:42:18Z</time>
      </trkpt>
      <trkpt lat="47.75837" lon="7.02777">
        <ele>380.2</ele>
        <time>2021-06-26T10:42:23Z</time>
      </trkpt>
      <trkpt lat="47.75836" lon="7.02804">
        <ele>380.2</ele>
        <time>2021-06-26T10:42:26Z</time>
      </trkpt>
      <trkpt lat="47.75834" lon="7.0283">
        <ele>380</ele>
        <time>2021-06-26T10:42:29Z</time>
      </trkpt>
      <trkpt lat="47.75824" lon="7.02892">
        <ele>379.8</ele>
        <time>2021-06-26T10:42:36Z</time>
      </trkpt>
      <trkpt lat="47.75816" lon="7.02946">
        <ele>379.2</ele>
        <time>2021-06-26T10:42:42Z</time>
      </trkpt>
      <trkpt lat="47.75813" lon="7.02964">
        <ele>379</ele>
        <time>2021-06-26T10:42:44Z</time>
      </trkpt>
      <trkpt lat="47.75801" lon="7.03033">
        <ele>378.4</ele>
        <time>2021-06-26T10:42:52Z</time>
      </trkpt>
      <trkpt lat="47.75798" lon="7.03041">
        <ele>378.2</ele>
        <time>2021-06-26T10:42:53Z</time>
      </trkpt>
      <trkpt lat="47.75795" lon="7.03048">
        <ele>378</ele>
        <time>2021-06-26T10:42:54Z</time>
      </trkpt>
      <trkpt lat="47.75784" lon="7.03082">
        <ele>377.4</ele>
        <time>2021-06-26T10:42:58Z</time>
      </trkpt>
      <trkpt lat="47.75776" lon="7.03107">
        <ele>377.2</ele>
        <time>2021-06-26T10:43:01Z</time>
      </trkpt>
      <trkpt lat="47.75773" lon="7.03115">
        <ele>377</ele>
        <time>2021-06-26T10:43:02Z</time>
      </trkpt>
      <trkpt lat="47.75766" lon="7.0313">
        <ele>376.8</ele>
        <time>2021-06-26T10:43:04Z</time>
      </trkpt>
      <trkpt lat="47.75763" lon="7.03138">
        <ele>376.8</ele>
        <time>2021-06-26T10:43:05Z</time>
      </trkpt>
      <trkpt lat="47.75755" lon="7.03171">
        <ele>376.6</ele>
        <time>2021-06-26T10:43:09Z</time>
      </trkpt>
      <trkpt lat="47.75743" lon="7.03232">
        <ele>376.4</ele>
        <time>2021-06-26T10:43:16Z</time>
      </trkpt>
      <trkpt lat="47.7574" lon="7.0325">
        <ele>376.2</ele>
        <time>2021-06-26T10:43:18Z</time>
      </trkpt>
      <trkpt lat="47.7573" lon="7.0332">
        <ele>375.8</ele>
        <time>2021-06-26T10:43:26Z</time>
      </trkpt>
      <trkpt lat="47.7572" lon="7.03409">
        <ele>375.2</ele>
        <time>2021-06-26T10:43:36Z</time>
      </trkpt>
      <trkpt lat="47.75719" lon="7.03418">
        <ele>375</ele>
        <time>2021-06-26T10:43:37Z</time>
      </trkpt>
      <trkpt lat="47.75719" lon="7.03437">
        <ele>374.8</ele>
        <time>2021-06-26T10:43:39Z</time>
      </trkpt>
      <trkpt lat="47.75721" lon="7.03474">
        <ele>374.4</ele>
        <time>2021-06-26T10:43:43Z</time>
      </trkpt>
      <trkpt lat="47.75724" lon="7.03501">
        <ele>374</ele>
        <time>2021-06-26T10:43:46Z</time>
      </trkpt>
      <trkpt lat="47.75731" lon="7.03546">
        <ele>373.6</ele>
        <time>2021-06-26T10:43:51Z</time>
      </trkpt>
      <trkpt lat="47.75739" lon="7.036">
        <ele>373</ele>
        <time>2021-06-26T10:43:57Z</time>
      </trkpt>
      <trkpt lat="47.75743" lon="7.03625">
        <ele>372.8</ele>
        <time>2021-06-26T10:44:01Z</time>
      </trkpt>
      <trkpt lat="47.75754" lon="7.03705">
        <ele>372.4</ele>
        <time>2021-06-26T10:44:09Z</time>
      </trkpt>
      <trkpt lat="47.75762" lon="7.03759">
        <ele>372</ele>
        <time>2021-06-26T10:44:15Z</time>
      </trkpt>
      <trkpt lat="47.75766" lon="7.03786">
        <ele>372</ele>
        <time>2021-06-26T10:44:19Z</time>
      </trkpt>
      <trkpt lat="47.75772" lon="7.03864">
        <ele>372</ele>
        <time>2021-06-26T10:44:27Z</time>
      </trkpt>
      <trkpt lat="47.75772" lon="7.03881">
        <ele>372.4</ele>
        <time>2021-06-26T10:44:29Z</time>
      </trkpt>
      <trkpt lat="47.7577" lon="7.03898">
        <ele>372.4</ele>
        <time>2021-06-26T10:44:31Z</time>
      </trkpt>
      <trkpt lat="47.75769" lon="7.03905">
        <ele>372.4</ele>
        <time>2021-06-26T10:44:33Z</time>
      </trkpt>
      <trkpt lat="47.75756" lon="7.03951">
        <ele>372.4</ele>
        <time>2021-06-26T10:44:39Z</time>
      </trkpt>
      <trkpt lat="47.75749" lon="7.03974">
        <ele>372.6</ele>
        <time>2021-06-26T10:44:45Z</time>
      </trkpt>
      <trkpt lat="47.75749" lon="7.03974">
        <ele>372.8</ele>
        <time>2021-06-26T10:44:46Z</time>
      </trkpt>
      <trkpt lat="47.75747" lon="7.0398">
        <ele>373.4</ele>
        <time>2021-06-26T10:46:26Z</time>
      </trkpt>
      <trkpt lat="47.75746" lon="7.0399">
        <ele>373.4</ele>
        <time>2021-06-26T10:46:29Z</time>
      </trkpt>
      <trkpt lat="47.7574" lon="7.04018">
        <ele>373.4</ele>
        <time>2021-06-26T10:46:34Z</time>
      </trkpt>
      <trkpt lat="47.7573" lon="7.04057">
        <ele>373</ele>
        <time>2021-06-26T10:46:41Z</time>
      </trkpt>
      <trkpt lat="47.75717" lon="7.04103">
        <ele>372.8</ele>
        <time>2021-06-26T10:46:48Z</time>
      </trkpt>
      <trkpt lat="47.75703" lon="7.04154">
        <ele>373</ele>
        <time>2021-06-26T10:46:55Z</time>
      </trkpt>
      <trkpt lat="47.75685" lon="7.04203">
        <ele>372.6</ele>
        <time>2021-06-26T10:47:02Z</time>
      </trkpt>
      <trkpt lat="47.75668" lon="7.04247">
        <ele>372.6</ele>
        <time>2021-06-26T10:47:08Z</time>
      </trkpt>
      <trkpt lat="47.75659" lon="7.0427">
        <ele>372.6</ele>
        <time>2021-06-26T10:47:11Z</time>
      </trkpt>
      <trkpt lat="47.75636" lon="7.04327">
        <ele>372.2</ele>
        <time>2021-06-26T10:47:19Z</time>
      </trkpt>
      <trkpt lat="47.75628" lon="7.04346">
        <ele>372</ele>
        <time>2021-06-26T10:47:22Z</time>
      </trkpt>
      <trkpt lat="47.75624" lon="7.04359">
        <ele>372</ele>
        <time>2021-06-26T10:47:24Z</time>
      </trkpt>
      <trkpt lat="47.75602" lon="7.04416">
        <ele>372</ele>
        <time>2021-06-26T10:47:32Z</time>
      </trkpt>
      <trkpt lat="47.75593" lon="7.04439">
        <ele>372</ele>
        <time>2021-06-26T10:47:35Z</time>
      </trkpt>
      <trkpt lat="47.7558" lon="7.04475">
        <ele>372.2</ele>
        <time>2021-06-26T10:47:40Z</time>
      </trkpt>
      <trkpt lat="47.75564" lon="7.04516">
        <ele>372.6</ele>
        <time>2021-06-26T10:47:46Z</time>
      </trkpt>
      <trkpt lat="47.75537" lon="7.04586">
        <ele>372.8</ele>
        <time>2021-06-26T10:47:55Z</time>
      </trkpt>
      <trkpt lat="47.7552" lon="7.04633">
        <ele>372.8</ele>
        <time>2021-06-26T10:48:01Z</time>
      </trkpt>
      <trkpt lat="47.75517" lon="7.0464">
        <ele>372.8</ele>
        <time>2021-06-26T10:48:02Z</time>
      </trkpt>
      <trkpt lat="47.75514" lon="7.04647">
        <ele>372.8</ele>
        <time>2021-06-26T10:48:03Z</time>
      </trkpt>
      <trkpt lat="47.75487" lon="7.04719">
        <ele>372.8</ele>
        <time>2021-06-26T10:48:12Z</time>
      </trkpt>
      <trkpt lat="47.75484" lon="7.04726">
        <ele>372.8</ele>
        <time>2021-06-26T10:48:13Z</time>
      </trkpt>
      <trkpt lat="47.75468" lon="7.04766">
        <ele>372.6</ele>
        <time>2021-06-26T10:48:19Z</time>
      </trkpt>
      <trkpt lat="47.75457" lon="7.04794">
        <ele>372.6</ele>
        <time>2021-06-26T10:48:24Z</time>
      </trkpt>
      <trkpt lat="47.75449" lon="7.04817">
        <ele>372.6</ele>
        <time>2021-06-26T10:48:26Z</time>
      </trkpt>
      <trkpt lat="47.75423" lon="7.04885">
        <ele>372.8</ele>
        <time>2021-06-26T10:48:35Z</time>
      </trkpt>
      <trkpt lat="47.75405" lon="7.0493">
        <ele>372.8</ele>
        <time>2021-06-26T10:48:41Z</time>
      </trkpt>
      <trkpt lat="47.75394" lon="7.04959">
        <ele>372.6</ele>
        <time>2021-06-26T10:48:45Z</time>
      </trkpt>
      <trkpt lat="47.7538" lon="7.04995">
        <ele>372.4</ele>
        <time>2021-06-26T10:48:50Z</time>
      </trkpt>
      <trkpt lat="47.75367" lon="7.05035">
        <ele>372.4</ele>
        <time>2021-06-26T10:48:57Z</time>
      </trkpt>
      <trkpt lat="47.75367" lon="7.0506">
        <ele>372.4</ele>
        <time>2021-06-26T10:49:03Z</time>
      </trkpt>
      <trkpt lat="47.75352" lon="7.05092">
        <ele>373.2</ele>
        <time>2021-06-26T10:49:09Z</time>
      </trkpt>
      <trkpt lat="47.75344" lon="7.05116">
        <ele>373.6</ele>
        <time>2021-06-26T10:49:12Z</time>
      </trkpt>
      <trkpt lat="47.7534" lon="7.05133">
        <ele>373.4</ele>
        <time>2021-06-26T10:49:14Z</time>
      </trkpt>
      <trkpt lat="47.75324" lon="7.052">
        <ele>373.2</ele>
        <time>2021-06-26T10:49:22Z</time>
      </trkpt>
      <trkpt lat="47.75309" lon="7.05278">
        <ele>373</ele>
        <time>2021-06-26T10:49:31Z</time>
      </trkpt>
      <trkpt lat="47.75308" lon="7.05287">
        <ele>373</ele>
        <time>2021-06-26T10:49:32Z</time>
      </trkpt>
      <trkpt lat="47.753" lon="7.05329">
        <ele>372.6</ele>
        <time>2021-06-26T10:49:37Z</time>
      </trkpt>
      <trkpt lat="47.75296" lon="7.05345">
        <ele>372.6</ele>
        <time>2021-06-26T10:49:39Z</time>
      </trkpt>
      <trkpt lat="47.75291" lon="7.05375">
        <ele>372.4</ele>
        <time>2021-06-26T10:49:43Z</time>
      </trkpt>
      <trkpt lat="47.75291" lon="7.05391">
        <ele>372</ele>
        <time>2021-06-26T10:49:45Z</time>
      </trkpt>
      <trkpt lat="47.75291" lon="7.05396">
        <ele>371.8</ele>
        <time>2021-06-26T10:49:46Z</time>
      </trkpt>
      <trkpt lat="47.75289" lon="7.05407">
        <ele>371.4</ele>
        <time>2021-06-26T10:49:48Z</time>
      </trkpt>
      <trkpt lat="47.75283" lon="7.05416">
        <ele>371.2</ele>
        <time>2021-06-26T10:49:50Z</time>
      </trkpt>
      <trkpt lat="47.75281" lon="7.0543">
        <ele>371</ele>
        <time>2021-06-26T10:49:52Z</time>
      </trkpt>
      <trkpt lat="47.75279" lon="7.05466">
        <ele>370.2</ele>
        <time>2021-06-26T10:49:56Z</time>
      </trkpt>
      <trkpt lat="47.75279" lon="7.05466">
        <ele>370</ele>
        <time>2021-06-26T10:49:57Z</time>
      </trkpt>
      <trkpt lat="47.75274" lon="7.05531">
        <ele>369.4</ele>
        <time>2021-06-26T10:50:03Z</time>
      </trkpt>
      <trkpt lat="47.75274" lon="7.0554">
        <ele>369.2</ele>
        <time>2021-06-26T10:50:04Z</time>
      </trkpt>
      <trkpt lat="47.75268" lon="7.05584">
        <ele>368.6</ele>
        <time>2021-06-26T10:50:09Z</time>
      </trkpt>
      <trkpt lat="47.75267" lon="7.05603">
        <ele>368.6</ele>
        <time>2021-06-26T10:50:11Z</time>
      </trkpt>
      <trkpt lat="47.75261" lon="7.05666">
        <ele>368.4</ele>
        <time>2021-06-26T10:50:18Z</time>
      </trkpt>
      <trkpt lat="47.75253" lon="7.05708">
        <ele>368.2</ele>
        <time>2021-06-26T10:50:24Z</time>
      </trkpt>
      <trkpt lat="47.75245" lon="7.05751">
        <ele>368</ele>
        <time>2021-06-26T10:50:30Z</time>
      </trkpt>
      <trkpt lat="47.75236" lon="7.05812">
        <ele>368</ele>
        <time>2021-06-26T10:50:36Z</time>
      </trkpt>
      <trkpt lat="47.75228" lon="7.05873">
        <ele>367.4</ele>
        <time>2021-06-26T10:50:43Z</time>
      </trkpt>
      <trkpt lat="47.75222" lon="7.05925">
        <ele>367.2</ele>
        <time>2021-06-26T10:50:49Z</time>
      </trkpt>
      <trkpt lat="47.75213" lon="7.05992">
        <ele>367</ele>
        <time>2021-06-26T10:50:57Z</time>
      </trkpt>
      <trkpt lat="47.75205" lon="7.06052">
        <ele>367</ele>
        <time>2021-06-26T10:51:04Z</time>
      </trkpt>
      <trkpt lat="47.75195" lon="7.06132">
        <ele>367</ele>
        <time>2021-06-26T10:51:13Z</time>
      </trkpt>
      <trkpt lat="47.75195" lon="7.0614">
        <ele>367</ele>
        <time>2021-06-26T10:51:14Z</time>
      </trkpt>
      <trkpt lat="47.75193" lon="7.06196">
        <ele>366.4</ele>
        <time>2021-06-26T10:51:20Z</time>
      </trkpt>
      <trkpt lat="47.75193" lon="7.06207">
        <ele>366.4</ele>
        <time>2021-06-26T10:51:21Z</time>
      </trkpt>
      <trkpt lat="47.75191" lon="7.06291">
        <ele>365.6</ele>
        <time>2021-06-26T10:51:30Z</time>
      </trkpt>
      <trkpt lat="47.75191" lon="7.06291">
        <ele>365.2</ele>
        <time>2021-06-26T10:51:31Z</time>
      </trkpt>
      <trkpt lat="47.7519" lon="7.06377">
        <ele>364.6</ele>
        <time>2021-06-26T10:51:39Z</time>
      </trkpt>
      <trkpt lat="47.75189" lon="7.06396">
        <ele>364.2</ele>
        <time>2021-06-26T10:51:41Z</time>
      </trkpt>
      <trkpt lat="47.75188" lon="7.06463">
        <ele>363.6</ele>
        <time>2021-06-26T10:51:48Z</time>
      </trkpt>
      <trkpt lat="47.75187" lon="7.06501">
        <ele>363.4</ele>
        <time>2021-06-26T10:51:52Z</time>
      </trkpt>
      <trkpt lat="47.75187" lon="7.0651">
        <ele>363.2</ele>
        <time>2021-06-26T10:51:53Z</time>
      </trkpt>
      <trkpt lat="47.75186" lon="7.06539">
        <ele>363.2</ele>
        <time>2021-06-26T10:51:56Z</time>
      </trkpt>
      <trkpt lat="47.75185" lon="7.06627">
        <ele>362.6</ele>
        <time>2021-06-26T10:52:05Z</time>
      </trkpt>
      <trkpt lat="47.75185" lon="7.06637">
        <ele>362.4</ele>
        <time>2021-06-26T10:52:06Z</time>
      </trkpt>
      <trkpt lat="47.75183" lon="7.06721">
        <ele>361.4</ele>
        <time>2021-06-26T10:52:15Z</time>
      </trkpt>
      <trkpt lat="47.75183" lon="7.0673">
        <ele>361.4</ele>
        <time>2021-06-26T10:52:16Z</time>
      </trkpt>
      <trkpt lat="47.75183" lon="7.0674">
        <ele>361.2</ele>
        <time>2021-06-26T10:52:17Z</time>
      </trkpt>
      <trkpt lat="47.75181" lon="7.06805">
        <ele>360.2</ele>
        <time>2021-06-26T10:52:24Z</time>
      </trkpt>
      <trkpt lat="47.75181" lon="7.06824">
        <ele>360.2</ele>
        <time>2021-06-26T10:52:26Z</time>
      </trkpt>
      <trkpt lat="47.7518" lon="7.06907">
        <ele>359.8</ele>
        <time>2021-06-26T10:52:35Z</time>
      </trkpt>
      <trkpt lat="47.75179" lon="7.06926">
        <ele>359.6</ele>
        <time>2021-06-26T10:52:37Z</time>
      </trkpt>
      <trkpt lat="47.75179" lon="7.06935">
        <ele>359.6</ele>
        <time>2021-06-26T10:52:38Z</time>
      </trkpt>
      <trkpt lat="47.75178" lon="7.07007">
        <ele>359.4</ele>
        <time>2021-06-26T10:52:46Z</time>
      </trkpt>
      <trkpt lat="47.75178" lon="7.07026">
        <ele>359.4</ele>
        <time>2021-06-26T10:52:48Z</time>
      </trkpt>
      <trkpt lat="47.75177" lon="7.07079">
        <ele>359.2</ele>
        <time>2021-06-26T10:52:54Z</time>
      </trkpt>
      <trkpt lat="47.75176" lon="7.07161">
        <ele>359</ele>
        <time>2021-06-26T10:53:03Z</time>
      </trkpt>
      <trkpt lat="47.75175" lon="7.07198">
        <ele>358.8</ele>
        <time>2021-06-26T10:53:07Z</time>
      </trkpt>
      <trkpt lat="47.75174" lon="7.07255">
        <ele>358.4</ele>
        <time>2021-06-26T10:53:13Z</time>
      </trkpt>
      <trkpt lat="47.75174" lon="7.07264">
        <ele>358.2</ele>
        <time>2021-06-26T10:53:14Z</time>
      </trkpt>
      <trkpt lat="47.75173" lon="7.07283">
        <ele>357.8</ele>
        <time>2021-06-26T10:53:16Z</time>
      </trkpt>
      <trkpt lat="47.75172" lon="7.07329">
        <ele>357.2</ele>
        <time>2021-06-26T10:53:21Z</time>
      </trkpt>
      <trkpt lat="47.75172" lon="7.07348">
        <ele>357</ele>
        <time>2021-06-26T10:53:23Z</time>
      </trkpt>
      <trkpt lat="47.7517" lon="7.07423">
        <ele>356.4</ele>
        <time>2021-06-26T10:53:31Z</time>
      </trkpt>
      <trkpt lat="47.75169" lon="7.07433">
        <ele>356.4</ele>
        <time>2021-06-26T10:53:32Z</time>
      </trkpt>
      <trkpt lat="47.75167" lon="7.07502">
        <ele>356</ele>
        <time>2021-06-26T10:53:39Z</time>
      </trkpt>
      <trkpt lat="47.75163" lon="7.0755">
        <ele>355.2</ele>
        <time>2021-06-26T10:53:44Z</time>
      </trkpt>
      <trkpt lat="47.75158" lon="7.07617">
        <ele>354</ele>
        <time>2021-06-26T10:53:51Z</time>
      </trkpt>
      <trkpt lat="47.75157" lon="7.07624">
        <ele>354</ele>
        <time>2021-06-26T10:53:52Z</time>
      </trkpt>
      <trkpt lat="47.75152" lon="7.07682">
        <ele>353</ele>
        <time>2021-06-26T10:53:58Z</time>
      </trkpt>
      <trkpt lat="47.75148" lon="7.0772">
        <ele>352.8</ele>
        <time>2021-06-26T10:54:02Z</time>
      </trkpt>
      <trkpt lat="47.7514" lon="7.07786">
        <ele>352</ele>
        <time>2021-06-26T10:54:09Z</time>
      </trkpt>
      <trkpt lat="47.75135" lon="7.07824">
        <ele>351.6</ele>
        <time>2021-06-26T10:54:13Z</time>
      </trkpt>
      <trkpt lat="47.75127" lon="7.07881">
        <ele>350.8</ele>
        <time>2021-06-26T10:54:19Z</time>
      </trkpt>
      <trkpt lat="47.75122" lon="7.07909">
        <ele>350.8</ele>
        <time>2021-06-26T10:54:22Z</time>
      </trkpt>
      <trkpt lat="47.75109" lon="7.07984">
        <ele>350</ele>
        <time>2021-06-26T10:54:30Z</time>
      </trkpt>
      <trkpt lat="47.75094" lon="7.08067">
        <ele>349</ele>
        <time>2021-06-26T10:54:39Z</time>
      </trkpt>
      <trkpt lat="47.75092" lon="7.08076">
        <ele>349</ele>
        <time>2021-06-26T10:54:40Z</time>
      </trkpt>
      <trkpt lat="47.75079" lon="7.08138">
        <ele>348.4</ele>
        <time>2021-06-26T10:54:47Z</time>
      </trkpt>
      <trkpt lat="47.75074" lon="7.08166">
        <ele>348.2</ele>
        <time>2021-06-26T10:54:50Z</time>
      </trkpt>
      <trkpt lat="47.75069" lon="7.08193">
        <ele>348</ele>
        <time>2021-06-26T10:54:53Z</time>
      </trkpt>
      <trkpt lat="47.75053" lon="7.08265">
        <ele>346.8</ele>
        <time>2021-06-26T10:55:01Z</time>
      </trkpt>
      <trkpt lat="47.75038" lon="7.08335">
        <ele>345.8</ele>
        <time>2021-06-26T10:55:09Z</time>
      </trkpt>
      <trkpt lat="47.75021" lon="7.08413">
        <ele>345.2</ele>
        <time>2021-06-26T10:55:18Z</time>
      </trkpt>
      <trkpt lat="47.7502" lon="7.08422">
        <ele>345.2</ele>
        <time>2021-06-26T10:55:19Z</time>
      </trkpt>
      <trkpt lat="47.75007" lon="7.08479">
        <ele>344.8</ele>
        <time>2021-06-26T10:55:26Z</time>
      </trkpt>
      <trkpt lat="47.74991" lon="7.08557">
        <ele>344</ele>
        <time>2021-06-26T10:55:35Z</time>
      </trkpt>
      <trkpt lat="47.7499" lon="7.08566">
        <ele>344</ele>
        <time>2021-06-26T10:55:36Z</time>
      </trkpt>
      <trkpt lat="47.74978" lon="7.08627">
        <ele>343.8</ele>
        <time>2021-06-26T10:55:43Z</time>
      </trkpt>
      <trkpt lat="47.74974" lon="7.08645">
        <ele>343.8</ele>
        <time>2021-06-26T10:55:45Z</time>
      </trkpt>
      <trkpt lat="47.74966" lon="7.08688">
        <ele>343.4</ele>
        <time>2021-06-26T10:55:50Z</time>
      </trkpt>
      <trkpt lat="47.74951" lon="7.08756">
        <ele>342.6</ele>
        <time>2021-06-26T10:55:58Z</time>
      </trkpt>
      <trkpt lat="47.74949" lon="7.08765">
        <ele>342.6</ele>
        <time>2021-06-26T10:55:59Z</time>
      </trkpt>
      <trkpt lat="47.74937" lon="7.08827">
        <ele>342.2</ele>
        <time>2021-06-26T10:56:06Z</time>
      </trkpt>
      <trkpt lat="47.74926" lon="7.08876">
        <ele>342</ele>
        <time>2021-06-26T10:56:12Z</time>
      </trkpt>
      <trkpt lat="47.74924" lon="7.08884">
        <ele>341.8</ele>
        <time>2021-06-26T10:56:13Z</time>
      </trkpt>
      <trkpt lat="47.74922" lon="7.08893">
        <ele>341.8</ele>
        <time>2021-06-26T10:56:14Z</time>
      </trkpt>
      <trkpt lat="47.74919" lon="7.08908">
        <ele>341.4</ele>
        <time>2021-06-26T10:56:16Z</time>
      </trkpt>
      <trkpt lat="47.74916" lon="7.08924">
        <ele>341.2</ele>
        <time>2021-06-26T10:56:18Z</time>
      </trkpt>
      <trkpt lat="47.74906" lon="7.08971">
        <ele>340.8</ele>
        <time>2021-06-26T10:56:24Z</time>
      </trkpt>
      <trkpt lat="47.74903" lon="7.08986">
        <ele>340.6</ele>
        <time>2021-06-26T10:56:26Z</time>
      </trkpt>
      <trkpt lat="47.74889" lon="7.09044">
        <ele>340.2</ele>
        <time>2021-06-26T10:56:34Z</time>
      </trkpt>
      <trkpt lat="47.74876" lon="7.09098">
        <ele>339.8</ele>
        <time>2021-06-26T10:56:41Z</time>
      </trkpt>
      <trkpt lat="47.74862" lon="7.09138">
        <ele>339.8</ele>
        <time>2021-06-26T10:56:47Z</time>
      </trkpt>
      <trkpt lat="47.7486" lon="7.09144">
        <ele>339.8</ele>
        <time>2021-06-26T10:56:48Z</time>
      </trkpt>
      <trkpt lat="47.74858" lon="7.0915">
        <ele>339.8</ele>
        <time>2021-06-26T10:56:49Z</time>
      </trkpt>
      <trkpt lat="47.74851" lon="7.09181">
        <ele>340</ele>
        <time>2021-06-26T10:56:54Z</time>
      </trkpt>
      <trkpt lat="47.74846" lon="7.09207">
        <ele>340.4</ele>
        <time>2021-06-26T10:56:59Z</time>
      </trkpt>
      <trkpt lat="47.74843" lon="7.09209">
        <ele>340.4</ele>
        <time>2021-06-26T10:57:00Z</time>
      </trkpt>
      <trkpt lat="47.74827" lon="7.09207">
        <ele>340.8</ele>
        <time>2021-06-26T10:57:04Z</time>
      </trkpt>
      <trkpt lat="47.74821" lon="7.09202">
        <ele>340.8</ele>
        <time>2021-06-26T10:57:06Z</time>
      </trkpt>
      <trkpt lat="47.74818" lon="7.092">
        <ele>340.8</ele>
        <time>2021-06-26T10:57:07Z</time>
      </trkpt>
      <trkpt lat="47.74815" lon="7.09203">
        <ele>340.8</ele>
        <time>2021-06-26T10:57:09Z</time>
      </trkpt>
      <trkpt lat="47.74819" lon="7.09207">
        <ele>341</ele>
        <time>2021-06-26T10:57:12Z</time>
      </trkpt>
      <trkpt lat="47.7482" lon="7.09208">
        <ele>341</ele>
        <time>2021-06-26T10:57:13Z</time>
      </trkpt>
      <trkpt lat="47.74822" lon="7.09209">
        <ele>341</ele>
        <time>2021-06-26T10:57:16Z</time>
      </trkpt>
      <trkpt lat="47.74824" lon="7.09209">
        <ele>341</ele>
        <time>2021-06-26T10:57:25Z</time>
      </trkpt>
      <trkpt lat="47.74843" lon="7.09213">
        <ele>340.8</ele>
        <time>2021-06-26T10:57:31Z</time>
      </trkpt>
      <trkpt lat="47.74861" lon="7.09214">
        <ele>340.6</ele>
        <time>2021-06-26T10:57:36Z</time>
      </trkpt>
      <trkpt lat="47.74881" lon="7.09222">
        <ele>340.6</ele>
        <time>2021-06-26T10:57:41Z</time>
      </trkpt>
      <trkpt lat="47.74886" lon="7.09225">
        <ele>340.4</ele>
        <time>2021-06-26T10:57:42Z</time>
      </trkpt>
      <trkpt lat="47.74895" lon="7.09234">
        <ele>340.4</ele>
        <time>2021-06-26T10:57:44Z</time>
      </trkpt>
      <trkpt lat="47.74903" lon="7.09247">
        <ele>340.2</ele>
        <time>2021-06-26T10:57:46Z</time>
      </trkpt>
      <trkpt lat="47.74911" lon="7.0926">
        <ele>340</ele>
        <time>2021-06-26T10:57:48Z</time>
      </trkpt>
      <trkpt lat="47.74932" lon="7.09289">
        <ele>339</ele>
        <time>2021-06-26T10:57:53Z</time>
      </trkpt>
      <trkpt lat="47.74941" lon="7.09299">
        <ele>338.8</ele>
        <time>2021-06-26T10:57:55Z</time>
      </trkpt>
      <trkpt lat="47.74945" lon="7.09304">
        <ele>338.8</ele>
        <time>2021-06-26T10:57:56Z</time>
      </trkpt>
      <trkpt lat="47.7496" lon="7.09317">
        <ele>338.8</ele>
        <time>2021-06-26T10:57:59Z</time>
      </trkpt>
      <trkpt lat="47.74989" lon="7.09338">
        <ele>338.8</ele>
        <time>2021-06-26T10:58:05Z</time>
      </trkpt>
      <trkpt lat="47.75019" lon="7.09343">
        <ele>338.6</ele>
        <time>2021-06-26T10:58:11Z</time>
      </trkpt>
      <trkpt lat="47.75041" lon="7.09336">
        <ele>339</ele>
        <time>2021-06-26T10:58:16Z</time>
      </trkpt>
      <trkpt lat="47.75054" lon="7.09331">
        <ele>339</ele>
        <time>2021-06-26T10:58:19Z</time>
      </trkpt>
      <trkpt lat="47.75065" lon="7.09328">
        <ele>339.2</ele>
        <time>2021-06-26T10:58:22Z</time>
      </trkpt>
      <trkpt lat="47.7507" lon="7.09331">
        <ele>339.2</ele>
        <time>2021-06-26T10:58:24Z</time>
      </trkpt>
      <trkpt lat="47.75072" lon="7.09334">
        <ele>339.2</ele>
        <time>2021-06-26T10:58:25Z</time>
      </trkpt>
      <trkpt lat="47.75079" lon="7.09345">
        <ele>339.4</ele>
        <time>2021-06-26T10:58:31Z</time>
      </trkpt>
      <trkpt lat="47.75079" lon="7.09345">
        <ele>339.4</ele>
        <time>2021-06-26T10:58:33Z</time>
      </trkpt>
    </trkseg>
  </trk>
</gpx>